<?xml version="1.0" encoding="UTF-8" standalone="no" ?>
<gpx xmlns="http://www.topografix.com/GPX/1/1" xmlns:xsi="http://www.w3.org/2001/XMLSchema-instance" xsi:schemaLocation="http://www.topografix.com/GPX/1/1 http://www.topografix.com/GPX/1/1/gpx.xsd" version="1.1" creator="VisuGPX - https://www.visugpx.com">
  <metadata>
    <name>Randonnée Stade des Violettes</name>
    <desc><![CDATA[Circuit au départ du stade des vilolettes de Darnétal Retour en passant par Fontaine sous Préaux et Roncherolles]]></desc>
  </metadata>
  <trk>
    <name><![CDATA[Randonnée Stade des Violettes_1]]></name>
    <trkseg>
      <trkpt lat="49.44427" lon="1.1611">
        <ele>48</ele>
        <time>2017-01-24T13:47:55Z</time>
      </trkpt>
      <trkpt lat="49.44427" lon="1.16111">
        <ele>48</ele>
        <time>2017-01-24T13:47:55Z</time>
      </trkpt>
      <trkpt lat="49.44427" lon="1.16111">
        <ele>48</ele>
        <time>2017-01-24T13:47:55Z</time>
      </trkpt>
      <trkpt lat="49.44429" lon="1.16116">
        <ele>48</ele>
        <time>2017-01-24T13:47:55Z</time>
      </trkpt>
      <trkpt lat="49.44429" lon="1.16127">
        <ele>49</ele>
        <time>2017-01-24T13:47:55Z</time>
      </trkpt>
      <trkpt lat="49.44431" lon="1.16134">
        <ele>49</ele>
        <time>2017-01-24T13:48:11Z</time>
      </trkpt>
      <trkpt lat="49.44434" lon="1.16142">
        <ele>49</ele>
        <time>2017-01-24T13:48:11Z</time>
      </trkpt>
      <trkpt lat="49.44434" lon="1.1615">
        <ele>49</ele>
        <time>2017-01-24T13:48:11Z</time>
      </trkpt>
      <trkpt lat="49.44435" lon="1.16158">
        <ele>49</ele>
        <time>2017-01-24T13:48:11Z</time>
      </trkpt>
      <trkpt lat="49.44436" lon="1.16166">
        <ele>49</ele>
        <time>2017-01-24T13:48:27Z</time>
      </trkpt>
      <trkpt lat="49.44437" lon="1.16174">
        <ele>49</ele>
        <time>2017-01-24T13:48:27Z</time>
      </trkpt>
      <trkpt lat="49.44438" lon="1.16178">
        <ele>49</ele>
        <time>2017-01-24T13:48:27Z</time>
      </trkpt>
      <trkpt lat="49.44442" lon="1.16185">
        <ele>49</ele>
        <time>2017-01-24T13:48:27Z</time>
      </trkpt>
      <trkpt lat="49.44445" lon="1.16192">
        <ele>49</ele>
        <time>2017-01-24T13:48:43Z</time>
      </trkpt>
      <trkpt lat="49.44447" lon="1.16201">
        <ele>49</ele>
        <time>2017-01-24T13:48:43Z</time>
      </trkpt>
      <trkpt lat="49.44447" lon="1.16209">
        <ele>51</ele>
        <time>2017-01-24T13:48:43Z</time>
      </trkpt>
      <trkpt lat="49.44448" lon="1.16217">
        <ele>51</ele>
        <time>2017-01-24T13:48:43Z</time>
      </trkpt>
      <trkpt lat="49.44451" lon="1.16227">
        <ele>51</ele>
        <time>2017-01-24T13:48:59Z</time>
      </trkpt>
      <trkpt lat="49.44453" lon="1.16229">
        <ele>51</ele>
        <time>2017-01-24T13:48:59Z</time>
      </trkpt>
      <trkpt lat="49.44456" lon="1.16238">
        <ele>51</ele>
        <time>2017-01-24T13:49:00Z</time>
      </trkpt>
      <trkpt lat="49.44458" lon="1.16246">
        <ele>51</ele>
        <time>2017-01-24T13:49:00Z</time>
      </trkpt>
      <trkpt lat="49.44459" lon="1.16249">
        <ele>64</ele>
        <time>2017-01-24T13:49:15Z</time>
      </trkpt>
      <trkpt lat="49.44463" lon="1.16259">
        <ele>64</ele>
        <time>2017-01-24T13:49:15Z</time>
      </trkpt>
      <trkpt lat="49.44465" lon="1.16266">
        <ele>64</ele>
        <time>2017-01-24T13:49:15Z</time>
      </trkpt>
      <trkpt lat="49.44469" lon="1.16272">
        <ele>64</ele>
        <time>2017-01-24T13:49:15Z</time>
      </trkpt>
      <trkpt lat="49.44472" lon="1.16278">
        <ele>64</ele>
        <time>2017-01-24T13:49:31Z</time>
      </trkpt>
      <trkpt lat="49.44474" lon="1.16286">
        <ele>64</ele>
        <time>2017-01-24T13:49:31Z</time>
      </trkpt>
      <trkpt lat="49.44477" lon="1.16292">
        <ele>60</ele>
        <time>2017-01-24T13:49:32Z</time>
      </trkpt>
      <trkpt lat="49.4448" lon="1.163">
        <ele>60</ele>
        <time>2017-01-24T13:49:32Z</time>
      </trkpt>
      <trkpt lat="49.44484" lon="1.16306">
        <ele>60</ele>
        <time>2017-01-24T13:49:47Z</time>
      </trkpt>
      <trkpt lat="49.44486" lon="1.16317">
        <ele>60</ele>
        <time>2017-01-24T13:49:47Z</time>
      </trkpt>
      <trkpt lat="49.44487" lon="1.16323">
        <ele>60</ele>
        <time>2017-01-24T13:49:47Z</time>
      </trkpt>
      <trkpt lat="49.44493" lon="1.16329">
        <ele>60</ele>
        <time>2017-01-24T13:49:47Z</time>
      </trkpt>
      <trkpt lat="49.44497" lon="1.16335">
        <ele>60</ele>
        <time>2017-01-24T13:50:04Z</time>
      </trkpt>
      <trkpt lat="49.44499" lon="1.16339">
        <ele>60</ele>
        <time>2017-01-24T13:50:04Z</time>
      </trkpt>
      <trkpt lat="49.44502" lon="1.16348">
        <ele>60</ele>
        <time>2017-01-24T13:50:04Z</time>
      </trkpt>
      <trkpt lat="49.44504" lon="1.16356">
        <ele>60</ele>
        <time>2017-01-24T13:50:04Z</time>
      </trkpt>
      <trkpt lat="49.44507" lon="1.1636">
        <ele>60</ele>
        <time>2017-01-24T13:50:21Z</time>
      </trkpt>
      <trkpt lat="49.4451" lon="1.16367">
        <ele>60</ele>
        <time>2017-01-24T13:50:21Z</time>
      </trkpt>
      <trkpt lat="49.44512" lon="1.16373">
        <ele>60</ele>
        <time>2017-01-24T13:50:21Z</time>
      </trkpt>
      <trkpt lat="49.44515" lon="1.16384">
        <ele>57</ele>
        <time>2017-01-24T13:50:21Z</time>
      </trkpt>
      <trkpt lat="49.44518" lon="1.16389">
        <ele>57</ele>
        <time>2017-01-24T13:50:35Z</time>
      </trkpt>
      <trkpt lat="49.4452" lon="1.16404">
        <ele>57</ele>
        <time>2017-01-24T13:50:35Z</time>
      </trkpt>
      <trkpt lat="49.44521" lon="1.16418">
        <ele>57</ele>
        <time>2017-01-24T13:50:35Z</time>
      </trkpt>
      <trkpt lat="49.44522" lon="1.16422">
        <ele>57</ele>
        <time>2017-01-24T13:50:35Z</time>
      </trkpt>
      <trkpt lat="49.44526" lon="1.16431">
        <ele>57</ele>
        <time>2017-01-24T13:50:52Z</time>
      </trkpt>
      <trkpt lat="49.44529" lon="1.1644">
        <ele>57</ele>
        <time>2017-01-24T13:50:52Z</time>
      </trkpt>
      <trkpt lat="49.44531" lon="1.16445">
        <ele>57</ele>
        <time>2017-01-24T13:50:52Z</time>
      </trkpt>
      <trkpt lat="49.44533" lon="1.1645">
        <ele>57</ele>
        <time>2017-01-24T13:50:52Z</time>
      </trkpt>
      <trkpt lat="49.44533" lon="1.16458">
        <ele>57</ele>
        <time>2017-01-24T13:51:07Z</time>
      </trkpt>
      <trkpt lat="49.44536" lon="1.16463">
        <ele>61</ele>
        <time>2017-01-24T13:51:07Z</time>
      </trkpt>
      <trkpt lat="49.44537" lon="1.16472">
        <ele>61</ele>
        <time>2017-01-24T13:51:07Z</time>
      </trkpt>
      <trkpt lat="49.44539" lon="1.16477">
        <ele>61</ele>
        <time>2017-01-24T13:51:07Z</time>
      </trkpt>
      <trkpt lat="49.44542" lon="1.16482">
        <ele>73</ele>
        <time>2017-01-24T13:51:23Z</time>
      </trkpt>
      <trkpt lat="49.44544" lon="1.1649">
        <ele>73</ele>
        <time>2017-01-24T13:51:23Z</time>
      </trkpt>
      <trkpt lat="49.44547" lon="1.16494">
        <ele>73</ele>
        <time>2017-01-24T13:51:23Z</time>
      </trkpt>
      <trkpt lat="49.4455" lon="1.16502">
        <ele>73</ele>
        <time>2017-01-24T13:51:23Z</time>
      </trkpt>
      <trkpt lat="49.44551" lon="1.16511">
        <ele>73</ele>
        <time>2017-01-24T13:51:40Z</time>
      </trkpt>
      <trkpt lat="49.44553" lon="1.16519">
        <ele>73</ele>
        <time>2017-01-24T13:51:40Z</time>
      </trkpt>
      <trkpt lat="49.44554" lon="1.16529">
        <ele>73</ele>
        <time>2017-01-24T13:51:40Z</time>
      </trkpt>
      <trkpt lat="49.44559" lon="1.16532">
        <ele>73</ele>
        <time>2017-01-24T13:51:40Z</time>
      </trkpt>
      <trkpt lat="49.44561" lon="1.16538">
        <ele>73</ele>
        <time>2017-01-24T13:51:55Z</time>
      </trkpt>
      <trkpt lat="49.44563" lon="1.16547">
        <ele>66</ele>
        <time>2017-01-24T13:51:55Z</time>
      </trkpt>
      <trkpt lat="49.44567" lon="1.16558">
        <ele>66</ele>
        <time>2017-01-24T13:51:55Z</time>
      </trkpt>
      <trkpt lat="49.4457" lon="1.16565">
        <ele>66</ele>
        <time>2017-01-24T13:51:55Z</time>
      </trkpt>
      <trkpt lat="49.44572" lon="1.16575">
        <ele>66</ele>
        <time>2017-01-24T13:52:12Z</time>
      </trkpt>
      <trkpt lat="49.44574" lon="1.16579">
        <ele>66</ele>
        <time>2017-01-24T13:52:12Z</time>
      </trkpt>
      <trkpt lat="49.44575" lon="1.16585">
        <ele>66</ele>
        <time>2017-01-24T13:52:12Z</time>
      </trkpt>
      <trkpt lat="49.44576" lon="1.16593">
        <ele>66</ele>
        <time>2017-01-24T13:52:12Z</time>
      </trkpt>
      <trkpt lat="49.44578" lon="1.16598">
        <ele>66</ele>
        <time>2017-01-24T13:52:28Z</time>
      </trkpt>
      <trkpt lat="49.44581" lon="1.16602">
        <ele>66</ele>
        <time>2017-01-24T13:52:28Z</time>
      </trkpt>
      <trkpt lat="49.44582" lon="1.16613">
        <ele>66</ele>
        <time>2017-01-24T13:52:28Z</time>
      </trkpt>
      <trkpt lat="49.44583" lon="1.16619">
        <ele>66</ele>
        <time>2017-01-24T13:52:28Z</time>
      </trkpt>
      <trkpt lat="49.44587" lon="1.16625">
        <ele>60</ele>
        <time>2017-01-24T13:52:44Z</time>
      </trkpt>
      <trkpt lat="49.44589" lon="1.16632">
        <ele>60</ele>
        <time>2017-01-24T13:52:44Z</time>
      </trkpt>
      <trkpt lat="49.44591" lon="1.16638">
        <ele>60</ele>
        <time>2017-01-24T13:52:45Z</time>
      </trkpt>
      <trkpt lat="49.44593" lon="1.16639">
        <ele>60</ele>
        <time>2017-01-24T13:52:45Z</time>
      </trkpt>
      <trkpt lat="49.44597" lon="1.16645">
        <ele>60</ele>
        <time>2017-01-24T13:52:59Z</time>
      </trkpt>
      <trkpt lat="49.446" lon="1.1666">
        <ele>60</ele>
        <time>2017-01-24T13:53:00Z</time>
      </trkpt>
      <trkpt lat="49.44601" lon="1.16667">
        <ele>60</ele>
        <time>2017-01-24T13:53:00Z</time>
      </trkpt>
      <trkpt lat="49.44602" lon="1.16676">
        <ele>60</ele>
        <time>2017-01-24T13:53:00Z</time>
      </trkpt>
      <trkpt lat="49.44603" lon="1.16684">
        <ele>60</ele>
        <time>2017-01-24T13:53:15Z</time>
      </trkpt>
      <trkpt lat="49.44606" lon="1.16691">
        <ele>60</ele>
        <time>2017-01-24T13:53:15Z</time>
      </trkpt>
      <trkpt lat="49.4461" lon="1.16697">
        <ele>60</ele>
        <time>2017-01-24T13:53:15Z</time>
      </trkpt>
      <trkpt lat="49.44611" lon="1.16705">
        <ele>60</ele>
        <time>2017-01-24T13:53:15Z</time>
      </trkpt>
      <trkpt lat="49.44613" lon="1.16708">
        <ele>60</ele>
        <time>2017-01-24T13:53:31Z</time>
      </trkpt>
      <trkpt lat="49.44615" lon="1.16721">
        <ele>62</ele>
        <time>2017-01-24T13:53:31Z</time>
      </trkpt>
      <trkpt lat="49.44618" lon="1.16725">
        <ele>62</ele>
        <time>2017-01-24T13:53:31Z</time>
      </trkpt>
      <trkpt lat="49.44622" lon="1.16732">
        <ele>62</ele>
        <time>2017-01-24T13:53:31Z</time>
      </trkpt>
      <trkpt lat="49.44624" lon="1.16741">
        <ele>62</ele>
        <time>2017-01-24T13:53:47Z</time>
      </trkpt>
      <trkpt lat="49.44626" lon="1.16748">
        <ele>74</ele>
        <time>2017-01-24T13:53:47Z</time>
      </trkpt>
      <trkpt lat="49.44629" lon="1.16755">
        <ele>74</ele>
        <time>2017-01-24T13:53:47Z</time>
      </trkpt>
      <trkpt lat="49.44632" lon="1.16765">
        <ele>74</ele>
        <time>2017-01-24T13:53:47Z</time>
      </trkpt>
      <trkpt lat="49.44635" lon="1.16768">
        <ele>74</ele>
        <time>2017-01-24T13:54:03Z</time>
      </trkpt>
      <trkpt lat="49.44638" lon="1.16774">
        <ele>74</ele>
        <time>2017-01-24T13:54:03Z</time>
      </trkpt>
      <trkpt lat="49.44641" lon="1.16781">
        <ele>74</ele>
        <time>2017-01-24T13:54:03Z</time>
      </trkpt>
      <trkpt lat="49.44643" lon="1.16787">
        <ele>74</ele>
        <time>2017-01-24T13:54:03Z</time>
      </trkpt>
      <trkpt lat="49.44649" lon="1.16796">
        <ele>63</ele>
        <time>2017-01-24T13:54:20Z</time>
      </trkpt>
      <trkpt lat="49.44651" lon="1.168">
        <ele>63</ele>
        <time>2017-01-24T13:54:20Z</time>
      </trkpt>
      <trkpt lat="49.44654" lon="1.16809">
        <ele>63</ele>
        <time>2017-01-24T13:54:20Z</time>
      </trkpt>
      <trkpt lat="49.44657" lon="1.16814">
        <ele>63</ele>
        <time>2017-01-24T13:54:20Z</time>
      </trkpt>
      <trkpt lat="49.44664" lon="1.16826">
        <ele>63</ele>
        <time>2017-01-24T13:54:39Z</time>
      </trkpt>
      <trkpt lat="49.44667" lon="1.16831">
        <ele>63</ele>
        <time>2017-01-24T13:54:39Z</time>
      </trkpt>
      <trkpt lat="49.44669" lon="1.16835">
        <ele>63</ele>
        <time>2017-01-24T13:54:39Z</time>
      </trkpt>
      <trkpt lat="49.44672" lon="1.16841">
        <ele>63</ele>
        <time>2017-01-24T13:54:39Z</time>
      </trkpt>
      <trkpt lat="49.44676" lon="1.16845">
        <ele>63</ele>
        <time>2017-01-24T13:54:55Z</time>
      </trkpt>
      <trkpt lat="49.44681" lon="1.16851">
        <ele>63</ele>
        <time>2017-01-24T13:54:56Z</time>
      </trkpt>
      <trkpt lat="49.44685" lon="1.16853">
        <ele>63</ele>
        <time>2017-01-24T13:54:56Z</time>
      </trkpt>
      <trkpt lat="49.4469" lon="1.16858">
        <ele>63</ele>
        <time>2017-01-24T13:54:56Z</time>
      </trkpt>
      <trkpt lat="49.44693" lon="1.16861">
        <ele>63</ele>
        <time>2017-01-24T13:55:11Z</time>
      </trkpt>
      <trkpt lat="49.44697" lon="1.16865">
        <ele>63</ele>
        <time>2017-01-24T13:55:11Z</time>
      </trkpt>
      <trkpt lat="49.44701" lon="1.16868">
        <ele>63</ele>
        <time>2017-01-24T13:55:11Z</time>
      </trkpt>
      <trkpt lat="49.44703" lon="1.16872">
        <ele>63</ele>
        <time>2017-01-24T13:55:11Z</time>
      </trkpt>
      <trkpt lat="49.44708" lon="1.16877">
        <ele>68</ele>
        <time>2017-01-24T13:55:27Z</time>
      </trkpt>
      <trkpt lat="49.44712" lon="1.16881">
        <ele>68</ele>
        <time>2017-01-24T13:55:27Z</time>
      </trkpt>
      <trkpt lat="49.44714" lon="1.16887">
        <ele>68</ele>
        <time>2017-01-24T13:55:27Z</time>
      </trkpt>
      <trkpt lat="49.4472" lon="1.1689">
        <ele>68</ele>
        <time>2017-01-24T13:55:27Z</time>
      </trkpt>
      <trkpt lat="49.44723" lon="1.16895">
        <ele>68</ele>
        <time>2017-01-24T13:55:45Z</time>
      </trkpt>
      <trkpt lat="49.44726" lon="1.16902">
        <ele>68</ele>
        <time>2017-01-24T13:55:45Z</time>
      </trkpt>
      <trkpt lat="49.44728" lon="1.16905">
        <ele>68</ele>
        <time>2017-01-24T13:55:45Z</time>
      </trkpt>
      <trkpt lat="49.44734" lon="1.16914">
        <ele>68</ele>
        <time>2017-01-24T13:55:45Z</time>
      </trkpt>
      <trkpt lat="49.44737" lon="1.16916">
        <ele>68</ele>
        <time>2017-01-24T13:56:00Z</time>
      </trkpt>
      <trkpt lat="49.44741" lon="1.16922">
        <ele>68</ele>
        <time>2017-01-24T13:56:00Z</time>
      </trkpt>
      <trkpt lat="49.44745" lon="1.16926">
        <ele>68</ele>
        <time>2017-01-24T13:56:00Z</time>
      </trkpt>
      <trkpt lat="49.44749" lon="1.16933">
        <ele>68</ele>
        <time>2017-01-24T13:56:00Z</time>
      </trkpt>
      <trkpt lat="49.44749" lon="1.16936">
        <ele>68</ele>
        <time>2017-01-24T13:56:15Z</time>
      </trkpt>
      <trkpt lat="49.44757" lon="1.16943">
        <ele>68</ele>
        <time>2017-01-24T13:56:15Z</time>
      </trkpt>
      <trkpt lat="49.44762" lon="1.16948">
        <ele>68</ele>
        <time>2017-01-24T13:56:15Z</time>
      </trkpt>
      <trkpt lat="49.44766" lon="1.16953">
        <ele>68</ele>
        <time>2017-01-24T13:56:15Z</time>
      </trkpt>
      <trkpt lat="49.44772" lon="1.16958">
        <ele>68</ele>
        <time>2017-01-24T13:56:32Z</time>
      </trkpt>
      <trkpt lat="49.44774" lon="1.16964">
        <ele>70</ele>
        <time>2017-01-24T13:56:32Z</time>
      </trkpt>
      <trkpt lat="49.44778" lon="1.16969">
        <ele>70</ele>
        <time>2017-01-24T13:56:32Z</time>
      </trkpt>
      <trkpt lat="49.44785" lon="1.16971">
        <ele>70</ele>
        <time>2017-01-24T13:56:32Z</time>
      </trkpt>
      <trkpt lat="49.44788" lon="1.16983">
        <ele>70</ele>
        <time>2017-01-24T13:56:47Z</time>
      </trkpt>
      <trkpt lat="49.44789" lon="1.16995">
        <ele>70</ele>
        <time>2017-01-24T13:56:47Z</time>
      </trkpt>
      <trkpt lat="49.4479" lon="1.16999">
        <ele>70</ele>
        <time>2017-01-24T13:56:47Z</time>
      </trkpt>
      <trkpt lat="49.44792" lon="1.17001">
        <ele>68</ele>
        <time>2017-01-24T13:56:47Z</time>
      </trkpt>
      <trkpt lat="49.44798" lon="1.17003">
        <ele>68</ele>
        <time>2017-01-24T13:57:03Z</time>
      </trkpt>
      <trkpt lat="49.44802" lon="1.17009">
        <ele>68</ele>
        <time>2017-01-24T13:57:03Z</time>
      </trkpt>
      <trkpt lat="49.44804" lon="1.17014">
        <ele>68</ele>
        <time>2017-01-24T13:57:03Z</time>
      </trkpt>
      <trkpt lat="49.44807" lon="1.17018">
        <ele>68</ele>
        <time>2017-01-24T13:57:03Z</time>
      </trkpt>
      <trkpt lat="49.44814" lon="1.1702">
        <ele>68</ele>
        <time>2017-01-24T13:57:21Z</time>
      </trkpt>
      <trkpt lat="49.44819" lon="1.17027">
        <ele>68</ele>
        <time>2017-01-24T13:57:21Z</time>
      </trkpt>
      <trkpt lat="49.44822" lon="1.17031">
        <ele>68</ele>
        <time>2017-01-24T13:57:21Z</time>
      </trkpt>
      <trkpt lat="49.44823" lon="1.17038">
        <ele>68</ele>
        <time>2017-01-24T13:57:21Z</time>
      </trkpt>
      <trkpt lat="49.44826" lon="1.17045">
        <ele>68</ele>
        <time>2017-01-24T13:57:36Z</time>
      </trkpt>
      <trkpt lat="49.44831" lon="1.17047">
        <ele>68</ele>
        <time>2017-01-24T13:57:36Z</time>
      </trkpt>
      <trkpt lat="49.44835" lon="1.17049">
        <ele>68</ele>
        <time>2017-01-24T13:57:36Z</time>
      </trkpt>
      <trkpt lat="49.4484" lon="1.17051">
        <ele>68</ele>
        <time>2017-01-24T13:57:36Z</time>
      </trkpt>
      <trkpt lat="49.44844" lon="1.17054">
        <ele>68</ele>
        <time>2017-01-24T13:57:51Z</time>
      </trkpt>
      <trkpt lat="49.44848" lon="1.17056">
        <ele>68</ele>
        <time>2017-01-24T13:57:51Z</time>
      </trkpt>
      <trkpt lat="49.44855" lon="1.17059">
        <ele>68</ele>
        <time>2017-01-24T13:57:51Z</time>
      </trkpt>
      <trkpt lat="49.44858" lon="1.1706">
        <ele>68</ele>
        <time>2017-01-24T13:57:51Z</time>
      </trkpt>
      <trkpt lat="49.44866" lon="1.17061">
        <ele>68</ele>
        <time>2017-01-24T13:58:08Z</time>
      </trkpt>
      <trkpt lat="49.44871" lon="1.17062">
        <ele>68</ele>
        <time>2017-01-24T13:58:08Z</time>
      </trkpt>
      <trkpt lat="49.44876" lon="1.17062">
        <ele>68</ele>
        <time>2017-01-24T13:58:08Z</time>
      </trkpt>
      <trkpt lat="49.44881" lon="1.17063">
        <ele>68</ele>
        <time>2017-01-24T13:58:08Z</time>
      </trkpt>
      <trkpt lat="49.44883" lon="1.17064">
        <ele>68</ele>
        <time>2017-01-24T13:58:23Z</time>
      </trkpt>
      <trkpt lat="49.44886" lon="1.17063">
        <ele>68</ele>
        <time>2017-01-24T13:58:23Z</time>
      </trkpt>
      <trkpt lat="49.44895" lon="1.17065">
        <ele>68</ele>
        <time>2017-01-24T13:58:23Z</time>
      </trkpt>
      <trkpt lat="49.44898" lon="1.17065">
        <ele>68</ele>
        <time>2017-01-24T13:58:23Z</time>
      </trkpt>
      <trkpt lat="49.44899" lon="1.17065">
        <ele>68</ele>
        <time>2017-01-24T13:58:39Z</time>
      </trkpt>
      <trkpt lat="49.44905" lon="1.17066">
        <ele>68</ele>
        <time>2017-01-24T13:58:39Z</time>
      </trkpt>
      <trkpt lat="49.44912" lon="1.17067">
        <ele>68</ele>
        <time>2017-01-24T13:58:39Z</time>
      </trkpt>
      <trkpt lat="49.44919" lon="1.17068">
        <ele>68</ele>
        <time>2017-01-24T13:58:39Z</time>
      </trkpt>
      <trkpt lat="49.44923" lon="1.1707">
        <ele>68</ele>
        <time>2017-01-24T13:58:55Z</time>
      </trkpt>
      <trkpt lat="49.44927" lon="1.17076">
        <ele>68</ele>
        <time>2017-01-24T13:58:55Z</time>
      </trkpt>
      <trkpt lat="49.4493" lon="1.17075">
        <ele>68</ele>
        <time>2017-01-24T13:58:55Z</time>
      </trkpt>
      <trkpt lat="49.44933" lon="1.17077">
        <ele>68</ele>
        <time>2017-01-24T13:58:55Z</time>
      </trkpt>
      <trkpt lat="49.44939" lon="1.17079">
        <ele>68</ele>
        <time>2017-01-24T13:59:12Z</time>
      </trkpt>
      <trkpt lat="49.44943" lon="1.17079">
        <ele>68</ele>
        <time>2017-01-24T13:59:12Z</time>
      </trkpt>
      <trkpt lat="49.44953" lon="1.1708">
        <ele>68</ele>
        <time>2017-01-24T13:59:12Z</time>
      </trkpt>
      <trkpt lat="49.44957" lon="1.1708">
        <ele>68</ele>
        <time>2017-01-24T13:59:12Z</time>
      </trkpt>
      <trkpt lat="49.4496" lon="1.17083">
        <ele>74</ele>
        <time>2017-01-24T13:59:27Z</time>
      </trkpt>
      <trkpt lat="49.44967" lon="1.17086">
        <ele>74</ele>
        <time>2017-01-24T13:59:27Z</time>
      </trkpt>
      <trkpt lat="49.4497" lon="1.17089">
        <ele>74</ele>
        <time>2017-01-24T13:59:27Z</time>
      </trkpt>
      <trkpt lat="49.44972" lon="1.17095">
        <ele>74</ele>
        <time>2017-01-24T13:59:27Z</time>
      </trkpt>
      <trkpt lat="49.44975" lon="1.17097">
        <ele>74</ele>
        <time>2017-01-24T13:59:45Z</time>
      </trkpt>
      <trkpt lat="49.44978" lon="1.17102">
        <ele>74</ele>
        <time>2017-01-24T13:59:45Z</time>
      </trkpt>
      <trkpt lat="49.44981" lon="1.17108">
        <ele>74</ele>
        <time>2017-01-24T13:59:45Z</time>
      </trkpt>
      <trkpt lat="49.44987" lon="1.17112">
        <ele>74</ele>
        <time>2017-01-24T13:59:45Z</time>
      </trkpt>
      <trkpt lat="49.4499" lon="1.17117">
        <ele>74</ele>
        <time>2017-01-24T13:59:59Z</time>
      </trkpt>
      <trkpt lat="49.44994" lon="1.17123">
        <ele>74</ele>
        <time>2017-01-24T13:59:59Z</time>
      </trkpt>
      <trkpt lat="49.44997" lon="1.17126">
        <ele>77</ele>
        <time>2017-01-24T13:59:59Z</time>
      </trkpt>
      <trkpt lat="49.45004" lon="1.1713">
        <ele>77</ele>
        <time>2017-01-24T13:59:59Z</time>
      </trkpt>
      <trkpt lat="49.45005" lon="1.17133">
        <ele>77</ele>
        <time>2017-01-24T14:00:15Z</time>
      </trkpt>
      <trkpt lat="49.45008" lon="1.17135">
        <ele>77</ele>
        <time>2017-01-24T14:00:15Z</time>
      </trkpt>
      <trkpt lat="49.45016" lon="1.17145">
        <ele>77</ele>
        <time>2017-01-24T14:00:15Z</time>
      </trkpt>
      <trkpt lat="49.4502" lon="1.17147">
        <ele>77</ele>
        <time>2017-01-24T14:00:15Z</time>
      </trkpt>
      <trkpt lat="49.45022" lon="1.17152">
        <ele>77</ele>
        <time>2017-01-24T14:00:31Z</time>
      </trkpt>
      <trkpt lat="49.4503" lon="1.17157">
        <ele>77</ele>
        <time>2017-01-24T14:00:31Z</time>
      </trkpt>
      <trkpt lat="49.45035" lon="1.1716">
        <ele>77</ele>
        <time>2017-01-24T14:00:31Z</time>
      </trkpt>
      <trkpt lat="49.45039" lon="1.17164">
        <ele>77</ele>
        <time>2017-01-24T14:00:31Z</time>
      </trkpt>
      <trkpt lat="49.45044" lon="1.1717">
        <ele>80</ele>
        <time>2017-01-24T14:00:47Z</time>
      </trkpt>
      <trkpt lat="49.45046" lon="1.17172">
        <ele>80</ele>
        <time>2017-01-24T14:00:49Z</time>
      </trkpt>
      <trkpt lat="49.4505" lon="1.1718">
        <ele>80</ele>
        <time>2017-01-24T14:00:49Z</time>
      </trkpt>
      <trkpt lat="49.45054" lon="1.17188">
        <ele>80</ele>
        <time>2017-01-24T14:00:49Z</time>
      </trkpt>
      <trkpt lat="49.45055" lon="1.1719">
        <ele>80</ele>
        <time>2017-01-24T14:01:07Z</time>
      </trkpt>
      <trkpt lat="49.45061" lon="1.17199">
        <ele>80</ele>
        <time>2017-01-24T14:01:07Z</time>
      </trkpt>
      <trkpt lat="49.45064" lon="1.17205">
        <ele>80</ele>
        <time>2017-01-24T14:01:07Z</time>
      </trkpt>
      <trkpt lat="49.45066" lon="1.17206">
        <ele>80</ele>
        <time>2017-01-24T14:01:07Z</time>
      </trkpt>
      <trkpt lat="49.4507" lon="1.17212">
        <ele>78</ele>
        <time>2017-01-24T14:01:23Z</time>
      </trkpt>
      <trkpt lat="49.45075" lon="1.17216">
        <ele>78</ele>
        <time>2017-01-24T14:01:23Z</time>
      </trkpt>
      <trkpt lat="49.45079" lon="1.17218">
        <ele>78</ele>
        <time>2017-01-24T14:01:23Z</time>
      </trkpt>
      <trkpt lat="49.45087" lon="1.17226">
        <ele>78</ele>
        <time>2017-01-24T14:01:24Z</time>
      </trkpt>
      <trkpt lat="49.45089" lon="1.17233">
        <ele>78</ele>
        <time>2017-01-24T14:01:39Z</time>
      </trkpt>
      <trkpt lat="49.45089" lon="1.17236">
        <ele>78</ele>
        <time>2017-01-24T14:01:39Z</time>
      </trkpt>
      <trkpt lat="49.45091" lon="1.17245">
        <ele>78</ele>
        <time>2017-01-24T14:01:39Z</time>
      </trkpt>
      <trkpt lat="49.45096" lon="1.17247">
        <ele>78</ele>
        <time>2017-01-24T14:01:39Z</time>
      </trkpt>
      <trkpt lat="49.451" lon="1.1725">
        <ele>78</ele>
        <time>2017-01-24T14:01:55Z</time>
      </trkpt>
      <trkpt lat="49.45102" lon="1.17258">
        <ele>78</ele>
        <time>2017-01-24T14:01:55Z</time>
      </trkpt>
      <trkpt lat="49.45105" lon="1.17265">
        <ele>78</ele>
        <time>2017-01-24T14:01:55Z</time>
      </trkpt>
      <trkpt lat="49.4511" lon="1.1727">
        <ele>78</ele>
        <time>2017-01-24T14:01:55Z</time>
      </trkpt>
      <trkpt lat="49.4512" lon="1.17287">
        <ele>78</ele>
        <time>2017-01-24T14:02:51Z</time>
      </trkpt>
      <trkpt lat="49.4512" lon="1.17287">
        <ele>78</ele>
        <time>2017-01-24T14:02:51Z</time>
      </trkpt>
      <trkpt lat="49.4512" lon="1.17287">
        <ele>78</ele>
        <time>2017-01-24T14:02:51Z</time>
      </trkpt>
      <trkpt lat="49.45126" lon="1.1728">
        <ele>80</ele>
        <time>2017-01-24T14:02:51Z</time>
      </trkpt>
      <trkpt lat="49.45136" lon="1.17274">
        <ele>80</ele>
        <time>2017-01-24T14:02:51Z</time>
      </trkpt>
      <trkpt lat="49.45166" lon="1.1725">
        <ele>80</ele>
        <time>2017-01-24T14:03:39Z</time>
      </trkpt>
      <trkpt lat="49.45174" lon="1.17247">
        <ele>80</ele>
        <time>2017-01-24T14:03:40Z</time>
      </trkpt>
      <trkpt lat="49.4518" lon="1.17248">
        <ele>80</ele>
        <time>2017-01-24T14:03:40Z</time>
      </trkpt>
      <trkpt lat="49.45182" lon="1.17244">
        <ele>80</ele>
        <time>2017-01-24T14:03:40Z</time>
      </trkpt>
      <trkpt lat="49.45184" lon="1.17245">
        <ele>80</ele>
        <time>2017-01-24T14:03:40Z</time>
      </trkpt>
      <trkpt lat="49.4519" lon="1.17244">
        <ele>80</ele>
        <time>2017-01-24T14:03:55Z</time>
      </trkpt>
      <trkpt lat="49.45195" lon="1.1724">
        <ele>80</ele>
        <time>2017-01-24T14:03:55Z</time>
      </trkpt>
      <trkpt lat="49.45197" lon="1.17241">
        <ele>80</ele>
        <time>2017-01-24T14:03:55Z</time>
      </trkpt>
      <trkpt lat="49.4521" lon="1.17241">
        <ele>88</ele>
        <time>2017-01-24T14:03:55Z</time>
      </trkpt>
      <trkpt lat="49.4521" lon="1.17241">
        <ele>88</ele>
        <time>2017-01-24T14:04:11Z</time>
      </trkpt>
      <trkpt lat="49.45214" lon="1.17241">
        <ele>88</ele>
        <time>2017-01-24T14:04:12Z</time>
      </trkpt>
      <trkpt lat="49.45217" lon="1.17241">
        <ele>88</ele>
        <time>2017-01-24T14:04:12Z</time>
      </trkpt>
      <trkpt lat="49.45221" lon="1.17242">
        <ele>88</ele>
        <time>2017-01-24T14:04:12Z</time>
      </trkpt>
      <trkpt lat="49.45224" lon="1.17243">
        <ele>88</ele>
        <time>2017-01-24T14:04:27Z</time>
      </trkpt>
      <trkpt lat="49.4523" lon="1.17242">
        <ele>88</ele>
        <time>2017-01-24T14:04:27Z</time>
      </trkpt>
      <trkpt lat="49.45239" lon="1.17242">
        <ele>88</ele>
        <time>2017-01-24T14:04:27Z</time>
      </trkpt>
      <trkpt lat="49.45244" lon="1.17244">
        <ele>88</ele>
        <time>2017-01-24T14:04:27Z</time>
      </trkpt>
      <trkpt lat="49.45251" lon="1.17243">
        <ele>88</ele>
        <time>2017-01-24T14:04:44Z</time>
      </trkpt>
      <trkpt lat="49.45257" lon="1.17242">
        <ele>88</ele>
        <time>2017-01-24T14:04:44Z</time>
      </trkpt>
      <trkpt lat="49.45262" lon="1.17243">
        <ele>88</ele>
        <time>2017-01-24T14:04:44Z</time>
      </trkpt>
      <trkpt lat="49.45265" lon="1.17244">
        <ele>88</ele>
        <time>2017-01-24T14:04:44Z</time>
      </trkpt>
      <trkpt lat="49.45266" lon="1.17246">
        <ele>88</ele>
        <time>2017-01-24T14:05:07Z</time>
      </trkpt>
      <trkpt lat="49.45267" lon="1.17246">
        <ele>88</ele>
        <time>2017-01-24T14:05:07Z</time>
      </trkpt>
      <trkpt lat="49.45268" lon="1.17246">
        <ele>88</ele>
        <time>2017-01-24T14:05:07Z</time>
      </trkpt>
      <trkpt lat="49.45271" lon="1.1725">
        <ele>88</ele>
        <time>2017-01-24T14:05:07Z</time>
      </trkpt>
      <trkpt lat="49.45272" lon="1.17254">
        <ele>88</ele>
        <time>2017-01-24T14:05:07Z</time>
      </trkpt>
      <trkpt lat="49.45281" lon="1.17251">
        <ele>88</ele>
        <time>2017-01-24T14:05:23Z</time>
      </trkpt>
      <trkpt lat="49.45288" lon="1.17251">
        <ele>88</ele>
        <time>2017-01-24T14:05:23Z</time>
      </trkpt>
      <trkpt lat="49.4529" lon="1.1725">
        <ele>88</ele>
        <time>2017-01-24T14:05:23Z</time>
      </trkpt>
      <trkpt lat="49.45296" lon="1.17248">
        <ele>95</ele>
        <time>2017-01-24T14:05:24Z</time>
      </trkpt>
      <trkpt lat="49.45303" lon="1.17246">
        <ele>95</ele>
        <time>2017-01-24T14:05:39Z</time>
      </trkpt>
      <trkpt lat="49.45308" lon="1.17247">
        <ele>95</ele>
        <time>2017-01-24T14:05:39Z</time>
      </trkpt>
      <trkpt lat="49.45311" lon="1.17249">
        <ele>95</ele>
        <time>2017-01-24T14:05:39Z</time>
      </trkpt>
      <trkpt lat="49.45316" lon="1.17247">
        <ele>95</ele>
        <time>2017-01-24T14:05:39Z</time>
      </trkpt>
      <trkpt lat="49.45324" lon="1.17245">
        <ele>95</ele>
        <time>2017-01-24T14:06:00Z</time>
      </trkpt>
      <trkpt lat="49.45324" lon="1.17245">
        <ele>95</ele>
        <time>2017-01-24T14:06:00Z</time>
      </trkpt>
      <trkpt lat="49.45327" lon="1.17249">
        <ele>95</ele>
        <time>2017-01-24T14:06:00Z</time>
      </trkpt>
      <trkpt lat="49.45329" lon="1.17252">
        <ele>95</ele>
        <time>2017-01-24T14:06:00Z</time>
      </trkpt>
      <trkpt lat="49.45335" lon="1.17252">
        <ele>95</ele>
        <time>2017-01-24T14:06:00Z</time>
      </trkpt>
      <trkpt lat="49.45341" lon="1.17254">
        <ele>95</ele>
        <time>2017-01-24T14:06:17Z</time>
      </trkpt>
      <trkpt lat="49.45348" lon="1.17253">
        <ele>95</ele>
        <time>2017-01-24T14:06:17Z</time>
      </trkpt>
      <trkpt lat="49.45351" lon="1.17254">
        <ele>95</ele>
        <time>2017-01-24T14:06:17Z</time>
      </trkpt>
      <trkpt lat="49.45359" lon="1.17253">
        <ele>95</ele>
        <time>2017-01-24T14:06:17Z</time>
      </trkpt>
      <trkpt lat="49.45362" lon="1.17254">
        <ele>95</ele>
        <time>2017-01-24T14:06:31Z</time>
      </trkpt>
      <trkpt lat="49.4537" lon="1.17257">
        <ele>95</ele>
        <time>2017-01-24T14:06:31Z</time>
      </trkpt>
      <trkpt lat="49.45375" lon="1.17258">
        <ele>95</ele>
        <time>2017-01-24T14:06:31Z</time>
      </trkpt>
      <trkpt lat="49.45376" lon="1.17257">
        <ele>102</ele>
        <time>2017-01-24T14:06:31Z</time>
      </trkpt>
      <trkpt lat="49.45379" lon="1.17257">
        <ele>102</ele>
        <time>2017-01-24T14:06:47Z</time>
      </trkpt>
      <trkpt lat="49.45384" lon="1.17258">
        <ele>102</ele>
        <time>2017-01-24T14:06:47Z</time>
      </trkpt>
      <trkpt lat="49.45388" lon="1.17258">
        <ele>102</ele>
        <time>2017-01-24T14:06:47Z</time>
      </trkpt>
      <trkpt lat="49.4539" lon="1.17256">
        <ele>102</ele>
        <time>2017-01-24T14:06:47Z</time>
      </trkpt>
      <trkpt lat="49.45395" lon="1.17259">
        <ele>102</ele>
        <time>2017-01-24T14:07:04Z</time>
      </trkpt>
      <trkpt lat="49.45401" lon="1.17261">
        <ele>102</ele>
        <time>2017-01-24T14:07:04Z</time>
      </trkpt>
      <trkpt lat="49.45406" lon="1.17261">
        <ele>102</ele>
        <time>2017-01-24T14:07:04Z</time>
      </trkpt>
      <trkpt lat="49.45416" lon="1.17264">
        <ele>102</ele>
        <time>2017-01-24T14:07:04Z</time>
      </trkpt>
      <trkpt lat="49.45423" lon="1.17262">
        <ele>102</ele>
        <time>2017-01-24T14:07:20Z</time>
      </trkpt>
      <trkpt lat="49.45429" lon="1.17262">
        <ele>102</ele>
        <time>2017-01-24T14:07:20Z</time>
      </trkpt>
      <trkpt lat="49.45434" lon="1.17263">
        <ele>102</ele>
        <time>2017-01-24T14:07:20Z</time>
      </trkpt>
      <trkpt lat="49.45436" lon="1.17262">
        <ele>102</ele>
        <time>2017-01-24T14:07:20Z</time>
      </trkpt>
      <trkpt lat="49.45447" lon="1.17275">
        <ele>102</ele>
        <time>2017-01-24T14:07:51Z</time>
      </trkpt>
      <trkpt lat="49.45454" lon="1.17277">
        <ele>102</ele>
        <time>2017-01-24T14:07:51Z</time>
      </trkpt>
      <trkpt lat="49.45457" lon="1.17279">
        <ele>102</ele>
        <time>2017-01-24T14:07:51Z</time>
      </trkpt>
      <trkpt lat="49.45462" lon="1.1728">
        <ele>113</ele>
        <time>2017-01-24T14:07:51Z</time>
      </trkpt>
      <trkpt lat="49.45466" lon="1.17283">
        <ele>113</ele>
        <time>2017-01-24T14:07:51Z</time>
      </trkpt>
      <trkpt lat="49.45471" lon="1.17288">
        <ele>113</ele>
        <time>2017-01-24T14:08:08Z</time>
      </trkpt>
      <trkpt lat="49.45474" lon="1.17291">
        <ele>113</ele>
        <time>2017-01-24T14:08:08Z</time>
      </trkpt>
      <trkpt lat="49.45481" lon="1.17295">
        <ele>112</ele>
        <time>2017-01-24T14:08:08Z</time>
      </trkpt>
      <trkpt lat="49.45486" lon="1.17295">
        <ele>112</ele>
        <time>2017-01-24T14:08:08Z</time>
      </trkpt>
      <trkpt lat="49.45488" lon="1.17295">
        <ele>112</ele>
        <time>2017-01-24T14:08:24Z</time>
      </trkpt>
      <trkpt lat="49.45494" lon="1.17299">
        <ele>112</ele>
        <time>2017-01-24T14:08:24Z</time>
      </trkpt>
      <trkpt lat="49.45499" lon="1.173">
        <ele>112</ele>
        <time>2017-01-24T14:08:24Z</time>
      </trkpt>
      <trkpt lat="49.45504" lon="1.17303">
        <ele>112</ele>
        <time>2017-01-24T14:08:24Z</time>
      </trkpt>
      <trkpt lat="49.45507" lon="1.17311">
        <ele>112</ele>
        <time>2017-01-24T14:08:45Z</time>
      </trkpt>
      <trkpt lat="49.45516" lon="1.17318">
        <ele>112</ele>
        <time>2017-01-24T14:08:45Z</time>
      </trkpt>
      <trkpt lat="49.45517" lon="1.1732">
        <ele>112</ele>
        <time>2017-01-24T14:08:45Z</time>
      </trkpt>
      <trkpt lat="49.45522" lon="1.17323">
        <ele>112</ele>
        <time>2017-01-24T14:08:45Z</time>
      </trkpt>
      <trkpt lat="49.45525" lon="1.17322">
        <ele>112</ele>
        <time>2017-01-24T14:09:03Z</time>
      </trkpt>
      <trkpt lat="49.45529" lon="1.17323">
        <ele>112</ele>
        <time>2017-01-24T14:09:03Z</time>
      </trkpt>
      <trkpt lat="49.45531" lon="1.17321">
        <ele>112</ele>
        <time>2017-01-24T14:09:03Z</time>
      </trkpt>
      <trkpt lat="49.45533" lon="1.17324">
        <ele>112</ele>
        <time>2017-01-24T14:09:03Z</time>
      </trkpt>
      <trkpt lat="49.45536" lon="1.17323">
        <ele>112</ele>
        <time>2017-01-24T14:09:03Z</time>
      </trkpt>
      <trkpt lat="49.4554" lon="1.1733">
        <ele>112</ele>
        <time>2017-01-24T14:09:19Z</time>
      </trkpt>
      <trkpt lat="49.45544" lon="1.1733">
        <ele>121</ele>
        <time>2017-01-24T14:09:19Z</time>
      </trkpt>
      <trkpt lat="49.45547" lon="1.17337">
        <ele>121</ele>
        <time>2017-01-24T14:09:19Z</time>
      </trkpt>
      <trkpt lat="49.45549" lon="1.1734">
        <ele>121</ele>
        <time>2017-01-24T14:09:19Z</time>
      </trkpt>
      <trkpt lat="49.45554" lon="1.17344">
        <ele>121</ele>
        <time>2017-01-24T14:09:36Z</time>
      </trkpt>
      <trkpt lat="49.4556" lon="1.17348">
        <ele>121</ele>
        <time>2017-01-24T14:09:36Z</time>
      </trkpt>
      <trkpt lat="49.45566" lon="1.17353">
        <ele>121</ele>
        <time>2017-01-24T14:09:36Z</time>
      </trkpt>
      <trkpt lat="49.45563" lon="1.17365">
        <ele>121</ele>
        <time>2017-01-24T14:09:36Z</time>
      </trkpt>
      <trkpt lat="49.45565" lon="1.17369">
        <ele>121</ele>
        <time>2017-01-24T14:09:51Z</time>
      </trkpt>
      <trkpt lat="49.45572" lon="1.17372">
        <ele>121</ele>
        <time>2017-01-24T14:09:51Z</time>
      </trkpt>
      <trkpt lat="49.45571" lon="1.17395">
        <ele>118</ele>
        <time>2017-01-24T14:09:51Z</time>
      </trkpt>
      <trkpt lat="49.45574" lon="1.17405">
        <ele>118</ele>
        <time>2017-01-24T14:09:51Z</time>
      </trkpt>
      <trkpt lat="49.45579" lon="1.17398">
        <ele>118</ele>
        <time>2017-01-24T14:10:07Z</time>
      </trkpt>
      <trkpt lat="49.45588" lon="1.17399">
        <ele>118</ele>
        <time>2017-01-24T14:10:07Z</time>
      </trkpt>
      <trkpt lat="49.45589" lon="1.174">
        <ele>118</ele>
        <time>2017-01-24T14:10:07Z</time>
      </trkpt>
      <trkpt lat="49.45592" lon="1.17411">
        <ele>118</ele>
        <time>2017-01-24T14:10:07Z</time>
      </trkpt>
      <trkpt lat="49.45591" lon="1.17415">
        <ele>118</ele>
        <time>2017-01-24T14:10:29Z</time>
      </trkpt>
      <trkpt lat="49.456" lon="1.17426">
        <ele>118</ele>
        <time>2017-01-24T14:10:29Z</time>
      </trkpt>
      <trkpt lat="49.45601" lon="1.17433">
        <ele>118</ele>
        <time>2017-01-24T14:10:29Z</time>
      </trkpt>
      <trkpt lat="49.45605" lon="1.1744">
        <ele>118</ele>
        <time>2017-01-24T14:10:29Z</time>
      </trkpt>
      <trkpt lat="49.45606" lon="1.1745">
        <ele>118</ele>
        <time>2017-01-24T14:10:48Z</time>
      </trkpt>
      <trkpt lat="49.45611" lon="1.17453">
        <ele>118</ele>
        <time>2017-01-24T14:10:48Z</time>
      </trkpt>
      <trkpt lat="49.45617" lon="1.17451">
        <ele>118</ele>
        <time>2017-01-24T14:10:48Z</time>
      </trkpt>
      <trkpt lat="49.45621" lon="1.17453">
        <ele>118</ele>
        <time>2017-01-24T14:10:48Z</time>
      </trkpt>
      <trkpt lat="49.45631" lon="1.17478">
        <ele>127</ele>
        <time>2017-01-24T14:11:51Z</time>
      </trkpt>
      <trkpt lat="49.45631" lon="1.17478">
        <ele>127</ele>
        <time>2017-01-24T14:11:51Z</time>
      </trkpt>
      <trkpt lat="49.45631" lon="1.17478">
        <ele>127</ele>
        <time>2017-01-24T14:11:51Z</time>
      </trkpt>
      <trkpt lat="49.45631" lon="1.17478">
        <ele>127</ele>
        <time>2017-01-24T14:11:51Z</time>
      </trkpt>
      <trkpt lat="49.45631" lon="1.17479">
        <ele>127</ele>
        <time>2017-01-24T14:11:51Z</time>
      </trkpt>
      <trkpt lat="49.45631" lon="1.17479">
        <ele>127</ele>
        <time>2017-01-24T14:12:08Z</time>
      </trkpt>
      <trkpt lat="49.45634" lon="1.17481">
        <ele>127</ele>
        <time>2017-01-24T14:12:08Z</time>
      </trkpt>
      <trkpt lat="49.45638" lon="1.17495">
        <ele>127</ele>
        <time>2017-01-24T14:12:08Z</time>
      </trkpt>
      <trkpt lat="49.45637" lon="1.17499">
        <ele>127</ele>
        <time>2017-01-24T14:12:08Z</time>
      </trkpt>
      <trkpt lat="49.45648" lon="1.17506">
        <ele>127</ele>
        <time>2017-01-24T14:12:24Z</time>
      </trkpt>
      <trkpt lat="49.45651" lon="1.17512">
        <ele>127</ele>
        <time>2017-01-24T14:12:24Z</time>
      </trkpt>
      <trkpt lat="49.45653" lon="1.17513">
        <ele>127</ele>
        <time>2017-01-24T14:12:24Z</time>
      </trkpt>
      <trkpt lat="49.45655" lon="1.1752">
        <ele>127</ele>
        <time>2017-01-24T14:12:24Z</time>
      </trkpt>
      <trkpt lat="49.45657" lon="1.17519">
        <ele>127</ele>
        <time>2017-01-24T14:12:39Z</time>
      </trkpt>
      <trkpt lat="49.4566" lon="1.17528">
        <ele>127</ele>
        <time>2017-01-24T14:12:39Z</time>
      </trkpt>
      <trkpt lat="49.45669" lon="1.17532">
        <ele>127</ele>
        <time>2017-01-24T14:12:39Z</time>
      </trkpt>
      <trkpt lat="49.45672" lon="1.17535">
        <ele>127</ele>
        <time>2017-01-24T14:12:39Z</time>
      </trkpt>
      <trkpt lat="49.4567" lon="1.1754">
        <ele>127</ele>
        <time>2017-01-24T14:12:55Z</time>
      </trkpt>
      <trkpt lat="49.45673" lon="1.17546">
        <ele>129</ele>
        <time>2017-01-24T14:12:55Z</time>
      </trkpt>
      <trkpt lat="49.45674" lon="1.17555">
        <ele>129</ele>
        <time>2017-01-24T14:12:55Z</time>
      </trkpt>
      <trkpt lat="49.45673" lon="1.17557">
        <ele>129</ele>
        <time>2017-01-24T14:12:55Z</time>
      </trkpt>
      <trkpt lat="49.45672" lon="1.17565">
        <ele>129</ele>
        <time>2017-01-24T14:13:43Z</time>
      </trkpt>
      <trkpt lat="49.45672" lon="1.17565">
        <ele>129</ele>
        <time>2017-01-24T14:13:43Z</time>
      </trkpt>
      <trkpt lat="49.45672" lon="1.17565">
        <ele>129</ele>
        <time>2017-01-24T14:13:43Z</time>
      </trkpt>
      <trkpt lat="49.45673" lon="1.1757">
        <ele>129</ele>
        <time>2017-01-24T14:13:43Z</time>
      </trkpt>
      <trkpt lat="49.45673" lon="1.17577">
        <ele>129</ele>
        <time>2017-01-24T14:13:43Z</time>
      </trkpt>
      <trkpt lat="49.4567" lon="1.17592">
        <ele>129</ele>
        <time>2017-01-24T14:14:00Z</time>
      </trkpt>
      <trkpt lat="49.45669" lon="1.17596">
        <ele>129</ele>
        <time>2017-01-24T14:14:00Z</time>
      </trkpt>
      <trkpt lat="49.4566" lon="1.17609">
        <ele>129</ele>
        <time>2017-01-24T14:14:00Z</time>
      </trkpt>
      <trkpt lat="49.45663" lon="1.17613">
        <ele>129</ele>
        <time>2017-01-24T14:14:00Z</time>
      </trkpt>
      <trkpt lat="49.45665" lon="1.17624">
        <ele>129</ele>
        <time>2017-01-24T14:14:16Z</time>
      </trkpt>
      <trkpt lat="49.45665" lon="1.17628">
        <ele>130</ele>
        <time>2017-01-24T14:14:16Z</time>
      </trkpt>
      <trkpt lat="49.45667" lon="1.17644">
        <ele>130</ele>
        <time>2017-01-24T14:14:16Z</time>
      </trkpt>
      <trkpt lat="49.45668" lon="1.17659">
        <ele>130</ele>
        <time>2017-01-24T14:14:16Z</time>
      </trkpt>
      <trkpt lat="49.4567" lon="1.1766">
        <ele>130</ele>
        <time>2017-01-24T14:14:39Z</time>
      </trkpt>
      <trkpt lat="49.45667" lon="1.17662">
        <ele>130</ele>
        <time>2017-01-24T14:14:39Z</time>
      </trkpt>
      <trkpt lat="49.45669" lon="1.17667">
        <ele>130</ele>
        <time>2017-01-24T14:14:39Z</time>
      </trkpt>
      <trkpt lat="49.45668" lon="1.17668">
        <ele>130</ele>
        <time>2017-01-24T14:14:39Z</time>
      </trkpt>
      <trkpt lat="49.45668" lon="1.17673">
        <ele>130</ele>
        <time>2017-01-24T14:14:39Z</time>
      </trkpt>
      <trkpt lat="49.45668" lon="1.17676">
        <ele>130</ele>
        <time>2017-01-24T14:14:55Z</time>
      </trkpt>
      <trkpt lat="49.45668" lon="1.17678">
        <ele>130</ele>
        <time>2017-01-24T14:14:55Z</time>
      </trkpt>
      <trkpt lat="49.45668" lon="1.17679">
        <ele>130</ele>
        <time>2017-01-24T14:14:55Z</time>
      </trkpt>
      <trkpt lat="49.45664" lon="1.17688">
        <ele>130</ele>
        <time>2017-01-24T14:14:56Z</time>
      </trkpt>
      <trkpt lat="49.45664" lon="1.177">
        <ele>130</ele>
        <time>2017-01-24T14:15:11Z</time>
      </trkpt>
      <trkpt lat="49.45659" lon="1.17712">
        <ele>133</ele>
        <time>2017-01-24T14:15:11Z</time>
      </trkpt>
      <trkpt lat="49.45662" lon="1.17722">
        <ele>133</ele>
        <time>2017-01-24T14:15:11Z</time>
      </trkpt>
      <trkpt lat="49.45664" lon="1.17731">
        <ele>133</ele>
        <time>2017-01-24T14:15:11Z</time>
      </trkpt>
      <trkpt lat="49.45669" lon="1.17743">
        <ele>133</ele>
        <time>2017-01-24T14:15:27Z</time>
      </trkpt>
      <trkpt lat="49.45669" lon="1.17749">
        <ele>133</ele>
        <time>2017-01-24T14:15:27Z</time>
      </trkpt>
      <trkpt lat="49.45676" lon="1.1775">
        <ele>133</ele>
        <time>2017-01-24T14:15:27Z</time>
      </trkpt>
      <trkpt lat="49.45676" lon="1.17756">
        <ele>133</ele>
        <time>2017-01-24T14:15:27Z</time>
      </trkpt>
      <trkpt lat="49.45685" lon="1.17759">
        <ele>133</ele>
        <time>2017-01-24T14:15:45Z</time>
      </trkpt>
      <trkpt lat="49.45692" lon="1.17762">
        <ele>133</ele>
        <time>2017-01-24T14:15:45Z</time>
      </trkpt>
      <trkpt lat="49.45692" lon="1.17763">
        <ele>133</ele>
        <time>2017-01-24T14:15:45Z</time>
      </trkpt>
      <trkpt lat="49.45695" lon="1.17767">
        <ele>133</ele>
        <time>2017-01-24T14:15:45Z</time>
      </trkpt>
      <trkpt lat="49.45696" lon="1.17768">
        <ele>133</ele>
        <time>2017-01-24T14:15:59Z</time>
      </trkpt>
      <trkpt lat="49.45696" lon="1.17769">
        <ele>133</ele>
        <time>2017-01-24T14:15:59Z</time>
      </trkpt>
      <trkpt lat="49.45703" lon="1.17772">
        <ele>133</ele>
        <time>2017-01-24T14:15:59Z</time>
      </trkpt>
      <trkpt lat="49.45707" lon="1.17775">
        <ele>133</ele>
        <time>2017-01-24T14:15:59Z</time>
      </trkpt>
      <trkpt lat="49.4572" lon="1.17775">
        <ele>136</ele>
        <time>2017-01-24T14:16:31Z</time>
      </trkpt>
      <trkpt lat="49.45724" lon="1.17779">
        <ele>136</ele>
        <time>2017-01-24T14:16:31Z</time>
      </trkpt>
      <trkpt lat="49.45726" lon="1.1778">
        <ele>136</ele>
        <time>2017-01-24T14:16:31Z</time>
      </trkpt>
      <trkpt lat="49.45728" lon="1.17781">
        <ele>136</ele>
        <time>2017-01-24T14:16:31Z</time>
      </trkpt>
      <trkpt lat="49.45738" lon="1.17777">
        <ele>136</ele>
        <time>2017-01-24T14:16:31Z</time>
      </trkpt>
      <trkpt lat="49.45744" lon="1.17775">
        <ele>136</ele>
        <time>2017-01-24T14:16:48Z</time>
      </trkpt>
      <trkpt lat="49.45745" lon="1.17773">
        <ele>136</ele>
        <time>2017-01-24T14:16:48Z</time>
      </trkpt>
      <trkpt lat="49.45748" lon="1.17771">
        <ele>136</ele>
        <time>2017-01-24T14:16:48Z</time>
      </trkpt>
      <trkpt lat="49.45752" lon="1.17766">
        <ele>136</ele>
        <time>2017-01-24T14:16:48Z</time>
      </trkpt>
      <trkpt lat="49.45755" lon="1.17765">
        <ele>136</ele>
        <time>2017-01-24T14:17:03Z</time>
      </trkpt>
      <trkpt lat="49.45759" lon="1.1776">
        <ele>136</ele>
        <time>2017-01-24T14:17:03Z</time>
      </trkpt>
      <trkpt lat="49.45764" lon="1.17759">
        <ele>136</ele>
        <time>2017-01-24T14:17:03Z</time>
      </trkpt>
      <trkpt lat="49.45766" lon="1.17756">
        <ele>136</ele>
        <time>2017-01-24T14:17:03Z</time>
      </trkpt>
      <trkpt lat="49.45771" lon="1.17752">
        <ele>136</ele>
        <time>2017-01-24T14:17:20Z</time>
      </trkpt>
      <trkpt lat="49.45774" lon="1.17751">
        <ele>136</ele>
        <time>2017-01-24T14:17:20Z</time>
      </trkpt>
      <trkpt lat="49.45776" lon="1.17747">
        <ele>136</ele>
        <time>2017-01-24T14:17:20Z</time>
      </trkpt>
      <trkpt lat="49.45781" lon="1.17743">
        <ele>136</ele>
        <time>2017-01-24T14:17:20Z</time>
      </trkpt>
      <trkpt lat="49.45784" lon="1.17734">
        <ele>136</ele>
        <time>2017-01-24T14:17:39Z</time>
      </trkpt>
      <trkpt lat="49.45788" lon="1.17737">
        <ele>136</ele>
        <time>2017-01-24T14:17:39Z</time>
      </trkpt>
      <trkpt lat="49.45787" lon="1.17728">
        <ele>136</ele>
        <time>2017-01-24T14:17:39Z</time>
      </trkpt>
      <trkpt lat="49.45786" lon="1.17725">
        <ele>136</ele>
        <time>2017-01-24T14:17:39Z</time>
      </trkpt>
      <trkpt lat="49.45781" lon="1.17719">
        <ele>136</ele>
        <time>2017-01-24T14:17:39Z</time>
      </trkpt>
      <trkpt lat="49.45783" lon="1.17716">
        <ele>136</ele>
        <time>2017-01-24T14:17:55Z</time>
      </trkpt>
      <trkpt lat="49.45786" lon="1.17713">
        <ele>136</ele>
        <time>2017-01-24T14:17:55Z</time>
      </trkpt>
      <trkpt lat="49.45789" lon="1.17708">
        <ele>139</ele>
        <time>2017-01-24T14:17:55Z</time>
      </trkpt>
      <trkpt lat="49.45791" lon="1.17705">
        <ele>139</ele>
        <time>2017-01-24T14:17:55Z</time>
      </trkpt>
      <trkpt lat="49.45794" lon="1.17694">
        <ele>144</ele>
        <time>2017-01-24T14:18:28Z</time>
      </trkpt>
      <trkpt lat="49.45795" lon="1.17693">
        <ele>144</ele>
        <time>2017-01-24T14:18:28Z</time>
      </trkpt>
      <trkpt lat="49.45799" lon="1.17687">
        <ele>144</ele>
        <time>2017-01-24T14:18:28Z</time>
      </trkpt>
      <trkpt lat="49.45802" lon="1.17683">
        <ele>144</ele>
        <time>2017-01-24T14:18:28Z</time>
      </trkpt>
      <trkpt lat="49.45807" lon="1.17678">
        <ele>144</ele>
        <time>2017-01-24T14:18:28Z</time>
      </trkpt>
      <trkpt lat="49.45812" lon="1.17676">
        <ele>144</ele>
        <time>2017-01-24T14:18:44Z</time>
      </trkpt>
      <trkpt lat="49.45816" lon="1.17671">
        <ele>144</ele>
        <time>2017-01-24T14:18:44Z</time>
      </trkpt>
      <trkpt lat="49.45819" lon="1.17663">
        <ele>144</ele>
        <time>2017-01-24T14:18:44Z</time>
      </trkpt>
      <trkpt lat="49.45822" lon="1.17656">
        <ele>144</ele>
        <time>2017-01-24T14:18:44Z</time>
      </trkpt>
      <trkpt lat="49.45825" lon="1.17651">
        <ele>144</ele>
        <time>2017-01-24T14:19:00Z</time>
      </trkpt>
      <trkpt lat="49.45828" lon="1.17647">
        <ele>144</ele>
        <time>2017-01-24T14:19:00Z</time>
      </trkpt>
      <trkpt lat="49.45832" lon="1.17641">
        <ele>144</ele>
        <time>2017-01-24T14:19:00Z</time>
      </trkpt>
      <trkpt lat="49.45834" lon="1.17636">
        <ele>144</ele>
        <time>2017-01-24T14:19:00Z</time>
      </trkpt>
      <trkpt lat="49.45836" lon="1.17629">
        <ele>144</ele>
        <time>2017-01-24T14:19:19Z</time>
      </trkpt>
      <trkpt lat="49.45839" lon="1.17624">
        <ele>144</ele>
        <time>2017-01-24T14:19:20Z</time>
      </trkpt>
      <trkpt lat="49.45842" lon="1.17622">
        <ele>144</ele>
        <time>2017-01-24T14:19:20Z</time>
      </trkpt>
      <trkpt lat="49.45843" lon="1.17622">
        <ele>144</ele>
        <time>2017-01-24T14:19:20Z</time>
      </trkpt>
      <trkpt lat="49.45846" lon="1.17627">
        <ele>144</ele>
        <time>2017-01-24T14:19:20Z</time>
      </trkpt>
      <trkpt lat="49.4585" lon="1.17632">
        <ele>144</ele>
        <time>2017-01-24T14:20:19Z</time>
      </trkpt>
      <trkpt lat="49.4585" lon="1.17626">
        <ele>144</ele>
        <time>2017-01-24T14:20:19Z</time>
      </trkpt>
      <trkpt lat="49.45852" lon="1.17623">
        <ele>144</ele>
        <time>2017-01-24T14:20:19Z</time>
      </trkpt>
      <trkpt lat="49.45852" lon="1.17615">
        <ele>144</ele>
        <time>2017-01-24T14:20:19Z</time>
      </trkpt>
      <trkpt lat="49.45852" lon="1.17605">
        <ele>144</ele>
        <time>2017-01-24T14:20:19Z</time>
      </trkpt>
      <trkpt lat="49.45855" lon="1.176">
        <ele>144</ele>
        <time>2017-01-24T14:20:35Z</time>
      </trkpt>
      <trkpt lat="49.45857" lon="1.17597">
        <ele>144</ele>
        <time>2017-01-24T14:20:35Z</time>
      </trkpt>
      <trkpt lat="49.45859" lon="1.17591">
        <ele>144</ele>
        <time>2017-01-24T14:20:35Z</time>
      </trkpt>
      <trkpt lat="49.45861" lon="1.17585">
        <ele>144</ele>
        <time>2017-01-24T14:20:35Z</time>
      </trkpt>
      <trkpt lat="49.45865" lon="1.1758">
        <ele>144</ele>
        <time>2017-01-24T14:20:51Z</time>
      </trkpt>
      <trkpt lat="49.45868" lon="1.17573">
        <ele>144</ele>
        <time>2017-01-24T14:20:53Z</time>
      </trkpt>
      <trkpt lat="49.45872" lon="1.17568">
        <ele>144</ele>
        <time>2017-01-24T14:20:53Z</time>
      </trkpt>
      <trkpt lat="49.45872" lon="1.17565">
        <ele>144</ele>
        <time>2017-01-24T14:20:53Z</time>
      </trkpt>
      <trkpt lat="49.45873" lon="1.17561">
        <ele>144</ele>
        <time>2017-01-24T14:21:08Z</time>
      </trkpt>
      <trkpt lat="49.45875" lon="1.17553">
        <ele>144</ele>
        <time>2017-01-24T14:21:08Z</time>
      </trkpt>
      <trkpt lat="49.45878" lon="1.17549">
        <ele>148</ele>
        <time>2017-01-24T14:21:08Z</time>
      </trkpt>
      <trkpt lat="49.45878" lon="1.17547">
        <ele>148</ele>
        <time>2017-01-24T14:21:08Z</time>
      </trkpt>
      <trkpt lat="49.45884" lon="1.17545">
        <ele>148</ele>
        <time>2017-01-24T14:25:28Z</time>
      </trkpt>
      <trkpt lat="49.45884" lon="1.17544">
        <ele>148</ele>
        <time>2017-01-24T14:25:28Z</time>
      </trkpt>
      <trkpt lat="49.45885" lon="1.17545">
        <ele>148</ele>
        <time>2017-01-24T14:25:28Z</time>
      </trkpt>
      <trkpt lat="49.45887" lon="1.17547">
        <ele>148</ele>
        <time>2017-01-24T14:25:28Z</time>
      </trkpt>
      <trkpt lat="49.45888" lon="1.17553">
        <ele>148</ele>
        <time>2017-01-24T14:25:28Z</time>
      </trkpt>
      <trkpt lat="49.45892" lon="1.17553">
        <ele>148</ele>
        <time>2017-01-24T14:25:43Z</time>
      </trkpt>
      <trkpt lat="49.45895" lon="1.17558">
        <ele>148</ele>
        <time>2017-01-24T14:25:43Z</time>
      </trkpt>
      <trkpt lat="49.45899" lon="1.17562">
        <ele>148</ele>
        <time>2017-01-24T14:25:43Z</time>
      </trkpt>
      <trkpt lat="49.45902" lon="1.17567">
        <ele>148</ele>
        <time>2017-01-24T14:25:43Z</time>
      </trkpt>
      <trkpt lat="49.45904" lon="1.17573">
        <ele>148</ele>
        <time>2017-01-24T14:26:00Z</time>
      </trkpt>
      <trkpt lat="49.45905" lon="1.17578">
        <ele>148</ele>
        <time>2017-01-24T14:26:00Z</time>
      </trkpt>
      <trkpt lat="49.45907" lon="1.17582">
        <ele>148</ele>
        <time>2017-01-24T14:26:00Z</time>
      </trkpt>
      <trkpt lat="49.45909" lon="1.17588">
        <ele>148</ele>
        <time>2017-01-24T14:26:00Z</time>
      </trkpt>
      <trkpt lat="49.45914" lon="1.17593">
        <ele>148</ele>
        <time>2017-01-24T14:26:15Z</time>
      </trkpt>
      <trkpt lat="49.45917" lon="1.17601">
        <ele>148</ele>
        <time>2017-01-24T14:26:15Z</time>
      </trkpt>
      <trkpt lat="49.45921" lon="1.17606">
        <ele>148</ele>
        <time>2017-01-24T14:26:15Z</time>
      </trkpt>
      <trkpt lat="49.45923" lon="1.1761">
        <ele>148</ele>
        <time>2017-01-24T14:26:15Z</time>
      </trkpt>
      <trkpt lat="49.4593" lon="1.17618">
        <ele>148</ele>
        <time>2017-01-24T14:26:31Z</time>
      </trkpt>
      <trkpt lat="49.45933" lon="1.17619">
        <ele>148</ele>
        <time>2017-01-24T14:26:31Z</time>
      </trkpt>
      <trkpt lat="49.45933" lon="1.17618">
        <ele>148</ele>
        <time>2017-01-24T14:26:31Z</time>
      </trkpt>
      <trkpt lat="49.45939" lon="1.17625">
        <ele>146</ele>
        <time>2017-01-24T14:26:31Z</time>
      </trkpt>
      <trkpt lat="49.45941" lon="1.17629">
        <ele>146</ele>
        <time>2017-01-24T14:26:47Z</time>
      </trkpt>
      <trkpt lat="49.45946" lon="1.17633">
        <ele>146</ele>
        <time>2017-01-24T14:26:47Z</time>
      </trkpt>
      <trkpt lat="49.45948" lon="1.17636">
        <ele>146</ele>
        <time>2017-01-24T14:26:49Z</time>
      </trkpt>
      <trkpt lat="49.45952" lon="1.17641">
        <ele>146</ele>
        <time>2017-01-24T14:26:49Z</time>
      </trkpt>
      <trkpt lat="49.45954" lon="1.17645">
        <ele>146</ele>
        <time>2017-01-24T14:27:03Z</time>
      </trkpt>
      <trkpt lat="49.45959" lon="1.1765">
        <ele>146</ele>
        <time>2017-01-24T14:27:03Z</time>
      </trkpt>
      <trkpt lat="49.4596" lon="1.17653">
        <ele>146</ele>
        <time>2017-01-24T14:27:03Z</time>
      </trkpt>
      <trkpt lat="49.45964" lon="1.17657">
        <ele>146</ele>
        <time>2017-01-24T14:27:03Z</time>
      </trkpt>
      <trkpt lat="49.45969" lon="1.17663">
        <ele>146</ele>
        <time>2017-01-24T14:27:19Z</time>
      </trkpt>
      <trkpt lat="49.45973" lon="1.17667">
        <ele>146</ele>
        <time>2017-01-24T14:27:19Z</time>
      </trkpt>
      <trkpt lat="49.45978" lon="1.17673">
        <ele>146</ele>
        <time>2017-01-24T14:27:19Z</time>
      </trkpt>
      <trkpt lat="49.45981" lon="1.17677">
        <ele>146</ele>
        <time>2017-01-24T14:27:19Z</time>
      </trkpt>
      <trkpt lat="49.45984" lon="1.17683">
        <ele>146</ele>
        <time>2017-01-24T14:27:36Z</time>
      </trkpt>
      <trkpt lat="49.45986" lon="1.17687">
        <ele>146</ele>
        <time>2017-01-24T14:27:36Z</time>
      </trkpt>
      <trkpt lat="49.45988" lon="1.17691">
        <ele>146</ele>
        <time>2017-01-24T14:27:36Z</time>
      </trkpt>
      <trkpt lat="49.45991" lon="1.17697">
        <ele>146</ele>
        <time>2017-01-24T14:27:36Z</time>
      </trkpt>
      <trkpt lat="49.45995" lon="1.17703">
        <ele>146</ele>
        <time>2017-01-24T14:27:53Z</time>
      </trkpt>
      <trkpt lat="49.46" lon="1.17708">
        <ele>146</ele>
        <time>2017-01-24T14:27:53Z</time>
      </trkpt>
      <trkpt lat="49.46003" lon="1.17713">
        <ele>145</ele>
        <time>2017-01-24T14:27:53Z</time>
      </trkpt>
      <trkpt lat="49.46008" lon="1.1772">
        <ele>145</ele>
        <time>2017-01-24T14:27:53Z</time>
      </trkpt>
      <trkpt lat="49.46012" lon="1.17723">
        <ele>145</ele>
        <time>2017-01-24T14:28:08Z</time>
      </trkpt>
      <trkpt lat="49.46016" lon="1.17728">
        <ele>145</ele>
        <time>2017-01-24T14:28:08Z</time>
      </trkpt>
      <trkpt lat="49.46018" lon="1.17733">
        <ele>145</ele>
        <time>2017-01-24T14:28:08Z</time>
      </trkpt>
      <trkpt lat="49.46022" lon="1.17738">
        <ele>145</ele>
        <time>2017-01-24T14:28:08Z</time>
      </trkpt>
      <trkpt lat="49.46028" lon="1.17751">
        <ele>145</ele>
        <time>2017-01-24T14:28:40Z</time>
      </trkpt>
      <trkpt lat="49.46031" lon="1.17754">
        <ele>145</ele>
        <time>2017-01-24T14:28:40Z</time>
      </trkpt>
      <trkpt lat="49.46036" lon="1.1776">
        <ele>145</ele>
        <time>2017-01-24T14:28:40Z</time>
      </trkpt>
      <trkpt lat="49.46037" lon="1.17764">
        <ele>145</ele>
        <time>2017-01-24T14:28:40Z</time>
      </trkpt>
      <trkpt lat="49.4604" lon="1.17769">
        <ele>145</ele>
        <time>2017-01-24T14:28:40Z</time>
      </trkpt>
      <trkpt lat="49.46044" lon="1.17774">
        <ele>147</ele>
        <time>2017-01-24T14:28:56Z</time>
      </trkpt>
      <trkpt lat="49.46047" lon="1.17779">
        <ele>147</ele>
        <time>2017-01-24T14:28:56Z</time>
      </trkpt>
      <trkpt lat="49.46052" lon="1.17784">
        <ele>147</ele>
        <time>2017-01-24T14:28:56Z</time>
      </trkpt>
      <trkpt lat="49.46055" lon="1.17788">
        <ele>147</ele>
        <time>2017-01-24T14:28:56Z</time>
      </trkpt>
      <trkpt lat="49.46059" lon="1.17793">
        <ele>147</ele>
        <time>2017-01-24T14:29:11Z</time>
      </trkpt>
      <trkpt lat="49.46062" lon="1.17798">
        <ele>147</ele>
        <time>2017-01-24T14:29:11Z</time>
      </trkpt>
      <trkpt lat="49.46066" lon="1.17803">
        <ele>147</ele>
        <time>2017-01-24T14:29:11Z</time>
      </trkpt>
      <trkpt lat="49.46068" lon="1.17807">
        <ele>147</ele>
        <time>2017-01-24T14:29:11Z</time>
      </trkpt>
      <trkpt lat="49.46072" lon="1.1781">
        <ele>147</ele>
        <time>2017-01-24T14:29:27Z</time>
      </trkpt>
      <trkpt lat="49.46074" lon="1.17814">
        <ele>147</ele>
        <time>2017-01-24T14:29:28Z</time>
      </trkpt>
      <trkpt lat="49.46077" lon="1.17819">
        <ele>147</ele>
        <time>2017-01-24T14:29:28Z</time>
      </trkpt>
      <trkpt lat="49.4608" lon="1.17823">
        <ele>147</ele>
        <time>2017-01-24T14:29:28Z</time>
      </trkpt>
      <trkpt lat="49.46083" lon="1.17827">
        <ele>147</ele>
        <time>2017-01-24T14:29:43Z</time>
      </trkpt>
      <trkpt lat="49.46086" lon="1.17832">
        <ele>147</ele>
        <time>2017-01-24T14:29:43Z</time>
      </trkpt>
      <trkpt lat="49.4609" lon="1.17837">
        <ele>147</ele>
        <time>2017-01-24T14:29:43Z</time>
      </trkpt>
      <trkpt lat="49.46093" lon="1.17839">
        <ele>147</ele>
        <time>2017-01-24T14:29:43Z</time>
      </trkpt>
      <trkpt lat="49.46098" lon="1.17845">
        <ele>147</ele>
        <time>2017-01-24T14:29:59Z</time>
      </trkpt>
      <trkpt lat="49.46103" lon="1.17849">
        <ele>147</ele>
        <time>2017-01-24T14:29:59Z</time>
      </trkpt>
      <trkpt lat="49.46107" lon="1.17854">
        <ele>147</ele>
        <time>2017-01-24T14:30:00Z</time>
      </trkpt>
      <trkpt lat="49.46109" lon="1.17857">
        <ele>147</ele>
        <time>2017-01-24T14:30:00Z</time>
      </trkpt>
      <trkpt lat="49.46111" lon="1.17862">
        <ele>147</ele>
        <time>2017-01-24T14:30:16Z</time>
      </trkpt>
      <trkpt lat="49.46114" lon="1.17867">
        <ele>147</ele>
        <time>2017-01-24T14:30:16Z</time>
      </trkpt>
      <trkpt lat="49.46118" lon="1.17871">
        <ele>147</ele>
        <time>2017-01-24T14:30:16Z</time>
      </trkpt>
      <trkpt lat="49.4612" lon="1.17876">
        <ele>146</ele>
        <time>2017-01-24T14:30:16Z</time>
      </trkpt>
      <trkpt lat="49.46123" lon="1.17881">
        <ele>146</ele>
        <time>2017-01-24T14:30:31Z</time>
      </trkpt>
      <trkpt lat="49.46127" lon="1.17885">
        <ele>149</ele>
        <time>2017-01-24T14:30:31Z</time>
      </trkpt>
      <trkpt lat="49.4613" lon="1.17888">
        <ele>149</ele>
        <time>2017-01-24T14:30:31Z</time>
      </trkpt>
      <trkpt lat="49.46133" lon="1.17892">
        <ele>149</ele>
        <time>2017-01-24T14:30:31Z</time>
      </trkpt>
      <trkpt lat="49.46136" lon="1.17896">
        <ele>149</ele>
        <time>2017-01-24T14:30:47Z</time>
      </trkpt>
      <trkpt lat="49.46138" lon="1.17899">
        <ele>149</ele>
        <time>2017-01-24T14:30:47Z</time>
      </trkpt>
      <trkpt lat="49.46143" lon="1.17906">
        <ele>149</ele>
        <time>2017-01-24T14:30:47Z</time>
      </trkpt>
      <trkpt lat="49.46145" lon="1.17908">
        <ele>149</ele>
        <time>2017-01-24T14:30:47Z</time>
      </trkpt>
      <trkpt lat="49.4615" lon="1.17912">
        <ele>149</ele>
        <time>2017-01-24T14:31:03Z</time>
      </trkpt>
      <trkpt lat="49.46153" lon="1.1792">
        <ele>149</ele>
        <time>2017-01-24T14:31:03Z</time>
      </trkpt>
      <trkpt lat="49.46155" lon="1.17922">
        <ele>149</ele>
        <time>2017-01-24T14:31:04Z</time>
      </trkpt>
      <trkpt lat="49.46158" lon="1.17926">
        <ele>149</ele>
        <time>2017-01-24T14:31:04Z</time>
      </trkpt>
      <trkpt lat="49.46162" lon="1.1793">
        <ele>149</ele>
        <time>2017-01-24T14:31:19Z</time>
      </trkpt>
      <trkpt lat="49.46166" lon="1.17935">
        <ele>149</ele>
        <time>2017-01-24T14:31:19Z</time>
      </trkpt>
      <trkpt lat="49.4617" lon="1.1794">
        <ele>149</ele>
        <time>2017-01-24T14:31:19Z</time>
      </trkpt>
      <trkpt lat="49.46174" lon="1.17945">
        <ele>149</ele>
        <time>2017-01-24T14:31:19Z</time>
      </trkpt>
      <trkpt lat="49.46178" lon="1.17948">
        <ele>149</ele>
        <time>2017-01-24T14:31:35Z</time>
      </trkpt>
      <trkpt lat="49.46182" lon="1.17953">
        <ele>149</ele>
        <time>2017-01-24T14:31:35Z</time>
      </trkpt>
      <trkpt lat="49.46184" lon="1.17957">
        <ele>149</ele>
        <time>2017-01-24T14:31:35Z</time>
      </trkpt>
      <trkpt lat="49.46189" lon="1.17962">
        <ele>148</ele>
        <time>2017-01-24T14:31:35Z</time>
      </trkpt>
      <trkpt lat="49.46192" lon="1.17968">
        <ele>148</ele>
        <time>2017-01-24T14:31:52Z</time>
      </trkpt>
      <trkpt lat="49.46195" lon="1.17973">
        <ele>148</ele>
        <time>2017-01-24T14:31:52Z</time>
      </trkpt>
      <trkpt lat="49.46198" lon="1.17977">
        <ele>148</ele>
        <time>2017-01-24T14:31:52Z</time>
      </trkpt>
      <trkpt lat="49.46201" lon="1.17982">
        <ele>148</ele>
        <time>2017-01-24T14:31:52Z</time>
      </trkpt>
      <trkpt lat="49.46205" lon="1.17986">
        <ele>148</ele>
        <time>2017-01-24T14:32:07Z</time>
      </trkpt>
      <trkpt lat="49.46207" lon="1.17989">
        <ele>148</ele>
        <time>2017-01-24T14:32:07Z</time>
      </trkpt>
      <trkpt lat="49.46213" lon="1.17996">
        <ele>151</ele>
        <time>2017-01-24T14:32:07Z</time>
      </trkpt>
      <trkpt lat="49.46215" lon="1.18">
        <ele>151</ele>
        <time>2017-01-24T14:32:07Z</time>
      </trkpt>
      <trkpt lat="49.46219" lon="1.18005">
        <ele>151</ele>
        <time>2017-01-24T14:32:24Z</time>
      </trkpt>
      <trkpt lat="49.46223" lon="1.18012">
        <ele>151</ele>
        <time>2017-01-24T14:32:24Z</time>
      </trkpt>
      <trkpt lat="49.46226" lon="1.18015">
        <ele>151</ele>
        <time>2017-01-24T14:32:24Z</time>
      </trkpt>
      <trkpt lat="49.4623" lon="1.1802">
        <ele>151</ele>
        <time>2017-01-24T14:32:24Z</time>
      </trkpt>
      <trkpt lat="49.46233" lon="1.18025">
        <ele>151</ele>
        <time>2017-01-24T14:32:40Z</time>
      </trkpt>
      <trkpt lat="49.46236" lon="1.1803">
        <ele>151</ele>
        <time>2017-01-24T14:32:40Z</time>
      </trkpt>
      <trkpt lat="49.4624" lon="1.18034">
        <ele>151</ele>
        <time>2017-01-24T14:32:40Z</time>
      </trkpt>
      <trkpt lat="49.46243" lon="1.18039">
        <ele>151</ele>
        <time>2017-01-24T14:32:40Z</time>
      </trkpt>
      <trkpt lat="49.46246" lon="1.18043">
        <ele>151</ele>
        <time>2017-01-24T14:32:55Z</time>
      </trkpt>
      <trkpt lat="49.46249" lon="1.18047">
        <ele>151</ele>
        <time>2017-01-24T14:32:55Z</time>
      </trkpt>
      <trkpt lat="49.46252" lon="1.18052">
        <ele>151</ele>
        <time>2017-01-24T14:32:55Z</time>
      </trkpt>
      <trkpt lat="49.46255" lon="1.18057">
        <ele>151</ele>
        <time>2017-01-24T14:32:55Z</time>
      </trkpt>
      <trkpt lat="49.46258" lon="1.18061">
        <ele>151</ele>
        <time>2017-01-24T14:33:11Z</time>
      </trkpt>
      <trkpt lat="49.46262" lon="1.18066">
        <ele>151</ele>
        <time>2017-01-24T14:33:11Z</time>
      </trkpt>
      <trkpt lat="49.46266" lon="1.1807">
        <ele>151</ele>
        <time>2017-01-24T14:33:11Z</time>
      </trkpt>
      <trkpt lat="49.4627" lon="1.18074">
        <ele>151</ele>
        <time>2017-01-24T14:33:11Z</time>
      </trkpt>
      <trkpt lat="49.46275" lon="1.18079">
        <ele>151</ele>
        <time>2017-01-24T14:33:27Z</time>
      </trkpt>
      <trkpt lat="49.46277" lon="1.18083">
        <ele>151</ele>
        <time>2017-01-24T14:33:27Z</time>
      </trkpt>
      <trkpt lat="49.46279" lon="1.18087">
        <ele>151</ele>
        <time>2017-01-24T14:33:27Z</time>
      </trkpt>
      <trkpt lat="49.46284" lon="1.18092">
        <ele>151</ele>
        <time>2017-01-24T14:33:27Z</time>
      </trkpt>
      <trkpt lat="49.46287" lon="1.18095">
        <ele>151</ele>
        <time>2017-01-24T14:33:43Z</time>
      </trkpt>
      <trkpt lat="49.46292" lon="1.18099">
        <ele>153</ele>
        <time>2017-01-24T14:33:43Z</time>
      </trkpt>
      <trkpt lat="49.46296" lon="1.18104">
        <ele>153</ele>
        <time>2017-01-24T14:33:43Z</time>
      </trkpt>
      <trkpt lat="49.463" lon="1.18108">
        <ele>153</ele>
        <time>2017-01-24T14:33:43Z</time>
      </trkpt>
      <trkpt lat="49.46303" lon="1.18111">
        <ele>153</ele>
        <time>2017-01-24T14:33:59Z</time>
      </trkpt>
      <trkpt lat="49.46306" lon="1.18114">
        <ele>153</ele>
        <time>2017-01-24T14:34:00Z</time>
      </trkpt>
      <trkpt lat="49.46311" lon="1.18116">
        <ele>153</ele>
        <time>2017-01-24T14:34:00Z</time>
      </trkpt>
      <trkpt lat="49.46314" lon="1.18116">
        <ele>153</ele>
        <time>2017-01-24T14:34:00Z</time>
      </trkpt>
      <trkpt lat="49.46319" lon="1.1812">
        <ele>153</ele>
        <time>2017-01-24T14:34:23Z</time>
      </trkpt>
      <trkpt lat="49.46322" lon="1.18123">
        <ele>153</ele>
        <time>2017-01-24T14:34:23Z</time>
      </trkpt>
      <trkpt lat="49.46322" lon="1.18123">
        <ele>153</ele>
        <time>2017-01-24T14:34:23Z</time>
      </trkpt>
      <trkpt lat="49.46322" lon="1.18123">
        <ele>153</ele>
        <time>2017-01-24T14:34:23Z</time>
      </trkpt>
      <trkpt lat="49.46325" lon="1.18125">
        <ele>152</ele>
        <time>2017-01-24T14:34:23Z</time>
      </trkpt>
      <trkpt lat="49.46325" lon="1.18126">
        <ele>152</ele>
        <time>2017-01-24T14:34:47Z</time>
      </trkpt>
      <trkpt lat="49.46325" lon="1.18125">
        <ele>152</ele>
        <time>2017-01-24T14:34:47Z</time>
      </trkpt>
      <trkpt lat="49.46328" lon="1.18128">
        <ele>152</ele>
        <time>2017-01-24T14:34:47Z</time>
      </trkpt>
      <trkpt lat="49.46329" lon="1.1813">
        <ele>152</ele>
        <time>2017-01-24T14:34:47Z</time>
      </trkpt>
      <trkpt lat="49.46334" lon="1.18133">
        <ele>152</ele>
        <time>2017-01-24T14:34:47Z</time>
      </trkpt>
      <trkpt lat="49.46336" lon="1.18133">
        <ele>152</ele>
        <time>2017-01-24T14:35:19Z</time>
      </trkpt>
      <trkpt lat="49.46339" lon="1.18135">
        <ele>152</ele>
        <time>2017-01-24T14:35:19Z</time>
      </trkpt>
      <trkpt lat="49.46344" lon="1.18138">
        <ele>152</ele>
        <time>2017-01-24T14:35:19Z</time>
      </trkpt>
      <trkpt lat="49.46351" lon="1.1814">
        <ele>152</ele>
        <time>2017-01-24T14:35:19Z</time>
      </trkpt>
      <trkpt lat="49.46353" lon="1.18141">
        <ele>152</ele>
        <time>2017-01-24T14:35:19Z</time>
      </trkpt>
      <trkpt lat="49.46358" lon="1.18144">
        <ele>152</ele>
        <time>2017-01-24T14:35:35Z</time>
      </trkpt>
      <trkpt lat="49.46362" lon="1.18145">
        <ele>152</ele>
        <time>2017-01-24T14:35:35Z</time>
      </trkpt>
      <trkpt lat="49.46366" lon="1.18146">
        <ele>152</ele>
        <time>2017-01-24T14:35:35Z</time>
      </trkpt>
      <trkpt lat="49.4637" lon="1.18147">
        <ele>152</ele>
        <time>2017-01-24T14:35:35Z</time>
      </trkpt>
      <trkpt lat="49.46378" lon="1.1815">
        <ele>154</ele>
        <time>2017-01-24T14:35:51Z</time>
      </trkpt>
      <trkpt lat="49.46382" lon="1.18151">
        <ele>154</ele>
        <time>2017-01-24T14:35:51Z</time>
      </trkpt>
      <trkpt lat="49.46386" lon="1.1815">
        <ele>154</ele>
        <time>2017-01-24T14:35:51Z</time>
      </trkpt>
      <trkpt lat="49.46391" lon="1.18146">
        <ele>154</ele>
        <time>2017-01-24T14:35:51Z</time>
      </trkpt>
      <trkpt lat="49.46393" lon="1.1814">
        <ele>154</ele>
        <time>2017-01-24T14:36:08Z</time>
      </trkpt>
      <trkpt lat="49.46397" lon="1.18135">
        <ele>154</ele>
        <time>2017-01-24T14:36:08Z</time>
      </trkpt>
      <trkpt lat="49.46399" lon="1.1813">
        <ele>154</ele>
        <time>2017-01-24T14:36:08Z</time>
      </trkpt>
      <trkpt lat="49.464" lon="1.18122">
        <ele>156</ele>
        <time>2017-01-24T14:36:08Z</time>
      </trkpt>
      <trkpt lat="49.46399" lon="1.18116">
        <ele>156</ele>
        <time>2017-01-24T14:36:23Z</time>
      </trkpt>
      <trkpt lat="49.46399" lon="1.18108">
        <ele>156</ele>
        <time>2017-01-24T14:36:23Z</time>
      </trkpt>
      <trkpt lat="49.46399" lon="1.181">
        <ele>156</ele>
        <time>2017-01-24T14:36:23Z</time>
      </trkpt>
      <trkpt lat="49.46399" lon="1.18096">
        <ele>156</ele>
        <time>2017-01-24T14:36:23Z</time>
      </trkpt>
      <trkpt lat="49.46399" lon="1.18085">
        <ele>156</ele>
        <time>2017-01-24T14:36:39Z</time>
      </trkpt>
      <trkpt lat="49.46399" lon="1.1808">
        <ele>156</ele>
        <time>2017-01-24T14:36:39Z</time>
      </trkpt>
      <trkpt lat="49.46398" lon="1.18071">
        <ele>156</ele>
        <time>2017-01-24T14:36:39Z</time>
      </trkpt>
      <trkpt lat="49.46399" lon="1.18065">
        <ele>156</ele>
        <time>2017-01-24T14:36:39Z</time>
      </trkpt>
      <trkpt lat="49.46401" lon="1.18058">
        <ele>156</ele>
        <time>2017-01-24T14:36:55Z</time>
      </trkpt>
      <trkpt lat="49.46404" lon="1.18056">
        <ele>156</ele>
        <time>2017-01-24T14:36:55Z</time>
      </trkpt>
      <trkpt lat="49.46408" lon="1.18058">
        <ele>156</ele>
        <time>2017-01-24T14:36:55Z</time>
      </trkpt>
      <trkpt lat="49.46413" lon="1.1806">
        <ele>156</ele>
        <time>2017-01-24T14:36:55Z</time>
      </trkpt>
      <trkpt lat="49.46418" lon="1.18061">
        <ele>156</ele>
        <time>2017-01-24T14:37:12Z</time>
      </trkpt>
      <trkpt lat="49.4642" lon="1.18062">
        <ele>156</ele>
        <time>2017-01-24T14:37:12Z</time>
      </trkpt>
      <trkpt lat="49.46423" lon="1.18064">
        <ele>156</ele>
        <time>2017-01-24T14:37:12Z</time>
      </trkpt>
      <trkpt lat="49.46427" lon="1.18065">
        <ele>156</ele>
        <time>2017-01-24T14:37:12Z</time>
      </trkpt>
      <trkpt lat="49.46432" lon="1.18066">
        <ele>156</ele>
        <time>2017-01-24T14:37:27Z</time>
      </trkpt>
      <trkpt lat="49.46435" lon="1.18066">
        <ele>156</ele>
        <time>2017-01-24T14:37:27Z</time>
      </trkpt>
      <trkpt lat="49.46438" lon="1.18064">
        <ele>156</ele>
        <time>2017-01-24T14:37:27Z</time>
      </trkpt>
      <trkpt lat="49.46444" lon="1.18066">
        <ele>156</ele>
        <time>2017-01-24T14:37:27Z</time>
      </trkpt>
      <trkpt lat="49.46451" lon="1.18068">
        <ele>156</ele>
        <time>2017-01-24T14:37:47Z</time>
      </trkpt>
      <trkpt lat="49.46456" lon="1.18069">
        <ele>156</ele>
        <time>2017-01-24T14:37:47Z</time>
      </trkpt>
      <trkpt lat="49.46461" lon="1.18071">
        <ele>158</ele>
        <time>2017-01-24T14:37:47Z</time>
      </trkpt>
      <trkpt lat="49.46464" lon="1.18071">
        <ele>158</ele>
        <time>2017-01-24T14:37:47Z</time>
      </trkpt>
      <trkpt lat="49.46465" lon="1.18073">
        <ele>158</ele>
        <time>2017-01-24T14:38:03Z</time>
      </trkpt>
      <trkpt lat="49.46468" lon="1.18073">
        <ele>158</ele>
        <time>2017-01-24T14:38:03Z</time>
      </trkpt>
      <trkpt lat="49.46474" lon="1.18075">
        <ele>158</ele>
        <time>2017-01-24T14:38:03Z</time>
      </trkpt>
      <trkpt lat="49.46479" lon="1.18076">
        <ele>158</ele>
        <time>2017-01-24T14:38:03Z</time>
      </trkpt>
      <trkpt lat="49.46484" lon="1.18078">
        <ele>158</ele>
        <time>2017-01-24T14:38:19Z</time>
      </trkpt>
      <trkpt lat="49.46489" lon="1.18078">
        <ele>158</ele>
        <time>2017-01-24T14:38:19Z</time>
      </trkpt>
      <trkpt lat="49.46493" lon="1.18079">
        <ele>158</ele>
        <time>2017-01-24T14:38:19Z</time>
      </trkpt>
      <trkpt lat="49.46497" lon="1.18081">
        <ele>158</ele>
        <time>2017-01-24T14:38:19Z</time>
      </trkpt>
      <trkpt lat="49.46504" lon="1.18083">
        <ele>158</ele>
        <time>2017-01-24T14:38:36Z</time>
      </trkpt>
      <trkpt lat="49.46508" lon="1.18083">
        <ele>158</ele>
        <time>2017-01-24T14:38:36Z</time>
      </trkpt>
      <trkpt lat="49.46513" lon="1.18085">
        <ele>158</ele>
        <time>2017-01-24T14:38:36Z</time>
      </trkpt>
      <trkpt lat="49.46517" lon="1.18086">
        <ele>158</ele>
        <time>2017-01-24T14:38:36Z</time>
      </trkpt>
      <trkpt lat="49.46527" lon="1.18088">
        <ele>158</ele>
        <time>2017-01-24T14:38:55Z</time>
      </trkpt>
      <trkpt lat="49.46529" lon="1.18089">
        <ele>158</ele>
        <time>2017-01-24T14:38:55Z</time>
      </trkpt>
      <trkpt lat="49.46537" lon="1.18089">
        <ele>158</ele>
        <time>2017-01-24T14:38:55Z</time>
      </trkpt>
      <trkpt lat="49.4654" lon="1.18089">
        <ele>158</ele>
        <time>2017-01-24T14:38:55Z</time>
      </trkpt>
      <trkpt lat="49.46545" lon="1.18093">
        <ele>160</ele>
        <time>2017-01-24T14:39:12Z</time>
      </trkpt>
      <trkpt lat="49.46548" lon="1.18095">
        <ele>160</ele>
        <time>2017-01-24T14:39:12Z</time>
      </trkpt>
      <trkpt lat="49.46552" lon="1.18096">
        <ele>160</ele>
        <time>2017-01-24T14:39:12Z</time>
      </trkpt>
      <trkpt lat="49.46557" lon="1.18097">
        <ele>160</ele>
        <time>2017-01-24T14:39:12Z</time>
      </trkpt>
      <trkpt lat="49.46561" lon="1.18098">
        <ele>160</ele>
        <time>2017-01-24T14:39:27Z</time>
      </trkpt>
      <trkpt lat="49.46565" lon="1.18098">
        <ele>160</ele>
        <time>2017-01-24T14:39:27Z</time>
      </trkpt>
      <trkpt lat="49.46571" lon="1.18099">
        <ele>160</ele>
        <time>2017-01-24T14:39:27Z</time>
      </trkpt>
      <trkpt lat="49.46575" lon="1.181">
        <ele>160</ele>
        <time>2017-01-24T14:39:27Z</time>
      </trkpt>
      <trkpt lat="49.46577" lon="1.18102">
        <ele>160</ele>
        <time>2017-01-24T14:39:43Z</time>
      </trkpt>
      <trkpt lat="49.46581" lon="1.18104">
        <ele>160</ele>
        <time>2017-01-24T14:39:43Z</time>
      </trkpt>
      <trkpt lat="49.46588" lon="1.18107">
        <ele>160</ele>
        <time>2017-01-24T14:39:43Z</time>
      </trkpt>
      <trkpt lat="49.46592" lon="1.18105">
        <ele>160</ele>
        <time>2017-01-24T14:39:43Z</time>
      </trkpt>
      <trkpt lat="49.46601" lon="1.18106">
        <ele>160</ele>
        <time>2017-01-24T14:40:07Z</time>
      </trkpt>
      <trkpt lat="49.46601" lon="1.18105">
        <ele>160</ele>
        <time>2017-01-24T14:40:07Z</time>
      </trkpt>
      <trkpt lat="49.46602" lon="1.18105">
        <ele>160</ele>
        <time>2017-01-24T14:40:07Z</time>
      </trkpt>
      <trkpt lat="49.46603" lon="1.18105">
        <ele>160</ele>
        <time>2017-01-24T14:40:07Z</time>
      </trkpt>
      <trkpt lat="49.46608" lon="1.18105">
        <ele>160</ele>
        <time>2017-01-24T14:40:07Z</time>
      </trkpt>
      <trkpt lat="49.46617" lon="1.18106">
        <ele>160</ele>
        <time>2017-01-24T14:40:28Z</time>
      </trkpt>
      <trkpt lat="49.46621" lon="1.18107">
        <ele>160</ele>
        <time>2017-01-24T14:40:28Z</time>
      </trkpt>
      <trkpt lat="49.46625" lon="1.18108">
        <ele>161</ele>
        <time>2017-01-24T14:40:28Z</time>
      </trkpt>
      <trkpt lat="49.46633" lon="1.18106">
        <ele>161</ele>
        <time>2017-01-24T14:40:28Z</time>
      </trkpt>
      <trkpt lat="49.46638" lon="1.18105">
        <ele>161</ele>
        <time>2017-01-24T14:40:43Z</time>
      </trkpt>
      <trkpt lat="49.46643" lon="1.18105">
        <ele>161</ele>
        <time>2017-01-24T14:40:43Z</time>
      </trkpt>
      <trkpt lat="49.46648" lon="1.18106">
        <ele>161</ele>
        <time>2017-01-24T14:40:43Z</time>
      </trkpt>
      <trkpt lat="49.46651" lon="1.18105">
        <ele>161</ele>
        <time>2017-01-24T14:40:43Z</time>
      </trkpt>
      <trkpt lat="49.46657" lon="1.18105">
        <ele>161</ele>
        <time>2017-01-24T14:40:59Z</time>
      </trkpt>
      <trkpt lat="49.46664" lon="1.18105">
        <ele>161</ele>
        <time>2017-01-24T14:40:59Z</time>
      </trkpt>
      <trkpt lat="49.4667" lon="1.18106">
        <ele>161</ele>
        <time>2017-01-24T14:40:59Z</time>
      </trkpt>
      <trkpt lat="49.46675" lon="1.18105">
        <ele>161</ele>
        <time>2017-01-24T14:40:59Z</time>
      </trkpt>
      <trkpt lat="49.46679" lon="1.18105">
        <ele>161</ele>
        <time>2017-01-24T14:41:15Z</time>
      </trkpt>
      <trkpt lat="49.46683" lon="1.18104">
        <ele>161</ele>
        <time>2017-01-24T14:41:15Z</time>
      </trkpt>
      <trkpt lat="49.46692" lon="1.18104">
        <ele>161</ele>
        <time>2017-01-24T14:41:15Z</time>
      </trkpt>
      <trkpt lat="49.46694" lon="1.18104">
        <ele>161</ele>
        <time>2017-01-24T14:41:15Z</time>
      </trkpt>
      <trkpt lat="49.46702" lon="1.18103">
        <ele>161</ele>
        <time>2017-01-24T14:41:31Z</time>
      </trkpt>
      <trkpt lat="49.46705" lon="1.18103">
        <ele>161</ele>
        <time>2017-01-24T14:41:32Z</time>
      </trkpt>
      <trkpt lat="49.46711" lon="1.18103">
        <ele>161</ele>
        <time>2017-01-24T14:41:32Z</time>
      </trkpt>
      <trkpt lat="49.46714" lon="1.18102">
        <ele>161</ele>
        <time>2017-01-24T14:41:32Z</time>
      </trkpt>
      <trkpt lat="49.46716" lon="1.18099">
        <ele>161</ele>
        <time>2017-01-24T14:41:47Z</time>
      </trkpt>
      <trkpt lat="49.46714" lon="1.1809">
        <ele>161</ele>
        <time>2017-01-24T14:41:47Z</time>
      </trkpt>
      <trkpt lat="49.46716" lon="1.18083">
        <ele>161</ele>
        <time>2017-01-24T14:41:47Z</time>
      </trkpt>
      <trkpt lat="49.46715" lon="1.18077">
        <ele>161</ele>
        <time>2017-01-24T14:41:47Z</time>
      </trkpt>
      <trkpt lat="49.46718" lon="1.18071">
        <ele>161</ele>
        <time>2017-01-24T14:42:03Z</time>
      </trkpt>
      <trkpt lat="49.46722" lon="1.18068">
        <ele>161</ele>
        <time>2017-01-24T14:42:03Z</time>
      </trkpt>
      <trkpt lat="49.46725" lon="1.18068">
        <ele>161</ele>
        <time>2017-01-24T14:42:03Z</time>
      </trkpt>
      <trkpt lat="49.46729" lon="1.18067">
        <ele>161</ele>
        <time>2017-01-24T14:42:03Z</time>
      </trkpt>
      <trkpt lat="49.46733" lon="1.18064">
        <ele>161</ele>
        <time>2017-01-24T14:42:19Z</time>
      </trkpt>
      <trkpt lat="49.46734" lon="1.18063">
        <ele>161</ele>
        <time>2017-01-24T14:42:19Z</time>
      </trkpt>
      <trkpt lat="49.46739" lon="1.18061">
        <ele>161</ele>
        <time>2017-01-24T14:42:19Z</time>
      </trkpt>
      <trkpt lat="49.46742" lon="1.1806">
        <ele>161</ele>
        <time>2017-01-24T14:42:19Z</time>
      </trkpt>
      <trkpt lat="49.46748" lon="1.18061">
        <ele>161</ele>
        <time>2017-01-24T14:42:35Z</time>
      </trkpt>
      <trkpt lat="49.46757" lon="1.18057">
        <ele>161</ele>
        <time>2017-01-24T14:42:35Z</time>
      </trkpt>
      <trkpt lat="49.4676" lon="1.18056">
        <ele>161</ele>
        <time>2017-01-24T14:42:35Z</time>
      </trkpt>
      <trkpt lat="49.4677" lon="1.18054">
        <ele>161</ele>
        <time>2017-01-24T14:42:35Z</time>
      </trkpt>
      <trkpt lat="49.46772" lon="1.18053">
        <ele>161</ele>
        <time>2017-01-24T14:42:51Z</time>
      </trkpt>
      <trkpt lat="49.46779" lon="1.18053">
        <ele>161</ele>
        <time>2017-01-24T14:42:51Z</time>
      </trkpt>
      <trkpt lat="49.46781" lon="1.18052">
        <ele>161</ele>
        <time>2017-01-24T14:42:51Z</time>
      </trkpt>
      <trkpt lat="49.46784" lon="1.18053">
        <ele>161</ele>
        <time>2017-01-24T14:42:51Z</time>
      </trkpt>
      <trkpt lat="49.46789" lon="1.18052">
        <ele>161</ele>
        <time>2017-01-24T14:43:08Z</time>
      </trkpt>
      <trkpt lat="49.46794" lon="1.18049">
        <ele>160</ele>
        <time>2017-01-24T14:43:08Z</time>
      </trkpt>
      <trkpt lat="49.468" lon="1.18049">
        <ele>160</ele>
        <time>2017-01-24T14:43:08Z</time>
      </trkpt>
      <trkpt lat="49.46808" lon="1.18051">
        <ele>160</ele>
        <time>2017-01-24T14:43:08Z</time>
      </trkpt>
      <trkpt lat="49.46812" lon="1.18049">
        <ele>160</ele>
        <time>2017-01-24T14:43:24Z</time>
      </trkpt>
      <trkpt lat="49.46817" lon="1.18049">
        <ele>160</ele>
        <time>2017-01-24T14:43:24Z</time>
      </trkpt>
      <trkpt lat="49.46822" lon="1.18047">
        <ele>160</ele>
        <time>2017-01-24T14:43:24Z</time>
      </trkpt>
      <trkpt lat="49.46829" lon="1.18046">
        <ele>160</ele>
        <time>2017-01-24T14:43:24Z</time>
      </trkpt>
      <trkpt lat="49.46832" lon="1.18044">
        <ele>160</ele>
        <time>2017-01-24T14:43:39Z</time>
      </trkpt>
      <trkpt lat="49.46837" lon="1.18043">
        <ele>160</ele>
        <time>2017-01-24T14:43:39Z</time>
      </trkpt>
      <trkpt lat="49.46843" lon="1.18043">
        <ele>160</ele>
        <time>2017-01-24T14:43:39Z</time>
      </trkpt>
      <trkpt lat="49.46847" lon="1.18042">
        <ele>160</ele>
        <time>2017-01-24T14:43:39Z</time>
      </trkpt>
      <trkpt lat="49.46852" lon="1.1804">
        <ele>157</ele>
        <time>2017-01-24T14:43:55Z</time>
      </trkpt>
      <trkpt lat="49.46857" lon="1.18039">
        <ele>157</ele>
        <time>2017-01-24T14:43:55Z</time>
      </trkpt>
      <trkpt lat="49.46863" lon="1.18038">
        <ele>157</ele>
        <time>2017-01-24T14:43:55Z</time>
      </trkpt>
      <trkpt lat="49.46865" lon="1.18035">
        <ele>157</ele>
        <time>2017-01-24T14:43:55Z</time>
      </trkpt>
      <trkpt lat="49.46871" lon="1.18033">
        <ele>157</ele>
        <time>2017-01-24T14:44:11Z</time>
      </trkpt>
      <trkpt lat="49.46875" lon="1.18031">
        <ele>157</ele>
        <time>2017-01-24T14:44:11Z</time>
      </trkpt>
      <trkpt lat="49.46881" lon="1.18029">
        <ele>158</ele>
        <time>2017-01-24T14:44:11Z</time>
      </trkpt>
      <trkpt lat="49.46886" lon="1.18029">
        <ele>158</ele>
        <time>2017-01-24T14:44:11Z</time>
      </trkpt>
      <trkpt lat="49.46889" lon="1.18029">
        <ele>158</ele>
        <time>2017-01-24T14:44:27Z</time>
      </trkpt>
      <trkpt lat="49.46894" lon="1.18028">
        <ele>158</ele>
        <time>2017-01-24T14:44:27Z</time>
      </trkpt>
      <trkpt lat="49.46898" lon="1.18027">
        <ele>158</ele>
        <time>2017-01-24T14:44:27Z</time>
      </trkpt>
      <trkpt lat="49.46904" lon="1.18027">
        <ele>158</ele>
        <time>2017-01-24T14:44:27Z</time>
      </trkpt>
      <trkpt lat="49.46907" lon="1.18026">
        <ele>158</ele>
        <time>2017-01-24T14:44:44Z</time>
      </trkpt>
      <trkpt lat="49.46912" lon="1.18021">
        <ele>158</ele>
        <time>2017-01-24T14:44:46Z</time>
      </trkpt>
      <trkpt lat="49.46915" lon="1.1802">
        <ele>158</ele>
        <time>2017-01-24T14:44:46Z</time>
      </trkpt>
      <trkpt lat="49.46921" lon="1.18018">
        <ele>158</ele>
        <time>2017-01-24T14:44:46Z</time>
      </trkpt>
      <trkpt lat="49.46925" lon="1.18017">
        <ele>158</ele>
        <time>2017-01-24T14:45:00Z</time>
      </trkpt>
      <trkpt lat="49.4693" lon="1.18014">
        <ele>158</ele>
        <time>2017-01-24T14:45:00Z</time>
      </trkpt>
      <trkpt lat="49.46933" lon="1.18012">
        <ele>158</ele>
        <time>2017-01-24T14:45:00Z</time>
      </trkpt>
      <trkpt lat="49.46939" lon="1.18013">
        <ele>158</ele>
        <time>2017-01-24T14:45:00Z</time>
      </trkpt>
      <trkpt lat="49.46943" lon="1.18011">
        <ele>158</ele>
        <time>2017-01-24T14:45:16Z</time>
      </trkpt>
      <trkpt lat="49.46947" lon="1.18009">
        <ele>158</ele>
        <time>2017-01-24T14:45:16Z</time>
      </trkpt>
      <trkpt lat="49.46951" lon="1.18006">
        <ele>158</ele>
        <time>2017-01-24T14:45:16Z</time>
      </trkpt>
      <trkpt lat="49.46955" lon="1.18003">
        <ele>158</ele>
        <time>2017-01-24T14:45:16Z</time>
      </trkpt>
      <trkpt lat="49.46962" lon="1.18">
        <ele>153</ele>
        <time>2017-01-24T14:45:31Z</time>
      </trkpt>
      <trkpt lat="49.46969" lon="1.17996">
        <ele>153</ele>
        <time>2017-01-24T14:45:31Z</time>
      </trkpt>
      <trkpt lat="49.46973" lon="1.17994">
        <ele>153</ele>
        <time>2017-01-24T14:45:31Z</time>
      </trkpt>
      <trkpt lat="49.46977" lon="1.1799">
        <ele>153</ele>
        <time>2017-01-24T14:45:31Z</time>
      </trkpt>
      <trkpt lat="49.46982" lon="1.17989">
        <ele>153</ele>
        <time>2017-01-24T14:45:47Z</time>
      </trkpt>
      <trkpt lat="49.46987" lon="1.17986">
        <ele>153</ele>
        <time>2017-01-24T14:45:47Z</time>
      </trkpt>
      <trkpt lat="49.46991" lon="1.17985">
        <ele>153</ele>
        <time>2017-01-24T14:45:47Z</time>
      </trkpt>
      <trkpt lat="49.46994" lon="1.17982">
        <ele>153</ele>
        <time>2017-01-24T14:45:47Z</time>
      </trkpt>
      <trkpt lat="49.47" lon="1.17978">
        <ele>153</ele>
        <time>2017-01-24T14:46:04Z</time>
      </trkpt>
      <trkpt lat="49.47003" lon="1.17976">
        <ele>153</ele>
        <time>2017-01-24T14:46:04Z</time>
      </trkpt>
      <trkpt lat="49.47008" lon="1.17973">
        <ele>153</ele>
        <time>2017-01-24T14:46:04Z</time>
      </trkpt>
      <trkpt lat="49.47013" lon="1.17971">
        <ele>153</ele>
        <time>2017-01-24T14:46:04Z</time>
      </trkpt>
      <trkpt lat="49.47018" lon="1.17968">
        <ele>153</ele>
        <time>2017-01-24T14:46:20Z</time>
      </trkpt>
      <trkpt lat="49.47024" lon="1.17965">
        <ele>153</ele>
        <time>2017-01-24T14:46:20Z</time>
      </trkpt>
      <trkpt lat="49.47026" lon="1.17964">
        <ele>153</ele>
        <time>2017-01-24T14:46:20Z</time>
      </trkpt>
      <trkpt lat="49.47033" lon="1.1796">
        <ele>153</ele>
        <time>2017-01-24T14:46:20Z</time>
      </trkpt>
      <trkpt lat="49.47042" lon="1.17954">
        <ele>149</ele>
        <time>2017-01-24T14:46:39Z</time>
      </trkpt>
      <trkpt lat="49.47046" lon="1.17951">
        <ele>149</ele>
        <time>2017-01-24T14:46:39Z</time>
      </trkpt>
      <trkpt lat="49.47052" lon="1.17949">
        <ele>149</ele>
        <time>2017-01-24T14:46:39Z</time>
      </trkpt>
      <trkpt lat="49.47056" lon="1.17945">
        <ele>149</ele>
        <time>2017-01-24T14:46:39Z</time>
      </trkpt>
      <trkpt lat="49.4706" lon="1.17942">
        <ele>149</ele>
        <time>2017-01-24T14:46:55Z</time>
      </trkpt>
      <trkpt lat="49.47064" lon="1.17937">
        <ele>149</ele>
        <time>2017-01-24T14:46:55Z</time>
      </trkpt>
      <trkpt lat="49.4707" lon="1.17931">
        <ele>149</ele>
        <time>2017-01-24T14:46:55Z</time>
      </trkpt>
      <trkpt lat="49.47073" lon="1.17928">
        <ele>149</ele>
        <time>2017-01-24T14:46:55Z</time>
      </trkpt>
      <trkpt lat="49.47077" lon="1.17922">
        <ele>149</ele>
        <time>2017-01-24T14:47:12Z</time>
      </trkpt>
      <trkpt lat="49.47082" lon="1.17918">
        <ele>149</ele>
        <time>2017-01-24T14:47:12Z</time>
      </trkpt>
      <trkpt lat="49.47086" lon="1.17913">
        <ele>149</ele>
        <time>2017-01-24T14:47:12Z</time>
      </trkpt>
      <trkpt lat="49.4709" lon="1.17907">
        <ele>149</ele>
        <time>2017-01-24T14:47:12Z</time>
      </trkpt>
      <trkpt lat="49.47093" lon="1.17903">
        <ele>149</ele>
        <time>2017-01-24T14:47:28Z</time>
      </trkpt>
      <trkpt lat="49.47097" lon="1.17899">
        <ele>149</ele>
        <time>2017-01-24T14:47:28Z</time>
      </trkpt>
      <trkpt lat="49.471" lon="1.17894">
        <ele>149</ele>
        <time>2017-01-24T14:47:28Z</time>
      </trkpt>
      <trkpt lat="49.47105" lon="1.1789">
        <ele>149</ele>
        <time>2017-01-24T14:47:28Z</time>
      </trkpt>
      <trkpt lat="49.47108" lon="1.17886">
        <ele>149</ele>
        <time>2017-01-24T14:47:43Z</time>
      </trkpt>
      <trkpt lat="49.47113" lon="1.17881">
        <ele>149</ele>
        <time>2017-01-24T14:47:43Z</time>
      </trkpt>
      <trkpt lat="49.47117" lon="1.17877">
        <ele>149</ele>
        <time>2017-01-24T14:47:43Z</time>
      </trkpt>
      <trkpt lat="49.47121" lon="1.17872">
        <ele>151</ele>
        <time>2017-01-24T14:47:43Z</time>
      </trkpt>
      <trkpt lat="49.47125" lon="1.17867">
        <ele>149</ele>
        <time>2017-01-24T14:47:59Z</time>
      </trkpt>
      <trkpt lat="49.47128" lon="1.17864">
        <ele>149</ele>
        <time>2017-01-24T14:47:59Z</time>
      </trkpt>
      <trkpt lat="49.47133" lon="1.17857">
        <ele>149</ele>
        <time>2017-01-24T14:47:59Z</time>
      </trkpt>
      <trkpt lat="49.47134" lon="1.17857">
        <ele>149</ele>
        <time>2017-01-24T14:47:59Z</time>
      </trkpt>
      <trkpt lat="49.47139" lon="1.17852">
        <ele>149</ele>
        <time>2017-01-24T14:48:16Z</time>
      </trkpt>
      <trkpt lat="49.47144" lon="1.17847">
        <ele>149</ele>
        <time>2017-01-24T14:48:16Z</time>
      </trkpt>
      <trkpt lat="49.47146" lon="1.17844">
        <ele>149</ele>
        <time>2017-01-24T14:48:16Z</time>
      </trkpt>
      <trkpt lat="49.47152" lon="1.17837">
        <ele>149</ele>
        <time>2017-01-24T14:48:16Z</time>
      </trkpt>
      <trkpt lat="49.47154" lon="1.17835">
        <ele>149</ele>
        <time>2017-01-24T14:48:32Z</time>
      </trkpt>
      <trkpt lat="49.47161" lon="1.17827">
        <ele>149</ele>
        <time>2017-01-24T14:48:32Z</time>
      </trkpt>
      <trkpt lat="49.47163" lon="1.17823">
        <ele>149</ele>
        <time>2017-01-24T14:48:32Z</time>
      </trkpt>
      <trkpt lat="49.47167" lon="1.17818">
        <ele>149</ele>
        <time>2017-01-24T14:48:32Z</time>
      </trkpt>
      <trkpt lat="49.47176" lon="1.17808">
        <ele>149</ele>
        <time>2017-01-24T14:48:51Z</time>
      </trkpt>
      <trkpt lat="49.47179" lon="1.17805">
        <ele>149</ele>
        <time>2017-01-24T14:48:51Z</time>
      </trkpt>
      <trkpt lat="49.47184" lon="1.17799">
        <ele>149</ele>
        <time>2017-01-24T14:48:51Z</time>
      </trkpt>
      <trkpt lat="49.47186" lon="1.17795">
        <ele>149</ele>
        <time>2017-01-24T14:48:51Z</time>
      </trkpt>
      <trkpt lat="49.47196" lon="1.17785">
        <ele>151</ele>
        <time>2017-01-24T14:49:13Z</time>
      </trkpt>
      <trkpt lat="49.472" lon="1.1778">
        <ele>151</ele>
        <time>2017-01-24T14:49:13Z</time>
      </trkpt>
      <trkpt lat="49.47205" lon="1.17774">
        <ele>151</ele>
        <time>2017-01-24T14:49:13Z</time>
      </trkpt>
      <trkpt lat="49.47209" lon="1.17769">
        <ele>150</ele>
        <time>2017-01-24T14:49:13Z</time>
      </trkpt>
      <trkpt lat="49.47212" lon="1.17765">
        <ele>150</ele>
        <time>2017-01-24T14:49:27Z</time>
      </trkpt>
      <trkpt lat="49.47216" lon="1.17761">
        <ele>150</ele>
        <time>2017-01-24T14:49:27Z</time>
      </trkpt>
      <trkpt lat="49.47221" lon="1.17756">
        <ele>150</ele>
        <time>2017-01-24T14:49:27Z</time>
      </trkpt>
      <trkpt lat="49.47224" lon="1.17751">
        <ele>150</ele>
        <time>2017-01-24T14:49:27Z</time>
      </trkpt>
      <trkpt lat="49.47228" lon="1.17747">
        <ele>150</ele>
        <time>2017-01-24T14:49:43Z</time>
      </trkpt>
      <trkpt lat="49.47231" lon="1.17745">
        <ele>150</ele>
        <time>2017-01-24T14:49:43Z</time>
      </trkpt>
      <trkpt lat="49.47235" lon="1.17745">
        <ele>150</ele>
        <time>2017-01-24T14:49:43Z</time>
      </trkpt>
      <trkpt lat="49.47238" lon="1.17741">
        <ele>150</ele>
        <time>2017-01-24T14:49:43Z</time>
      </trkpt>
      <trkpt lat="49.47241" lon="1.17739">
        <ele>150</ele>
        <time>2017-01-24T14:49:59Z</time>
      </trkpt>
      <trkpt lat="49.47243" lon="1.17738">
        <ele>150</ele>
        <time>2017-01-24T14:50:00Z</time>
      </trkpt>
      <trkpt lat="49.47247" lon="1.17732">
        <ele>150</ele>
        <time>2017-01-24T14:50:00Z</time>
      </trkpt>
      <trkpt lat="49.47248" lon="1.17729">
        <ele>150</ele>
        <time>2017-01-24T14:50:00Z</time>
      </trkpt>
      <trkpt lat="49.47251" lon="1.17724">
        <ele>150</ele>
        <time>2017-01-24T14:50:15Z</time>
      </trkpt>
      <trkpt lat="49.47257" lon="1.17717">
        <ele>150</ele>
        <time>2017-01-24T14:50:15Z</time>
      </trkpt>
      <trkpt lat="49.47261" lon="1.17712">
        <ele>150</ele>
        <time>2017-01-24T14:50:15Z</time>
      </trkpt>
      <trkpt lat="49.47264" lon="1.17709">
        <ele>150</ele>
        <time>2017-01-24T14:50:15Z</time>
      </trkpt>
      <trkpt lat="49.47267" lon="1.17705">
        <ele>152</ele>
        <time>2017-01-24T14:50:31Z</time>
      </trkpt>
      <trkpt lat="49.47273" lon="1.177">
        <ele>152</ele>
        <time>2017-01-24T14:50:33Z</time>
      </trkpt>
      <trkpt lat="49.47274" lon="1.17698">
        <ele>152</ele>
        <time>2017-01-24T14:50:33Z</time>
      </trkpt>
      <trkpt lat="49.4728" lon="1.17691">
        <ele>152</ele>
        <time>2017-01-24T14:50:33Z</time>
      </trkpt>
      <trkpt lat="49.47287" lon="1.17685">
        <ele>152</ele>
        <time>2017-01-24T14:50:51Z</time>
      </trkpt>
      <trkpt lat="49.47291" lon="1.17681">
        <ele>152</ele>
        <time>2017-01-24T14:50:51Z</time>
      </trkpt>
      <trkpt lat="49.47295" lon="1.17676">
        <ele>149</ele>
        <time>2017-01-24T14:50:51Z</time>
      </trkpt>
      <trkpt lat="49.47298" lon="1.17672">
        <ele>149</ele>
        <time>2017-01-24T14:50:51Z</time>
      </trkpt>
      <trkpt lat="49.47301" lon="1.17668">
        <ele>149</ele>
        <time>2017-01-24T14:51:07Z</time>
      </trkpt>
      <trkpt lat="49.47306" lon="1.17661">
        <ele>149</ele>
        <time>2017-01-24T14:51:07Z</time>
      </trkpt>
      <trkpt lat="49.47308" lon="1.17659">
        <ele>149</ele>
        <time>2017-01-24T14:51:07Z</time>
      </trkpt>
      <trkpt lat="49.47313" lon="1.17654">
        <ele>149</ele>
        <time>2017-01-24T14:51:07Z</time>
      </trkpt>
      <trkpt lat="49.47318" lon="1.17647">
        <ele>149</ele>
        <time>2017-01-24T14:51:23Z</time>
      </trkpt>
      <trkpt lat="49.47321" lon="1.17643">
        <ele>149</ele>
        <time>2017-01-24T14:51:23Z</time>
      </trkpt>
      <trkpt lat="49.47327" lon="1.17637">
        <ele>149</ele>
        <time>2017-01-24T14:51:26Z</time>
      </trkpt>
      <trkpt lat="49.47331" lon="1.17633">
        <ele>149</ele>
        <time>2017-01-24T14:51:26Z</time>
      </trkpt>
      <trkpt lat="49.47339" lon="1.17625">
        <ele>151</ele>
        <time>2017-01-24T14:51:43Z</time>
      </trkpt>
      <trkpt lat="49.47342" lon="1.17619">
        <ele>151</ele>
        <time>2017-01-24T14:51:43Z</time>
      </trkpt>
      <trkpt lat="49.47347" lon="1.17613">
        <ele>151</ele>
        <time>2017-01-24T14:51:43Z</time>
      </trkpt>
      <trkpt lat="49.47348" lon="1.17612">
        <ele>151</ele>
        <time>2017-01-24T14:51:43Z</time>
      </trkpt>
      <trkpt lat="49.47354" lon="1.17605">
        <ele>151</ele>
        <time>2017-01-24T14:52:00Z</time>
      </trkpt>
      <trkpt lat="49.47356" lon="1.17602">
        <ele>151</ele>
        <time>2017-01-24T14:52:00Z</time>
      </trkpt>
      <trkpt lat="49.47362" lon="1.17595">
        <ele>151</ele>
        <time>2017-01-24T14:52:00Z</time>
      </trkpt>
      <trkpt lat="49.47366" lon="1.1759">
        <ele>151</ele>
        <time>2017-01-24T14:52:00Z</time>
      </trkpt>
      <trkpt lat="49.47369" lon="1.17585">
        <ele>151</ele>
        <time>2017-01-24T14:52:15Z</time>
      </trkpt>
      <trkpt lat="49.47373" lon="1.1758">
        <ele>151</ele>
        <time>2017-01-24T14:52:15Z</time>
      </trkpt>
      <trkpt lat="49.47375" lon="1.17577">
        <ele>149</ele>
        <time>2017-01-24T14:52:15Z</time>
      </trkpt>
      <trkpt lat="49.4738" lon="1.17569">
        <ele>149</ele>
        <time>2017-01-24T14:52:15Z</time>
      </trkpt>
      <trkpt lat="49.47383" lon="1.17566">
        <ele>149</ele>
        <time>2017-01-24T14:52:31Z</time>
      </trkpt>
      <trkpt lat="49.47386" lon="1.17563">
        <ele>149</ele>
        <time>2017-01-24T14:52:31Z</time>
      </trkpt>
      <trkpt lat="49.4739" lon="1.17555">
        <ele>149</ele>
        <time>2017-01-24T14:52:31Z</time>
      </trkpt>
      <trkpt lat="49.47393" lon="1.17549">
        <ele>149</ele>
        <time>2017-01-24T14:52:31Z</time>
      </trkpt>
      <trkpt lat="49.47396" lon="1.17545">
        <ele>149</ele>
        <time>2017-01-24T14:52:47Z</time>
      </trkpt>
      <trkpt lat="49.47399" lon="1.17541">
        <ele>151</ele>
        <time>2017-01-24T14:52:47Z</time>
      </trkpt>
      <trkpt lat="49.47404" lon="1.17536">
        <ele>151</ele>
        <time>2017-01-24T14:52:47Z</time>
      </trkpt>
      <trkpt lat="49.47406" lon="1.17534">
        <ele>151</ele>
        <time>2017-01-24T14:52:47Z</time>
      </trkpt>
      <trkpt lat="49.47408" lon="1.1753">
        <ele>151</ele>
        <time>2017-01-24T14:53:03Z</time>
      </trkpt>
      <trkpt lat="49.47417" lon="1.17521">
        <ele>151</ele>
        <time>2017-01-24T14:53:03Z</time>
      </trkpt>
      <trkpt lat="49.4742" lon="1.17517">
        <ele>151</ele>
        <time>2017-01-24T14:53:04Z</time>
      </trkpt>
      <trkpt lat="49.47425" lon="1.17513">
        <ele>151</ele>
        <time>2017-01-24T14:53:04Z</time>
      </trkpt>
      <trkpt lat="49.47427" lon="1.17508">
        <ele>151</ele>
        <time>2017-01-24T14:53:20Z</time>
      </trkpt>
      <trkpt lat="49.47432" lon="1.17504">
        <ele>151</ele>
        <time>2017-01-24T14:53:20Z</time>
      </trkpt>
      <trkpt lat="49.47437" lon="1.175">
        <ele>151</ele>
        <time>2017-01-24T14:53:20Z</time>
      </trkpt>
      <trkpt lat="49.47442" lon="1.17496">
        <ele>151</ele>
        <time>2017-01-24T14:53:20Z</time>
      </trkpt>
      <trkpt lat="49.47446" lon="1.17491">
        <ele>151</ele>
        <time>2017-01-24T14:53:35Z</time>
      </trkpt>
      <trkpt lat="49.4745" lon="1.17487">
        <ele>151</ele>
        <time>2017-01-24T14:53:35Z</time>
      </trkpt>
      <trkpt lat="49.47453" lon="1.17485">
        <ele>151</ele>
        <time>2017-01-24T14:53:35Z</time>
      </trkpt>
      <trkpt lat="49.47458" lon="1.1748">
        <ele>151</ele>
        <time>2017-01-24T14:53:35Z</time>
      </trkpt>
      <trkpt lat="49.47464" lon="1.17474">
        <ele>148</ele>
        <time>2017-01-24T14:53:52Z</time>
      </trkpt>
      <trkpt lat="49.47469" lon="1.1747">
        <ele>148</ele>
        <time>2017-01-24T14:53:52Z</time>
      </trkpt>
      <trkpt lat="49.47473" lon="1.17463">
        <ele>148</ele>
        <time>2017-01-24T14:53:52Z</time>
      </trkpt>
      <trkpt lat="49.47476" lon="1.1746">
        <ele>148</ele>
        <time>2017-01-24T14:53:52Z</time>
      </trkpt>
      <trkpt lat="49.47479" lon="1.17458">
        <ele>148</ele>
        <time>2017-01-24T14:54:08Z</time>
      </trkpt>
      <trkpt lat="49.47484" lon="1.17453">
        <ele>148</ele>
        <time>2017-01-24T14:54:08Z</time>
      </trkpt>
      <trkpt lat="49.47488" lon="1.17449">
        <ele>148</ele>
        <time>2017-01-24T14:54:08Z</time>
      </trkpt>
      <trkpt lat="49.4749" lon="1.17448">
        <ele>148</ele>
        <time>2017-01-24T14:54:08Z</time>
      </trkpt>
      <trkpt lat="49.47491" lon="1.17446">
        <ele>148</ele>
        <time>2017-01-24T14:54:27Z</time>
      </trkpt>
      <trkpt lat="49.47504" lon="1.17431">
        <ele>148</ele>
        <time>2017-01-24T14:54:27Z</time>
      </trkpt>
      <trkpt lat="49.47511" lon="1.17423">
        <ele>148</ele>
        <time>2017-01-24T14:54:27Z</time>
      </trkpt>
      <trkpt lat="49.47513" lon="1.1742">
        <ele>148</ele>
        <time>2017-01-24T14:54:27Z</time>
      </trkpt>
      <trkpt lat="49.47515" lon="1.17414">
        <ele>148</ele>
        <time>2017-01-24T14:54:43Z</time>
      </trkpt>
      <trkpt lat="49.47519" lon="1.17409">
        <ele>148</ele>
        <time>2017-01-24T14:54:43Z</time>
      </trkpt>
      <trkpt lat="49.47524" lon="1.17403">
        <ele>148</ele>
        <time>2017-01-24T14:54:44Z</time>
      </trkpt>
      <trkpt lat="49.47527" lon="1.17398">
        <ele>148</ele>
        <time>2017-01-24T14:54:45Z</time>
      </trkpt>
      <trkpt lat="49.47529" lon="1.17393">
        <ele>148</ele>
        <time>2017-01-24T14:55:00Z</time>
      </trkpt>
      <trkpt lat="49.47532" lon="1.17387">
        <ele>148</ele>
        <time>2017-01-24T14:55:00Z</time>
      </trkpt>
      <trkpt lat="49.47537" lon="1.1738">
        <ele>148</ele>
        <time>2017-01-24T14:55:00Z</time>
      </trkpt>
      <trkpt lat="49.47541" lon="1.17374">
        <ele>149</ele>
        <time>2017-01-24T14:55:00Z</time>
      </trkpt>
      <trkpt lat="49.47545" lon="1.17369">
        <ele>147</ele>
        <time>2017-01-24T14:55:17Z</time>
      </trkpt>
      <trkpt lat="49.47549" lon="1.17363">
        <ele>147</ele>
        <time>2017-01-24T14:55:18Z</time>
      </trkpt>
      <trkpt lat="49.47552" lon="1.17358">
        <ele>147</ele>
        <time>2017-01-24T14:55:18Z</time>
      </trkpt>
      <trkpt lat="49.47555" lon="1.17354">
        <ele>147</ele>
        <time>2017-01-24T14:55:18Z</time>
      </trkpt>
      <trkpt lat="49.47558" lon="1.1735">
        <ele>147</ele>
        <time>2017-01-24T14:55:31Z</time>
      </trkpt>
      <trkpt lat="49.47564" lon="1.17343">
        <ele>147</ele>
        <time>2017-01-24T14:55:31Z</time>
      </trkpt>
      <trkpt lat="49.47567" lon="1.17338">
        <ele>147</ele>
        <time>2017-01-24T14:55:31Z</time>
      </trkpt>
      <trkpt lat="49.4757" lon="1.17336">
        <ele>147</ele>
        <time>2017-01-24T14:55:31Z</time>
      </trkpt>
      <trkpt lat="49.4758" lon="1.17324">
        <ele>147</ele>
        <time>2017-01-24T14:57:00Z</time>
      </trkpt>
      <trkpt lat="49.4758" lon="1.17324">
        <ele>147</ele>
        <time>2017-01-24T14:57:00Z</time>
      </trkpt>
      <trkpt lat="49.4758" lon="1.17324">
        <ele>147</ele>
        <time>2017-01-24T14:57:00Z</time>
      </trkpt>
      <trkpt lat="49.47582" lon="1.17325">
        <ele>147</ele>
        <time>2017-01-24T14:57:00Z</time>
      </trkpt>
      <trkpt lat="49.47585" lon="1.17321">
        <ele>147</ele>
        <time>2017-01-24T14:57:00Z</time>
      </trkpt>
      <trkpt lat="49.47585" lon="1.17319">
        <ele>147</ele>
        <time>2017-01-24T14:57:16Z</time>
      </trkpt>
      <trkpt lat="49.4759" lon="1.17308">
        <ele>147</ele>
        <time>2017-01-24T14:57:16Z</time>
      </trkpt>
      <trkpt lat="49.47592" lon="1.17303">
        <ele>147</ele>
        <time>2017-01-24T14:57:16Z</time>
      </trkpt>
      <trkpt lat="49.47594" lon="1.17296">
        <ele>147</ele>
        <time>2017-01-24T14:57:16Z</time>
      </trkpt>
      <trkpt lat="49.47596" lon="1.1729">
        <ele>146</ele>
        <time>2017-01-24T14:57:31Z</time>
      </trkpt>
      <trkpt lat="49.47597" lon="1.17287">
        <ele>146</ele>
        <time>2017-01-24T14:57:31Z</time>
      </trkpt>
      <trkpt lat="49.47598" lon="1.17281">
        <ele>146</ele>
        <time>2017-01-24T14:57:31Z</time>
      </trkpt>
      <trkpt lat="49.47598" lon="1.17268">
        <ele>146</ele>
        <time>2017-01-24T14:57:31Z</time>
      </trkpt>
      <trkpt lat="49.47601" lon="1.17263">
        <ele>146</ele>
        <time>2017-01-24T14:57:48Z</time>
      </trkpt>
      <trkpt lat="49.47602" lon="1.17256">
        <ele>146</ele>
        <time>2017-01-24T14:57:48Z</time>
      </trkpt>
      <trkpt lat="49.47604" lon="1.17249">
        <ele>146</ele>
        <time>2017-01-24T14:57:48Z</time>
      </trkpt>
      <trkpt lat="49.47605" lon="1.17242">
        <ele>146</ele>
        <time>2017-01-24T14:57:48Z</time>
      </trkpt>
      <trkpt lat="49.47606" lon="1.17233">
        <ele>146</ele>
        <time>2017-01-24T14:58:03Z</time>
      </trkpt>
      <trkpt lat="49.47608" lon="1.17228">
        <ele>146</ele>
        <time>2017-01-24T14:58:03Z</time>
      </trkpt>
      <trkpt lat="49.47609" lon="1.17222">
        <ele>146</ele>
        <time>2017-01-24T14:58:03Z</time>
      </trkpt>
      <trkpt lat="49.47611" lon="1.17215">
        <ele>146</ele>
        <time>2017-01-24T14:58:03Z</time>
      </trkpt>
      <trkpt lat="49.47611" lon="1.17207">
        <ele>148</ele>
        <time>2017-01-24T14:58:19Z</time>
      </trkpt>
      <trkpt lat="49.47614" lon="1.17203">
        <ele>148</ele>
        <time>2017-01-24T14:58:19Z</time>
      </trkpt>
      <trkpt lat="49.47617" lon="1.17199">
        <ele>148</ele>
        <time>2017-01-24T14:58:19Z</time>
      </trkpt>
      <trkpt lat="49.47621" lon="1.172">
        <ele>148</ele>
        <time>2017-01-24T14:58:19Z</time>
      </trkpt>
      <trkpt lat="49.47625" lon="1.17203">
        <ele>148</ele>
        <time>2017-01-24T14:58:44Z</time>
      </trkpt>
      <trkpt lat="49.47628" lon="1.17204">
        <ele>146</ele>
        <time>2017-01-24T14:58:44Z</time>
      </trkpt>
      <trkpt lat="49.47629" lon="1.17205">
        <ele>146</ele>
        <time>2017-01-24T14:58:44Z</time>
      </trkpt>
      <trkpt lat="49.47631" lon="1.17205">
        <ele>146</ele>
        <time>2017-01-24T14:58:44Z</time>
      </trkpt>
      <trkpt lat="49.47634" lon="1.17207">
        <ele>146</ele>
        <time>2017-01-24T14:58:44Z</time>
      </trkpt>
      <trkpt lat="49.47642" lon="1.17207">
        <ele>146</ele>
        <time>2017-01-24T14:59:08Z</time>
      </trkpt>
      <trkpt lat="49.47643" lon="1.17207">
        <ele>146</ele>
        <time>2017-01-24T14:59:08Z</time>
      </trkpt>
      <trkpt lat="49.47651" lon="1.17209">
        <ele>146</ele>
        <time>2017-01-24T14:59:08Z</time>
      </trkpt>
      <trkpt lat="49.47658" lon="1.17209">
        <ele>146</ele>
        <time>2017-01-24T14:59:08Z</time>
      </trkpt>
      <trkpt lat="49.47666" lon="1.17209">
        <ele>146</ele>
        <time>2017-01-24T14:59:23Z</time>
      </trkpt>
      <trkpt lat="49.47674" lon="1.17209">
        <ele>146</ele>
        <time>2017-01-24T14:59:23Z</time>
      </trkpt>
      <trkpt lat="49.47678" lon="1.1721">
        <ele>146</ele>
        <time>2017-01-24T14:59:23Z</time>
      </trkpt>
      <trkpt lat="49.47684" lon="1.17209">
        <ele>146</ele>
        <time>2017-01-24T14:59:23Z</time>
      </trkpt>
      <trkpt lat="49.47687" lon="1.17209">
        <ele>146</ele>
        <time>2017-01-24T14:59:39Z</time>
      </trkpt>
      <trkpt lat="49.47694" lon="1.17209">
        <ele>146</ele>
        <time>2017-01-24T14:59:39Z</time>
      </trkpt>
      <trkpt lat="49.47698" lon="1.17208">
        <ele>146</ele>
        <time>2017-01-24T14:59:39Z</time>
      </trkpt>
      <trkpt lat="49.47701" lon="1.1721">
        <ele>146</ele>
        <time>2017-01-24T14:59:39Z</time>
      </trkpt>
      <trkpt lat="49.47707" lon="1.17212">
        <ele>146</ele>
        <time>2017-01-24T14:59:55Z</time>
      </trkpt>
      <trkpt lat="49.4771" lon="1.17211">
        <ele>141</ele>
        <time>2017-01-24T14:59:55Z</time>
      </trkpt>
      <trkpt lat="49.47713" lon="1.17213">
        <ele>141</ele>
        <time>2017-01-24T14:59:55Z</time>
      </trkpt>
      <trkpt lat="49.47718" lon="1.17216">
        <ele>141</ele>
        <time>2017-01-24T14:59:55Z</time>
      </trkpt>
      <trkpt lat="49.47723" lon="1.17217">
        <ele>141</ele>
        <time>2017-01-24T15:00:11Z</time>
      </trkpt>
      <trkpt lat="49.47726" lon="1.17217">
        <ele>141</ele>
        <time>2017-01-24T15:00:11Z</time>
      </trkpt>
      <trkpt lat="49.47732" lon="1.17216">
        <ele>141</ele>
        <time>2017-01-24T15:00:11Z</time>
      </trkpt>
      <trkpt lat="49.47738" lon="1.17216">
        <ele>141</ele>
        <time>2017-01-24T15:00:11Z</time>
      </trkpt>
      <trkpt lat="49.47741" lon="1.17216">
        <ele>141</ele>
        <time>2017-01-24T15:00:35Z</time>
      </trkpt>
      <trkpt lat="49.47743" lon="1.17216">
        <ele>141</ele>
        <time>2017-01-24T15:00:35Z</time>
      </trkpt>
      <trkpt lat="49.47745" lon="1.17217">
        <ele>141</ele>
        <time>2017-01-24T15:00:35Z</time>
      </trkpt>
      <trkpt lat="49.47748" lon="1.17218">
        <ele>141</ele>
        <time>2017-01-24T15:00:35Z</time>
      </trkpt>
      <trkpt lat="49.47749" lon="1.17219">
        <ele>141</ele>
        <time>2017-01-24T15:00:35Z</time>
      </trkpt>
      <trkpt lat="49.47752" lon="1.17219">
        <ele>141</ele>
        <time>2017-01-24T15:00:55Z</time>
      </trkpt>
      <trkpt lat="49.47753" lon="1.17219">
        <ele>141</ele>
        <time>2017-01-24T15:00:55Z</time>
      </trkpt>
      <trkpt lat="49.47756" lon="1.17222">
        <ele>141</ele>
        <time>2017-01-24T15:00:55Z</time>
      </trkpt>
      <trkpt lat="49.47758" lon="1.17223">
        <ele>141</ele>
        <time>2017-01-24T15:00:56Z</time>
      </trkpt>
      <trkpt lat="49.47764" lon="1.17226">
        <ele>141</ele>
        <time>2017-01-24T15:00:56Z</time>
      </trkpt>
      <trkpt lat="49.47767" lon="1.17227">
        <ele>141</ele>
        <time>2017-01-24T15:01:12Z</time>
      </trkpt>
      <trkpt lat="49.47771" lon="1.17228">
        <ele>141</ele>
        <time>2017-01-24T15:01:12Z</time>
      </trkpt>
      <trkpt lat="49.47773" lon="1.1723">
        <ele>141</ele>
        <time>2017-01-24T15:01:12Z</time>
      </trkpt>
      <trkpt lat="49.47777" lon="1.17231">
        <ele>141</ele>
        <time>2017-01-24T15:01:12Z</time>
      </trkpt>
      <trkpt lat="49.47782" lon="1.17231">
        <ele>141</ele>
        <time>2017-01-24T15:01:27Z</time>
      </trkpt>
      <trkpt lat="49.47788" lon="1.17232">
        <ele>141</ele>
        <time>2017-01-24T15:01:27Z</time>
      </trkpt>
      <trkpt lat="49.47791" lon="1.17234">
        <ele>141</ele>
        <time>2017-01-24T15:01:27Z</time>
      </trkpt>
      <trkpt lat="49.47794" lon="1.17236">
        <ele>135</ele>
        <time>2017-01-24T15:01:27Z</time>
      </trkpt>
      <trkpt lat="49.47797" lon="1.17236">
        <ele>135</ele>
        <time>2017-01-24T15:01:43Z</time>
      </trkpt>
      <trkpt lat="49.47801" lon="1.17236">
        <ele>135</ele>
        <time>2017-01-24T15:01:43Z</time>
      </trkpt>
      <trkpt lat="49.47808" lon="1.17234">
        <ele>135</ele>
        <time>2017-01-24T15:01:43Z</time>
      </trkpt>
      <trkpt lat="49.47811" lon="1.17233">
        <ele>135</ele>
        <time>2017-01-24T15:01:43Z</time>
      </trkpt>
      <trkpt lat="49.47817" lon="1.17233">
        <ele>135</ele>
        <time>2017-01-24T15:02:00Z</time>
      </trkpt>
      <trkpt lat="49.47819" lon="1.17233">
        <ele>135</ele>
        <time>2017-01-24T15:02:00Z</time>
      </trkpt>
      <trkpt lat="49.47822" lon="1.17233">
        <ele>135</ele>
        <time>2017-01-24T15:02:00Z</time>
      </trkpt>
      <trkpt lat="49.47827" lon="1.17236">
        <ele>135</ele>
        <time>2017-01-24T15:02:00Z</time>
      </trkpt>
      <trkpt lat="49.47832" lon="1.17235">
        <ele>135</ele>
        <time>2017-01-24T15:02:16Z</time>
      </trkpt>
      <trkpt lat="49.47841" lon="1.17235">
        <ele>135</ele>
        <time>2017-01-24T15:02:16Z</time>
      </trkpt>
      <trkpt lat="49.47845" lon="1.17235">
        <ele>135</ele>
        <time>2017-01-24T15:02:16Z</time>
      </trkpt>
      <trkpt lat="49.47847" lon="1.17234">
        <ele>135</ele>
        <time>2017-01-24T15:02:16Z</time>
      </trkpt>
      <trkpt lat="49.47851" lon="1.17232">
        <ele>135</ele>
        <time>2017-01-24T15:02:32Z</time>
      </trkpt>
      <trkpt lat="49.47856" lon="1.1723">
        <ele>135</ele>
        <time>2017-01-24T15:02:32Z</time>
      </trkpt>
      <trkpt lat="49.47858" lon="1.17227">
        <ele>135</ele>
        <time>2017-01-24T15:02:32Z</time>
      </trkpt>
      <trkpt lat="49.4786" lon="1.17226">
        <ele>135</ele>
        <time>2017-01-24T15:02:32Z</time>
      </trkpt>
      <trkpt lat="49.47864" lon="1.17225">
        <ele>135</ele>
        <time>2017-01-24T15:02:53Z</time>
      </trkpt>
      <trkpt lat="49.47869" lon="1.1722">
        <ele>135</ele>
        <time>2017-01-24T15:02:53Z</time>
      </trkpt>
      <trkpt lat="49.47873" lon="1.17217">
        <ele>135</ele>
        <time>2017-01-24T15:02:53Z</time>
      </trkpt>
      <trkpt lat="49.47876" lon="1.17215">
        <ele>118</ele>
        <time>2017-01-24T15:02:53Z</time>
      </trkpt>
      <trkpt lat="49.47886" lon="1.1721">
        <ele>118</ele>
        <time>2017-01-24T15:03:15Z</time>
      </trkpt>
      <trkpt lat="49.4789" lon="1.17209">
        <ele>118</ele>
        <time>2017-01-24T15:03:16Z</time>
      </trkpt>
      <trkpt lat="49.47895" lon="1.17209">
        <ele>118</ele>
        <time>2017-01-24T15:03:16Z</time>
      </trkpt>
      <trkpt lat="49.47897" lon="1.17209">
        <ele>118</ele>
        <time>2017-01-24T15:03:16Z</time>
      </trkpt>
      <trkpt lat="49.47898" lon="1.17209">
        <ele>118</ele>
        <time>2017-01-24T15:03:32Z</time>
      </trkpt>
      <trkpt lat="49.47901" lon="1.1721">
        <ele>118</ele>
        <time>2017-01-24T15:03:32Z</time>
      </trkpt>
      <trkpt lat="49.47905" lon="1.17214">
        <ele>118</ele>
        <time>2017-01-24T15:03:32Z</time>
      </trkpt>
      <trkpt lat="49.47909" lon="1.17215">
        <ele>118</ele>
        <time>2017-01-24T15:03:32Z</time>
      </trkpt>
      <trkpt lat="49.47909" lon="1.17217">
        <ele>118</ele>
        <time>2017-01-24T15:03:48Z</time>
      </trkpt>
      <trkpt lat="49.47914" lon="1.1722">
        <ele>118</ele>
        <time>2017-01-24T15:03:48Z</time>
      </trkpt>
      <trkpt lat="49.47917" lon="1.1722">
        <ele>118</ele>
        <time>2017-01-24T15:03:48Z</time>
      </trkpt>
      <trkpt lat="49.47923" lon="1.17219">
        <ele>118</ele>
        <time>2017-01-24T15:03:48Z</time>
      </trkpt>
      <trkpt lat="49.47925" lon="1.17219">
        <ele>118</ele>
        <time>2017-01-24T15:04:07Z</time>
      </trkpt>
      <trkpt lat="49.47927" lon="1.1722">
        <ele>118</ele>
        <time>2017-01-24T15:04:07Z</time>
      </trkpt>
      <trkpt lat="49.47929" lon="1.1722">
        <ele>118</ele>
        <time>2017-01-24T15:04:07Z</time>
      </trkpt>
      <trkpt lat="49.4793" lon="1.1722">
        <ele>118</ele>
        <time>2017-01-24T15:04:07Z</time>
      </trkpt>
      <trkpt lat="49.47934" lon="1.17219">
        <ele>118</ele>
        <time>2017-01-24T15:04:07Z</time>
      </trkpt>
      <trkpt lat="49.47937" lon="1.17219">
        <ele>118</ele>
        <time>2017-01-24T15:04:23Z</time>
      </trkpt>
      <trkpt lat="49.47943" lon="1.17218">
        <ele>118</ele>
        <time>2017-01-24T15:04:23Z</time>
      </trkpt>
      <trkpt lat="49.47952" lon="1.17217">
        <ele>118</ele>
        <time>2017-01-24T15:04:23Z</time>
      </trkpt>
      <trkpt lat="49.47956" lon="1.17217">
        <ele>118</ele>
        <time>2017-01-24T15:04:23Z</time>
      </trkpt>
      <trkpt lat="49.47961" lon="1.17214">
        <ele>99</ele>
        <time>2017-01-24T15:04:43Z</time>
      </trkpt>
      <trkpt lat="49.47965" lon="1.1721">
        <ele>99</ele>
        <time>2017-01-24T15:04:45Z</time>
      </trkpt>
      <trkpt lat="49.47966" lon="1.17209">
        <ele>99</ele>
        <time>2017-01-24T15:04:45Z</time>
      </trkpt>
      <trkpt lat="49.47966" lon="1.17209">
        <ele>99</ele>
        <time>2017-01-24T15:04:45Z</time>
      </trkpt>
      <trkpt lat="49.47971" lon="1.17206">
        <ele>97</ele>
        <time>2017-01-24T15:04:45Z</time>
      </trkpt>
      <trkpt lat="49.47972" lon="1.17205">
        <ele>97</ele>
        <time>2017-01-24T15:04:59Z</time>
      </trkpt>
      <trkpt lat="49.4798" lon="1.17202">
        <ele>97</ele>
        <time>2017-01-24T15:04:59Z</time>
      </trkpt>
      <trkpt lat="49.47984" lon="1.17203">
        <ele>97</ele>
        <time>2017-01-24T15:04:59Z</time>
      </trkpt>
      <trkpt lat="49.47987" lon="1.17198">
        <ele>97</ele>
        <time>2017-01-24T15:04:59Z</time>
      </trkpt>
      <trkpt lat="49.47988" lon="1.17197">
        <ele>97</ele>
        <time>2017-01-24T15:05:16Z</time>
      </trkpt>
      <trkpt lat="49.47993" lon="1.17192">
        <ele>97</ele>
        <time>2017-01-24T15:05:16Z</time>
      </trkpt>
      <trkpt lat="49.47995" lon="1.17188">
        <ele>97</ele>
        <time>2017-01-24T15:05:16Z</time>
      </trkpt>
      <trkpt lat="49.47998" lon="1.17183">
        <ele>97</ele>
        <time>2017-01-24T15:05:16Z</time>
      </trkpt>
      <trkpt lat="49.48001" lon="1.17178">
        <ele>97</ele>
        <time>2017-01-24T15:05:32Z</time>
      </trkpt>
      <trkpt lat="49.48003" lon="1.17172">
        <ele>97</ele>
        <time>2017-01-24T15:05:32Z</time>
      </trkpt>
      <trkpt lat="49.48003" lon="1.17171">
        <ele>97</ele>
        <time>2017-01-24T15:05:33Z</time>
      </trkpt>
      <trkpt lat="49.48009" lon="1.17163">
        <ele>97</ele>
        <time>2017-01-24T15:05:33Z</time>
      </trkpt>
      <trkpt lat="49.48011" lon="1.17158">
        <ele>97</ele>
        <time>2017-01-24T15:05:48Z</time>
      </trkpt>
      <trkpt lat="49.48015" lon="1.17153">
        <ele>97</ele>
        <time>2017-01-24T15:05:48Z</time>
      </trkpt>
      <trkpt lat="49.48016" lon="1.1715">
        <ele>97</ele>
        <time>2017-01-24T15:05:48Z</time>
      </trkpt>
      <trkpt lat="49.4802" lon="1.17145">
        <ele>97</ele>
        <time>2017-01-24T15:05:48Z</time>
      </trkpt>
      <trkpt lat="49.48022" lon="1.1714">
        <ele>97</ele>
        <time>2017-01-24T15:06:04Z</time>
      </trkpt>
      <trkpt lat="49.48024" lon="1.17141">
        <ele>97</ele>
        <time>2017-01-24T15:06:04Z</time>
      </trkpt>
      <trkpt lat="49.48031" lon="1.17135">
        <ele>97</ele>
        <time>2017-01-24T15:06:04Z</time>
      </trkpt>
      <trkpt lat="49.48035" lon="1.17132">
        <ele>97</ele>
        <time>2017-01-24T15:06:04Z</time>
      </trkpt>
      <trkpt lat="49.48039" lon="1.17128">
        <ele>97</ele>
        <time>2017-01-24T15:06:20Z</time>
      </trkpt>
      <trkpt lat="49.48042" lon="1.17124">
        <ele>83</ele>
        <time>2017-01-24T15:06:20Z</time>
      </trkpt>
      <trkpt lat="49.48046" lon="1.1712">
        <ele>83</ele>
        <time>2017-01-24T15:06:20Z</time>
      </trkpt>
      <trkpt lat="49.48048" lon="1.17116">
        <ele>83</ele>
        <time>2017-01-24T15:06:20Z</time>
      </trkpt>
      <trkpt lat="49.48049" lon="1.17114">
        <ele>83</ele>
        <time>2017-01-24T15:06:36Z</time>
      </trkpt>
      <trkpt lat="49.48052" lon="1.17108">
        <ele>83</ele>
        <time>2017-01-24T15:06:36Z</time>
      </trkpt>
      <trkpt lat="49.48053" lon="1.17103">
        <ele>83</ele>
        <time>2017-01-24T15:06:36Z</time>
      </trkpt>
      <trkpt lat="49.48053" lon="1.17096">
        <ele>83</ele>
        <time>2017-01-24T15:06:36Z</time>
      </trkpt>
      <trkpt lat="49.48054" lon="1.17089">
        <ele>83</ele>
        <time>2017-01-24T15:06:52Z</time>
      </trkpt>
      <trkpt lat="49.48055" lon="1.17084">
        <ele>83</ele>
        <time>2017-01-24T15:06:52Z</time>
      </trkpt>
      <trkpt lat="49.48056" lon="1.17077">
        <ele>83</ele>
        <time>2017-01-24T15:06:52Z</time>
      </trkpt>
      <trkpt lat="49.48057" lon="1.17068">
        <ele>83</ele>
        <time>2017-01-24T15:06:52Z</time>
      </trkpt>
      <trkpt lat="49.48058" lon="1.17063">
        <ele>83</ele>
        <time>2017-01-24T15:07:07Z</time>
      </trkpt>
      <trkpt lat="49.48059" lon="1.17052">
        <ele>83</ele>
        <time>2017-01-24T15:07:07Z</time>
      </trkpt>
      <trkpt lat="49.48059" lon="1.17045">
        <ele>83</ele>
        <time>2017-01-24T15:07:07Z</time>
      </trkpt>
      <trkpt lat="49.4806" lon="1.1704">
        <ele>78</ele>
        <time>2017-01-24T15:07:07Z</time>
      </trkpt>
      <trkpt lat="49.48062" lon="1.17035">
        <ele>78</ele>
        <time>2017-01-24T15:07:23Z</time>
      </trkpt>
      <trkpt lat="49.48064" lon="1.1703">
        <ele>78</ele>
        <time>2017-01-24T15:07:23Z</time>
      </trkpt>
      <trkpt lat="49.48066" lon="1.17023">
        <ele>78</ele>
        <time>2017-01-24T15:07:23Z</time>
      </trkpt>
      <trkpt lat="49.48067" lon="1.17017">
        <ele>78</ele>
        <time>2017-01-24T15:07:23Z</time>
      </trkpt>
      <trkpt lat="49.48072" lon="1.17004">
        <ele>78</ele>
        <time>2017-01-24T15:07:43Z</time>
      </trkpt>
      <trkpt lat="49.48074" lon="1.16998">
        <ele>78</ele>
        <time>2017-01-24T15:07:43Z</time>
      </trkpt>
      <trkpt lat="49.48077" lon="1.1699">
        <ele>78</ele>
        <time>2017-01-24T15:07:43Z</time>
      </trkpt>
      <trkpt lat="49.48081" lon="1.16987">
        <ele>78</ele>
        <time>2017-01-24T15:07:43Z</time>
      </trkpt>
      <trkpt lat="49.48084" lon="1.16982">
        <ele>78</ele>
        <time>2017-01-24T15:08:00Z</time>
      </trkpt>
      <trkpt lat="49.48086" lon="1.16975">
        <ele>78</ele>
        <time>2017-01-24T15:08:00Z</time>
      </trkpt>
      <trkpt lat="49.48087" lon="1.16976">
        <ele>78</ele>
        <time>2017-01-24T15:08:00Z</time>
      </trkpt>
      <trkpt lat="49.48091" lon="1.16973">
        <ele>78</ele>
        <time>2017-01-24T15:08:00Z</time>
      </trkpt>
      <trkpt lat="49.48096" lon="1.16967">
        <ele>78</ele>
        <time>2017-01-24T15:08:16Z</time>
      </trkpt>
      <trkpt lat="49.481" lon="1.16962">
        <ele>78</ele>
        <time>2017-01-24T15:08:16Z</time>
      </trkpt>
      <trkpt lat="49.48105" lon="1.16955">
        <ele>73</ele>
        <time>2017-01-24T15:08:16Z</time>
      </trkpt>
      <trkpt lat="49.48109" lon="1.1695">
        <ele>73</ele>
        <time>2017-01-24T15:08:16Z</time>
      </trkpt>
      <trkpt lat="49.48107" lon="1.16945">
        <ele>73</ele>
        <time>2017-01-24T15:08:43Z</time>
      </trkpt>
      <trkpt lat="49.4811" lon="1.16946">
        <ele>73</ele>
        <time>2017-01-24T15:08:43Z</time>
      </trkpt>
      <trkpt lat="49.48115" lon="1.1694">
        <ele>73</ele>
        <time>2017-01-24T15:08:43Z</time>
      </trkpt>
      <trkpt lat="49.48119" lon="1.16934">
        <ele>73</ele>
        <time>2017-01-24T15:08:43Z</time>
      </trkpt>
      <trkpt lat="49.48122" lon="1.1693">
        <ele>73</ele>
        <time>2017-01-24T15:08:43Z</time>
      </trkpt>
      <trkpt lat="49.48126" lon="1.16926">
        <ele>74</ele>
        <time>2017-01-24T15:08:59Z</time>
      </trkpt>
      <trkpt lat="49.48128" lon="1.16921">
        <ele>74</ele>
        <time>2017-01-24T15:08:59Z</time>
      </trkpt>
      <trkpt lat="49.4813" lon="1.16918">
        <ele>74</ele>
        <time>2017-01-24T15:08:59Z</time>
      </trkpt>
      <trkpt lat="49.48133" lon="1.16917">
        <ele>74</ele>
        <time>2017-01-24T15:08:59Z</time>
      </trkpt>
      <trkpt lat="49.48136" lon="1.16912">
        <ele>74</ele>
        <time>2017-01-24T15:09:15Z</time>
      </trkpt>
      <trkpt lat="49.4814" lon="1.16907">
        <ele>74</ele>
        <time>2017-01-24T15:09:15Z</time>
      </trkpt>
      <trkpt lat="49.48143" lon="1.16903">
        <ele>74</ele>
        <time>2017-01-24T15:09:15Z</time>
      </trkpt>
      <trkpt lat="49.48148" lon="1.16899">
        <ele>74</ele>
        <time>2017-01-24T15:09:15Z</time>
      </trkpt>
      <trkpt lat="49.48152" lon="1.16896">
        <ele>74</ele>
        <time>2017-01-24T15:09:32Z</time>
      </trkpt>
      <trkpt lat="49.48156" lon="1.1689">
        <ele>74</ele>
        <time>2017-01-24T15:09:32Z</time>
      </trkpt>
      <trkpt lat="49.4816" lon="1.16887">
        <ele>74</ele>
        <time>2017-01-24T15:09:32Z</time>
      </trkpt>
      <trkpt lat="49.48165" lon="1.16884">
        <ele>74</ele>
        <time>2017-01-24T15:09:32Z</time>
      </trkpt>
      <trkpt lat="49.48169" lon="1.16878">
        <ele>74</ele>
        <time>2017-01-24T15:09:47Z</time>
      </trkpt>
      <trkpt lat="49.48172" lon="1.16876">
        <ele>74</ele>
        <time>2017-01-24T15:09:48Z</time>
      </trkpt>
      <trkpt lat="49.48178" lon="1.16872">
        <ele>71</ele>
        <time>2017-01-24T15:09:48Z</time>
      </trkpt>
      <trkpt lat="49.48181" lon="1.1687">
        <ele>71</ele>
        <time>2017-01-24T15:09:48Z</time>
      </trkpt>
      <trkpt lat="49.48182" lon="1.16863">
        <ele>71</ele>
        <time>2017-01-24T15:10:15Z</time>
      </trkpt>
      <trkpt lat="49.48183" lon="1.16862">
        <ele>71</ele>
        <time>2017-01-24T15:10:15Z</time>
      </trkpt>
      <trkpt lat="49.48185" lon="1.16856">
        <ele>71</ele>
        <time>2017-01-24T15:10:15Z</time>
      </trkpt>
      <trkpt lat="49.48185" lon="1.16848">
        <ele>71</ele>
        <time>2017-01-24T15:10:15Z</time>
      </trkpt>
      <trkpt lat="49.48183" lon="1.16843">
        <ele>71</ele>
        <time>2017-01-24T15:10:15Z</time>
      </trkpt>
      <trkpt lat="49.48183" lon="1.16834">
        <ele>71</ele>
        <time>2017-01-24T15:10:31Z</time>
      </trkpt>
      <trkpt lat="49.48183" lon="1.16828">
        <ele>71</ele>
        <time>2017-01-24T15:10:32Z</time>
      </trkpt>
      <trkpt lat="49.48183" lon="1.16818">
        <ele>71</ele>
        <time>2017-01-24T15:10:32Z</time>
      </trkpt>
      <trkpt lat="49.48184" lon="1.16809">
        <ele>71</ele>
        <time>2017-01-24T15:10:32Z</time>
      </trkpt>
      <trkpt lat="49.48184" lon="1.16803">
        <ele>71</ele>
        <time>2017-01-24T15:10:47Z</time>
      </trkpt>
      <trkpt lat="49.48184" lon="1.16798">
        <ele>71</ele>
        <time>2017-01-24T15:10:47Z</time>
      </trkpt>
      <trkpt lat="49.48184" lon="1.16788">
        <ele>67</ele>
        <time>2017-01-24T15:10:47Z</time>
      </trkpt>
      <trkpt lat="49.48185" lon="1.16787">
        <ele>67</ele>
        <time>2017-01-24T15:10:47Z</time>
      </trkpt>
      <trkpt lat="49.48184" lon="1.16786">
        <ele>67</ele>
        <time>2017-01-24T15:11:03Z</time>
      </trkpt>
      <trkpt lat="49.48184" lon="1.16782">
        <ele>67</ele>
        <time>2017-01-24T15:11:03Z</time>
      </trkpt>
      <trkpt lat="49.48185" lon="1.16776">
        <ele>67</ele>
        <time>2017-01-24T15:11:03Z</time>
      </trkpt>
      <trkpt lat="49.48186" lon="1.16772">
        <ele>67</ele>
        <time>2017-01-24T15:11:03Z</time>
      </trkpt>
      <trkpt lat="49.48187" lon="1.16763">
        <ele>67</ele>
        <time>2017-01-24T15:11:20Z</time>
      </trkpt>
      <trkpt lat="49.48187" lon="1.16751">
        <ele>67</ele>
        <time>2017-01-24T15:11:20Z</time>
      </trkpt>
      <trkpt lat="49.48186" lon="1.16746">
        <ele>67</ele>
        <time>2017-01-24T15:11:20Z</time>
      </trkpt>
      <trkpt lat="49.48185" lon="1.16738">
        <ele>67</ele>
        <time>2017-01-24T15:11:20Z</time>
      </trkpt>
      <trkpt lat="49.48185" lon="1.16732">
        <ele>67</ele>
        <time>2017-01-24T15:11:35Z</time>
      </trkpt>
      <trkpt lat="49.48187" lon="1.16728">
        <ele>67</ele>
        <time>2017-01-24T15:11:35Z</time>
      </trkpt>
      <trkpt lat="49.48187" lon="1.16724">
        <ele>67</ele>
        <time>2017-01-24T15:11:35Z</time>
      </trkpt>
      <trkpt lat="49.48188" lon="1.1671">
        <ele>67</ele>
        <time>2017-01-24T15:11:35Z</time>
      </trkpt>
      <trkpt lat="49.48188" lon="1.16706">
        <ele>65</ele>
        <time>2017-01-24T15:11:51Z</time>
      </trkpt>
      <trkpt lat="49.48189" lon="1.16698">
        <ele>65</ele>
        <time>2017-01-24T15:11:51Z</time>
      </trkpt>
      <trkpt lat="49.48191" lon="1.16688">
        <ele>65</ele>
        <time>2017-01-24T15:11:51Z</time>
      </trkpt>
      <trkpt lat="49.48192" lon="1.16683">
        <ele>65</ele>
        <time>2017-01-24T15:11:51Z</time>
      </trkpt>
      <trkpt lat="49.48189" lon="1.16672">
        <ele>65</ele>
        <time>2017-01-24T15:12:15Z</time>
      </trkpt>
      <trkpt lat="49.48188" lon="1.16671">
        <ele>65</ele>
        <time>2017-01-24T15:12:15Z</time>
      </trkpt>
      <trkpt lat="49.48189" lon="1.16669">
        <ele>65</ele>
        <time>2017-01-24T15:12:15Z</time>
      </trkpt>
      <trkpt lat="49.48188" lon="1.16665">
        <ele>65</ele>
        <time>2017-01-24T15:12:15Z</time>
      </trkpt>
      <trkpt lat="49.48185" lon="1.16664">
        <ele>65</ele>
        <time>2017-01-24T15:12:15Z</time>
      </trkpt>
      <trkpt lat="49.48177" lon="1.16657">
        <ele>65</ele>
        <time>2017-01-24T15:13:35Z</time>
      </trkpt>
      <trkpt lat="49.48175" lon="1.16656">
        <ele>65</ele>
        <time>2017-01-24T15:13:37Z</time>
      </trkpt>
      <trkpt lat="49.48174" lon="1.16656">
        <ele>65</ele>
        <time>2017-01-24T15:13:37Z</time>
      </trkpt>
      <trkpt lat="49.48169" lon="1.16657">
        <ele>65</ele>
        <time>2017-01-24T15:13:37Z</time>
      </trkpt>
      <trkpt lat="49.48167" lon="1.16658">
        <ele>65</ele>
        <time>2017-01-24T15:13:37Z</time>
      </trkpt>
      <trkpt lat="49.48167" lon="1.16651">
        <ele>65</ele>
        <time>2017-01-24T15:14:31Z</time>
      </trkpt>
      <trkpt lat="49.48166" lon="1.16648">
        <ele>65</ele>
        <time>2017-01-24T15:14:31Z</time>
      </trkpt>
      <trkpt lat="49.48164" lon="1.16639">
        <ele>65</ele>
        <time>2017-01-24T15:14:31Z</time>
      </trkpt>
      <trkpt lat="49.48161" lon="1.1663">
        <ele>65</ele>
        <time>2017-01-24T15:14:31Z</time>
      </trkpt>
      <trkpt lat="49.48162" lon="1.16627">
        <ele>65</ele>
        <time>2017-01-24T15:14:31Z</time>
      </trkpt>
      <trkpt lat="49.48161" lon="1.16622">
        <ele>73</ele>
        <time>2017-01-24T15:14:52Z</time>
      </trkpt>
      <trkpt lat="49.4816" lon="1.16619">
        <ele>73</ele>
        <time>2017-01-24T15:14:52Z</time>
      </trkpt>
      <trkpt lat="49.48159" lon="1.16615">
        <ele>73</ele>
        <time>2017-01-24T15:14:52Z</time>
      </trkpt>
      <trkpt lat="49.48159" lon="1.16612">
        <ele>73</ele>
        <time>2017-01-24T15:14:52Z</time>
      </trkpt>
      <trkpt lat="49.48162" lon="1.16608">
        <ele>73</ele>
        <time>2017-01-24T15:14:52Z</time>
      </trkpt>
      <trkpt lat="49.48165" lon="1.16606">
        <ele>73</ele>
        <time>2017-01-24T15:15:07Z</time>
      </trkpt>
      <trkpt lat="49.48168" lon="1.16601">
        <ele>73</ele>
        <time>2017-01-24T15:15:08Z</time>
      </trkpt>
      <trkpt lat="49.48165" lon="1.16595">
        <ele>73</ele>
        <time>2017-01-24T15:15:08Z</time>
      </trkpt>
      <trkpt lat="49.4816" lon="1.16584">
        <ele>73</ele>
        <time>2017-01-24T15:15:08Z</time>
      </trkpt>
      <trkpt lat="49.4816" lon="1.16577">
        <ele>73</ele>
        <time>2017-01-24T15:15:23Z</time>
      </trkpt>
      <trkpt lat="49.4816" lon="1.16573">
        <ele>73</ele>
        <time>2017-01-24T15:15:23Z</time>
      </trkpt>
      <trkpt lat="49.48156" lon="1.16568">
        <ele>73</ele>
        <time>2017-01-24T15:15:24Z</time>
      </trkpt>
      <trkpt lat="49.48152" lon="1.16564">
        <ele>73</ele>
        <time>2017-01-24T15:15:24Z</time>
      </trkpt>
      <trkpt lat="49.4815" lon="1.16562">
        <ele>73</ele>
        <time>2017-01-24T15:15:39Z</time>
      </trkpt>
      <trkpt lat="49.48147" lon="1.16561">
        <ele>73</ele>
        <time>2017-01-24T15:15:39Z</time>
      </trkpt>
      <trkpt lat="49.48144" lon="1.16562">
        <ele>73</ele>
        <time>2017-01-24T15:15:39Z</time>
      </trkpt>
      <trkpt lat="49.48141" lon="1.16564">
        <ele>73</ele>
        <time>2017-01-24T15:15:39Z</time>
      </trkpt>
      <trkpt lat="49.48138" lon="1.1656">
        <ele>73</ele>
        <time>2017-01-24T15:16:15Z</time>
      </trkpt>
      <trkpt lat="49.4814" lon="1.16559">
        <ele>73</ele>
        <time>2017-01-24T15:16:15Z</time>
      </trkpt>
      <trkpt lat="49.48145" lon="1.16556">
        <ele>73</ele>
        <time>2017-01-24T15:16:15Z</time>
      </trkpt>
      <trkpt lat="49.48147" lon="1.16553">
        <ele>73</ele>
        <time>2017-01-24T15:16:15Z</time>
      </trkpt>
      <trkpt lat="49.48147" lon="1.16551">
        <ele>73</ele>
        <time>2017-01-24T15:16:15Z</time>
      </trkpt>
      <trkpt lat="49.48134" lon="1.16532">
        <ele>96</ele>
        <time>2017-01-24T15:16:51Z</time>
      </trkpt>
      <trkpt lat="49.48133" lon="1.16534">
        <ele>96</ele>
        <time>2017-01-24T15:16:51Z</time>
      </trkpt>
      <trkpt lat="49.48131" lon="1.16537">
        <ele>96</ele>
        <time>2017-01-24T15:16:51Z</time>
      </trkpt>
      <trkpt lat="49.48127" lon="1.16535">
        <ele>96</ele>
        <time>2017-01-24T15:16:51Z</time>
      </trkpt>
      <trkpt lat="49.48125" lon="1.16534">
        <ele>96</ele>
        <time>2017-01-24T15:16:51Z</time>
      </trkpt>
      <trkpt lat="49.48121" lon="1.16523">
        <ele>98</ele>
        <time>2017-01-24T15:17:20Z</time>
      </trkpt>
      <trkpt lat="49.4812" lon="1.16523">
        <ele>98</ele>
        <time>2017-01-24T15:17:20Z</time>
      </trkpt>
      <trkpt lat="49.48119" lon="1.16519">
        <ele>98</ele>
        <time>2017-01-24T15:17:20Z</time>
      </trkpt>
      <trkpt lat="49.48116" lon="1.16516">
        <ele>98</ele>
        <time>2017-01-24T15:17:20Z</time>
      </trkpt>
      <trkpt lat="49.48114" lon="1.16513">
        <ele>98</ele>
        <time>2017-01-24T15:17:20Z</time>
      </trkpt>
      <trkpt lat="49.4811" lon="1.1651">
        <ele>98</ele>
        <time>2017-01-24T15:17:40Z</time>
      </trkpt>
      <trkpt lat="49.48107" lon="1.16506">
        <ele>98</ele>
        <time>2017-01-24T15:17:40Z</time>
      </trkpt>
      <trkpt lat="49.48107" lon="1.16505">
        <ele>98</ele>
        <time>2017-01-24T15:17:40Z</time>
      </trkpt>
      <trkpt lat="49.48103" lon="1.16501">
        <ele>98</ele>
        <time>2017-01-24T15:17:40Z</time>
      </trkpt>
      <trkpt lat="49.48102" lon="1.16496">
        <ele>98</ele>
        <time>2017-01-24T15:17:59Z</time>
      </trkpt>
      <trkpt lat="49.48101" lon="1.16495">
        <ele>98</ele>
        <time>2017-01-24T15:17:59Z</time>
      </trkpt>
      <trkpt lat="49.48098" lon="1.16492">
        <ele>98</ele>
        <time>2017-01-24T15:17:59Z</time>
      </trkpt>
      <trkpt lat="49.48096" lon="1.1649">
        <ele>98</ele>
        <time>2017-01-24T15:17:59Z</time>
      </trkpt>
      <trkpt lat="49.48092" lon="1.16488">
        <ele>98</ele>
        <time>2017-01-24T15:17:59Z</time>
      </trkpt>
      <trkpt lat="49.48091" lon="1.16486">
        <ele>98</ele>
        <time>2017-01-24T15:18:19Z</time>
      </trkpt>
      <trkpt lat="49.48088" lon="1.16484">
        <ele>98</ele>
        <time>2017-01-24T15:18:19Z</time>
      </trkpt>
      <trkpt lat="49.48087" lon="1.16479">
        <ele>98</ele>
        <time>2017-01-24T15:18:19Z</time>
      </trkpt>
      <trkpt lat="49.48086" lon="1.16477">
        <ele>98</ele>
        <time>2017-01-24T15:18:19Z</time>
      </trkpt>
      <trkpt lat="49.48085" lon="1.16473">
        <ele>98</ele>
        <time>2017-01-24T15:18:19Z</time>
      </trkpt>
      <trkpt lat="49.48082" lon="1.1647">
        <ele>98</ele>
        <time>2017-01-24T15:18:36Z</time>
      </trkpt>
      <trkpt lat="49.48078" lon="1.16468">
        <ele>98</ele>
        <time>2017-01-24T15:18:36Z</time>
      </trkpt>
      <trkpt lat="49.48074" lon="1.16465">
        <ele>98</ele>
        <time>2017-01-24T15:18:36Z</time>
      </trkpt>
      <trkpt lat="49.4807" lon="1.16462">
        <ele>98</ele>
        <time>2017-01-24T15:18:36Z</time>
      </trkpt>
      <trkpt lat="49.48066" lon="1.16463">
        <ele>98</ele>
        <time>2017-01-24T15:18:56Z</time>
      </trkpt>
      <trkpt lat="49.48064" lon="1.16461">
        <ele>98</ele>
        <time>2017-01-24T15:18:56Z</time>
      </trkpt>
      <trkpt lat="49.48061" lon="1.16459">
        <ele>98</ele>
        <time>2017-01-24T15:18:56Z</time>
      </trkpt>
      <trkpt lat="49.48059" lon="1.16459">
        <ele>98</ele>
        <time>2017-01-24T15:18:56Z</time>
      </trkpt>
      <trkpt lat="49.48057" lon="1.16458">
        <ele>122</ele>
        <time>2017-01-24T15:18:56Z</time>
      </trkpt>
      <trkpt lat="49.48048" lon="1.16459">
        <ele>98</ele>
        <time>2017-01-24T15:19:23Z</time>
      </trkpt>
      <trkpt lat="49.48047" lon="1.1646">
        <ele>98</ele>
        <time>2017-01-24T15:19:23Z</time>
      </trkpt>
      <trkpt lat="49.48045" lon="1.16462">
        <ele>98</ele>
        <time>2017-01-24T15:19:23Z</time>
      </trkpt>
      <trkpt lat="49.48044" lon="1.16462">
        <ele>98</ele>
        <time>2017-01-24T15:19:23Z</time>
      </trkpt>
      <trkpt lat="49.4804" lon="1.16463">
        <ele>105</ele>
        <time>2017-01-24T15:19:23Z</time>
      </trkpt>
      <trkpt lat="49.48037" lon="1.16463">
        <ele>105</ele>
        <time>2017-01-24T15:19:39Z</time>
      </trkpt>
      <trkpt lat="49.48034" lon="1.16465">
        <ele>105</ele>
        <time>2017-01-24T15:19:39Z</time>
      </trkpt>
      <trkpt lat="49.48032" lon="1.16466">
        <ele>105</ele>
        <time>2017-01-24T15:19:39Z</time>
      </trkpt>
      <trkpt lat="49.48026" lon="1.16467">
        <ele>105</ele>
        <time>2017-01-24T15:19:39Z</time>
      </trkpt>
      <trkpt lat="49.48025" lon="1.16467">
        <ele>105</ele>
        <time>2017-01-24T15:19:56Z</time>
      </trkpt>
      <trkpt lat="49.48021" lon="1.16468">
        <ele>105</ele>
        <time>2017-01-24T15:19:56Z</time>
      </trkpt>
      <trkpt lat="49.48016" lon="1.1647">
        <ele>105</ele>
        <time>2017-01-24T15:19:56Z</time>
      </trkpt>
      <trkpt lat="49.48012" lon="1.16468">
        <ele>105</ele>
        <time>2017-01-24T15:19:56Z</time>
      </trkpt>
      <trkpt lat="49.48009" lon="1.16467">
        <ele>105</ele>
        <time>2017-01-24T15:20:15Z</time>
      </trkpt>
      <trkpt lat="49.48007" lon="1.16464">
        <ele>105</ele>
        <time>2017-01-24T15:20:15Z</time>
      </trkpt>
      <trkpt lat="49.48004" lon="1.16464">
        <ele>105</ele>
        <time>2017-01-24T15:20:15Z</time>
      </trkpt>
      <trkpt lat="49.48003" lon="1.16465">
        <ele>105</ele>
        <time>2017-01-24T15:20:15Z</time>
      </trkpt>
      <trkpt lat="49.47999" lon="1.16466">
        <ele>105</ele>
        <time>2017-01-24T15:20:15Z</time>
      </trkpt>
      <trkpt lat="49.47997" lon="1.16465">
        <ele>105</ele>
        <time>2017-01-24T15:20:35Z</time>
      </trkpt>
      <trkpt lat="49.47994" lon="1.16464">
        <ele>105</ele>
        <time>2017-01-24T15:20:35Z</time>
      </trkpt>
      <trkpt lat="49.47991" lon="1.16462">
        <ele>105</ele>
        <time>2017-01-24T15:20:35Z</time>
      </trkpt>
      <trkpt lat="49.4799" lon="1.16462">
        <ele>105</ele>
        <time>2017-01-24T15:20:35Z</time>
      </trkpt>
      <trkpt lat="49.47985" lon="1.1646">
        <ele>105</ele>
        <time>2017-01-24T15:20:35Z</time>
      </trkpt>
      <trkpt lat="49.47978" lon="1.16457">
        <ele>131</ele>
        <time>2017-01-24T15:20:59Z</time>
      </trkpt>
      <trkpt lat="49.47977" lon="1.16455">
        <ele>131</ele>
        <time>2017-01-24T15:20:59Z</time>
      </trkpt>
      <trkpt lat="49.47975" lon="1.16451">
        <ele>131</ele>
        <time>2017-01-24T15:21:00Z</time>
      </trkpt>
      <trkpt lat="49.47974" lon="1.16452">
        <ele>131</ele>
        <time>2017-01-24T15:21:00Z</time>
      </trkpt>
      <trkpt lat="49.47971" lon="1.16448">
        <ele>131</ele>
        <time>2017-01-24T15:21:00Z</time>
      </trkpt>
      <trkpt lat="49.47968" lon="1.16442">
        <ele>131</ele>
        <time>2017-01-24T15:21:16Z</time>
      </trkpt>
      <trkpt lat="49.47967" lon="1.16435">
        <ele>131</ele>
        <time>2017-01-24T15:21:16Z</time>
      </trkpt>
      <trkpt lat="49.47966" lon="1.1643">
        <ele>131</ele>
        <time>2017-01-24T15:21:16Z</time>
      </trkpt>
      <trkpt lat="49.47962" lon="1.16425">
        <ele>131</ele>
        <time>2017-01-24T15:21:16Z</time>
      </trkpt>
      <trkpt lat="49.47958" lon="1.16414">
        <ele>126</ele>
        <time>2017-01-24T15:21:40Z</time>
      </trkpt>
      <trkpt lat="49.47957" lon="1.1641">
        <ele>126</ele>
        <time>2017-01-24T15:21:40Z</time>
      </trkpt>
      <trkpt lat="49.47957" lon="1.1641">
        <ele>126</ele>
        <time>2017-01-24T15:21:40Z</time>
      </trkpt>
      <trkpt lat="49.47956" lon="1.16408">
        <ele>126</ele>
        <time>2017-01-24T15:21:40Z</time>
      </trkpt>
      <trkpt lat="49.47954" lon="1.16407">
        <ele>126</ele>
        <time>2017-01-24T15:21:40Z</time>
      </trkpt>
      <trkpt lat="49.47946" lon="1.16387">
        <ele>126</ele>
        <time>2017-01-24T15:22:03Z</time>
      </trkpt>
      <trkpt lat="49.47943" lon="1.16385">
        <ele>126</ele>
        <time>2017-01-24T15:22:03Z</time>
      </trkpt>
      <trkpt lat="49.47937" lon="1.16378">
        <ele>126</ele>
        <time>2017-01-24T15:22:03Z</time>
      </trkpt>
      <trkpt lat="49.47936" lon="1.16375">
        <ele>137</ele>
        <time>2017-01-24T15:22:03Z</time>
      </trkpt>
      <trkpt lat="49.47932" lon="1.1637">
        <ele>137</ele>
        <time>2017-01-24T15:22:23Z</time>
      </trkpt>
      <trkpt lat="49.4793" lon="1.16367">
        <ele>137</ele>
        <time>2017-01-24T15:22:23Z</time>
      </trkpt>
      <trkpt lat="49.47929" lon="1.16365">
        <ele>137</ele>
        <time>2017-01-24T15:22:23Z</time>
      </trkpt>
      <trkpt lat="49.47927" lon="1.16365">
        <ele>137</ele>
        <time>2017-01-24T15:22:23Z</time>
      </trkpt>
      <trkpt lat="49.47924" lon="1.16362">
        <ele>137</ele>
        <time>2017-01-24T15:22:23Z</time>
      </trkpt>
      <trkpt lat="49.47923" lon="1.16357">
        <ele>137</ele>
        <time>2017-01-24T15:22:47Z</time>
      </trkpt>
      <trkpt lat="49.47923" lon="1.16355">
        <ele>137</ele>
        <time>2017-01-24T15:22:47Z</time>
      </trkpt>
      <trkpt lat="49.47923" lon="1.16354">
        <ele>137</ele>
        <time>2017-01-24T15:22:47Z</time>
      </trkpt>
      <trkpt lat="49.47921" lon="1.16352">
        <ele>137</ele>
        <time>2017-01-24T15:22:47Z</time>
      </trkpt>
      <trkpt lat="49.47919" lon="1.16344">
        <ele>137</ele>
        <time>2017-01-24T15:22:47Z</time>
      </trkpt>
      <trkpt lat="49.47918" lon="1.16342">
        <ele>137</ele>
        <time>2017-01-24T15:23:03Z</time>
      </trkpt>
      <trkpt lat="49.47916" lon="1.16336">
        <ele>137</ele>
        <time>2017-01-24T15:23:03Z</time>
      </trkpt>
      <trkpt lat="49.47915" lon="1.16332">
        <ele>137</ele>
        <time>2017-01-24T15:23:03Z</time>
      </trkpt>
      <trkpt lat="49.47914" lon="1.16327">
        <ele>137</ele>
        <time>2017-01-24T15:23:03Z</time>
      </trkpt>
      <trkpt lat="49.47913" lon="1.16317">
        <ele>137</ele>
        <time>2017-01-24T15:23:23Z</time>
      </trkpt>
      <trkpt lat="49.47912" lon="1.16309">
        <ele>137</ele>
        <time>2017-01-24T15:23:23Z</time>
      </trkpt>
      <trkpt lat="49.47912" lon="1.163">
        <ele>137</ele>
        <time>2017-01-24T15:23:23Z</time>
      </trkpt>
      <trkpt lat="49.47912" lon="1.16296">
        <ele>137</ele>
        <time>2017-01-24T15:23:23Z</time>
      </trkpt>
      <trkpt lat="49.4791" lon="1.16278">
        <ele>142</ele>
        <time>2017-01-24T15:23:47Z</time>
      </trkpt>
      <trkpt lat="49.47908" lon="1.16274">
        <ele>142</ele>
        <time>2017-01-24T15:23:47Z</time>
      </trkpt>
      <trkpt lat="49.47904" lon="1.16261">
        <ele>142</ele>
        <time>2017-01-24T15:23:47Z</time>
      </trkpt>
      <trkpt lat="49.47903" lon="1.16254">
        <ele>142</ele>
        <time>2017-01-24T15:23:47Z</time>
      </trkpt>
      <trkpt lat="49.47901" lon="1.16245">
        <ele>142</ele>
        <time>2017-01-24T15:24:05Z</time>
      </trkpt>
      <trkpt lat="49.479" lon="1.16239">
        <ele>142</ele>
        <time>2017-01-24T15:24:05Z</time>
      </trkpt>
      <trkpt lat="49.479" lon="1.16233">
        <ele>142</ele>
        <time>2017-01-24T15:24:05Z</time>
      </trkpt>
      <trkpt lat="49.47899" lon="1.16229">
        <ele>142</ele>
        <time>2017-01-24T15:24:05Z</time>
      </trkpt>
      <trkpt lat="49.47897" lon="1.16208">
        <ele>142</ele>
        <time>2017-01-24T15:25:19Z</time>
      </trkpt>
      <trkpt lat="49.47897" lon="1.16208">
        <ele>144</ele>
        <time>2017-01-24T15:25:19Z</time>
      </trkpt>
      <trkpt lat="49.47897" lon="1.16208">
        <ele>144</ele>
        <time>2017-01-24T15:25:19Z</time>
      </trkpt>
      <trkpt lat="49.47897" lon="1.16208">
        <ele>144</ele>
        <time>2017-01-24T15:25:19Z</time>
      </trkpt>
      <trkpt lat="49.47897" lon="1.16206">
        <ele>144</ele>
        <time>2017-01-24T15:25:19Z</time>
      </trkpt>
      <trkpt lat="49.47894" lon="1.16196">
        <ele>144</ele>
        <time>2017-01-24T15:29:27Z</time>
      </trkpt>
      <trkpt lat="49.47891" lon="1.16196">
        <ele>144</ele>
        <time>2017-01-24T15:29:27Z</time>
      </trkpt>
      <trkpt lat="49.47888" lon="1.16192">
        <ele>144</ele>
        <time>2017-01-24T15:29:27Z</time>
      </trkpt>
      <trkpt lat="49.47886" lon="1.16189">
        <ele>144</ele>
        <time>2017-01-24T15:29:27Z</time>
      </trkpt>
      <trkpt lat="49.47885" lon="1.16184">
        <ele>144</ele>
        <time>2017-01-24T15:29:27Z</time>
      </trkpt>
      <trkpt lat="49.47883" lon="1.16181">
        <ele>144</ele>
        <time>2017-01-24T15:29:43Z</time>
      </trkpt>
      <trkpt lat="49.4788" lon="1.16178">
        <ele>144</ele>
        <time>2017-01-24T15:29:43Z</time>
      </trkpt>
      <trkpt lat="49.47876" lon="1.16174">
        <ele>144</ele>
        <time>2017-01-24T15:29:43Z</time>
      </trkpt>
      <trkpt lat="49.47871" lon="1.16171">
        <ele>144</ele>
        <time>2017-01-24T15:29:43Z</time>
      </trkpt>
      <trkpt lat="49.47867" lon="1.16168">
        <ele>144</ele>
        <time>2017-01-24T15:30:07Z</time>
      </trkpt>
      <trkpt lat="49.47864" lon="1.16162">
        <ele>144</ele>
        <time>2017-01-24T15:30:07Z</time>
      </trkpt>
      <trkpt lat="49.47863" lon="1.16162">
        <ele>144</ele>
        <time>2017-01-24T15:30:07Z</time>
      </trkpt>
      <trkpt lat="49.47863" lon="1.1616">
        <ele>144</ele>
        <time>2017-01-24T15:30:07Z</time>
      </trkpt>
      <trkpt lat="49.4786" lon="1.1616">
        <ele>144</ele>
        <time>2017-01-24T15:30:07Z</time>
      </trkpt>
      <trkpt lat="49.47854" lon="1.16155">
        <ele>144</ele>
        <time>2017-01-24T15:30:23Z</time>
      </trkpt>
      <trkpt lat="49.47851" lon="1.16151">
        <ele>144</ele>
        <time>2017-01-24T15:30:23Z</time>
      </trkpt>
      <trkpt lat="49.47847" lon="1.16146">
        <ele>144</ele>
        <time>2017-01-24T15:30:23Z</time>
      </trkpt>
      <trkpt lat="49.47844" lon="1.16142">
        <ele>144</ele>
        <time>2017-01-24T15:30:23Z</time>
      </trkpt>
      <trkpt lat="49.47841" lon="1.1614">
        <ele>144</ele>
        <time>2017-01-24T15:30:39Z</time>
      </trkpt>
      <trkpt lat="49.47838" lon="1.16133">
        <ele>144</ele>
        <time>2017-01-24T15:30:39Z</time>
      </trkpt>
      <trkpt lat="49.47834" lon="1.16129">
        <ele>144</ele>
        <time>2017-01-24T15:30:40Z</time>
      </trkpt>
      <trkpt lat="49.4783" lon="1.16124">
        <ele>146</ele>
        <time>2017-01-24T15:30:40Z</time>
      </trkpt>
      <trkpt lat="49.47826" lon="1.16122">
        <ele>146</ele>
        <time>2017-01-24T15:30:55Z</time>
      </trkpt>
      <trkpt lat="49.47823" lon="1.16118">
        <ele>146</ele>
        <time>2017-01-24T15:30:55Z</time>
      </trkpt>
      <trkpt lat="49.4782" lon="1.16113">
        <ele>146</ele>
        <time>2017-01-24T15:30:55Z</time>
      </trkpt>
      <trkpt lat="49.47816" lon="1.1611">
        <ele>146</ele>
        <time>2017-01-24T15:30:55Z</time>
      </trkpt>
      <trkpt lat="49.47812" lon="1.16108">
        <ele>146</ele>
        <time>2017-01-24T15:31:11Z</time>
      </trkpt>
      <trkpt lat="49.47808" lon="1.16103">
        <ele>146</ele>
        <time>2017-01-24T15:31:11Z</time>
      </trkpt>
      <trkpt lat="49.47803" lon="1.16098">
        <ele>146</ele>
        <time>2017-01-24T15:31:11Z</time>
      </trkpt>
      <trkpt lat="49.47799" lon="1.16091">
        <ele>146</ele>
        <time>2017-01-24T15:31:11Z</time>
      </trkpt>
      <trkpt lat="49.47796" lon="1.16087">
        <ele>146</ele>
        <time>2017-01-24T15:31:29Z</time>
      </trkpt>
      <trkpt lat="49.47791" lon="1.16081">
        <ele>147</ele>
        <time>2017-01-24T15:31:29Z</time>
      </trkpt>
      <trkpt lat="49.47788" lon="1.16078">
        <ele>147</ele>
        <time>2017-01-24T15:31:29Z</time>
      </trkpt>
      <trkpt lat="49.47781" lon="1.16072">
        <ele>147</ele>
        <time>2017-01-24T15:31:29Z</time>
      </trkpt>
      <trkpt lat="49.47779" lon="1.1607">
        <ele>147</ele>
        <time>2017-01-24T15:31:43Z</time>
      </trkpt>
      <trkpt lat="49.47775" lon="1.16064">
        <ele>147</ele>
        <time>2017-01-24T15:31:43Z</time>
      </trkpt>
      <trkpt lat="49.47771" lon="1.16061">
        <ele>147</ele>
        <time>2017-01-24T15:31:43Z</time>
      </trkpt>
      <trkpt lat="49.47767" lon="1.16056">
        <ele>147</ele>
        <time>2017-01-24T15:31:43Z</time>
      </trkpt>
      <trkpt lat="49.47763" lon="1.1605">
        <ele>147</ele>
        <time>2017-01-24T15:31:59Z</time>
      </trkpt>
      <trkpt lat="49.4776" lon="1.16048">
        <ele>147</ele>
        <time>2017-01-24T15:31:59Z</time>
      </trkpt>
      <trkpt lat="49.47756" lon="1.16044">
        <ele>147</ele>
        <time>2017-01-24T15:31:59Z</time>
      </trkpt>
      <trkpt lat="49.47751" lon="1.16042">
        <ele>147</ele>
        <time>2017-01-24T15:31:59Z</time>
      </trkpt>
      <trkpt lat="49.47745" lon="1.16034">
        <ele>147</ele>
        <time>2017-01-24T15:32:16Z</time>
      </trkpt>
      <trkpt lat="49.47741" lon="1.1603">
        <ele>147</ele>
        <time>2017-01-24T15:32:16Z</time>
      </trkpt>
      <trkpt lat="49.47736" lon="1.16026">
        <ele>147</ele>
        <time>2017-01-24T15:32:16Z</time>
      </trkpt>
      <trkpt lat="49.47732" lon="1.1602">
        <ele>147</ele>
        <time>2017-01-24T15:32:16Z</time>
      </trkpt>
      <trkpt lat="49.47731" lon="1.16021">
        <ele>147</ele>
        <time>2017-01-24T15:32:32Z</time>
      </trkpt>
      <trkpt lat="49.47727" lon="1.16019">
        <ele>147</ele>
        <time>2017-01-24T15:32:32Z</time>
      </trkpt>
      <trkpt lat="49.47722" lon="1.16014">
        <ele>147</ele>
        <time>2017-01-24T15:32:32Z</time>
      </trkpt>
      <trkpt lat="49.47718" lon="1.16009">
        <ele>147</ele>
        <time>2017-01-24T15:32:32Z</time>
      </trkpt>
      <trkpt lat="49.47713" lon="1.16005">
        <ele>147</ele>
        <time>2017-01-24T15:32:47Z</time>
      </trkpt>
      <trkpt lat="49.47708" lon="1.16002">
        <ele>151</ele>
        <time>2017-01-24T15:32:47Z</time>
      </trkpt>
      <trkpt lat="49.47703" lon="1.15996">
        <ele>151</ele>
        <time>2017-01-24T15:32:47Z</time>
      </trkpt>
      <trkpt lat="49.477" lon="1.15995">
        <ele>151</ele>
        <time>2017-01-24T15:32:47Z</time>
      </trkpt>
      <trkpt lat="49.47693" lon="1.1599">
        <ele>151</ele>
        <time>2017-01-24T15:33:03Z</time>
      </trkpt>
      <trkpt lat="49.47693" lon="1.15989">
        <ele>151</ele>
        <time>2017-01-24T15:33:03Z</time>
      </trkpt>
      <trkpt lat="49.47688" lon="1.15985">
        <ele>151</ele>
        <time>2017-01-24T15:33:03Z</time>
      </trkpt>
      <trkpt lat="49.47683" lon="1.15984">
        <ele>151</ele>
        <time>2017-01-24T15:33:03Z</time>
      </trkpt>
      <trkpt lat="49.47678" lon="1.1598">
        <ele>151</ele>
        <time>2017-01-24T15:33:20Z</time>
      </trkpt>
      <trkpt lat="49.47673" lon="1.15976">
        <ele>151</ele>
        <time>2017-01-24T15:33:20Z</time>
      </trkpt>
      <trkpt lat="49.4767" lon="1.15972">
        <ele>151</ele>
        <time>2017-01-24T15:33:20Z</time>
      </trkpt>
      <trkpt lat="49.47666" lon="1.15971">
        <ele>151</ele>
        <time>2017-01-24T15:33:20Z</time>
      </trkpt>
      <trkpt lat="49.47661" lon="1.15968">
        <ele>151</ele>
        <time>2017-01-24T15:33:37Z</time>
      </trkpt>
      <trkpt lat="49.47652" lon="1.15961">
        <ele>151</ele>
        <time>2017-01-24T15:33:37Z</time>
      </trkpt>
      <trkpt lat="49.47649" lon="1.15956">
        <ele>154</ele>
        <time>2017-01-24T15:33:37Z</time>
      </trkpt>
      <trkpt lat="49.47642" lon="1.1595">
        <ele>154</ele>
        <time>2017-01-24T15:33:37Z</time>
      </trkpt>
      <trkpt lat="49.47642" lon="1.15948">
        <ele>154</ele>
        <time>2017-01-24T15:33:51Z</time>
      </trkpt>
      <trkpt lat="49.47636" lon="1.15943">
        <ele>154</ele>
        <time>2017-01-24T15:33:51Z</time>
      </trkpt>
      <trkpt lat="49.47633" lon="1.1594">
        <ele>154</ele>
        <time>2017-01-24T15:33:51Z</time>
      </trkpt>
      <trkpt lat="49.47625" lon="1.15934">
        <ele>147</ele>
        <time>2017-01-24T15:33:51Z</time>
      </trkpt>
      <trkpt lat="49.47621" lon="1.15928">
        <ele>147</ele>
        <time>2017-01-24T15:34:07Z</time>
      </trkpt>
      <trkpt lat="49.47618" lon="1.15925">
        <ele>147</ele>
        <time>2017-01-24T15:34:07Z</time>
      </trkpt>
      <trkpt lat="49.47614" lon="1.1592">
        <ele>147</ele>
        <time>2017-01-24T15:34:07Z</time>
      </trkpt>
      <trkpt lat="49.4761" lon="1.15916">
        <ele>147</ele>
        <time>2017-01-24T15:34:07Z</time>
      </trkpt>
      <trkpt lat="49.47607" lon="1.1591">
        <ele>147</ele>
        <time>2017-01-24T15:34:23Z</time>
      </trkpt>
      <trkpt lat="49.47604" lon="1.1591">
        <ele>147</ele>
        <time>2017-01-24T15:34:23Z</time>
      </trkpt>
      <trkpt lat="49.47603" lon="1.15903">
        <ele>147</ele>
        <time>2017-01-24T15:34:23Z</time>
      </trkpt>
      <trkpt lat="49.47598" lon="1.159">
        <ele>147</ele>
        <time>2017-01-24T15:34:23Z</time>
      </trkpt>
      <trkpt lat="49.47596" lon="1.15897">
        <ele>147</ele>
        <time>2017-01-24T15:34:40Z</time>
      </trkpt>
      <trkpt lat="49.47591" lon="1.15892">
        <ele>147</ele>
        <time>2017-01-24T15:34:40Z</time>
      </trkpt>
      <trkpt lat="49.47587" lon="1.15888">
        <ele>147</ele>
        <time>2017-01-24T15:34:40Z</time>
      </trkpt>
      <trkpt lat="49.47584" lon="1.15884">
        <ele>147</ele>
        <time>2017-01-24T15:34:40Z</time>
      </trkpt>
      <trkpt lat="49.47581" lon="1.1588">
        <ele>147</ele>
        <time>2017-01-24T15:34:56Z</time>
      </trkpt>
      <trkpt lat="49.47578" lon="1.15876">
        <ele>147</ele>
        <time>2017-01-24T15:34:56Z</time>
      </trkpt>
      <trkpt lat="49.47574" lon="1.15874">
        <ele>146</ele>
        <time>2017-01-24T15:34:56Z</time>
      </trkpt>
      <trkpt lat="49.47572" lon="1.1587">
        <ele>146</ele>
        <time>2017-01-24T15:34:56Z</time>
      </trkpt>
      <trkpt lat="49.47569" lon="1.15864">
        <ele>146</ele>
        <time>2017-01-24T15:35:11Z</time>
      </trkpt>
      <trkpt lat="49.47566" lon="1.15859">
        <ele>146</ele>
        <time>2017-01-24T15:35:11Z</time>
      </trkpt>
      <trkpt lat="49.47561" lon="1.15854">
        <ele>146</ele>
        <time>2017-01-24T15:35:11Z</time>
      </trkpt>
      <trkpt lat="49.4756" lon="1.15849">
        <ele>146</ele>
        <time>2017-01-24T15:35:11Z</time>
      </trkpt>
      <trkpt lat="49.47557" lon="1.15844">
        <ele>146</ele>
        <time>2017-01-24T15:35:27Z</time>
      </trkpt>
      <trkpt lat="49.47555" lon="1.15839">
        <ele>146</ele>
        <time>2017-01-24T15:35:27Z</time>
      </trkpt>
      <trkpt lat="49.47551" lon="1.15831">
        <ele>146</ele>
        <time>2017-01-24T15:35:27Z</time>
      </trkpt>
      <trkpt lat="49.47549" lon="1.15826">
        <ele>146</ele>
        <time>2017-01-24T15:35:27Z</time>
      </trkpt>
      <trkpt lat="49.47546" lon="1.1582">
        <ele>146</ele>
        <time>2017-01-24T15:35:43Z</time>
      </trkpt>
      <trkpt lat="49.47542" lon="1.15815">
        <ele>146</ele>
        <time>2017-01-24T15:35:43Z</time>
      </trkpt>
      <trkpt lat="49.47539" lon="1.1581">
        <ele>143</ele>
        <time>2017-01-24T15:35:43Z</time>
      </trkpt>
      <trkpt lat="49.47536" lon="1.15806">
        <ele>143</ele>
        <time>2017-01-24T15:35:43Z</time>
      </trkpt>
      <trkpt lat="49.47534" lon="1.15805">
        <ele>143</ele>
        <time>2017-01-24T15:36:00Z</time>
      </trkpt>
      <trkpt lat="49.4753" lon="1.15795">
        <ele>143</ele>
        <time>2017-01-24T15:36:00Z</time>
      </trkpt>
      <trkpt lat="49.47528" lon="1.1579">
        <ele>144</ele>
        <time>2017-01-24T15:36:00Z</time>
      </trkpt>
      <trkpt lat="49.47525" lon="1.15783">
        <ele>144</ele>
        <time>2017-01-24T15:36:00Z</time>
      </trkpt>
      <trkpt lat="49.47512" lon="1.15765">
        <ele>144</ele>
        <time>2017-01-24T15:36:28Z</time>
      </trkpt>
      <trkpt lat="49.47509" lon="1.15765">
        <ele>144</ele>
        <time>2017-01-24T15:36:28Z</time>
      </trkpt>
      <trkpt lat="49.47506" lon="1.15764">
        <ele>144</ele>
        <time>2017-01-24T15:36:28Z</time>
      </trkpt>
      <trkpt lat="49.47502" lon="1.15761">
        <ele>144</ele>
        <time>2017-01-24T15:36:28Z</time>
      </trkpt>
      <trkpt lat="49.47499" lon="1.1576">
        <ele>144</ele>
        <time>2017-01-24T15:36:43Z</time>
      </trkpt>
      <trkpt lat="49.47495" lon="1.15757">
        <ele>144</ele>
        <time>2017-01-24T15:36:43Z</time>
      </trkpt>
      <trkpt lat="49.4749" lon="1.15754">
        <ele>144</ele>
        <time>2017-01-24T15:36:43Z</time>
      </trkpt>
      <trkpt lat="49.47485" lon="1.15754">
        <ele>144</ele>
        <time>2017-01-24T15:36:43Z</time>
      </trkpt>
      <trkpt lat="49.47483" lon="1.15752">
        <ele>144</ele>
        <time>2017-01-24T15:36:59Z</time>
      </trkpt>
      <trkpt lat="49.47478" lon="1.15749">
        <ele>144</ele>
        <time>2017-01-24T15:36:59Z</time>
      </trkpt>
      <trkpt lat="49.47472" lon="1.1575">
        <ele>144</ele>
        <time>2017-01-24T15:36:59Z</time>
      </trkpt>
      <trkpt lat="49.47466" lon="1.1575">
        <ele>144</ele>
        <time>2017-01-24T15:36:59Z</time>
      </trkpt>
      <trkpt lat="49.47465" lon="1.15752">
        <ele>144</ele>
        <time>2017-01-24T15:37:15Z</time>
      </trkpt>
      <trkpt lat="49.47459" lon="1.15749">
        <ele>144</ele>
        <time>2017-01-24T15:37:15Z</time>
      </trkpt>
      <trkpt lat="49.47454" lon="1.15747">
        <ele>142</ele>
        <time>2017-01-24T15:37:15Z</time>
      </trkpt>
      <trkpt lat="49.4745" lon="1.15749">
        <ele>142</ele>
        <time>2017-01-24T15:37:15Z</time>
      </trkpt>
      <trkpt lat="49.47447" lon="1.15749">
        <ele>142</ele>
        <time>2017-01-24T15:37:31Z</time>
      </trkpt>
      <trkpt lat="49.47443" lon="1.15748">
        <ele>142</ele>
        <time>2017-01-24T15:37:31Z</time>
      </trkpt>
      <trkpt lat="49.47437" lon="1.15749">
        <ele>142</ele>
        <time>2017-01-24T15:37:31Z</time>
      </trkpt>
      <trkpt lat="49.47435" lon="1.15751">
        <ele>142</ele>
        <time>2017-01-24T15:37:31Z</time>
      </trkpt>
      <trkpt lat="49.47429" lon="1.15749">
        <ele>142</ele>
        <time>2017-01-24T15:37:47Z</time>
      </trkpt>
      <trkpt lat="49.47425" lon="1.15748">
        <ele>142</ele>
        <time>2017-01-24T15:37:47Z</time>
      </trkpt>
      <trkpt lat="49.47421" lon="1.15746">
        <ele>142</ele>
        <time>2017-01-24T15:37:47Z</time>
      </trkpt>
      <trkpt lat="49.47417" lon="1.15751">
        <ele>142</ele>
        <time>2017-01-24T15:37:47Z</time>
      </trkpt>
      <trkpt lat="49.47413" lon="1.1575">
        <ele>142</ele>
        <time>2017-01-24T15:38:04Z</time>
      </trkpt>
      <trkpt lat="49.47409" lon="1.15752">
        <ele>142</ele>
        <time>2017-01-24T15:38:04Z</time>
      </trkpt>
      <trkpt lat="49.47404" lon="1.15755">
        <ele>142</ele>
        <time>2017-01-24T15:38:04Z</time>
      </trkpt>
      <trkpt lat="49.47395" lon="1.15759">
        <ele>142</ele>
        <time>2017-01-24T15:38:04Z</time>
      </trkpt>
      <trkpt lat="49.47388" lon="1.15758">
        <ele>142</ele>
        <time>2017-01-24T15:38:20Z</time>
      </trkpt>
      <trkpt lat="49.47383" lon="1.1576">
        <ele>142</ele>
        <time>2017-01-24T15:38:20Z</time>
      </trkpt>
      <trkpt lat="49.47379" lon="1.15758">
        <ele>142</ele>
        <time>2017-01-24T15:38:20Z</time>
      </trkpt>
      <trkpt lat="49.47376" lon="1.15758">
        <ele>142</ele>
        <time>2017-01-24T15:38:20Z</time>
      </trkpt>
      <trkpt lat="49.47375" lon="1.1576">
        <ele>141</ele>
        <time>2017-01-24T15:38:39Z</time>
      </trkpt>
      <trkpt lat="49.47368" lon="1.15761">
        <ele>141</ele>
        <time>2017-01-24T15:38:39Z</time>
      </trkpt>
      <trkpt lat="49.47364" lon="1.15762">
        <ele>141</ele>
        <time>2017-01-24T15:38:39Z</time>
      </trkpt>
      <trkpt lat="49.47358" lon="1.1576">
        <ele>141</ele>
        <time>2017-01-24T15:38:39Z</time>
      </trkpt>
      <trkpt lat="49.4735" lon="1.15764">
        <ele>141</ele>
        <time>2017-01-24T15:38:56Z</time>
      </trkpt>
      <trkpt lat="49.47346" lon="1.15765">
        <ele>141</ele>
        <time>2017-01-24T15:38:56Z</time>
      </trkpt>
      <trkpt lat="49.47338" lon="1.15766">
        <ele>141</ele>
        <time>2017-01-24T15:38:56Z</time>
      </trkpt>
      <trkpt lat="49.47335" lon="1.15763">
        <ele>141</ele>
        <time>2017-01-24T15:38:56Z</time>
      </trkpt>
      <trkpt lat="49.47327" lon="1.1577">
        <ele>141</ele>
        <time>2017-01-24T15:39:19Z</time>
      </trkpt>
      <trkpt lat="49.47313" lon="1.15772">
        <ele>141</ele>
        <time>2017-01-24T15:39:19Z</time>
      </trkpt>
      <trkpt lat="49.47311" lon="1.15772">
        <ele>141</ele>
        <time>2017-01-24T15:39:19Z</time>
      </trkpt>
      <trkpt lat="49.47304" lon="1.15778">
        <ele>141</ele>
        <time>2017-01-24T15:39:19Z</time>
      </trkpt>
      <trkpt lat="49.47296" lon="1.15784">
        <ele>141</ele>
        <time>2017-01-24T15:39:47Z</time>
      </trkpt>
      <trkpt lat="49.47295" lon="1.15783">
        <ele>141</ele>
        <time>2017-01-24T15:39:47Z</time>
      </trkpt>
      <trkpt lat="49.47292" lon="1.15783">
        <ele>128</ele>
        <time>2017-01-24T15:39:47Z</time>
      </trkpt>
      <trkpt lat="49.47286" lon="1.15787">
        <ele>128</ele>
        <time>2017-01-24T15:39:47Z</time>
      </trkpt>
      <trkpt lat="49.47283" lon="1.15788">
        <ele>128</ele>
        <time>2017-01-24T15:39:47Z</time>
      </trkpt>
      <trkpt lat="49.47271" lon="1.15788">
        <ele>128</ele>
        <time>2017-01-24T15:40:11Z</time>
      </trkpt>
      <trkpt lat="49.47266" lon="1.15787">
        <ele>128</ele>
        <time>2017-01-24T15:40:11Z</time>
      </trkpt>
      <trkpt lat="49.47261" lon="1.1579">
        <ele>128</ele>
        <time>2017-01-24T15:40:11Z</time>
      </trkpt>
      <trkpt lat="49.47258" lon="1.15792">
        <ele>128</ele>
        <time>2017-01-24T15:40:11Z</time>
      </trkpt>
      <trkpt lat="49.47257" lon="1.15792">
        <ele>128</ele>
        <time>2017-01-24T15:40:32Z</time>
      </trkpt>
      <trkpt lat="49.47256" lon="1.15792">
        <ele>128</ele>
        <time>2017-01-24T15:40:32Z</time>
      </trkpt>
      <trkpt lat="49.47251" lon="1.15795">
        <ele>132</ele>
        <time>2017-01-24T15:40:32Z</time>
      </trkpt>
      <trkpt lat="49.47249" lon="1.15796">
        <ele>132</ele>
        <time>2017-01-24T15:40:32Z</time>
      </trkpt>
      <trkpt lat="49.47245" lon="1.158">
        <ele>132</ele>
        <time>2017-01-24T15:40:32Z</time>
      </trkpt>
      <trkpt lat="49.4724" lon="1.15806">
        <ele>132</ele>
        <time>2017-01-24T15:40:48Z</time>
      </trkpt>
      <trkpt lat="49.47239" lon="1.15807">
        <ele>132</ele>
        <time>2017-01-24T15:40:48Z</time>
      </trkpt>
      <trkpt lat="49.47235" lon="1.15807">
        <ele>132</ele>
        <time>2017-01-24T15:40:48Z</time>
      </trkpt>
      <trkpt lat="49.47231" lon="1.15808">
        <ele>132</ele>
        <time>2017-01-24T15:40:48Z</time>
      </trkpt>
      <trkpt lat="49.47228" lon="1.15815">
        <ele>132</ele>
        <time>2017-01-24T15:41:04Z</time>
      </trkpt>
      <trkpt lat="49.47226" lon="1.15818">
        <ele>132</ele>
        <time>2017-01-24T15:41:04Z</time>
      </trkpt>
      <trkpt lat="49.47218" lon="1.15822">
        <ele>132</ele>
        <time>2017-01-24T15:41:04Z</time>
      </trkpt>
      <trkpt lat="49.47216" lon="1.15824">
        <ele>132</ele>
        <time>2017-01-24T15:41:04Z</time>
      </trkpt>
      <trkpt lat="49.47212" lon="1.15829">
        <ele>132</ele>
        <time>2017-01-24T15:41:19Z</time>
      </trkpt>
      <trkpt lat="49.47209" lon="1.15834">
        <ele>132</ele>
        <time>2017-01-24T15:41:19Z</time>
      </trkpt>
      <trkpt lat="49.47206" lon="1.15842">
        <ele>104</ele>
        <time>2017-01-24T15:41:19Z</time>
      </trkpt>
      <trkpt lat="49.47202" lon="1.15848">
        <ele>104</ele>
        <time>2017-01-24T15:41:19Z</time>
      </trkpt>
      <trkpt lat="49.47202" lon="1.15852">
        <ele>104</ele>
        <time>2017-01-24T15:41:44Z</time>
      </trkpt>
      <trkpt lat="49.47201" lon="1.15854">
        <ele>104</ele>
        <time>2017-01-24T15:41:44Z</time>
      </trkpt>
      <trkpt lat="49.472" lon="1.15854">
        <ele>104</ele>
        <time>2017-01-24T15:41:44Z</time>
      </trkpt>
      <trkpt lat="49.472" lon="1.15855">
        <ele>104</ele>
        <time>2017-01-24T15:41:44Z</time>
      </trkpt>
      <trkpt lat="49.47193" lon="1.15863">
        <ele>104</ele>
        <time>2017-01-24T15:41:44Z</time>
      </trkpt>
      <trkpt lat="49.47187" lon="1.15876">
        <ele>111</ele>
        <time>2017-01-24T15:42:11Z</time>
      </trkpt>
      <trkpt lat="49.47187" lon="1.15878">
        <ele>111</ele>
        <time>2017-01-24T15:42:11Z</time>
      </trkpt>
      <trkpt lat="49.47187" lon="1.15879">
        <ele>111</ele>
        <time>2017-01-24T15:42:11Z</time>
      </trkpt>
      <trkpt lat="49.47187" lon="1.15879">
        <ele>111</ele>
        <time>2017-01-24T15:42:11Z</time>
      </trkpt>
      <trkpt lat="49.47189" lon="1.15891">
        <ele>111</ele>
        <time>2017-01-24T15:42:11Z</time>
      </trkpt>
      <trkpt lat="49.47191" lon="1.15907">
        <ele>111</ele>
        <time>2017-01-24T15:42:27Z</time>
      </trkpt>
      <trkpt lat="49.47191" lon="1.15916">
        <ele>111</ele>
        <time>2017-01-24T15:42:28Z</time>
      </trkpt>
      <trkpt lat="49.47191" lon="1.15919">
        <ele>111</ele>
        <time>2017-01-24T15:42:29Z</time>
      </trkpt>
      <trkpt lat="49.47189" lon="1.15928">
        <ele>111</ele>
        <time>2017-01-24T15:42:29Z</time>
      </trkpt>
      <trkpt lat="49.47189" lon="1.15943">
        <ele>111</ele>
        <time>2017-01-24T15:42:56Z</time>
      </trkpt>
      <trkpt lat="49.47191" lon="1.15945">
        <ele>111</ele>
        <time>2017-01-24T15:42:56Z</time>
      </trkpt>
      <trkpt lat="49.47192" lon="1.15947">
        <ele>111</ele>
        <time>2017-01-24T15:42:56Z</time>
      </trkpt>
      <trkpt lat="49.47192" lon="1.15947">
        <ele>111</ele>
        <time>2017-01-24T15:42:56Z</time>
      </trkpt>
      <trkpt lat="49.47192" lon="1.1595">
        <ele>111</ele>
        <time>2017-01-24T15:42:56Z</time>
      </trkpt>
      <trkpt lat="49.47192" lon="1.15952">
        <ele>111</ele>
        <time>2017-01-24T15:43:11Z</time>
      </trkpt>
      <trkpt lat="49.47192" lon="1.15952">
        <ele>111</ele>
        <time>2017-01-24T15:43:11Z</time>
      </trkpt>
      <trkpt lat="49.47192" lon="1.15962">
        <ele>101</ele>
        <time>2017-01-24T15:43:11Z</time>
      </trkpt>
      <trkpt lat="49.47193" lon="1.15971">
        <ele>101</ele>
        <time>2017-01-24T15:43:11Z</time>
      </trkpt>
      <trkpt lat="49.47189" lon="1.1598">
        <ele>101</ele>
        <time>2017-01-24T15:43:28Z</time>
      </trkpt>
      <trkpt lat="49.4719" lon="1.15984">
        <ele>101</ele>
        <time>2017-01-24T15:43:28Z</time>
      </trkpt>
      <trkpt lat="49.47189" lon="1.15999">
        <ele>101</ele>
        <time>2017-01-24T15:43:28Z</time>
      </trkpt>
      <trkpt lat="49.47187" lon="1.16008">
        <ele>101</ele>
        <time>2017-01-24T15:43:28Z</time>
      </trkpt>
      <trkpt lat="49.47186" lon="1.16013">
        <ele>101</ele>
        <time>2017-01-24T15:43:43Z</time>
      </trkpt>
      <trkpt lat="49.47186" lon="1.16018">
        <ele>101</ele>
        <time>2017-01-24T15:43:43Z</time>
      </trkpt>
      <trkpt lat="49.47185" lon="1.16026">
        <ele>101</ele>
        <time>2017-01-24T15:43:43Z</time>
      </trkpt>
      <trkpt lat="49.47184" lon="1.16032">
        <ele>101</ele>
        <time>2017-01-24T15:43:43Z</time>
      </trkpt>
      <trkpt lat="49.47185" lon="1.16039">
        <ele>101</ele>
        <time>2017-01-24T15:44:00Z</time>
      </trkpt>
      <trkpt lat="49.47187" lon="1.16043">
        <ele>86</ele>
        <time>2017-01-24T15:44:00Z</time>
      </trkpt>
      <trkpt lat="49.47185" lon="1.16051">
        <ele>86</ele>
        <time>2017-01-24T15:44:00Z</time>
      </trkpt>
      <trkpt lat="49.47185" lon="1.16057">
        <ele>86</ele>
        <time>2017-01-24T15:44:00Z</time>
      </trkpt>
      <trkpt lat="49.47186" lon="1.16076">
        <ele>86</ele>
        <time>2017-01-24T15:44:24Z</time>
      </trkpt>
      <trkpt lat="49.47187" lon="1.16082">
        <ele>86</ele>
        <time>2017-01-24T15:44:24Z</time>
      </trkpt>
      <trkpt lat="49.47188" lon="1.16087">
        <ele>86</ele>
        <time>2017-01-24T15:44:24Z</time>
      </trkpt>
      <trkpt lat="49.47191" lon="1.16092">
        <ele>86</ele>
        <time>2017-01-24T15:44:24Z</time>
      </trkpt>
      <trkpt lat="49.47188" lon="1.16098">
        <ele>86</ele>
        <time>2017-01-24T15:44:43Z</time>
      </trkpt>
      <trkpt lat="49.4719" lon="1.16101">
        <ele>86</ele>
        <time>2017-01-24T15:44:43Z</time>
      </trkpt>
      <trkpt lat="49.47188" lon="1.16106">
        <ele>86</ele>
        <time>2017-01-24T15:44:43Z</time>
      </trkpt>
      <trkpt lat="49.47189" lon="1.1611">
        <ele>86</ele>
        <time>2017-01-24T15:44:43Z</time>
      </trkpt>
      <trkpt lat="49.47189" lon="1.16116">
        <ele>86</ele>
        <time>2017-01-24T15:44:43Z</time>
      </trkpt>
      <trkpt lat="49.47186" lon="1.16135">
        <ele>76</ele>
        <time>2017-01-24T15:46:19Z</time>
      </trkpt>
      <trkpt lat="49.47186" lon="1.16136">
        <ele>76</ele>
        <time>2017-01-24T15:46:19Z</time>
      </trkpt>
      <trkpt lat="49.47184" lon="1.16142">
        <ele>76</ele>
        <time>2017-01-24T15:46:19Z</time>
      </trkpt>
      <trkpt lat="49.47181" lon="1.16146">
        <ele>76</ele>
        <time>2017-01-24T15:46:19Z</time>
      </trkpt>
      <trkpt lat="49.47178" lon="1.16151">
        <ele>76</ele>
        <time>2017-01-24T15:46:19Z</time>
      </trkpt>
      <trkpt lat="49.47173" lon="1.1616">
        <ele>76</ele>
        <time>2017-01-24T15:47:36Z</time>
      </trkpt>
      <trkpt lat="49.47173" lon="1.1616">
        <ele>76</ele>
        <time>2017-01-24T15:47:36Z</time>
      </trkpt>
      <trkpt lat="49.47173" lon="1.1616">
        <ele>76</ele>
        <time>2017-01-24T15:47:36Z</time>
      </trkpt>
      <trkpt lat="49.47173" lon="1.16165">
        <ele>76</ele>
        <time>2017-01-24T15:47:36Z</time>
      </trkpt>
      <trkpt lat="49.47171" lon="1.16166">
        <ele>76</ele>
        <time>2017-01-24T15:47:36Z</time>
      </trkpt>
      <trkpt lat="49.47167" lon="1.16169">
        <ele>76</ele>
        <time>2017-01-24T15:47:51Z</time>
      </trkpt>
      <trkpt lat="49.47162" lon="1.16169">
        <ele>76</ele>
        <time>2017-01-24T15:47:51Z</time>
      </trkpt>
      <trkpt lat="49.47155" lon="1.1617">
        <ele>76</ele>
        <time>2017-01-24T15:47:51Z</time>
      </trkpt>
      <trkpt lat="49.47152" lon="1.16169">
        <ele>76</ele>
        <time>2017-01-24T15:47:51Z</time>
      </trkpt>
      <trkpt lat="49.47146" lon="1.16169">
        <ele>76</ele>
        <time>2017-01-24T15:48:07Z</time>
      </trkpt>
      <trkpt lat="49.47142" lon="1.16168">
        <ele>76</ele>
        <time>2017-01-24T15:48:07Z</time>
      </trkpt>
      <trkpt lat="49.4714" lon="1.16169">
        <ele>76</ele>
        <time>2017-01-24T15:48:07Z</time>
      </trkpt>
      <trkpt lat="49.47135" lon="1.16163">
        <ele>76</ele>
        <time>2017-01-24T15:48:07Z</time>
      </trkpt>
      <trkpt lat="49.47132" lon="1.1616">
        <ele>76</ele>
        <time>2017-01-24T15:48:23Z</time>
      </trkpt>
      <trkpt lat="49.47131" lon="1.16159">
        <ele>76</ele>
        <time>2017-01-24T15:48:23Z</time>
      </trkpt>
      <trkpt lat="49.47125" lon="1.16154">
        <ele>72</ele>
        <time>2017-01-24T15:48:23Z</time>
      </trkpt>
      <trkpt lat="49.47122" lon="1.16151">
        <ele>72</ele>
        <time>2017-01-24T15:48:23Z</time>
      </trkpt>
      <trkpt lat="49.47118" lon="1.16145">
        <ele>72</ele>
        <time>2017-01-24T15:48:39Z</time>
      </trkpt>
      <trkpt lat="49.47113" lon="1.16142">
        <ele>72</ele>
        <time>2017-01-24T15:48:39Z</time>
      </trkpt>
      <trkpt lat="49.4711" lon="1.16137">
        <ele>72</ele>
        <time>2017-01-24T15:48:39Z</time>
      </trkpt>
      <trkpt lat="49.47104" lon="1.16138">
        <ele>72</ele>
        <time>2017-01-24T15:48:39Z</time>
      </trkpt>
      <trkpt lat="49.47098" lon="1.16129">
        <ele>72</ele>
        <time>2017-01-24T15:49:11Z</time>
      </trkpt>
      <trkpt lat="49.47093" lon="1.16127">
        <ele>72</ele>
        <time>2017-01-24T15:49:11Z</time>
      </trkpt>
      <trkpt lat="49.47089" lon="1.16123">
        <ele>79</ele>
        <time>2017-01-24T15:49:11Z</time>
      </trkpt>
      <trkpt lat="49.47084" lon="1.16121">
        <ele>79</ele>
        <time>2017-01-24T15:49:11Z</time>
      </trkpt>
      <trkpt lat="49.47081" lon="1.16123">
        <ele>79</ele>
        <time>2017-01-24T15:49:11Z</time>
      </trkpt>
      <trkpt lat="49.47075" lon="1.16118">
        <ele>79</ele>
        <time>2017-01-24T15:49:27Z</time>
      </trkpt>
      <trkpt lat="49.4707" lon="1.16111">
        <ele>79</ele>
        <time>2017-01-24T15:49:27Z</time>
      </trkpt>
      <trkpt lat="49.47068" lon="1.16105">
        <ele>79</ele>
        <time>2017-01-24T15:49:27Z</time>
      </trkpt>
      <trkpt lat="49.47062" lon="1.16101">
        <ele>79</ele>
        <time>2017-01-24T15:49:27Z</time>
      </trkpt>
      <trkpt lat="49.47047" lon="1.16098">
        <ele>79</ele>
        <time>2017-01-24T15:49:59Z</time>
      </trkpt>
      <trkpt lat="49.47046" lon="1.16097">
        <ele>79</ele>
        <time>2017-01-24T15:49:59Z</time>
      </trkpt>
      <trkpt lat="49.47045" lon="1.16097">
        <ele>79</ele>
        <time>2017-01-24T15:50:00Z</time>
      </trkpt>
      <trkpt lat="49.47042" lon="1.16098">
        <ele>71</ele>
        <time>2017-01-24T15:50:00Z</time>
      </trkpt>
      <trkpt lat="49.47037" lon="1.16101">
        <ele>71</ele>
        <time>2017-01-24T15:50:00Z</time>
      </trkpt>
      <trkpt lat="49.47033" lon="1.16104">
        <ele>71</ele>
        <time>2017-01-24T15:50:15Z</time>
      </trkpt>
      <trkpt lat="49.4703" lon="1.16108">
        <ele>71</ele>
        <time>2017-01-24T15:50:15Z</time>
      </trkpt>
      <trkpt lat="49.47025" lon="1.1611">
        <ele>71</ele>
        <time>2017-01-24T15:50:15Z</time>
      </trkpt>
      <trkpt lat="49.4702" lon="1.16115">
        <ele>71</ele>
        <time>2017-01-24T15:50:15Z</time>
      </trkpt>
      <trkpt lat="49.47014" lon="1.16113">
        <ele>71</ele>
        <time>2017-01-24T15:50:31Z</time>
      </trkpt>
      <trkpt lat="49.47012" lon="1.1611">
        <ele>71</ele>
        <time>2017-01-24T15:50:32Z</time>
      </trkpt>
      <trkpt lat="49.47006" lon="1.16103">
        <ele>71</ele>
        <time>2017-01-24T15:50:32Z</time>
      </trkpt>
      <trkpt lat="49.47004" lon="1.161">
        <ele>71</ele>
        <time>2017-01-24T15:50:32Z</time>
      </trkpt>
      <trkpt lat="49.46996" lon="1.16098">
        <ele>71</ele>
        <time>2017-01-24T15:50:47Z</time>
      </trkpt>
      <trkpt lat="49.46993" lon="1.16098">
        <ele>71</ele>
        <time>2017-01-24T15:50:47Z</time>
      </trkpt>
      <trkpt lat="49.46987" lon="1.16095">
        <ele>71</ele>
        <time>2017-01-24T15:50:47Z</time>
      </trkpt>
      <trkpt lat="49.46982" lon="1.16092">
        <ele>71</ele>
        <time>2017-01-24T15:50:47Z</time>
      </trkpt>
      <trkpt lat="49.46978" lon="1.16088">
        <ele>71</ele>
        <time>2017-01-24T15:51:04Z</time>
      </trkpt>
      <trkpt lat="49.46973" lon="1.16085">
        <ele>71</ele>
        <time>2017-01-24T15:51:04Z</time>
      </trkpt>
      <trkpt lat="49.46968" lon="1.16083">
        <ele>71</ele>
        <time>2017-01-24T15:51:04Z</time>
      </trkpt>
      <trkpt lat="49.46963" lon="1.16079">
        <ele>71</ele>
        <time>2017-01-24T15:51:04Z</time>
      </trkpt>
      <trkpt lat="49.46962" lon="1.16078">
        <ele>71</ele>
        <time>2017-01-24T15:51:19Z</time>
      </trkpt>
      <trkpt lat="49.46953" lon="1.16075">
        <ele>75</ele>
        <time>2017-01-24T15:51:19Z</time>
      </trkpt>
      <trkpt lat="49.46948" lon="1.16072">
        <ele>75</ele>
        <time>2017-01-24T15:51:19Z</time>
      </trkpt>
      <trkpt lat="49.46947" lon="1.16071">
        <ele>75</ele>
        <time>2017-01-24T15:51:19Z</time>
      </trkpt>
      <trkpt lat="49.4694" lon="1.16069">
        <ele>75</ele>
        <time>2017-01-24T15:51:48Z</time>
      </trkpt>
      <trkpt lat="49.4694" lon="1.16068">
        <ele>75</ele>
        <time>2017-01-24T15:51:48Z</time>
      </trkpt>
      <trkpt lat="49.46941" lon="1.16067">
        <ele>75</ele>
        <time>2017-01-24T15:51:48Z</time>
      </trkpt>
      <trkpt lat="49.46938" lon="1.16063">
        <ele>75</ele>
        <time>2017-01-24T15:51:48Z</time>
      </trkpt>
      <trkpt lat="49.46932" lon="1.16063">
        <ele>75</ele>
        <time>2017-01-24T15:51:48Z</time>
      </trkpt>
      <trkpt lat="49.46927" lon="1.1606">
        <ele>75</ele>
        <time>2017-01-24T15:52:11Z</time>
      </trkpt>
      <trkpt lat="49.46926" lon="1.1606">
        <ele>75</ele>
        <time>2017-01-24T15:52:11Z</time>
      </trkpt>
      <trkpt lat="49.46925" lon="1.16058">
        <ele>75</ele>
        <time>2017-01-24T15:52:11Z</time>
      </trkpt>
      <trkpt lat="49.46922" lon="1.16058">
        <ele>75</ele>
        <time>2017-01-24T15:52:11Z</time>
      </trkpt>
      <trkpt lat="49.46919" lon="1.16055">
        <ele>75</ele>
        <time>2017-01-24T15:52:11Z</time>
      </trkpt>
      <trkpt lat="49.46916" lon="1.16052">
        <ele>75</ele>
        <time>2017-01-24T15:52:28Z</time>
      </trkpt>
      <trkpt lat="49.46914" lon="1.16051">
        <ele>75</ele>
        <time>2017-01-24T15:52:28Z</time>
      </trkpt>
      <trkpt lat="49.4691" lon="1.16049">
        <ele>75</ele>
        <time>2017-01-24T15:52:28Z</time>
      </trkpt>
      <trkpt lat="49.46906" lon="1.16047">
        <ele>75</ele>
        <time>2017-01-24T15:52:28Z</time>
      </trkpt>
      <trkpt lat="49.46904" lon="1.16043">
        <ele>75</ele>
        <time>2017-01-24T15:52:47Z</time>
      </trkpt>
      <trkpt lat="49.46901" lon="1.16039">
        <ele>79</ele>
        <time>2017-01-24T15:52:47Z</time>
      </trkpt>
      <trkpt lat="49.469" lon="1.16037">
        <ele>79</ele>
        <time>2017-01-24T15:52:47Z</time>
      </trkpt>
      <trkpt lat="49.46898" lon="1.16036">
        <ele>79</ele>
        <time>2017-01-24T15:52:47Z</time>
      </trkpt>
      <trkpt lat="49.46896" lon="1.16036">
        <ele>79</ele>
        <time>2017-01-24T15:52:47Z</time>
      </trkpt>
      <trkpt lat="49.46891" lon="1.16032">
        <ele>79</ele>
        <time>2017-01-24T15:53:07Z</time>
      </trkpt>
      <trkpt lat="49.46889" lon="1.1603">
        <ele>79</ele>
        <time>2017-01-24T15:53:07Z</time>
      </trkpt>
      <trkpt lat="49.46885" lon="1.16028">
        <ele>79</ele>
        <time>2017-01-24T15:53:07Z</time>
      </trkpt>
      <trkpt lat="49.46884" lon="1.16024">
        <ele>79</ele>
        <time>2017-01-24T15:53:07Z</time>
      </trkpt>
      <trkpt lat="49.46883" lon="1.16018">
        <ele>79</ele>
        <time>2017-01-24T15:53:07Z</time>
      </trkpt>
      <trkpt lat="49.46875" lon="1.16007">
        <ele>80</ele>
        <time>2017-01-24T15:53:35Z</time>
      </trkpt>
      <trkpt lat="49.46875" lon="1.16006">
        <ele>80</ele>
        <time>2017-01-24T15:53:35Z</time>
      </trkpt>
      <trkpt lat="49.46873" lon="1.15998">
        <ele>80</ele>
        <time>2017-01-24T15:53:35Z</time>
      </trkpt>
      <trkpt lat="49.46872" lon="1.15998">
        <ele>80</ele>
        <time>2017-01-24T15:53:35Z</time>
      </trkpt>
      <trkpt lat="49.46872" lon="1.15991">
        <ele>80</ele>
        <time>2017-01-24T15:53:35Z</time>
      </trkpt>
      <trkpt lat="49.4687" lon="1.15986">
        <ele>80</ele>
        <time>2017-01-24T15:53:59Z</time>
      </trkpt>
      <trkpt lat="49.46869" lon="1.15984">
        <ele>80</ele>
        <time>2017-01-24T15:53:59Z</time>
      </trkpt>
      <trkpt lat="49.46868" lon="1.1598">
        <ele>80</ele>
        <time>2017-01-24T15:53:59Z</time>
      </trkpt>
      <trkpt lat="49.46868" lon="1.15978">
        <ele>80</ele>
        <time>2017-01-24T15:53:59Z</time>
      </trkpt>
      <trkpt lat="49.46863" lon="1.15972">
        <ele>80</ele>
        <time>2017-01-24T15:54:00Z</time>
      </trkpt>
      <trkpt lat="49.46859" lon="1.15967">
        <ele>80</ele>
        <time>2017-01-24T15:54:15Z</time>
      </trkpt>
      <trkpt lat="49.4686" lon="1.15961">
        <ele>80</ele>
        <time>2017-01-24T15:54:15Z</time>
      </trkpt>
      <trkpt lat="49.46858" lon="1.15955">
        <ele>103</ele>
        <time>2017-01-24T15:54:15Z</time>
      </trkpt>
      <trkpt lat="49.46856" lon="1.1595">
        <ele>103</ele>
        <time>2017-01-24T15:54:15Z</time>
      </trkpt>
      <trkpt lat="49.46851" lon="1.1594">
        <ele>103</ele>
        <time>2017-01-24T15:55:19Z</time>
      </trkpt>
      <trkpt lat="49.46849" lon="1.15942">
        <ele>103</ele>
        <time>2017-01-24T15:55:19Z</time>
      </trkpt>
      <trkpt lat="49.46846" lon="1.15943">
        <ele>103</ele>
        <time>2017-01-24T15:55:19Z</time>
      </trkpt>
      <trkpt lat="49.46846" lon="1.15943">
        <ele>103</ele>
        <time>2017-01-24T15:55:19Z</time>
      </trkpt>
      <trkpt lat="49.46839" lon="1.15947">
        <ele>103</ele>
        <time>2017-01-24T15:55:19Z</time>
      </trkpt>
      <trkpt lat="49.46837" lon="1.15947">
        <ele>103</ele>
        <time>2017-01-24T15:55:43Z</time>
      </trkpt>
      <trkpt lat="49.46836" lon="1.15948">
        <ele>103</ele>
        <time>2017-01-24T15:55:43Z</time>
      </trkpt>
      <trkpt lat="49.46836" lon="1.15948">
        <ele>103</ele>
        <time>2017-01-24T15:55:43Z</time>
      </trkpt>
      <trkpt lat="49.46836" lon="1.15948">
        <ele>103</ele>
        <time>2017-01-24T15:55:43Z</time>
      </trkpt>
      <trkpt lat="49.46821" lon="1.15952">
        <ele>103</ele>
        <time>2017-01-24T15:55:43Z</time>
      </trkpt>
      <trkpt lat="49.46809" lon="1.15956">
        <ele>103</ele>
        <time>2017-01-24T15:56:27Z</time>
      </trkpt>
      <trkpt lat="49.46809" lon="1.15956">
        <ele>103</ele>
        <time>2017-01-24T15:56:27Z</time>
      </trkpt>
      <trkpt lat="49.46809" lon="1.15956">
        <ele>103</ele>
        <time>2017-01-24T15:56:27Z</time>
      </trkpt>
      <trkpt lat="49.46809" lon="1.15956">
        <ele>103</ele>
        <time>2017-01-24T15:56:27Z</time>
      </trkpt>
      <trkpt lat="49.46802" lon="1.15956">
        <ele>103</ele>
        <time>2017-01-24T15:56:27Z</time>
      </trkpt>
      <trkpt lat="49.46795" lon="1.15958">
        <ele>103</ele>
        <time>2017-01-24T15:56:43Z</time>
      </trkpt>
      <trkpt lat="49.46787" lon="1.15955">
        <ele>101</ele>
        <time>2017-01-24T15:56:43Z</time>
      </trkpt>
      <trkpt lat="49.4678" lon="1.15952">
        <ele>101</ele>
        <time>2017-01-24T15:56:43Z</time>
      </trkpt>
      <trkpt lat="49.46777" lon="1.1595">
        <ele>101</ele>
        <time>2017-01-24T15:56:43Z</time>
      </trkpt>
      <trkpt lat="49.46776" lon="1.15949">
        <ele>101</ele>
        <time>2017-01-24T15:56:59Z</time>
      </trkpt>
      <trkpt lat="49.46769" lon="1.15946">
        <ele>101</ele>
        <time>2017-01-24T15:56:59Z</time>
      </trkpt>
      <trkpt lat="49.46762" lon="1.15945">
        <ele>101</ele>
        <time>2017-01-24T15:56:59Z</time>
      </trkpt>
      <trkpt lat="49.46757" lon="1.15946">
        <ele>101</ele>
        <time>2017-01-24T15:56:59Z</time>
      </trkpt>
      <trkpt lat="49.46753" lon="1.15955">
        <ele>101</ele>
        <time>2017-01-24T15:57:15Z</time>
      </trkpt>
      <trkpt lat="49.4675" lon="1.15956">
        <ele>101</ele>
        <time>2017-01-24T15:57:15Z</time>
      </trkpt>
      <trkpt lat="49.46748" lon="1.15955">
        <ele>101</ele>
        <time>2017-01-24T15:57:15Z</time>
      </trkpt>
      <trkpt lat="49.46743" lon="1.15954">
        <ele>101</ele>
        <time>2017-01-24T15:57:15Z</time>
      </trkpt>
      <trkpt lat="49.4674" lon="1.15951">
        <ele>101</ele>
        <time>2017-01-24T15:57:36Z</time>
      </trkpt>
      <trkpt lat="49.46737" lon="1.15947">
        <ele>101</ele>
        <time>2017-01-24T15:57:36Z</time>
      </trkpt>
      <trkpt lat="49.46735" lon="1.15945">
        <ele>101</ele>
        <time>2017-01-24T15:57:36Z</time>
      </trkpt>
      <trkpt lat="49.46735" lon="1.15944">
        <ele>101</ele>
        <time>2017-01-24T15:57:36Z</time>
      </trkpt>
      <trkpt lat="49.46729" lon="1.15944">
        <ele>101</ele>
        <time>2017-01-24T15:57:36Z</time>
      </trkpt>
      <trkpt lat="49.46723" lon="1.15946">
        <ele>101</ele>
        <time>2017-01-24T15:57:55Z</time>
      </trkpt>
      <trkpt lat="49.4672" lon="1.1595">
        <ele>101</ele>
        <time>2017-01-24T15:57:55Z</time>
      </trkpt>
      <trkpt lat="49.46718" lon="1.15952">
        <ele>101</ele>
        <time>2017-01-24T15:57:55Z</time>
      </trkpt>
      <trkpt lat="49.46716" lon="1.15954">
        <ele>101</ele>
        <time>2017-01-24T15:57:55Z</time>
      </trkpt>
      <trkpt lat="49.46712" lon="1.15961">
        <ele>68</ele>
        <time>2017-01-24T15:57:55Z</time>
      </trkpt>
      <trkpt lat="49.46705" lon="1.15962">
        <ele>59</ele>
        <time>2017-01-24T15:58:24Z</time>
      </trkpt>
      <trkpt lat="49.46703" lon="1.15962">
        <ele>59</ele>
        <time>2017-01-24T15:58:24Z</time>
      </trkpt>
      <trkpt lat="49.467" lon="1.1596">
        <ele>59</ele>
        <time>2017-01-24T15:58:24Z</time>
      </trkpt>
      <trkpt lat="49.46698" lon="1.15961">
        <ele>59</ele>
        <time>2017-01-24T15:58:24Z</time>
      </trkpt>
      <trkpt lat="49.46693" lon="1.15959">
        <ele>59</ele>
        <time>2017-01-24T15:58:24Z</time>
      </trkpt>
      <trkpt lat="49.46688" lon="1.15963">
        <ele>59</ele>
        <time>2017-01-24T15:58:43Z</time>
      </trkpt>
      <trkpt lat="49.46685" lon="1.15962">
        <ele>59</ele>
        <time>2017-01-24T15:58:43Z</time>
      </trkpt>
      <trkpt lat="49.46683" lon="1.15964">
        <ele>59</ele>
        <time>2017-01-24T15:58:43Z</time>
      </trkpt>
      <trkpt lat="49.46684" lon="1.15957">
        <ele>87</ele>
        <time>2017-01-24T15:58:43Z</time>
      </trkpt>
      <trkpt lat="49.4668" lon="1.15959">
        <ele>59</ele>
        <time>2017-01-24T15:58:43Z</time>
      </trkpt>
      <trkpt lat="49.46676" lon="1.15964">
        <ele>59</ele>
        <time>2017-01-24T15:58:59Z</time>
      </trkpt>
      <trkpt lat="49.4667" lon="1.15968">
        <ele>59</ele>
        <time>2017-01-24T15:58:59Z</time>
      </trkpt>
      <trkpt lat="49.46665" lon="1.1597">
        <ele>59</ele>
        <time>2017-01-24T15:58:59Z</time>
      </trkpt>
      <trkpt lat="49.4666" lon="1.15973">
        <ele>59</ele>
        <time>2017-01-24T15:58:59Z</time>
      </trkpt>
      <trkpt lat="49.46664" lon="1.15958">
        <ele>87</ele>
        <time>2017-01-24T15:59:16Z</time>
      </trkpt>
      <trkpt lat="49.4666" lon="1.15958">
        <ele>87</ele>
        <time>2017-01-24T15:59:16Z</time>
      </trkpt>
      <trkpt lat="49.4666" lon="1.15946">
        <ele>87</ele>
        <time>2017-01-24T15:59:16Z</time>
      </trkpt>
      <trkpt lat="49.46657" lon="1.15945">
        <ele>87</ele>
        <time>2017-01-24T15:59:17Z</time>
      </trkpt>
      <trkpt lat="49.4665" lon="1.15948">
        <ele>87</ele>
        <time>2017-01-24T15:59:32Z</time>
      </trkpt>
      <trkpt lat="49.46641" lon="1.15948">
        <ele>87</ele>
        <time>2017-01-24T15:59:32Z</time>
      </trkpt>
      <trkpt lat="49.46632" lon="1.15956">
        <ele>87</ele>
        <time>2017-01-24T15:59:32Z</time>
      </trkpt>
      <trkpt lat="49.46627" lon="1.15962">
        <ele>59</ele>
        <time>2017-01-24T15:59:32Z</time>
      </trkpt>
      <trkpt lat="49.46626" lon="1.1597">
        <ele>59</ele>
        <time>2017-01-24T15:59:55Z</time>
      </trkpt>
      <trkpt lat="49.46626" lon="1.15974">
        <ele>59</ele>
        <time>2017-01-24T15:59:55Z</time>
      </trkpt>
      <trkpt lat="49.46628" lon="1.15973">
        <ele>59</ele>
        <time>2017-01-24T15:59:55Z</time>
      </trkpt>
      <trkpt lat="49.4663" lon="1.1598">
        <ele>59</ele>
        <time>2017-01-24T15:59:55Z</time>
      </trkpt>
      <trkpt lat="49.46633" lon="1.15981">
        <ele>59</ele>
        <time>2017-01-24T15:59:55Z</time>
      </trkpt>
      <trkpt lat="49.46635" lon="1.1598">
        <ele>59</ele>
        <time>2017-01-24T16:00:11Z</time>
      </trkpt>
      <trkpt lat="49.46635" lon="1.15983">
        <ele>59</ele>
        <time>2017-01-24T16:00:11Z</time>
      </trkpt>
      <trkpt lat="49.46633" lon="1.15987">
        <ele>59</ele>
        <time>2017-01-24T16:00:11Z</time>
      </trkpt>
      <trkpt lat="49.46629" lon="1.15993">
        <ele>59</ele>
        <time>2017-01-24T16:00:11Z</time>
      </trkpt>
      <trkpt lat="49.46626" lon="1.16008">
        <ele>59</ele>
        <time>2017-01-24T16:00:27Z</time>
      </trkpt>
      <trkpt lat="49.46622" lon="1.16021">
        <ele>57</ele>
        <time>2017-01-24T16:00:27Z</time>
      </trkpt>
      <trkpt lat="49.46623" lon="1.16026">
        <ele>57</ele>
        <time>2017-01-24T16:00:27Z</time>
      </trkpt>
      <trkpt lat="49.46622" lon="1.16033">
        <ele>57</ele>
        <time>2017-01-24T16:00:27Z</time>
      </trkpt>
      <trkpt lat="49.46622" lon="1.16043">
        <ele>51</ele>
        <time>2017-01-24T16:00:43Z</time>
      </trkpt>
      <trkpt lat="49.46622" lon="1.16051">
        <ele>51</ele>
        <time>2017-01-24T16:00:43Z</time>
      </trkpt>
      <trkpt lat="49.46621" lon="1.16058">
        <ele>51</ele>
        <time>2017-01-24T16:00:43Z</time>
      </trkpt>
      <trkpt lat="49.46619" lon="1.16066">
        <ele>51</ele>
        <time>2017-01-24T16:00:43Z</time>
      </trkpt>
      <trkpt lat="49.4662" lon="1.16072">
        <ele>51</ele>
        <time>2017-01-24T16:00:59Z</time>
      </trkpt>
      <trkpt lat="49.46619" lon="1.16076">
        <ele>51</ele>
        <time>2017-01-24T16:01:00Z</time>
      </trkpt>
      <trkpt lat="49.46618" lon="1.16077">
        <ele>51</ele>
        <time>2017-01-24T16:01:00Z</time>
      </trkpt>
      <trkpt lat="49.46616" lon="1.16086">
        <ele>51</ele>
        <time>2017-01-24T16:01:00Z</time>
      </trkpt>
      <trkpt lat="49.46614" lon="1.1609">
        <ele>51</ele>
        <time>2017-01-24T16:01:15Z</time>
      </trkpt>
      <trkpt lat="49.4661" lon="1.16092">
        <ele>51</ele>
        <time>2017-01-24T16:01:15Z</time>
      </trkpt>
      <trkpt lat="49.46606" lon="1.16094">
        <ele>51</ele>
        <time>2017-01-24T16:01:15Z</time>
      </trkpt>
      <trkpt lat="49.46602" lon="1.16097">
        <ele>51</ele>
        <time>2017-01-24T16:01:15Z</time>
      </trkpt>
      <trkpt lat="49.466" lon="1.16102">
        <ele>51</ele>
        <time>2017-01-24T16:01:35Z</time>
      </trkpt>
      <trkpt lat="49.466" lon="1.16111">
        <ele>51</ele>
        <time>2017-01-24T16:01:35Z</time>
      </trkpt>
      <trkpt lat="49.46599" lon="1.16114">
        <ele>51</ele>
        <time>2017-01-24T16:01:35Z</time>
      </trkpt>
      <trkpt lat="49.46599" lon="1.16116">
        <ele>51</ele>
        <time>2017-01-24T16:01:35Z</time>
      </trkpt>
      <trkpt lat="49.46599" lon="1.16117">
        <ele>51</ele>
        <time>2017-01-24T16:01:35Z</time>
      </trkpt>
      <trkpt lat="49.466" lon="1.1612">
        <ele>51</ele>
        <time>2017-01-24T16:02:00Z</time>
      </trkpt>
      <trkpt lat="49.46601" lon="1.16121">
        <ele>51</ele>
        <time>2017-01-24T16:02:00Z</time>
      </trkpt>
      <trkpt lat="49.46603" lon="1.16125">
        <ele>51</ele>
        <time>2017-01-24T16:02:00Z</time>
      </trkpt>
      <trkpt lat="49.46604" lon="1.16126">
        <ele>52</ele>
        <time>2017-01-24T16:02:00Z</time>
      </trkpt>
      <trkpt lat="49.46609" lon="1.16129">
        <ele>52</ele>
        <time>2017-01-24T16:02:00Z</time>
      </trkpt>
      <trkpt lat="49.46618" lon="1.16145">
        <ele>52</ele>
        <time>2017-01-24T16:02:25Z</time>
      </trkpt>
      <trkpt lat="49.46619" lon="1.16146">
        <ele>52</ele>
        <time>2017-01-24T16:02:25Z</time>
      </trkpt>
      <trkpt lat="49.46623" lon="1.16156">
        <ele>52</ele>
        <time>2017-01-24T16:02:25Z</time>
      </trkpt>
      <trkpt lat="49.46622" lon="1.16165">
        <ele>52</ele>
        <time>2017-01-24T16:02:25Z</time>
      </trkpt>
      <trkpt lat="49.46626" lon="1.16177">
        <ele>52</ele>
        <time>2017-01-24T16:02:43Z</time>
      </trkpt>
      <trkpt lat="49.4663" lon="1.16185">
        <ele>52</ele>
        <time>2017-01-24T16:02:45Z</time>
      </trkpt>
      <trkpt lat="49.4663" lon="1.16187">
        <ele>52</ele>
        <time>2017-01-24T16:02:45Z</time>
      </trkpt>
      <trkpt lat="49.46632" lon="1.16191">
        <ele>52</ele>
        <time>2017-01-24T16:02:45Z</time>
      </trkpt>
      <trkpt lat="49.46634" lon="1.16195">
        <ele>52</ele>
        <time>2017-01-24T16:16:23Z</time>
      </trkpt>
      <trkpt lat="49.46632" lon="1.16194">
        <ele>52</ele>
        <time>2017-01-24T16:16:23Z</time>
      </trkpt>
      <trkpt lat="49.46629" lon="1.162">
        <ele>52</ele>
        <time>2017-01-24T16:16:23Z</time>
      </trkpt>
      <trkpt lat="49.46628" lon="1.16203">
        <ele>52</ele>
        <time>2017-01-24T16:16:23Z</time>
      </trkpt>
      <trkpt lat="49.46626" lon="1.16208">
        <ele>52</ele>
        <time>2017-01-24T16:16:23Z</time>
      </trkpt>
      <trkpt lat="49.46626" lon="1.16213">
        <ele>54</ele>
        <time>2017-01-24T16:16:39Z</time>
      </trkpt>
      <trkpt lat="49.46624" lon="1.16217">
        <ele>55</ele>
        <time>2017-01-24T16:16:39Z</time>
      </trkpt>
      <trkpt lat="49.46623" lon="1.16224">
        <ele>55</ele>
        <time>2017-01-24T16:16:39Z</time>
      </trkpt>
      <trkpt lat="49.46621" lon="1.16231">
        <ele>55</ele>
        <time>2017-01-24T16:16:39Z</time>
      </trkpt>
      <trkpt lat="49.46618" lon="1.16236">
        <ele>55</ele>
        <time>2017-01-24T16:16:55Z</time>
      </trkpt>
      <trkpt lat="49.46618" lon="1.16242">
        <ele>55</ele>
        <time>2017-01-24T16:16:55Z</time>
      </trkpt>
      <trkpt lat="49.46615" lon="1.16247">
        <ele>55</ele>
        <time>2017-01-24T16:16:55Z</time>
      </trkpt>
      <trkpt lat="49.46614" lon="1.1625">
        <ele>55</ele>
        <time>2017-01-24T16:16:55Z</time>
      </trkpt>
      <trkpt lat="49.46611" lon="1.16255">
        <ele>55</ele>
        <time>2017-01-24T16:17:12Z</time>
      </trkpt>
      <trkpt lat="49.46609" lon="1.16259">
        <ele>55</ele>
        <time>2017-01-24T16:17:12Z</time>
      </trkpt>
      <trkpt lat="49.46608" lon="1.16265">
        <ele>55</ele>
        <time>2017-01-24T16:17:12Z</time>
      </trkpt>
      <trkpt lat="49.46606" lon="1.16269">
        <ele>55</ele>
        <time>2017-01-24T16:17:12Z</time>
      </trkpt>
      <trkpt lat="49.46602" lon="1.16276">
        <ele>55</ele>
        <time>2017-01-24T16:17:27Z</time>
      </trkpt>
      <trkpt lat="49.46601" lon="1.16279">
        <ele>55</ele>
        <time>2017-01-24T16:17:27Z</time>
      </trkpt>
      <trkpt lat="49.46601" lon="1.16283">
        <ele>55</ele>
        <time>2017-01-24T16:17:27Z</time>
      </trkpt>
      <trkpt lat="49.46598" lon="1.16291">
        <ele>55</ele>
        <time>2017-01-24T16:17:27Z</time>
      </trkpt>
      <trkpt lat="49.46597" lon="1.16299">
        <ele>63</ele>
        <time>2017-01-24T16:17:43Z</time>
      </trkpt>
      <trkpt lat="49.46597" lon="1.16303">
        <ele>63</ele>
        <time>2017-01-24T16:17:43Z</time>
      </trkpt>
      <trkpt lat="49.46597" lon="1.16313">
        <ele>63</ele>
        <time>2017-01-24T16:17:43Z</time>
      </trkpt>
      <trkpt lat="49.46596" lon="1.16318">
        <ele>63</ele>
        <time>2017-01-24T16:17:43Z</time>
      </trkpt>
      <trkpt lat="49.46595" lon="1.16322">
        <ele>63</ele>
        <time>2017-01-24T16:17:59Z</time>
      </trkpt>
      <trkpt lat="49.46595" lon="1.16327">
        <ele>63</ele>
        <time>2017-01-24T16:17:59Z</time>
      </trkpt>
      <trkpt lat="49.46592" lon="1.16335">
        <ele>63</ele>
        <time>2017-01-24T16:17:59Z</time>
      </trkpt>
      <trkpt lat="49.4659" lon="1.16342">
        <ele>63</ele>
        <time>2017-01-24T16:17:59Z</time>
      </trkpt>
      <trkpt lat="49.46587" lon="1.1635">
        <ele>63</ele>
        <time>2017-01-24T16:18:19Z</time>
      </trkpt>
      <trkpt lat="49.46585" lon="1.16354">
        <ele>63</ele>
        <time>2017-01-24T16:18:19Z</time>
      </trkpt>
      <trkpt lat="49.46585" lon="1.16357">
        <ele>63</ele>
        <time>2017-01-24T16:18:19Z</time>
      </trkpt>
      <trkpt lat="49.46584" lon="1.16357">
        <ele>63</ele>
        <time>2017-01-24T16:18:19Z</time>
      </trkpt>
      <trkpt lat="49.46582" lon="1.16363">
        <ele>63</ele>
        <time>2017-01-24T16:18:19Z</time>
      </trkpt>
      <trkpt lat="49.46583" lon="1.16372">
        <ele>63</ele>
        <time>2017-01-24T16:18:35Z</time>
      </trkpt>
      <trkpt lat="49.46585" lon="1.16379">
        <ele>68</ele>
        <time>2017-01-24T16:18:35Z</time>
      </trkpt>
      <trkpt lat="49.46586" lon="1.16387">
        <ele>68</ele>
        <time>2017-01-24T16:18:35Z</time>
      </trkpt>
      <trkpt lat="49.46586" lon="1.16391">
        <ele>68</ele>
        <time>2017-01-24T16:18:35Z</time>
      </trkpt>
      <trkpt lat="49.46587" lon="1.16396">
        <ele>68</ele>
        <time>2017-01-24T16:18:51Z</time>
      </trkpt>
      <trkpt lat="49.46586" lon="1.16402">
        <ele>68</ele>
        <time>2017-01-24T16:18:51Z</time>
      </trkpt>
      <trkpt lat="49.46588" lon="1.16406">
        <ele>68</ele>
        <time>2017-01-24T16:18:51Z</time>
      </trkpt>
      <trkpt lat="49.46587" lon="1.16413">
        <ele>68</ele>
        <time>2017-01-24T16:18:51Z</time>
      </trkpt>
      <trkpt lat="49.46591" lon="1.16415">
        <ele>68</ele>
        <time>2017-01-24T16:19:11Z</time>
      </trkpt>
      <trkpt lat="49.46592" lon="1.16418">
        <ele>68</ele>
        <time>2017-01-24T16:19:11Z</time>
      </trkpt>
      <trkpt lat="49.46592" lon="1.16422">
        <ele>68</ele>
        <time>2017-01-24T16:19:11Z</time>
      </trkpt>
      <trkpt lat="49.46589" lon="1.16428">
        <ele>68</ele>
        <time>2017-01-24T16:19:11Z</time>
      </trkpt>
      <trkpt lat="49.46588" lon="1.16433">
        <ele>68</ele>
        <time>2017-01-24T16:19:11Z</time>
      </trkpt>
      <trkpt lat="49.46588" lon="1.16436">
        <ele>68</ele>
        <time>2017-01-24T16:19:27Z</time>
      </trkpt>
      <trkpt lat="49.46586" lon="1.16442">
        <ele>68</ele>
        <time>2017-01-24T16:19:27Z</time>
      </trkpt>
      <trkpt lat="49.46582" lon="1.16445">
        <ele>68</ele>
        <time>2017-01-24T16:19:27Z</time>
      </trkpt>
      <trkpt lat="49.4658" lon="1.1645">
        <ele>68</ele>
        <time>2017-01-24T16:19:27Z</time>
      </trkpt>
      <trkpt lat="49.46579" lon="1.16454">
        <ele>68</ele>
        <time>2017-01-24T16:19:43Z</time>
      </trkpt>
      <trkpt lat="49.46576" lon="1.1646">
        <ele>73</ele>
        <time>2017-01-24T16:19:43Z</time>
      </trkpt>
      <trkpt lat="49.46575" lon="1.16469">
        <ele>73</ele>
        <time>2017-01-24T16:19:43Z</time>
      </trkpt>
      <trkpt lat="49.46575" lon="1.16472">
        <ele>73</ele>
        <time>2017-01-24T16:19:43Z</time>
      </trkpt>
      <trkpt lat="49.46577" lon="1.16476">
        <ele>73</ele>
        <time>2017-01-24T16:19:59Z</time>
      </trkpt>
      <trkpt lat="49.46578" lon="1.16483">
        <ele>73</ele>
        <time>2017-01-24T16:19:59Z</time>
      </trkpt>
      <trkpt lat="49.46579" lon="1.16486">
        <ele>73</ele>
        <time>2017-01-24T16:19:59Z</time>
      </trkpt>
      <trkpt lat="49.4658" lon="1.16492">
        <ele>73</ele>
        <time>2017-01-24T16:19:59Z</time>
      </trkpt>
      <trkpt lat="49.46582" lon="1.16493">
        <ele>73</ele>
        <time>2017-01-24T16:20:15Z</time>
      </trkpt>
      <trkpt lat="49.46583" lon="1.165">
        <ele>73</ele>
        <time>2017-01-24T16:20:15Z</time>
      </trkpt>
      <trkpt lat="49.46583" lon="1.16506">
        <ele>73</ele>
        <time>2017-01-24T16:20:15Z</time>
      </trkpt>
      <trkpt lat="49.46584" lon="1.16511">
        <ele>73</ele>
        <time>2017-01-24T16:20:15Z</time>
      </trkpt>
      <trkpt lat="49.46584" lon="1.16516">
        <ele>73</ele>
        <time>2017-01-24T16:20:31Z</time>
      </trkpt>
      <trkpt lat="49.46588" lon="1.1652">
        <ele>73</ele>
        <time>2017-01-24T16:20:31Z</time>
      </trkpt>
      <trkpt lat="49.46588" lon="1.16523">
        <ele>73</ele>
        <time>2017-01-24T16:20:31Z</time>
      </trkpt>
      <trkpt lat="49.46589" lon="1.1653">
        <ele>73</ele>
        <time>2017-01-24T16:20:31Z</time>
      </trkpt>
      <trkpt lat="49.46591" lon="1.16535">
        <ele>73</ele>
        <time>2017-01-24T16:20:51Z</time>
      </trkpt>
      <trkpt lat="49.46592" lon="1.1654">
        <ele>73</ele>
        <time>2017-01-24T16:20:51Z</time>
      </trkpt>
      <trkpt lat="49.46595" lon="1.16542">
        <ele>78</ele>
        <time>2017-01-24T16:20:51Z</time>
      </trkpt>
      <trkpt lat="49.46593" lon="1.16547">
        <ele>78</ele>
        <time>2017-01-24T16:20:51Z</time>
      </trkpt>
      <trkpt lat="49.46595" lon="1.16552">
        <ele>78</ele>
        <time>2017-01-24T16:20:51Z</time>
      </trkpt>
      <trkpt lat="49.46596" lon="1.16558">
        <ele>78</ele>
        <time>2017-01-24T16:21:07Z</time>
      </trkpt>
      <trkpt lat="49.46599" lon="1.16563">
        <ele>78</ele>
        <time>2017-01-24T16:21:07Z</time>
      </trkpt>
      <trkpt lat="49.46599" lon="1.16567">
        <ele>78</ele>
        <time>2017-01-24T16:21:07Z</time>
      </trkpt>
      <trkpt lat="49.466" lon="1.16573">
        <ele>78</ele>
        <time>2017-01-24T16:21:07Z</time>
      </trkpt>
      <trkpt lat="49.46602" lon="1.16575">
        <ele>78</ele>
        <time>2017-01-24T16:21:23Z</time>
      </trkpt>
      <trkpt lat="49.46602" lon="1.16584">
        <ele>78</ele>
        <time>2017-01-24T16:21:23Z</time>
      </trkpt>
      <trkpt lat="49.46603" lon="1.16589">
        <ele>78</ele>
        <time>2017-01-24T16:21:23Z</time>
      </trkpt>
      <trkpt lat="49.46604" lon="1.16594">
        <ele>78</ele>
        <time>2017-01-24T16:21:23Z</time>
      </trkpt>
      <trkpt lat="49.46604" lon="1.16596">
        <ele>78</ele>
        <time>2017-01-24T16:21:39Z</time>
      </trkpt>
      <trkpt lat="49.46606" lon="1.16599">
        <ele>78</ele>
        <time>2017-01-24T16:21:39Z</time>
      </trkpt>
      <trkpt lat="49.46608" lon="1.16605">
        <ele>78</ele>
        <time>2017-01-24T16:21:39Z</time>
      </trkpt>
      <trkpt lat="49.46606" lon="1.16612">
        <ele>78</ele>
        <time>2017-01-24T16:21:39Z</time>
      </trkpt>
      <trkpt lat="49.46606" lon="1.16619">
        <ele>78</ele>
        <time>2017-01-24T16:21:55Z</time>
      </trkpt>
      <trkpt lat="49.46607" lon="1.16625">
        <ele>78</ele>
        <time>2017-01-24T16:21:55Z</time>
      </trkpt>
      <trkpt lat="49.46609" lon="1.16629">
        <ele>84</ele>
        <time>2017-01-24T16:21:55Z</time>
      </trkpt>
      <trkpt lat="49.46617" lon="1.16634">
        <ele>84</ele>
        <time>2017-01-24T16:21:55Z</time>
      </trkpt>
      <trkpt lat="49.46614" lon="1.16646">
        <ele>84</ele>
        <time>2017-01-24T16:22:11Z</time>
      </trkpt>
      <trkpt lat="49.46615" lon="1.1665">
        <ele>84</ele>
        <time>2017-01-24T16:22:11Z</time>
      </trkpt>
      <trkpt lat="49.46613" lon="1.1666">
        <ele>84</ele>
        <time>2017-01-24T16:22:11Z</time>
      </trkpt>
      <trkpt lat="49.46614" lon="1.16664">
        <ele>84</ele>
        <time>2017-01-24T16:22:11Z</time>
      </trkpt>
      <trkpt lat="49.46613" lon="1.16669">
        <ele>84</ele>
        <time>2017-01-24T16:22:27Z</time>
      </trkpt>
      <trkpt lat="49.46615" lon="1.16668">
        <ele>84</ele>
        <time>2017-01-24T16:22:27Z</time>
      </trkpt>
      <trkpt lat="49.46612" lon="1.16679">
        <ele>84</ele>
        <time>2017-01-24T16:22:27Z</time>
      </trkpt>
      <trkpt lat="49.46609" lon="1.16687">
        <ele>84</ele>
        <time>2017-01-24T16:22:27Z</time>
      </trkpt>
      <trkpt lat="49.46609" lon="1.16691">
        <ele>84</ele>
        <time>2017-01-24T16:22:43Z</time>
      </trkpt>
      <trkpt lat="49.46606" lon="1.16696">
        <ele>84</ele>
        <time>2017-01-24T16:22:43Z</time>
      </trkpt>
      <trkpt lat="49.46611" lon="1.16701">
        <ele>84</ele>
        <time>2017-01-24T16:22:43Z</time>
      </trkpt>
      <trkpt lat="49.46608" lon="1.1671">
        <ele>94</ele>
        <time>2017-01-24T16:22:43Z</time>
      </trkpt>
      <trkpt lat="49.46608" lon="1.16713">
        <ele>94</ele>
        <time>2017-01-24T16:23:03Z</time>
      </trkpt>
      <trkpt lat="49.46608" lon="1.16719">
        <ele>94</ele>
        <time>2017-01-24T16:23:03Z</time>
      </trkpt>
      <trkpt lat="49.46609" lon="1.16723">
        <ele>94</ele>
        <time>2017-01-24T16:23:03Z</time>
      </trkpt>
      <trkpt lat="49.46609" lon="1.16726">
        <ele>94</ele>
        <time>2017-01-24T16:23:03Z</time>
      </trkpt>
      <trkpt lat="49.46609" lon="1.16734">
        <ele>94</ele>
        <time>2017-01-24T16:23:03Z</time>
      </trkpt>
      <trkpt lat="49.46605" lon="1.16751">
        <ele>94</ele>
        <time>2017-01-24T16:23:23Z</time>
      </trkpt>
      <trkpt lat="49.46606" lon="1.16754">
        <ele>94</ele>
        <time>2017-01-24T16:23:23Z</time>
      </trkpt>
      <trkpt lat="49.46607" lon="1.16762">
        <ele>94</ele>
        <time>2017-01-24T16:23:23Z</time>
      </trkpt>
      <trkpt lat="49.46606" lon="1.16768">
        <ele>94</ele>
        <time>2017-01-24T16:23:23Z</time>
      </trkpt>
      <trkpt lat="49.46605" lon="1.1678">
        <ele>94</ele>
        <time>2017-01-24T16:23:39Z</time>
      </trkpt>
      <trkpt lat="49.46607" lon="1.16784">
        <ele>94</ele>
        <time>2017-01-24T16:23:39Z</time>
      </trkpt>
      <trkpt lat="49.46606" lon="1.16792">
        <ele>104</ele>
        <time>2017-01-24T16:23:39Z</time>
      </trkpt>
      <trkpt lat="49.46607" lon="1.16797">
        <ele>104</ele>
        <time>2017-01-24T16:23:39Z</time>
      </trkpt>
      <trkpt lat="49.46611" lon="1.16801">
        <ele>104</ele>
        <time>2017-01-24T16:23:55Z</time>
      </trkpt>
      <trkpt lat="49.46612" lon="1.16809">
        <ele>104</ele>
        <time>2017-01-24T16:23:55Z</time>
      </trkpt>
      <trkpt lat="49.46609" lon="1.1682">
        <ele>104</ele>
        <time>2017-01-24T16:23:55Z</time>
      </trkpt>
      <trkpt lat="49.46608" lon="1.16827">
        <ele>104</ele>
        <time>2017-01-24T16:23:55Z</time>
      </trkpt>
      <trkpt lat="49.46609" lon="1.16832">
        <ele>104</ele>
        <time>2017-01-24T16:24:11Z</time>
      </trkpt>
      <trkpt lat="49.46613" lon="1.16835">
        <ele>104</ele>
        <time>2017-01-24T16:24:11Z</time>
      </trkpt>
      <trkpt lat="49.46614" lon="1.1684">
        <ele>104</ele>
        <time>2017-01-24T16:24:11Z</time>
      </trkpt>
      <trkpt lat="49.46613" lon="1.16846">
        <ele>104</ele>
        <time>2017-01-24T16:24:11Z</time>
      </trkpt>
      <trkpt lat="49.46612" lon="1.16849">
        <ele>104</ele>
        <time>2017-01-24T16:24:28Z</time>
      </trkpt>
      <trkpt lat="49.46614" lon="1.16851">
        <ele>104</ele>
        <time>2017-01-24T16:24:29Z</time>
      </trkpt>
      <trkpt lat="49.46617" lon="1.16854">
        <ele>104</ele>
        <time>2017-01-24T16:24:29Z</time>
      </trkpt>
      <trkpt lat="49.46619" lon="1.16861">
        <ele>104</ele>
        <time>2017-01-24T16:24:29Z</time>
      </trkpt>
      <trkpt lat="49.46616" lon="1.16887">
        <ele>109</ele>
        <time>2017-01-24T16:24:51Z</time>
      </trkpt>
      <trkpt lat="49.46615" lon="1.169">
        <ele>109</ele>
        <time>2017-01-24T16:24:51Z</time>
      </trkpt>
      <trkpt lat="49.4662" lon="1.169">
        <ele>109</ele>
        <time>2017-01-24T16:24:51Z</time>
      </trkpt>
      <trkpt lat="49.46624" lon="1.16903">
        <ele>109</ele>
        <time>2017-01-24T16:24:51Z</time>
      </trkpt>
      <trkpt lat="49.46621" lon="1.16909">
        <ele>109</ele>
        <time>2017-01-24T16:25:08Z</time>
      </trkpt>
      <trkpt lat="49.46624" lon="1.16917">
        <ele>109</ele>
        <time>2017-01-24T16:25:08Z</time>
      </trkpt>
      <trkpt lat="49.46624" lon="1.16926">
        <ele>109</ele>
        <time>2017-01-24T16:25:08Z</time>
      </trkpt>
      <trkpt lat="49.46625" lon="1.16931">
        <ele>119</ele>
        <time>2017-01-24T16:25:08Z</time>
      </trkpt>
      <trkpt lat="49.46627" lon="1.1694">
        <ele>119</ele>
        <time>2017-01-24T16:25:23Z</time>
      </trkpt>
      <trkpt lat="49.46628" lon="1.16949">
        <ele>119</ele>
        <time>2017-01-24T16:25:23Z</time>
      </trkpt>
      <trkpt lat="49.46626" lon="1.16959">
        <ele>120</ele>
        <time>2017-01-24T16:25:23Z</time>
      </trkpt>
      <trkpt lat="49.46629" lon="1.16962">
        <ele>120</ele>
        <time>2017-01-24T16:25:23Z</time>
      </trkpt>
      <trkpt lat="49.46634" lon="1.16964">
        <ele>120</ele>
        <time>2017-01-24T16:25:39Z</time>
      </trkpt>
      <trkpt lat="49.46637" lon="1.16971">
        <ele>120</ele>
        <time>2017-01-24T16:25:39Z</time>
      </trkpt>
      <trkpt lat="49.46638" lon="1.16975">
        <ele>120</ele>
        <time>2017-01-24T16:25:39Z</time>
      </trkpt>
      <trkpt lat="49.4664" lon="1.16982">
        <ele>120</ele>
        <time>2017-01-24T16:25:39Z</time>
      </trkpt>
      <trkpt lat="49.46646" lon="1.16981">
        <ele>120</ele>
        <time>2017-01-24T16:25:55Z</time>
      </trkpt>
      <trkpt lat="49.4665" lon="1.16987">
        <ele>120</ele>
        <time>2017-01-24T16:25:55Z</time>
      </trkpt>
      <trkpt lat="49.46653" lon="1.16993">
        <ele>120</ele>
        <time>2017-01-24T16:25:55Z</time>
      </trkpt>
      <trkpt lat="49.46652" lon="1.16999">
        <ele>120</ele>
        <time>2017-01-24T16:25:55Z</time>
      </trkpt>
      <trkpt lat="49.46653" lon="1.17004">
        <ele>120</ele>
        <time>2017-01-24T16:26:19Z</time>
      </trkpt>
      <trkpt lat="49.46654" lon="1.17004">
        <ele>120</ele>
        <time>2017-01-24T16:26:19Z</time>
      </trkpt>
      <trkpt lat="49.46655" lon="1.17005">
        <ele>120</ele>
        <time>2017-01-24T16:26:19Z</time>
      </trkpt>
      <trkpt lat="49.46655" lon="1.1701">
        <ele>120</ele>
        <time>2017-01-24T16:26:19Z</time>
      </trkpt>
      <trkpt lat="49.46659" lon="1.17019">
        <ele>120</ele>
        <time>2017-01-24T16:26:20Z</time>
      </trkpt>
      <trkpt lat="49.46661" lon="1.17036">
        <ele>120</ele>
        <time>2017-01-24T16:26:59Z</time>
      </trkpt>
      <trkpt lat="49.46663" lon="1.1704">
        <ele>120</ele>
        <time>2017-01-24T16:26:59Z</time>
      </trkpt>
      <trkpt lat="49.46667" lon="1.17046">
        <ele>124</ele>
        <time>2017-01-24T16:26:59Z</time>
      </trkpt>
      <trkpt lat="49.4667" lon="1.17056">
        <ele>124</ele>
        <time>2017-01-24T16:26:59Z</time>
      </trkpt>
      <trkpt lat="49.46672" lon="1.17061">
        <ele>124</ele>
        <time>2017-01-24T16:26:59Z</time>
      </trkpt>
      <trkpt lat="49.46675" lon="1.17065">
        <ele>124</ele>
        <time>2017-01-24T16:27:16Z</time>
      </trkpt>
      <trkpt lat="49.46679" lon="1.1707">
        <ele>124</ele>
        <time>2017-01-24T16:27:16Z</time>
      </trkpt>
      <trkpt lat="49.46681" lon="1.17074">
        <ele>124</ele>
        <time>2017-01-24T16:27:16Z</time>
      </trkpt>
      <trkpt lat="49.46682" lon="1.17076">
        <ele>124</ele>
        <time>2017-01-24T16:27:16Z</time>
      </trkpt>
      <trkpt lat="49.46684" lon="1.17078">
        <ele>124</ele>
        <time>2017-01-24T16:27:32Z</time>
      </trkpt>
      <trkpt lat="49.46685" lon="1.17086">
        <ele>124</ele>
        <time>2017-01-24T16:27:32Z</time>
      </trkpt>
      <trkpt lat="49.46686" lon="1.1709">
        <ele>124</ele>
        <time>2017-01-24T16:27:32Z</time>
      </trkpt>
      <trkpt lat="49.4669" lon="1.17096">
        <ele>124</ele>
        <time>2017-01-24T16:27:32Z</time>
      </trkpt>
      <trkpt lat="49.4669" lon="1.17099">
        <ele>124</ele>
        <time>2017-01-24T16:27:48Z</time>
      </trkpt>
      <trkpt lat="49.46693" lon="1.17103">
        <ele>124</ele>
        <time>2017-01-24T16:27:48Z</time>
      </trkpt>
      <trkpt lat="49.46694" lon="1.17109">
        <ele>124</ele>
        <time>2017-01-24T16:27:48Z</time>
      </trkpt>
      <trkpt lat="49.46694" lon="1.17112">
        <ele>124</ele>
        <time>2017-01-24T16:27:48Z</time>
      </trkpt>
      <trkpt lat="49.46697" lon="1.17119">
        <ele>124</ele>
        <time>2017-01-24T16:28:04Z</time>
      </trkpt>
      <trkpt lat="49.467" lon="1.17124">
        <ele>124</ele>
        <time>2017-01-24T16:28:04Z</time>
      </trkpt>
      <trkpt lat="49.46701" lon="1.17133">
        <ele>131</ele>
        <time>2017-01-24T16:28:04Z</time>
      </trkpt>
      <trkpt lat="49.46703" lon="1.17138">
        <ele>131</ele>
        <time>2017-01-24T16:28:04Z</time>
      </trkpt>
      <trkpt lat="49.46706" lon="1.17153">
        <ele>131</ele>
        <time>2017-01-24T16:28:27Z</time>
      </trkpt>
      <trkpt lat="49.46706" lon="1.17161">
        <ele>131</ele>
        <time>2017-01-24T16:28:27Z</time>
      </trkpt>
      <trkpt lat="49.46708" lon="1.17167">
        <ele>131</ele>
        <time>2017-01-24T16:28:27Z</time>
      </trkpt>
      <trkpt lat="49.46708" lon="1.17175">
        <ele>131</ele>
        <time>2017-01-24T16:28:27Z</time>
      </trkpt>
      <trkpt lat="49.46709" lon="1.17181">
        <ele>143</ele>
        <time>2017-01-24T16:28:43Z</time>
      </trkpt>
      <trkpt lat="49.4671" lon="1.17187">
        <ele>143</ele>
        <time>2017-01-24T16:28:43Z</time>
      </trkpt>
      <trkpt lat="49.46713" lon="1.17192">
        <ele>143</ele>
        <time>2017-01-24T16:28:43Z</time>
      </trkpt>
      <trkpt lat="49.46713" lon="1.17196">
        <ele>143</ele>
        <time>2017-01-24T16:28:43Z</time>
      </trkpt>
      <trkpt lat="49.46714" lon="1.17198">
        <ele>143</ele>
        <time>2017-01-24T16:28:59Z</time>
      </trkpt>
      <trkpt lat="49.46715" lon="1.17199">
        <ele>143</ele>
        <time>2017-01-24T16:28:59Z</time>
      </trkpt>
      <trkpt lat="49.46719" lon="1.17205">
        <ele>143</ele>
        <time>2017-01-24T16:28:59Z</time>
      </trkpt>
      <trkpt lat="49.46722" lon="1.17211">
        <ele>140</ele>
        <time>2017-01-24T16:28:59Z</time>
      </trkpt>
      <trkpt lat="49.46724" lon="1.1722">
        <ele>140</ele>
        <time>2017-01-24T16:29:15Z</time>
      </trkpt>
      <trkpt lat="49.46726" lon="1.17227">
        <ele>140</ele>
        <time>2017-01-24T16:29:15Z</time>
      </trkpt>
      <trkpt lat="49.46728" lon="1.17232">
        <ele>140</ele>
        <time>2017-01-24T16:29:15Z</time>
      </trkpt>
      <trkpt lat="49.46731" lon="1.17233">
        <ele>140</ele>
        <time>2017-01-24T16:29:16Z</time>
      </trkpt>
      <trkpt lat="49.46733" lon="1.17236">
        <ele>140</ele>
        <time>2017-01-24T16:29:52Z</time>
      </trkpt>
      <trkpt lat="49.46741" lon="1.17242">
        <ele>140</ele>
        <time>2017-01-24T16:29:52Z</time>
      </trkpt>
      <trkpt lat="49.46746" lon="1.17249">
        <ele>140</ele>
        <time>2017-01-24T16:29:52Z</time>
      </trkpt>
      <trkpt lat="49.46749" lon="1.1725">
        <ele>140</ele>
        <time>2017-01-24T16:29:52Z</time>
      </trkpt>
      <trkpt lat="49.4675" lon="1.17252">
        <ele>140</ele>
        <time>2017-01-24T16:29:52Z</time>
      </trkpt>
      <trkpt lat="49.46752" lon="1.17255">
        <ele>140</ele>
        <time>2017-01-24T16:30:08Z</time>
      </trkpt>
      <trkpt lat="49.46755" lon="1.17262">
        <ele>140</ele>
        <time>2017-01-24T16:30:08Z</time>
      </trkpt>
      <trkpt lat="49.46757" lon="1.17267">
        <ele>140</ele>
        <time>2017-01-24T16:30:08Z</time>
      </trkpt>
      <trkpt lat="49.46759" lon="1.17274">
        <ele>140</ele>
        <time>2017-01-24T16:30:08Z</time>
      </trkpt>
      <trkpt lat="49.46761" lon="1.17279">
        <ele>140</ele>
        <time>2017-01-24T16:30:23Z</time>
      </trkpt>
      <trkpt lat="49.46765" lon="1.17285">
        <ele>140</ele>
        <time>2017-01-24T16:30:23Z</time>
      </trkpt>
      <trkpt lat="49.46767" lon="1.17287">
        <ele>140</ele>
        <time>2017-01-24T16:30:23Z</time>
      </trkpt>
      <trkpt lat="49.46769" lon="1.17291">
        <ele>140</ele>
        <time>2017-01-24T16:30:23Z</time>
      </trkpt>
      <trkpt lat="49.46772" lon="1.17296">
        <ele>142</ele>
        <time>2017-01-24T16:30:39Z</time>
      </trkpt>
      <trkpt lat="49.46775" lon="1.17301">
        <ele>142</ele>
        <time>2017-01-24T16:30:39Z</time>
      </trkpt>
      <trkpt lat="49.46777" lon="1.17306">
        <ele>142</ele>
        <time>2017-01-24T16:30:39Z</time>
      </trkpt>
      <trkpt lat="49.46778" lon="1.1731">
        <ele>142</ele>
        <time>2017-01-24T16:30:39Z</time>
      </trkpt>
      <trkpt lat="49.46779" lon="1.17317">
        <ele>142</ele>
        <time>2017-01-24T16:30:55Z</time>
      </trkpt>
      <trkpt lat="49.46779" lon="1.17321">
        <ele>142</ele>
        <time>2017-01-24T16:30:55Z</time>
      </trkpt>
      <trkpt lat="49.46781" lon="1.17327">
        <ele>142</ele>
        <time>2017-01-24T16:30:55Z</time>
      </trkpt>
      <trkpt lat="49.46782" lon="1.17333">
        <ele>142</ele>
        <time>2017-01-24T16:30:55Z</time>
      </trkpt>
      <trkpt lat="49.46785" lon="1.17339">
        <ele>142</ele>
        <time>2017-01-24T16:31:11Z</time>
      </trkpt>
      <trkpt lat="49.46785" lon="1.17344">
        <ele>142</ele>
        <time>2017-01-24T16:31:11Z</time>
      </trkpt>
      <trkpt lat="49.46787" lon="1.17353">
        <ele>142</ele>
        <time>2017-01-24T16:31:11Z</time>
      </trkpt>
      <trkpt lat="49.46788" lon="1.17359">
        <ele>142</ele>
        <time>2017-01-24T16:31:11Z</time>
      </trkpt>
      <trkpt lat="49.46787" lon="1.17364">
        <ele>142</ele>
        <time>2017-01-24T16:37:00Z</time>
      </trkpt>
      <trkpt lat="49.46787" lon="1.17364">
        <ele>142</ele>
        <time>2017-01-24T16:37:00Z</time>
      </trkpt>
      <trkpt lat="49.46788" lon="1.17364">
        <ele>142</ele>
        <time>2017-01-24T16:37:00Z</time>
      </trkpt>
      <trkpt lat="49.46785" lon="1.17369">
        <ele>142</ele>
        <time>2017-01-24T16:37:00Z</time>
      </trkpt>
      <trkpt lat="49.46784" lon="1.17374">
        <ele>142</ele>
        <time>2017-01-24T16:37:00Z</time>
      </trkpt>
      <trkpt lat="49.46783" lon="1.17378">
        <ele>144</ele>
        <time>2017-01-24T16:37:15Z</time>
      </trkpt>
      <trkpt lat="49.4678" lon="1.17386">
        <ele>144</ele>
        <time>2017-01-24T16:37:15Z</time>
      </trkpt>
      <trkpt lat="49.46779" lon="1.17393">
        <ele>144</ele>
        <time>2017-01-24T16:37:15Z</time>
      </trkpt>
      <trkpt lat="49.46779" lon="1.17397">
        <ele>144</ele>
        <time>2017-01-24T16:37:15Z</time>
      </trkpt>
      <trkpt lat="49.46776" lon="1.17404">
        <ele>144</ele>
        <time>2017-01-24T16:37:31Z</time>
      </trkpt>
      <trkpt lat="49.46775" lon="1.1741">
        <ele>144</ele>
        <time>2017-01-24T16:37:31Z</time>
      </trkpt>
      <trkpt lat="49.46774" lon="1.17416">
        <ele>144</ele>
        <time>2017-01-24T16:37:31Z</time>
      </trkpt>
      <trkpt lat="49.46771" lon="1.17424">
        <ele>144</ele>
        <time>2017-01-24T16:37:31Z</time>
      </trkpt>
      <trkpt lat="49.4677" lon="1.17431">
        <ele>144</ele>
        <time>2017-01-24T16:37:48Z</time>
      </trkpt>
      <trkpt lat="49.46768" lon="1.17436">
        <ele>144</ele>
        <time>2017-01-24T16:37:48Z</time>
      </trkpt>
      <trkpt lat="49.46766" lon="1.17444">
        <ele>144</ele>
        <time>2017-01-24T16:37:48Z</time>
      </trkpt>
      <trkpt lat="49.46765" lon="1.17451">
        <ele>144</ele>
        <time>2017-01-24T16:37:48Z</time>
      </trkpt>
      <trkpt lat="49.46763" lon="1.17456">
        <ele>144</ele>
        <time>2017-01-24T16:38:03Z</time>
      </trkpt>
      <trkpt lat="49.4676" lon="1.17462">
        <ele>148</ele>
        <time>2017-01-24T16:38:03Z</time>
      </trkpt>
      <trkpt lat="49.46758" lon="1.17469">
        <ele>148</ele>
        <time>2017-01-24T16:38:03Z</time>
      </trkpt>
      <trkpt lat="49.46756" lon="1.1748">
        <ele>148</ele>
        <time>2017-01-24T16:38:03Z</time>
      </trkpt>
      <trkpt lat="49.4675" lon="1.17505">
        <ele>148</ele>
        <time>2017-01-24T16:38:27Z</time>
      </trkpt>
      <trkpt lat="49.46748" lon="1.1751">
        <ele>148</ele>
        <time>2017-01-24T16:38:27Z</time>
      </trkpt>
      <trkpt lat="49.46745" lon="1.17523">
        <ele>148</ele>
        <time>2017-01-24T16:38:27Z</time>
      </trkpt>
      <trkpt lat="49.46744" lon="1.17529">
        <ele>148</ele>
        <time>2017-01-24T16:38:27Z</time>
      </trkpt>
      <trkpt lat="49.46744" lon="1.17535">
        <ele>148</ele>
        <time>2017-01-24T16:38:43Z</time>
      </trkpt>
      <trkpt lat="49.46742" lon="1.1754">
        <ele>148</ele>
        <time>2017-01-24T16:38:43Z</time>
      </trkpt>
      <trkpt lat="49.4674" lon="1.17547">
        <ele>149</ele>
        <time>2017-01-24T16:38:43Z</time>
      </trkpt>
      <trkpt lat="49.46739" lon="1.17555">
        <ele>149</ele>
        <time>2017-01-24T16:38:43Z</time>
      </trkpt>
      <trkpt lat="49.46736" lon="1.17558">
        <ele>149</ele>
        <time>2017-01-24T16:39:04Z</time>
      </trkpt>
      <trkpt lat="49.46736" lon="1.17557">
        <ele>149</ele>
        <time>2017-01-24T16:39:04Z</time>
      </trkpt>
      <trkpt lat="49.46733" lon="1.17563">
        <ele>149</ele>
        <time>2017-01-24T16:39:04Z</time>
      </trkpt>
      <trkpt lat="49.46731" lon="1.17567">
        <ele>149</ele>
        <time>2017-01-24T16:39:04Z</time>
      </trkpt>
      <trkpt lat="49.4673" lon="1.17577">
        <ele>149</ele>
        <time>2017-01-24T16:39:04Z</time>
      </trkpt>
      <trkpt lat="49.46727" lon="1.17585">
        <ele>149</ele>
        <time>2017-01-24T16:39:20Z</time>
      </trkpt>
      <trkpt lat="49.46725" lon="1.17592">
        <ele>149</ele>
        <time>2017-01-24T16:39:20Z</time>
      </trkpt>
      <trkpt lat="49.46722" lon="1.17604">
        <ele>149</ele>
        <time>2017-01-24T16:39:20Z</time>
      </trkpt>
      <trkpt lat="49.46721" lon="1.17611">
        <ele>149</ele>
        <time>2017-01-24T16:39:20Z</time>
      </trkpt>
      <trkpt lat="49.46721" lon="1.17617">
        <ele>149</ele>
        <time>2017-01-24T16:39:35Z</time>
      </trkpt>
      <trkpt lat="49.46719" lon="1.17626">
        <ele>150</ele>
        <time>2017-01-24T16:39:35Z</time>
      </trkpt>
      <trkpt lat="49.4672" lon="1.17629">
        <ele>150</ele>
        <time>2017-01-24T16:39:35Z</time>
      </trkpt>
      <trkpt lat="49.46719" lon="1.17637">
        <ele>150</ele>
        <time>2017-01-24T16:39:35Z</time>
      </trkpt>
      <trkpt lat="49.46718" lon="1.17646">
        <ele>150</ele>
        <time>2017-01-24T16:39:52Z</time>
      </trkpt>
      <trkpt lat="49.46715" lon="1.17652">
        <ele>150</ele>
        <time>2017-01-24T16:39:52Z</time>
      </trkpt>
      <trkpt lat="49.46713" lon="1.1766">
        <ele>150</ele>
        <time>2017-01-24T16:39:52Z</time>
      </trkpt>
      <trkpt lat="49.46713" lon="1.17668">
        <ele>150</ele>
        <time>2017-01-24T16:39:52Z</time>
      </trkpt>
      <trkpt lat="49.46712" lon="1.17688">
        <ele>150</ele>
        <time>2017-01-24T16:40:16Z</time>
      </trkpt>
      <trkpt lat="49.4671" lon="1.17697">
        <ele>150</ele>
        <time>2017-01-24T16:40:16Z</time>
      </trkpt>
      <trkpt lat="49.46708" lon="1.17705">
        <ele>151</ele>
        <time>2017-01-24T16:40:16Z</time>
      </trkpt>
      <trkpt lat="49.4671" lon="1.17713">
        <ele>152</ele>
        <time>2017-01-24T16:40:16Z</time>
      </trkpt>
      <trkpt lat="49.46711" lon="1.17719">
        <ele>152</ele>
        <time>2017-01-24T16:40:31Z</time>
      </trkpt>
      <trkpt lat="49.4671" lon="1.17727">
        <ele>152</ele>
        <time>2017-01-24T16:40:31Z</time>
      </trkpt>
      <trkpt lat="49.46708" lon="1.17738">
        <ele>153</ele>
        <time>2017-01-24T16:40:31Z</time>
      </trkpt>
      <trkpt lat="49.46706" lon="1.17744">
        <ele>153</ele>
        <time>2017-01-24T16:40:31Z</time>
      </trkpt>
      <trkpt lat="49.46705" lon="1.17753">
        <ele>153</ele>
        <time>2017-01-24T16:40:47Z</time>
      </trkpt>
      <trkpt lat="49.46704" lon="1.17759">
        <ele>153</ele>
        <time>2017-01-24T16:40:47Z</time>
      </trkpt>
      <trkpt lat="49.46704" lon="1.17765">
        <ele>153</ele>
        <time>2017-01-24T16:40:47Z</time>
      </trkpt>
      <trkpt lat="49.46704" lon="1.17772">
        <ele>153</ele>
        <time>2017-01-24T16:40:47Z</time>
      </trkpt>
      <trkpt lat="49.46703" lon="1.17778">
        <ele>153</ele>
        <time>2017-01-24T16:41:04Z</time>
      </trkpt>
      <trkpt lat="49.46703" lon="1.17783">
        <ele>153</ele>
        <time>2017-01-24T16:41:04Z</time>
      </trkpt>
      <trkpt lat="49.46701" lon="1.17797">
        <ele>156</ele>
        <time>2017-01-24T16:41:04Z</time>
      </trkpt>
      <trkpt lat="49.46701" lon="1.178">
        <ele>156</ele>
        <time>2017-01-24T16:41:04Z</time>
      </trkpt>
      <trkpt lat="49.46702" lon="1.17827">
        <ele>156</ele>
        <time>2017-01-24T16:41:31Z</time>
      </trkpt>
      <trkpt lat="49.46702" lon="1.17839">
        <ele>156</ele>
        <time>2017-01-24T16:41:31Z</time>
      </trkpt>
      <trkpt lat="49.46702" lon="1.1785">
        <ele>156</ele>
        <time>2017-01-24T16:41:31Z</time>
      </trkpt>
      <trkpt lat="49.46702" lon="1.17858">
        <ele>156</ele>
        <time>2017-01-24T16:41:31Z</time>
      </trkpt>
      <trkpt lat="49.46701" lon="1.17867">
        <ele>156</ele>
        <time>2017-01-24T16:41:47Z</time>
      </trkpt>
      <trkpt lat="49.46702" lon="1.17875">
        <ele>157</ele>
        <time>2017-01-24T16:41:47Z</time>
      </trkpt>
      <trkpt lat="49.46703" lon="1.1788">
        <ele>157</ele>
        <time>2017-01-24T16:41:47Z</time>
      </trkpt>
      <trkpt lat="49.46702" lon="1.17887">
        <ele>157</ele>
        <time>2017-01-24T16:41:47Z</time>
      </trkpt>
      <trkpt lat="49.46702" lon="1.17896">
        <ele>157</ele>
        <time>2017-01-24T16:42:03Z</time>
      </trkpt>
      <trkpt lat="49.46701" lon="1.17904">
        <ele>157</ele>
        <time>2017-01-24T16:42:03Z</time>
      </trkpt>
      <trkpt lat="49.46701" lon="1.17913">
        <ele>157</ele>
        <time>2017-01-24T16:42:03Z</time>
      </trkpt>
      <trkpt lat="49.46701" lon="1.17917">
        <ele>157</ele>
        <time>2017-01-24T16:42:03Z</time>
      </trkpt>
      <trkpt lat="49.46701" lon="1.17923">
        <ele>157</ele>
        <time>2017-01-24T16:42:19Z</time>
      </trkpt>
      <trkpt lat="49.46702" lon="1.17929">
        <ele>157</ele>
        <time>2017-01-24T16:42:19Z</time>
      </trkpt>
      <trkpt lat="49.46701" lon="1.17939">
        <ele>157</ele>
        <time>2017-01-24T16:42:19Z</time>
      </trkpt>
      <trkpt lat="49.46701" lon="1.17943">
        <ele>157</ele>
        <time>2017-01-24T16:42:19Z</time>
      </trkpt>
      <trkpt lat="49.46703" lon="1.17951">
        <ele>157</ele>
        <time>2017-01-24T16:42:35Z</time>
      </trkpt>
      <trkpt lat="49.46704" lon="1.17958">
        <ele>157</ele>
        <time>2017-01-24T16:42:35Z</time>
      </trkpt>
      <trkpt lat="49.46705" lon="1.17965">
        <ele>159</ele>
        <time>2017-01-24T16:42:35Z</time>
      </trkpt>
      <trkpt lat="49.46705" lon="1.1797">
        <ele>159</ele>
        <time>2017-01-24T16:42:35Z</time>
      </trkpt>
      <trkpt lat="49.46705" lon="1.17978">
        <ele>159</ele>
        <time>2017-01-24T16:42:52Z</time>
      </trkpt>
      <trkpt lat="49.46705" lon="1.17986">
        <ele>159</ele>
        <time>2017-01-24T16:42:52Z</time>
      </trkpt>
      <trkpt lat="49.46705" lon="1.17995">
        <ele>159</ele>
        <time>2017-01-24T16:42:52Z</time>
      </trkpt>
      <trkpt lat="49.46706" lon="1.18003">
        <ele>159</ele>
        <time>2017-01-24T16:42:52Z</time>
      </trkpt>
      <trkpt lat="49.46707" lon="1.18013">
        <ele>159</ele>
        <time>2017-01-24T16:43:07Z</time>
      </trkpt>
      <trkpt lat="49.4671" lon="1.18022">
        <ele>158</ele>
        <time>2017-01-24T16:43:07Z</time>
      </trkpt>
      <trkpt lat="49.46711" lon="1.18031">
        <ele>158</ele>
        <time>2017-01-24T16:43:07Z</time>
      </trkpt>
      <trkpt lat="49.46712" lon="1.18037">
        <ele>158</ele>
        <time>2017-01-24T16:43:07Z</time>
      </trkpt>
      <trkpt lat="49.46713" lon="1.18043">
        <ele>161</ele>
        <time>2017-01-24T16:43:23Z</time>
      </trkpt>
      <trkpt lat="49.46716" lon="1.18051">
        <ele>161</ele>
        <time>2017-01-24T16:43:23Z</time>
      </trkpt>
      <trkpt lat="49.46716" lon="1.18058">
        <ele>161</ele>
        <time>2017-01-24T16:43:23Z</time>
      </trkpt>
      <trkpt lat="49.46716" lon="1.18063">
        <ele>161</ele>
        <time>2017-01-24T16:43:23Z</time>
      </trkpt>
      <trkpt lat="49.46714" lon="1.18071">
        <ele>161</ele>
        <time>2017-01-24T16:43:39Z</time>
      </trkpt>
      <trkpt lat="49.46715" lon="1.18079">
        <ele>161</ele>
        <time>2017-01-24T16:43:39Z</time>
      </trkpt>
      <trkpt lat="49.46717" lon="1.18088">
        <ele>161</ele>
        <time>2017-01-24T16:43:40Z</time>
      </trkpt>
      <trkpt lat="49.46717" lon="1.18094">
        <ele>161</ele>
        <time>2017-01-24T16:43:40Z</time>
      </trkpt>
      <trkpt lat="49.46714" lon="1.18101">
        <ele>161</ele>
        <time>2017-01-24T16:44:07Z</time>
      </trkpt>
      <trkpt lat="49.46713" lon="1.18103">
        <ele>161</ele>
        <time>2017-01-24T16:44:07Z</time>
      </trkpt>
      <trkpt lat="49.46711" lon="1.18103">
        <ele>161</ele>
        <time>2017-01-24T16:44:07Z</time>
      </trkpt>
      <trkpt lat="49.46707" lon="1.18103">
        <ele>161</ele>
        <time>2017-01-24T16:44:07Z</time>
      </trkpt>
      <trkpt lat="49.46706" lon="1.18103">
        <ele>161</ele>
        <time>2017-01-24T16:44:07Z</time>
      </trkpt>
      <trkpt lat="49.46693" lon="1.18105">
        <ele>161</ele>
        <time>2017-01-24T16:44:44Z</time>
      </trkpt>
      <trkpt lat="49.4669" lon="1.18105">
        <ele>161</ele>
        <time>2017-01-24T16:44:44Z</time>
      </trkpt>
      <trkpt lat="49.46687" lon="1.18106">
        <ele>161</ele>
        <time>2017-01-24T16:44:44Z</time>
      </trkpt>
      <trkpt lat="49.46684" lon="1.18106">
        <ele>161</ele>
        <time>2017-01-24T16:44:44Z</time>
      </trkpt>
      <trkpt lat="49.4668" lon="1.18106">
        <ele>161</ele>
        <time>2017-01-24T16:44:44Z</time>
      </trkpt>
      <trkpt lat="49.4667" lon="1.18104">
        <ele>161</ele>
        <time>2017-01-24T16:45:20Z</time>
      </trkpt>
      <trkpt lat="49.46667" lon="1.18106">
        <ele>161</ele>
        <time>2017-01-24T16:45:20Z</time>
      </trkpt>
      <trkpt lat="49.46663" lon="1.18105">
        <ele>161</ele>
        <time>2017-01-24T16:45:20Z</time>
      </trkpt>
      <trkpt lat="49.46658" lon="1.18105">
        <ele>161</ele>
        <time>2017-01-24T16:45:20Z</time>
      </trkpt>
      <trkpt lat="49.46655" lon="1.18105">
        <ele>161</ele>
        <time>2017-01-24T16:45:20Z</time>
      </trkpt>
      <trkpt lat="49.4665" lon="1.18105">
        <ele>161</ele>
        <time>2017-01-24T16:45:35Z</time>
      </trkpt>
      <trkpt lat="49.46647" lon="1.18105">
        <ele>161</ele>
        <time>2017-01-24T16:45:35Z</time>
      </trkpt>
      <trkpt lat="49.46642" lon="1.18105">
        <ele>161</ele>
        <time>2017-01-24T16:45:35Z</time>
      </trkpt>
      <trkpt lat="49.46637" lon="1.18104">
        <ele>161</ele>
        <time>2017-01-24T16:45:35Z</time>
      </trkpt>
      <trkpt lat="49.46635" lon="1.18105">
        <ele>161</ele>
        <time>2017-01-24T16:45:51Z</time>
      </trkpt>
      <trkpt lat="49.46631" lon="1.18105">
        <ele>161</ele>
        <time>2017-01-24T16:45:54Z</time>
      </trkpt>
      <trkpt lat="49.46627" lon="1.18103">
        <ele>161</ele>
        <time>2017-01-24T16:45:54Z</time>
      </trkpt>
      <trkpt lat="49.46619" lon="1.18103">
        <ele>160</ele>
        <time>2017-01-24T16:45:54Z</time>
      </trkpt>
      <trkpt lat="49.46614" lon="1.18103">
        <ele>160</ele>
        <time>2017-01-24T16:46:11Z</time>
      </trkpt>
      <trkpt lat="49.46608" lon="1.18103">
        <ele>160</ele>
        <time>2017-01-24T16:46:11Z</time>
      </trkpt>
      <trkpt lat="49.46605" lon="1.18106">
        <ele>160</ele>
        <time>2017-01-24T16:46:11Z</time>
      </trkpt>
      <trkpt lat="49.46602" lon="1.18105">
        <ele>160</ele>
        <time>2017-01-24T16:46:11Z</time>
      </trkpt>
      <trkpt lat="49.4659" lon="1.18101">
        <ele>160</ele>
        <time>2017-01-24T16:46:47Z</time>
      </trkpt>
      <trkpt lat="49.46588" lon="1.18098">
        <ele>160</ele>
        <time>2017-01-24T16:46:48Z</time>
      </trkpt>
      <trkpt lat="49.46588" lon="1.18098">
        <ele>160</ele>
        <time>2017-01-24T16:46:48Z</time>
      </trkpt>
      <trkpt lat="49.46586" lon="1.18097">
        <ele>160</ele>
        <time>2017-01-24T16:46:48Z</time>
      </trkpt>
      <trkpt lat="49.4658" lon="1.18096">
        <ele>160</ele>
        <time>2017-01-24T16:46:48Z</time>
      </trkpt>
      <trkpt lat="49.46574" lon="1.18096">
        <ele>160</ele>
        <time>2017-01-24T16:47:03Z</time>
      </trkpt>
      <trkpt lat="49.46566" lon="1.18095">
        <ele>160</ele>
        <time>2017-01-24T16:47:03Z</time>
      </trkpt>
      <trkpt lat="49.46561" lon="1.18093">
        <ele>160</ele>
        <time>2017-01-24T16:47:03Z</time>
      </trkpt>
      <trkpt lat="49.46559" lon="1.18093">
        <ele>160</ele>
        <time>2017-01-24T16:47:03Z</time>
      </trkpt>
      <trkpt lat="49.46553" lon="1.18092">
        <ele>160</ele>
        <time>2017-01-24T16:47:19Z</time>
      </trkpt>
      <trkpt lat="49.46549" lon="1.18092">
        <ele>160</ele>
        <time>2017-01-24T16:47:19Z</time>
      </trkpt>
      <trkpt lat="49.46541" lon="1.18091">
        <ele>158</ele>
        <time>2017-01-24T16:47:19Z</time>
      </trkpt>
      <trkpt lat="49.46537" lon="1.1809">
        <ele>158</ele>
        <time>2017-01-24T16:47:19Z</time>
      </trkpt>
      <trkpt lat="49.46534" lon="1.18089">
        <ele>158</ele>
        <time>2017-01-24T16:47:35Z</time>
      </trkpt>
      <trkpt lat="49.46527" lon="1.18088">
        <ele>158</ele>
        <time>2017-01-24T16:47:35Z</time>
      </trkpt>
      <trkpt lat="49.46524" lon="1.18087">
        <ele>158</ele>
        <time>2017-01-24T16:47:35Z</time>
      </trkpt>
      <trkpt lat="49.46519" lon="1.18086">
        <ele>158</ele>
        <time>2017-01-24T16:47:35Z</time>
      </trkpt>
      <trkpt lat="49.46515" lon="1.18084">
        <ele>158</ele>
        <time>2017-01-24T16:47:51Z</time>
      </trkpt>
      <trkpt lat="49.46509" lon="1.18082">
        <ele>158</ele>
        <time>2017-01-24T16:47:51Z</time>
      </trkpt>
      <trkpt lat="49.46505" lon="1.18081">
        <ele>158</ele>
        <time>2017-01-24T16:47:51Z</time>
      </trkpt>
      <trkpt lat="49.46499" lon="1.18081">
        <ele>158</ele>
        <time>2017-01-24T16:47:51Z</time>
      </trkpt>
      <trkpt lat="49.46497" lon="1.1808">
        <ele>158</ele>
        <time>2017-01-24T16:48:07Z</time>
      </trkpt>
      <trkpt lat="49.46491" lon="1.18079">
        <ele>158</ele>
        <time>2017-01-24T16:48:08Z</time>
      </trkpt>
      <trkpt lat="49.46487" lon="1.18079">
        <ele>158</ele>
        <time>2017-01-24T16:48:08Z</time>
      </trkpt>
      <trkpt lat="49.46479" lon="1.18075">
        <ele>158</ele>
        <time>2017-01-24T16:48:08Z</time>
      </trkpt>
      <trkpt lat="49.46476" lon="1.18073">
        <ele>158</ele>
        <time>2017-01-24T16:48:23Z</time>
      </trkpt>
      <trkpt lat="49.46472" lon="1.18074">
        <ele>158</ele>
        <time>2017-01-24T16:48:25Z</time>
      </trkpt>
      <trkpt lat="49.46467" lon="1.18072">
        <ele>158</ele>
        <time>2017-01-24T16:48:25Z</time>
      </trkpt>
      <trkpt lat="49.4646" lon="1.1807">
        <ele>158</ele>
        <time>2017-01-24T16:48:25Z</time>
      </trkpt>
      <trkpt lat="49.46456" lon="1.1807">
        <ele>156</ele>
        <time>2017-01-24T16:48:39Z</time>
      </trkpt>
      <trkpt lat="49.4645" lon="1.18068">
        <ele>156</ele>
        <time>2017-01-24T16:48:39Z</time>
      </trkpt>
      <trkpt lat="49.46446" lon="1.18067">
        <ele>156</ele>
        <time>2017-01-24T16:48:39Z</time>
      </trkpt>
      <trkpt lat="49.46445" lon="1.18066">
        <ele>156</ele>
        <time>2017-01-24T16:48:39Z</time>
      </trkpt>
      <trkpt lat="49.46443" lon="1.18066">
        <ele>156</ele>
        <time>2017-01-24T16:48:55Z</time>
      </trkpt>
      <trkpt lat="49.4644" lon="1.18064">
        <ele>156</ele>
        <time>2017-01-24T16:48:55Z</time>
      </trkpt>
      <trkpt lat="49.46437" lon="1.18062">
        <ele>156</ele>
        <time>2017-01-24T16:48:55Z</time>
      </trkpt>
      <trkpt lat="49.46428" lon="1.1806">
        <ele>156</ele>
        <time>2017-01-24T16:48:55Z</time>
      </trkpt>
      <trkpt lat="49.46419" lon="1.18053">
        <ele>156</ele>
        <time>2017-01-24T16:49:15Z</time>
      </trkpt>
      <trkpt lat="49.46414" lon="1.18053">
        <ele>156</ele>
        <time>2017-01-24T16:49:15Z</time>
      </trkpt>
      <trkpt lat="49.46411" lon="1.18053">
        <ele>156</ele>
        <time>2017-01-24T16:49:15Z</time>
      </trkpt>
      <trkpt lat="49.46408" lon="1.18053">
        <ele>156</ele>
        <time>2017-01-24T16:49:15Z</time>
      </trkpt>
      <trkpt lat="49.46406" lon="1.18064">
        <ele>156</ele>
        <time>2017-01-24T16:49:31Z</time>
      </trkpt>
      <trkpt lat="49.46406" lon="1.18067">
        <ele>156</ele>
        <time>2017-01-24T16:49:31Z</time>
      </trkpt>
      <trkpt lat="49.46405" lon="1.18077">
        <ele>156</ele>
        <time>2017-01-24T16:49:31Z</time>
      </trkpt>
      <trkpt lat="49.46405" lon="1.18079">
        <ele>156</ele>
        <time>2017-01-24T16:49:31Z</time>
      </trkpt>
      <trkpt lat="49.46404" lon="1.18094">
        <ele>156</ele>
        <time>2017-01-24T16:49:48Z</time>
      </trkpt>
      <trkpt lat="49.46404" lon="1.18098">
        <ele>156</ele>
        <time>2017-01-24T16:49:48Z</time>
      </trkpt>
      <trkpt lat="49.46404" lon="1.18105">
        <ele>156</ele>
        <time>2017-01-24T16:49:48Z</time>
      </trkpt>
      <trkpt lat="49.46403" lon="1.18113">
        <ele>156</ele>
        <time>2017-01-24T16:49:48Z</time>
      </trkpt>
      <trkpt lat="49.46404" lon="1.18122">
        <ele>156</ele>
        <time>2017-01-24T16:50:04Z</time>
      </trkpt>
      <trkpt lat="49.46404" lon="1.18129">
        <ele>154</ele>
        <time>2017-01-24T16:50:04Z</time>
      </trkpt>
      <trkpt lat="49.46402" lon="1.18135">
        <ele>154</ele>
        <time>2017-01-24T16:50:04Z</time>
      </trkpt>
      <trkpt lat="49.46397" lon="1.18137">
        <ele>154</ele>
        <time>2017-01-24T16:50:04Z</time>
      </trkpt>
      <trkpt lat="49.46394" lon="1.18143">
        <ele>154</ele>
        <time>2017-01-24T16:50:23Z</time>
      </trkpt>
      <trkpt lat="49.46392" lon="1.18145">
        <ele>154</ele>
        <time>2017-01-24T16:50:23Z</time>
      </trkpt>
      <trkpt lat="49.46392" lon="1.18146">
        <ele>154</ele>
        <time>2017-01-24T16:50:23Z</time>
      </trkpt>
      <trkpt lat="49.46389" lon="1.18151">
        <ele>154</ele>
        <time>2017-01-24T16:50:23Z</time>
      </trkpt>
      <trkpt lat="49.46386" lon="1.18151">
        <ele>154</ele>
        <time>2017-01-24T16:50:23Z</time>
      </trkpt>
      <trkpt lat="49.46379" lon="1.1815">
        <ele>154</ele>
        <time>2017-01-24T16:50:39Z</time>
      </trkpt>
      <trkpt lat="49.46376" lon="1.18148">
        <ele>154</ele>
        <time>2017-01-24T16:50:39Z</time>
      </trkpt>
      <trkpt lat="49.46371" lon="1.18147">
        <ele>152</ele>
        <time>2017-01-24T16:50:39Z</time>
      </trkpt>
      <trkpt lat="49.46366" lon="1.18145">
        <ele>152</ele>
        <time>2017-01-24T16:50:39Z</time>
      </trkpt>
      <trkpt lat="49.46361" lon="1.18142">
        <ele>152</ele>
        <time>2017-01-24T16:50:55Z</time>
      </trkpt>
      <trkpt lat="49.46359" lon="1.18141">
        <ele>152</ele>
        <time>2017-01-24T16:50:55Z</time>
      </trkpt>
      <trkpt lat="49.46355" lon="1.1814">
        <ele>152</ele>
        <time>2017-01-24T16:50:55Z</time>
      </trkpt>
      <trkpt lat="49.46347" lon="1.18138">
        <ele>152</ele>
        <time>2017-01-24T16:50:55Z</time>
      </trkpt>
      <trkpt lat="49.46344" lon="1.18136">
        <ele>152</ele>
        <time>2017-01-24T16:51:11Z</time>
      </trkpt>
      <trkpt lat="49.46337" lon="1.18133">
        <ele>152</ele>
        <time>2017-01-24T16:51:11Z</time>
      </trkpt>
      <trkpt lat="49.46336" lon="1.18131">
        <ele>152</ele>
        <time>2017-01-24T16:51:11Z</time>
      </trkpt>
      <trkpt lat="49.46332" lon="1.1813">
        <ele>152</ele>
        <time>2017-01-24T16:51:11Z</time>
      </trkpt>
      <trkpt lat="49.4633" lon="1.18127">
        <ele>152</ele>
        <time>2017-01-24T16:51:31Z</time>
      </trkpt>
      <trkpt lat="49.4633" lon="1.18126">
        <ele>152</ele>
        <time>2017-01-24T16:51:31Z</time>
      </trkpt>
      <trkpt lat="49.46327" lon="1.18125">
        <ele>152</ele>
        <time>2017-01-24T16:51:31Z</time>
      </trkpt>
      <trkpt lat="49.46323" lon="1.18123">
        <ele>153</ele>
        <time>2017-01-24T16:51:31Z</time>
      </trkpt>
      <trkpt lat="49.46317" lon="1.18118">
        <ele>153</ele>
        <time>2017-01-24T16:51:31Z</time>
      </trkpt>
      <trkpt lat="49.46313" lon="1.18116">
        <ele>153</ele>
        <time>2017-01-24T16:51:51Z</time>
      </trkpt>
      <trkpt lat="49.46308" lon="1.18109">
        <ele>153</ele>
        <time>2017-01-24T16:51:51Z</time>
      </trkpt>
      <trkpt lat="49.46305" lon="1.18107">
        <ele>153</ele>
        <time>2017-01-24T16:51:51Z</time>
      </trkpt>
      <trkpt lat="49.46299" lon="1.18101">
        <ele>153</ele>
        <time>2017-01-24T16:51:51Z</time>
      </trkpt>
      <trkpt lat="49.46294" lon="1.18096">
        <ele>153</ele>
        <time>2017-01-24T16:52:07Z</time>
      </trkpt>
      <trkpt lat="49.4629" lon="1.18091">
        <ele>151</ele>
        <time>2017-01-24T16:52:07Z</time>
      </trkpt>
      <trkpt lat="49.46286" lon="1.18087">
        <ele>151</ele>
        <time>2017-01-24T16:52:07Z</time>
      </trkpt>
      <trkpt lat="49.46284" lon="1.18085">
        <ele>151</ele>
        <time>2017-01-24T16:52:07Z</time>
      </trkpt>
      <trkpt lat="49.46279" lon="1.18079">
        <ele>151</ele>
        <time>2017-01-24T16:52:23Z</time>
      </trkpt>
      <trkpt lat="49.46274" lon="1.18074">
        <ele>151</ele>
        <time>2017-01-24T16:52:23Z</time>
      </trkpt>
      <trkpt lat="49.46272" lon="1.18072">
        <ele>151</ele>
        <time>2017-01-24T16:52:23Z</time>
      </trkpt>
      <trkpt lat="49.46268" lon="1.18067">
        <ele>151</ele>
        <time>2017-01-24T16:52:23Z</time>
      </trkpt>
      <trkpt lat="49.46264" lon="1.18062">
        <ele>151</ele>
        <time>2017-01-24T16:52:39Z</time>
      </trkpt>
      <trkpt lat="49.4626" lon="1.18057">
        <ele>151</ele>
        <time>2017-01-24T16:52:39Z</time>
      </trkpt>
      <trkpt lat="49.46258" lon="1.18054">
        <ele>151</ele>
        <time>2017-01-24T16:52:39Z</time>
      </trkpt>
      <trkpt lat="49.46253" lon="1.18047">
        <ele>151</ele>
        <time>2017-01-24T16:52:39Z</time>
      </trkpt>
      <trkpt lat="49.4625" lon="1.18043">
        <ele>151</ele>
        <time>2017-01-24T16:52:56Z</time>
      </trkpt>
      <trkpt lat="49.46247" lon="1.18041">
        <ele>151</ele>
        <time>2017-01-24T16:52:56Z</time>
      </trkpt>
      <trkpt lat="49.46243" lon="1.18034">
        <ele>151</ele>
        <time>2017-01-24T16:52:56Z</time>
      </trkpt>
      <trkpt lat="49.4624" lon="1.18029">
        <ele>151</ele>
        <time>2017-01-24T16:52:56Z</time>
      </trkpt>
      <trkpt lat="49.46237" lon="1.18024">
        <ele>151</ele>
        <time>2017-01-24T16:53:12Z</time>
      </trkpt>
      <trkpt lat="49.46235" lon="1.18021">
        <ele>151</ele>
        <time>2017-01-24T16:53:12Z</time>
      </trkpt>
      <trkpt lat="49.46232" lon="1.18017">
        <ele>151</ele>
        <time>2017-01-24T16:53:12Z</time>
      </trkpt>
      <trkpt lat="49.46226" lon="1.1801">
        <ele>151</ele>
        <time>2017-01-24T16:53:12Z</time>
      </trkpt>
      <trkpt lat="49.46223" lon="1.18003">
        <ele>151</ele>
        <time>2017-01-24T16:53:27Z</time>
      </trkpt>
      <trkpt lat="49.4622" lon="1.18">
        <ele>151</ele>
        <time>2017-01-24T16:53:27Z</time>
      </trkpt>
      <trkpt lat="49.46214" lon="1.17993">
        <ele>151</ele>
        <time>2017-01-24T16:53:27Z</time>
      </trkpt>
      <trkpt lat="49.46212" lon="1.1799">
        <ele>151</ele>
        <time>2017-01-24T16:53:27Z</time>
      </trkpt>
      <trkpt lat="49.46207" lon="1.17985">
        <ele>148</ele>
        <time>2017-01-24T16:53:47Z</time>
      </trkpt>
      <trkpt lat="49.46204" lon="1.1798">
        <ele>148</ele>
        <time>2017-01-24T16:53:47Z</time>
      </trkpt>
      <trkpt lat="49.46201" lon="1.17976">
        <ele>148</ele>
        <time>2017-01-24T16:53:48Z</time>
      </trkpt>
      <trkpt lat="49.46193" lon="1.17966">
        <ele>148</ele>
        <time>2017-01-24T16:53:48Z</time>
      </trkpt>
      <trkpt lat="49.46189" lon="1.17961">
        <ele>148</ele>
        <time>2017-01-24T16:54:03Z</time>
      </trkpt>
      <trkpt lat="49.46188" lon="1.17958">
        <ele>148</ele>
        <time>2017-01-24T16:54:03Z</time>
      </trkpt>
      <trkpt lat="49.46184" lon="1.17954">
        <ele>149</ele>
        <time>2017-01-24T16:54:03Z</time>
      </trkpt>
      <trkpt lat="49.4618" lon="1.17948">
        <ele>149</ele>
        <time>2017-01-24T16:54:03Z</time>
      </trkpt>
      <trkpt lat="49.46176" lon="1.17943">
        <ele>149</ele>
        <time>2017-01-24T16:54:20Z</time>
      </trkpt>
      <trkpt lat="49.46172" lon="1.17939">
        <ele>149</ele>
        <time>2017-01-24T16:54:20Z</time>
      </trkpt>
      <trkpt lat="49.46169" lon="1.17934">
        <ele>149</ele>
        <time>2017-01-24T16:54:20Z</time>
      </trkpt>
      <trkpt lat="49.46166" lon="1.17929">
        <ele>149</ele>
        <time>2017-01-24T16:54:20Z</time>
      </trkpt>
      <trkpt lat="49.46162" lon="1.17924">
        <ele>149</ele>
        <time>2017-01-24T16:54:36Z</time>
      </trkpt>
      <trkpt lat="49.46158" lon="1.17919">
        <ele>149</ele>
        <time>2017-01-24T16:54:36Z</time>
      </trkpt>
      <trkpt lat="49.46155" lon="1.17914">
        <ele>149</ele>
        <time>2017-01-24T16:54:37Z</time>
      </trkpt>
      <trkpt lat="49.4615" lon="1.17909">
        <ele>149</ele>
        <time>2017-01-24T16:54:37Z</time>
      </trkpt>
      <trkpt lat="49.46148" lon="1.17905">
        <ele>149</ele>
        <time>2017-01-24T16:54:52Z</time>
      </trkpt>
      <trkpt lat="49.46144" lon="1.17898">
        <ele>149</ele>
        <time>2017-01-24T16:54:52Z</time>
      </trkpt>
      <trkpt lat="49.4614" lon="1.17894">
        <ele>149</ele>
        <time>2017-01-24T16:54:52Z</time>
      </trkpt>
      <trkpt lat="49.46136" lon="1.17888">
        <ele>149</ele>
        <time>2017-01-24T16:54:52Z</time>
      </trkpt>
      <trkpt lat="49.4613" lon="1.1788">
        <ele>149</ele>
        <time>2017-01-24T16:55:12Z</time>
      </trkpt>
      <trkpt lat="49.46126" lon="1.17874">
        <ele>149</ele>
        <time>2017-01-24T16:55:12Z</time>
      </trkpt>
      <trkpt lat="49.46121" lon="1.17869">
        <ele>147</ele>
        <time>2017-01-24T16:55:12Z</time>
      </trkpt>
      <trkpt lat="49.46117" lon="1.17864">
        <ele>147</ele>
        <time>2017-01-24T16:55:12Z</time>
      </trkpt>
      <trkpt lat="49.46113" lon="1.17858">
        <ele>147</ele>
        <time>2017-01-24T16:55:27Z</time>
      </trkpt>
      <trkpt lat="49.4611" lon="1.17854">
        <ele>147</ele>
        <time>2017-01-24T16:55:27Z</time>
      </trkpt>
      <trkpt lat="49.46108" lon="1.1785">
        <ele>147</ele>
        <time>2017-01-24T16:55:27Z</time>
      </trkpt>
      <trkpt lat="49.46104" lon="1.17847">
        <ele>147</ele>
        <time>2017-01-24T16:55:27Z</time>
      </trkpt>
      <trkpt lat="49.461" lon="1.17841">
        <ele>147</ele>
        <time>2017-01-24T16:55:43Z</time>
      </trkpt>
      <trkpt lat="49.46097" lon="1.17836">
        <ele>147</ele>
        <time>2017-01-24T16:55:43Z</time>
      </trkpt>
      <trkpt lat="49.46094" lon="1.17834">
        <ele>147</ele>
        <time>2017-01-24T16:55:43Z</time>
      </trkpt>
      <trkpt lat="49.46091" lon="1.17827">
        <ele>147</ele>
        <time>2017-01-24T16:55:43Z</time>
      </trkpt>
      <trkpt lat="49.46087" lon="1.17823">
        <ele>147</ele>
        <time>2017-01-24T16:55:59Z</time>
      </trkpt>
      <trkpt lat="49.46083" lon="1.17818">
        <ele>147</ele>
        <time>2017-01-24T16:55:59Z</time>
      </trkpt>
      <trkpt lat="49.4608" lon="1.17813">
        <ele>147</ele>
        <time>2017-01-24T16:55:59Z</time>
      </trkpt>
      <trkpt lat="49.46077" lon="1.17809">
        <ele>147</ele>
        <time>2017-01-24T16:55:59Z</time>
      </trkpt>
      <trkpt lat="49.46073" lon="1.17804">
        <ele>147</ele>
        <time>2017-01-24T16:56:15Z</time>
      </trkpt>
      <trkpt lat="49.46069" lon="1.178">
        <ele>147</ele>
        <time>2017-01-24T16:56:15Z</time>
      </trkpt>
      <trkpt lat="49.46067" lon="1.17796">
        <ele>147</ele>
        <time>2017-01-24T16:56:15Z</time>
      </trkpt>
      <trkpt lat="49.46061" lon="1.17789">
        <ele>147</ele>
        <time>2017-01-24T16:56:15Z</time>
      </trkpt>
      <trkpt lat="49.46059" lon="1.17786">
        <ele>147</ele>
        <time>2017-01-24T16:56:32Z</time>
      </trkpt>
      <trkpt lat="49.46056" lon="1.17782">
        <ele>147</ele>
        <time>2017-01-24T16:56:32Z</time>
      </trkpt>
      <trkpt lat="49.46052" lon="1.17777">
        <ele>147</ele>
        <time>2017-01-24T16:56:32Z</time>
      </trkpt>
      <trkpt lat="49.46048" lon="1.17771">
        <ele>147</ele>
        <time>2017-01-24T16:56:32Z</time>
      </trkpt>
      <trkpt lat="49.46041" lon="1.1776">
        <ele>145</ele>
        <time>2017-01-24T16:56:51Z</time>
      </trkpt>
      <trkpt lat="49.46038" lon="1.17755">
        <ele>145</ele>
        <time>2017-01-24T16:56:51Z</time>
      </trkpt>
      <trkpt lat="49.46034" lon="1.1775">
        <ele>145</ele>
        <time>2017-01-24T16:56:51Z</time>
      </trkpt>
      <trkpt lat="49.4603" lon="1.17746">
        <ele>145</ele>
        <time>2017-01-24T16:56:51Z</time>
      </trkpt>
      <trkpt lat="49.46027" lon="1.17741">
        <ele>145</ele>
        <time>2017-01-24T16:57:07Z</time>
      </trkpt>
      <trkpt lat="49.46024" lon="1.17737">
        <ele>145</ele>
        <time>2017-01-24T16:57:07Z</time>
      </trkpt>
      <trkpt lat="49.46019" lon="1.17731">
        <ele>145</ele>
        <time>2017-01-24T16:57:07Z</time>
      </trkpt>
      <trkpt lat="49.46014" lon="1.17725">
        <ele>145</ele>
        <time>2017-01-24T16:57:07Z</time>
      </trkpt>
      <trkpt lat="49.4601" lon="1.1772">
        <ele>145</ele>
        <time>2017-01-24T16:57:24Z</time>
      </trkpt>
      <trkpt lat="49.46007" lon="1.17716">
        <ele>145</ele>
        <time>2017-01-24T16:57:24Z</time>
      </trkpt>
      <trkpt lat="49.46004" lon="1.1771">
        <ele>145</ele>
        <time>2017-01-24T16:57:24Z</time>
      </trkpt>
      <trkpt lat="49.46" lon="1.17706">
        <ele>146</ele>
        <time>2017-01-24T16:57:24Z</time>
      </trkpt>
      <trkpt lat="49.45997" lon="1.17703">
        <ele>146</ele>
        <time>2017-01-24T16:57:41Z</time>
      </trkpt>
      <trkpt lat="49.45993" lon="1.17699">
        <ele>146</ele>
        <time>2017-01-24T16:57:41Z</time>
      </trkpt>
      <trkpt lat="49.45989" lon="1.17692">
        <ele>146</ele>
        <time>2017-01-24T16:57:41Z</time>
      </trkpt>
      <trkpt lat="49.45985" lon="1.17686">
        <ele>146</ele>
        <time>2017-01-24T16:57:41Z</time>
      </trkpt>
      <trkpt lat="49.45983" lon="1.17682">
        <ele>146</ele>
        <time>2017-01-24T16:57:57Z</time>
      </trkpt>
      <trkpt lat="49.4598" lon="1.17679">
        <ele>146</ele>
        <time>2017-01-24T16:57:57Z</time>
      </trkpt>
      <trkpt lat="49.45978" lon="1.17676">
        <ele>146</ele>
        <time>2017-01-24T16:57:57Z</time>
      </trkpt>
      <trkpt lat="49.45972" lon="1.17669">
        <ele>146</ele>
        <time>2017-01-24T16:57:57Z</time>
      </trkpt>
      <trkpt lat="49.45971" lon="1.17666">
        <ele>146</ele>
        <time>2017-01-24T16:58:11Z</time>
      </trkpt>
      <trkpt lat="49.45967" lon="1.17661">
        <ele>146</ele>
        <time>2017-01-24T16:58:11Z</time>
      </trkpt>
      <trkpt lat="49.45963" lon="1.17655">
        <ele>146</ele>
        <time>2017-01-24T16:58:11Z</time>
      </trkpt>
      <trkpt lat="49.45959" lon="1.17649">
        <ele>146</ele>
        <time>2017-01-24T16:58:11Z</time>
      </trkpt>
      <trkpt lat="49.45958" lon="1.17646">
        <ele>146</ele>
        <time>2017-01-24T16:58:28Z</time>
      </trkpt>
      <trkpt lat="49.45955" lon="1.17643">
        <ele>146</ele>
        <time>2017-01-24T16:58:28Z</time>
      </trkpt>
      <trkpt lat="49.45952" lon="1.17638">
        <ele>146</ele>
        <time>2017-01-24T16:58:28Z</time>
      </trkpt>
      <trkpt lat="49.45949" lon="1.17633">
        <ele>146</ele>
        <time>2017-01-24T16:58:28Z</time>
      </trkpt>
      <trkpt lat="49.45946" lon="1.17628">
        <ele>146</ele>
        <time>2017-01-24T16:58:43Z</time>
      </trkpt>
      <trkpt lat="49.45941" lon="1.17622">
        <ele>148</ele>
        <time>2017-01-24T16:58:43Z</time>
      </trkpt>
      <trkpt lat="49.45937" lon="1.17619">
        <ele>148</ele>
        <time>2017-01-24T16:58:43Z</time>
      </trkpt>
      <trkpt lat="49.45931" lon="1.17614">
        <ele>148</ele>
        <time>2017-01-24T16:58:43Z</time>
      </trkpt>
      <trkpt lat="49.45927" lon="1.17609">
        <ele>148</ele>
        <time>2017-01-24T16:58:59Z</time>
      </trkpt>
      <trkpt lat="49.45925" lon="1.17605">
        <ele>148</ele>
        <time>2017-01-24T16:58:59Z</time>
      </trkpt>
      <trkpt lat="49.4592" lon="1.176">
        <ele>148</ele>
        <time>2017-01-24T16:58:59Z</time>
      </trkpt>
      <trkpt lat="49.45916" lon="1.17595">
        <ele>148</ele>
        <time>2017-01-24T16:58:59Z</time>
      </trkpt>
      <trkpt lat="49.45915" lon="1.17594">
        <ele>148</ele>
        <time>2017-01-24T16:59:17Z</time>
      </trkpt>
      <trkpt lat="49.45911" lon="1.17588">
        <ele>148</ele>
        <time>2017-01-24T16:59:18Z</time>
      </trkpt>
      <trkpt lat="49.45909" lon="1.17584">
        <ele>148</ele>
        <time>2017-01-24T16:59:18Z</time>
      </trkpt>
      <trkpt lat="49.45903" lon="1.17575">
        <ele>148</ele>
        <time>2017-01-24T16:59:18Z</time>
      </trkpt>
      <trkpt lat="49.45901" lon="1.17572">
        <ele>148</ele>
        <time>2017-01-24T16:59:31Z</time>
      </trkpt>
      <trkpt lat="49.45897" lon="1.17566">
        <ele>148</ele>
        <time>2017-01-24T16:59:31Z</time>
      </trkpt>
      <trkpt lat="49.45896" lon="1.17562">
        <ele>148</ele>
        <time>2017-01-24T16:59:33Z</time>
      </trkpt>
      <trkpt lat="49.45892" lon="1.17557">
        <ele>148</ele>
        <time>2017-01-24T16:59:33Z</time>
      </trkpt>
      <trkpt lat="49.45881" lon="1.17537">
        <ele>147</ele>
        <time>2017-01-24T16:59:59Z</time>
      </trkpt>
      <trkpt lat="49.45879" lon="1.17533">
        <ele>147</ele>
        <time>2017-01-24T16:59:59Z</time>
      </trkpt>
      <trkpt lat="49.45878" lon="1.1753">
        <ele>147</ele>
        <time>2017-01-24T16:59:59Z</time>
      </trkpt>
      <trkpt lat="49.45876" lon="1.17522">
        <ele>147</ele>
        <time>2017-01-24T16:59:59Z</time>
      </trkpt>
      <trkpt lat="49.45873" lon="1.17518">
        <ele>145</ele>
        <time>2017-01-24T17:00:20Z</time>
      </trkpt>
      <trkpt lat="49.45872" lon="1.17517">
        <ele>145</ele>
        <time>2017-01-24T17:00:20Z</time>
      </trkpt>
      <trkpt lat="49.45869" lon="1.1751">
        <ele>145</ele>
        <time>2017-01-24T17:00:20Z</time>
      </trkpt>
      <trkpt lat="49.45867" lon="1.17509">
        <ele>145</ele>
        <time>2017-01-24T17:00:20Z</time>
      </trkpt>
      <trkpt lat="49.45864" lon="1.17506">
        <ele>145</ele>
        <time>2017-01-24T17:00:20Z</time>
      </trkpt>
      <trkpt lat="49.45855" lon="1.17493">
        <ele>145</ele>
        <time>2017-01-24T17:01:48Z</time>
      </trkpt>
      <trkpt lat="49.45855" lon="1.17493">
        <ele>145</ele>
        <time>2017-01-24T17:01:48Z</time>
      </trkpt>
      <trkpt lat="49.45852" lon="1.17489">
        <ele>145</ele>
        <time>2017-01-24T17:01:48Z</time>
      </trkpt>
      <trkpt lat="49.45852" lon="1.17489">
        <ele>145</ele>
        <time>2017-01-24T17:01:48Z</time>
      </trkpt>
      <trkpt lat="49.45851" lon="1.17488">
        <ele>145</ele>
        <time>2017-01-24T17:01:48Z</time>
      </trkpt>
      <trkpt lat="49.45851" lon="1.17486">
        <ele>145</ele>
        <time>2017-01-24T17:02:04Z</time>
      </trkpt>
      <trkpt lat="49.45847" lon="1.17483">
        <ele>145</ele>
        <time>2017-01-24T17:02:04Z</time>
      </trkpt>
      <trkpt lat="49.45845" lon="1.17478">
        <ele>145</ele>
        <time>2017-01-24T17:02:04Z</time>
      </trkpt>
      <trkpt lat="49.45842" lon="1.1747">
        <ele>145</ele>
        <time>2017-01-24T17:02:04Z</time>
      </trkpt>
      <trkpt lat="49.45837" lon="1.17466">
        <ele>145</ele>
        <time>2017-01-24T17:02:19Z</time>
      </trkpt>
      <trkpt lat="49.45836" lon="1.1746">
        <ele>145</ele>
        <time>2017-01-24T17:02:19Z</time>
      </trkpt>
      <trkpt lat="49.45831" lon="1.17455">
        <ele>151</ele>
        <time>2017-01-24T17:02:19Z</time>
      </trkpt>
      <trkpt lat="49.45827" lon="1.17452">
        <ele>151</ele>
        <time>2017-01-24T17:02:19Z</time>
      </trkpt>
      <trkpt lat="49.45822" lon="1.17445">
        <ele>151</ele>
        <time>2017-01-24T17:02:36Z</time>
      </trkpt>
      <trkpt lat="49.45821" lon="1.17439">
        <ele>151</ele>
        <time>2017-01-24T17:02:36Z</time>
      </trkpt>
      <trkpt lat="49.45816" lon="1.17433">
        <ele>151</ele>
        <time>2017-01-24T17:02:36Z</time>
      </trkpt>
      <trkpt lat="49.45812" lon="1.17428">
        <ele>151</ele>
        <time>2017-01-24T17:02:36Z</time>
      </trkpt>
      <trkpt lat="49.45807" lon="1.17416">
        <ele>151</ele>
        <time>2017-01-24T17:02:55Z</time>
      </trkpt>
      <trkpt lat="49.45803" lon="1.17412">
        <ele>151</ele>
        <time>2017-01-24T17:02:55Z</time>
      </trkpt>
      <trkpt lat="49.45799" lon="1.17407">
        <ele>151</ele>
        <time>2017-01-24T17:02:55Z</time>
      </trkpt>
      <trkpt lat="49.45797" lon="1.17401">
        <ele>151</ele>
        <time>2017-01-24T17:02:55Z</time>
      </trkpt>
      <trkpt lat="49.45793" lon="1.17396">
        <ele>151</ele>
        <time>2017-01-24T17:03:12Z</time>
      </trkpt>
      <trkpt lat="49.45789" lon="1.17392">
        <ele>142</ele>
        <time>2017-01-24T17:03:12Z</time>
      </trkpt>
      <trkpt lat="49.45785" lon="1.17387">
        <ele>142</ele>
        <time>2017-01-24T17:03:12Z</time>
      </trkpt>
      <trkpt lat="49.4578" lon="1.17382">
        <ele>142</ele>
        <time>2017-01-24T17:03:12Z</time>
      </trkpt>
      <trkpt lat="49.45774" lon="1.17371">
        <ele>148</ele>
        <time>2017-01-24T17:03:32Z</time>
      </trkpt>
      <trkpt lat="49.4577" lon="1.17365">
        <ele>148</ele>
        <time>2017-01-24T17:03:32Z</time>
      </trkpt>
      <trkpt lat="49.45767" lon="1.1736">
        <ele>148</ele>
        <time>2017-01-24T17:03:32Z</time>
      </trkpt>
      <trkpt lat="49.45765" lon="1.17355">
        <ele>148</ele>
        <time>2017-01-24T17:03:32Z</time>
      </trkpt>
      <trkpt lat="49.4576" lon="1.1735">
        <ele>148</ele>
        <time>2017-01-24T17:03:47Z</time>
      </trkpt>
      <trkpt lat="49.45755" lon="1.17343">
        <ele>148</ele>
        <time>2017-01-24T17:03:47Z</time>
      </trkpt>
      <trkpt lat="49.45752" lon="1.17339">
        <ele>148</ele>
        <time>2017-01-24T17:03:47Z</time>
      </trkpt>
      <trkpt lat="49.45749" lon="1.17335">
        <ele>148</ele>
        <time>2017-01-24T17:03:47Z</time>
      </trkpt>
      <trkpt lat="49.45747" lon="1.17329">
        <ele>148</ele>
        <time>2017-01-24T17:04:04Z</time>
      </trkpt>
      <trkpt lat="49.45744" lon="1.17325">
        <ele>148</ele>
        <time>2017-01-24T17:04:04Z</time>
      </trkpt>
      <trkpt lat="49.4574" lon="1.17319">
        <ele>148</ele>
        <time>2017-01-24T17:04:04Z</time>
      </trkpt>
      <trkpt lat="49.45736" lon="1.17314">
        <ele>148</ele>
        <time>2017-01-24T17:04:04Z</time>
      </trkpt>
      <trkpt lat="49.45733" lon="1.17309">
        <ele>148</ele>
        <time>2017-01-24T17:04:19Z</time>
      </trkpt>
      <trkpt lat="49.45729" lon="1.17304">
        <ele>148</ele>
        <time>2017-01-24T17:04:19Z</time>
      </trkpt>
      <trkpt lat="49.45726" lon="1.173">
        <ele>148</ele>
        <time>2017-01-24T17:04:19Z</time>
      </trkpt>
      <trkpt lat="49.45721" lon="1.17291">
        <ele>155</ele>
        <time>2017-01-24T17:04:19Z</time>
      </trkpt>
      <trkpt lat="49.45721" lon="1.17289">
        <ele>155</ele>
        <time>2017-01-24T17:04:35Z</time>
      </trkpt>
      <trkpt lat="49.45718" lon="1.17283">
        <ele>155</ele>
        <time>2017-01-24T17:04:35Z</time>
      </trkpt>
      <trkpt lat="49.45717" lon="1.17278">
        <ele>155</ele>
        <time>2017-01-24T17:04:35Z</time>
      </trkpt>
      <trkpt lat="49.45715" lon="1.17275">
        <ele>155</ele>
        <time>2017-01-24T17:04:35Z</time>
      </trkpt>
      <trkpt lat="49.45712" lon="1.1727">
        <ele>155</ele>
        <time>2017-01-24T17:04:51Z</time>
      </trkpt>
      <trkpt lat="49.45709" lon="1.17266">
        <ele>155</ele>
        <time>2017-01-24T17:04:51Z</time>
      </trkpt>
      <trkpt lat="49.45706" lon="1.17263">
        <ele>146</ele>
        <time>2017-01-24T17:04:51Z</time>
      </trkpt>
      <trkpt lat="49.45704" lon="1.17261">
        <ele>146</ele>
        <time>2017-01-24T17:04:51Z</time>
      </trkpt>
      <trkpt lat="49.45702" lon="1.17258">
        <ele>146</ele>
        <time>2017-01-24T17:05:08Z</time>
      </trkpt>
      <trkpt lat="49.45699" lon="1.17253">
        <ele>146</ele>
        <time>2017-01-24T17:05:08Z</time>
      </trkpt>
      <trkpt lat="49.45694" lon="1.17248">
        <ele>146</ele>
        <time>2017-01-24T17:05:08Z</time>
      </trkpt>
      <trkpt lat="49.45691" lon="1.17245">
        <ele>146</ele>
        <time>2017-01-24T17:05:08Z</time>
      </trkpt>
      <trkpt lat="49.45689" lon="1.1724">
        <ele>146</ele>
        <time>2017-01-24T17:05:23Z</time>
      </trkpt>
      <trkpt lat="49.45686" lon="1.17237">
        <ele>146</ele>
        <time>2017-01-24T17:05:23Z</time>
      </trkpt>
      <trkpt lat="49.45683" lon="1.17231">
        <ele>146</ele>
        <time>2017-01-24T17:05:23Z</time>
      </trkpt>
      <trkpt lat="49.4568" lon="1.17226">
        <ele>146</ele>
        <time>2017-01-24T17:05:23Z</time>
      </trkpt>
      <trkpt lat="49.45668" lon="1.17208">
        <ele>151</ele>
        <time>2017-01-24T17:05:47Z</time>
      </trkpt>
      <trkpt lat="49.45665" lon="1.17204">
        <ele>151</ele>
        <time>2017-01-24T17:05:47Z</time>
      </trkpt>
      <trkpt lat="49.45663" lon="1.17201">
        <ele>151</ele>
        <time>2017-01-24T17:05:47Z</time>
      </trkpt>
      <trkpt lat="49.45659" lon="1.17197">
        <ele>151</ele>
        <time>2017-01-24T17:05:47Z</time>
      </trkpt>
      <trkpt lat="49.45654" lon="1.17191">
        <ele>151</ele>
        <time>2017-01-24T17:06:03Z</time>
      </trkpt>
      <trkpt lat="49.45651" lon="1.17185">
        <ele>151</ele>
        <time>2017-01-24T17:06:03Z</time>
      </trkpt>
      <trkpt lat="49.45649" lon="1.17181">
        <ele>151</ele>
        <time>2017-01-24T17:06:04Z</time>
      </trkpt>
      <trkpt lat="49.45646" lon="1.17174">
        <ele>151</ele>
        <time>2017-01-24T17:06:04Z</time>
      </trkpt>
      <trkpt lat="49.45641" lon="1.17169">
        <ele>151</ele>
        <time>2017-01-24T17:06:21Z</time>
      </trkpt>
      <trkpt lat="49.45637" lon="1.17165">
        <ele>151</ele>
        <time>2017-01-24T17:06:21Z</time>
      </trkpt>
      <trkpt lat="49.45633" lon="1.17162">
        <ele>151</ele>
        <time>2017-01-24T17:06:21Z</time>
      </trkpt>
      <trkpt lat="49.4563" lon="1.17156">
        <ele>151</ele>
        <time>2017-01-24T17:06:21Z</time>
      </trkpt>
      <trkpt lat="49.45628" lon="1.17152">
        <ele>151</ele>
        <time>2017-01-24T17:06:37Z</time>
      </trkpt>
      <trkpt lat="49.45624" lon="1.17144">
        <ele>137</ele>
        <time>2017-01-24T17:06:37Z</time>
      </trkpt>
      <trkpt lat="49.45621" lon="1.17142">
        <ele>137</ele>
        <time>2017-01-24T17:06:37Z</time>
      </trkpt>
      <trkpt lat="49.45617" lon="1.17134">
        <ele>137</ele>
        <time>2017-01-24T17:06:37Z</time>
      </trkpt>
      <trkpt lat="49.45616" lon="1.1713">
        <ele>137</ele>
        <time>2017-01-24T17:06:51Z</time>
      </trkpt>
      <trkpt lat="49.45613" lon="1.17126">
        <ele>137</ele>
        <time>2017-01-24T17:06:51Z</time>
      </trkpt>
      <trkpt lat="49.45613" lon="1.17126">
        <ele>137</ele>
        <time>2017-01-24T17:06:51Z</time>
      </trkpt>
      <trkpt lat="49.45609" lon="1.17119">
        <ele>145</ele>
        <time>2017-01-24T17:06:51Z</time>
      </trkpt>
      <trkpt lat="49.45606" lon="1.17115">
        <ele>145</ele>
        <time>2017-01-24T17:07:07Z</time>
      </trkpt>
      <trkpt lat="49.45602" lon="1.17109">
        <ele>145</ele>
        <time>2017-01-24T17:07:07Z</time>
      </trkpt>
      <trkpt lat="49.45598" lon="1.17104">
        <ele>145</ele>
        <time>2017-01-24T17:07:07Z</time>
      </trkpt>
      <trkpt lat="49.45594" lon="1.17099">
        <ele>145</ele>
        <time>2017-01-24T17:07:07Z</time>
      </trkpt>
      <trkpt lat="49.4559" lon="1.17096">
        <ele>145</ele>
        <time>2017-01-24T17:07:23Z</time>
      </trkpt>
      <trkpt lat="49.45589" lon="1.17093">
        <ele>145</ele>
        <time>2017-01-24T17:07:23Z</time>
      </trkpt>
      <trkpt lat="49.45585" lon="1.17088">
        <ele>145</ele>
        <time>2017-01-24T17:07:23Z</time>
      </trkpt>
      <trkpt lat="49.45583" lon="1.17082">
        <ele>145</ele>
        <time>2017-01-24T17:07:24Z</time>
      </trkpt>
      <trkpt lat="49.45578" lon="1.17075">
        <ele>145</ele>
        <time>2017-01-24T17:07:39Z</time>
      </trkpt>
      <trkpt lat="49.45573" lon="1.17071">
        <ele>145</ele>
        <time>2017-01-24T17:07:39Z</time>
      </trkpt>
      <trkpt lat="49.4557" lon="1.17066">
        <ele>145</ele>
        <time>2017-01-24T17:07:39Z</time>
      </trkpt>
      <trkpt lat="49.45566" lon="1.17061">
        <ele>145</ele>
        <time>2017-01-24T17:07:39Z</time>
      </trkpt>
      <trkpt lat="49.45563" lon="1.17057">
        <ele>145</ele>
        <time>2017-01-24T17:07:55Z</time>
      </trkpt>
      <trkpt lat="49.45559" lon="1.17052">
        <ele>145</ele>
        <time>2017-01-24T17:07:55Z</time>
      </trkpt>
      <trkpt lat="49.45556" lon="1.17047">
        <ele>145</ele>
        <time>2017-01-24T17:07:55Z</time>
      </trkpt>
      <trkpt lat="49.45555" lon="1.17043">
        <ele>145</ele>
        <time>2017-01-24T17:07:55Z</time>
      </trkpt>
      <trkpt lat="49.45551" lon="1.17036">
        <ele>147</ele>
        <time>2017-01-24T17:08:12Z</time>
      </trkpt>
      <trkpt lat="49.45546" lon="1.17027">
        <ele>147</ele>
        <time>2017-01-24T17:08:12Z</time>
      </trkpt>
      <trkpt lat="49.45542" lon="1.17023">
        <ele>147</ele>
        <time>2017-01-24T17:08:12Z</time>
      </trkpt>
      <trkpt lat="49.45538" lon="1.17019">
        <ele>140</ele>
        <time>2017-01-24T17:08:12Z</time>
      </trkpt>
      <trkpt lat="49.45534" lon="1.17013">
        <ele>140</ele>
        <time>2017-01-24T17:08:28Z</time>
      </trkpt>
      <trkpt lat="49.45531" lon="1.17008">
        <ele>140</ele>
        <time>2017-01-24T17:08:28Z</time>
      </trkpt>
      <trkpt lat="49.45527" lon="1.17005">
        <ele>140</ele>
        <time>2017-01-24T17:08:28Z</time>
      </trkpt>
      <trkpt lat="49.45524" lon="1.16999">
        <ele>140</ele>
        <time>2017-01-24T17:08:28Z</time>
      </trkpt>
      <trkpt lat="49.45521" lon="1.16994">
        <ele>140</ele>
        <time>2017-01-24T17:08:43Z</time>
      </trkpt>
      <trkpt lat="49.45519" lon="1.1699">
        <ele>140</ele>
        <time>2017-01-24T17:08:43Z</time>
      </trkpt>
      <trkpt lat="49.45517" lon="1.16986">
        <ele>140</ele>
        <time>2017-01-24T17:08:43Z</time>
      </trkpt>
      <trkpt lat="49.45512" lon="1.1698">
        <ele>140</ele>
        <time>2017-01-24T17:08:43Z</time>
      </trkpt>
      <trkpt lat="49.4551" lon="1.16975">
        <ele>140</ele>
        <time>2017-01-24T17:09:00Z</time>
      </trkpt>
      <trkpt lat="49.45506" lon="1.16969">
        <ele>140</ele>
        <time>2017-01-24T17:09:00Z</time>
      </trkpt>
      <trkpt lat="49.45503" lon="1.16965">
        <ele>140</ele>
        <time>2017-01-24T17:09:00Z</time>
      </trkpt>
      <trkpt lat="49.45498" lon="1.16959">
        <ele>140</ele>
        <time>2017-01-24T17:09:00Z</time>
      </trkpt>
      <trkpt lat="49.45494" lon="1.16954">
        <ele>141</ele>
        <time>2017-01-24T17:09:15Z</time>
      </trkpt>
      <trkpt lat="49.45491" lon="1.16948">
        <ele>141</ele>
        <time>2017-01-24T17:09:15Z</time>
      </trkpt>
      <trkpt lat="49.45488" lon="1.16945">
        <ele>141</ele>
        <time>2017-01-24T17:09:15Z</time>
      </trkpt>
      <trkpt lat="49.45482" lon="1.16936">
        <ele>141</ele>
        <time>2017-01-24T17:09:15Z</time>
      </trkpt>
      <trkpt lat="49.45481" lon="1.16934">
        <ele>141</ele>
        <time>2017-01-24T17:09:32Z</time>
      </trkpt>
      <trkpt lat="49.45477" lon="1.16929">
        <ele>141</ele>
        <time>2017-01-24T17:09:32Z</time>
      </trkpt>
      <trkpt lat="49.45473" lon="1.16924">
        <ele>141</ele>
        <time>2017-01-24T17:09:32Z</time>
      </trkpt>
      <trkpt lat="49.4547" lon="1.16921">
        <ele>141</ele>
        <time>2017-01-24T17:09:32Z</time>
      </trkpt>
      <trkpt lat="49.45468" lon="1.16917">
        <ele>141</ele>
        <time>2017-01-24T17:09:47Z</time>
      </trkpt>
      <trkpt lat="49.45464" lon="1.16911">
        <ele>141</ele>
        <time>2017-01-24T17:09:47Z</time>
      </trkpt>
      <trkpt lat="49.45461" lon="1.16906">
        <ele>141</ele>
        <time>2017-01-24T17:09:47Z</time>
      </trkpt>
      <trkpt lat="49.45457" lon="1.16899">
        <ele>135</ele>
        <time>2017-01-24T17:09:47Z</time>
      </trkpt>
      <trkpt lat="49.45453" lon="1.16895">
        <ele>135</ele>
        <time>2017-01-24T17:10:04Z</time>
      </trkpt>
      <trkpt lat="49.4545" lon="1.1689">
        <ele>135</ele>
        <time>2017-01-24T17:10:04Z</time>
      </trkpt>
      <trkpt lat="49.45447" lon="1.16886">
        <ele>135</ele>
        <time>2017-01-24T17:10:04Z</time>
      </trkpt>
      <trkpt lat="49.45445" lon="1.16883">
        <ele>135</ele>
        <time>2017-01-24T17:10:04Z</time>
      </trkpt>
      <trkpt lat="49.45442" lon="1.1688">
        <ele>135</ele>
        <time>2017-01-24T17:10:19Z</time>
      </trkpt>
      <trkpt lat="49.45439" lon="1.16874">
        <ele>137</ele>
        <time>2017-01-24T17:10:19Z</time>
      </trkpt>
      <trkpt lat="49.45437" lon="1.16867">
        <ele>137</ele>
        <time>2017-01-24T17:10:19Z</time>
      </trkpt>
      <trkpt lat="49.45436" lon="1.16865">
        <ele>137</ele>
        <time>2017-01-24T17:10:19Z</time>
      </trkpt>
      <trkpt lat="49.45433" lon="1.1686">
        <ele>137</ele>
        <time>2017-01-24T17:10:47Z</time>
      </trkpt>
      <trkpt lat="49.45431" lon="1.16861">
        <ele>137</ele>
        <time>2017-01-24T17:10:47Z</time>
      </trkpt>
      <trkpt lat="49.45429" lon="1.16856">
        <ele>137</ele>
        <time>2017-01-24T17:10:47Z</time>
      </trkpt>
      <trkpt lat="49.45424" lon="1.16852">
        <ele>137</ele>
        <time>2017-01-24T17:10:47Z</time>
      </trkpt>
      <trkpt lat="49.45421" lon="1.16849">
        <ele>137</ele>
        <time>2017-01-24T17:10:47Z</time>
      </trkpt>
      <trkpt lat="49.45417" lon="1.16843">
        <ele>137</ele>
        <time>2017-01-24T17:11:05Z</time>
      </trkpt>
      <trkpt lat="49.45415" lon="1.1684">
        <ele>137</ele>
        <time>2017-01-24T17:11:05Z</time>
      </trkpt>
      <trkpt lat="49.4541" lon="1.16833">
        <ele>137</ele>
        <time>2017-01-24T17:11:05Z</time>
      </trkpt>
      <trkpt lat="49.45407" lon="1.16825">
        <ele>137</ele>
        <time>2017-01-24T17:11:05Z</time>
      </trkpt>
      <trkpt lat="49.45403" lon="1.1682">
        <ele>137</ele>
        <time>2017-01-24T17:11:19Z</time>
      </trkpt>
      <trkpt lat="49.45399" lon="1.16813">
        <ele>137</ele>
        <time>2017-01-24T17:11:19Z</time>
      </trkpt>
      <trkpt lat="49.45396" lon="1.16808">
        <ele>137</ele>
        <time>2017-01-24T17:11:19Z</time>
      </trkpt>
      <trkpt lat="49.45393" lon="1.16804">
        <ele>137</ele>
        <time>2017-01-24T17:11:19Z</time>
      </trkpt>
      <trkpt lat="49.45385" lon="1.16793">
        <ele>137</ele>
        <time>2017-01-24T17:11:40Z</time>
      </trkpt>
      <trkpt lat="49.45382" lon="1.16787">
        <ele>138</ele>
        <time>2017-01-24T17:11:40Z</time>
      </trkpt>
      <trkpt lat="49.45379" lon="1.16782">
        <ele>138</ele>
        <time>2017-01-24T17:11:40Z</time>
      </trkpt>
      <trkpt lat="49.45376" lon="1.16778">
        <ele>138</ele>
        <time>2017-01-24T17:11:40Z</time>
      </trkpt>
      <trkpt lat="49.45373" lon="1.16774">
        <ele>135</ele>
        <time>2017-01-24T17:11:55Z</time>
      </trkpt>
      <trkpt lat="49.4537" lon="1.16768">
        <ele>135</ele>
        <time>2017-01-24T17:11:55Z</time>
      </trkpt>
      <trkpt lat="49.45366" lon="1.16761">
        <ele>135</ele>
        <time>2017-01-24T17:11:55Z</time>
      </trkpt>
      <trkpt lat="49.45364" lon="1.16756">
        <ele>135</ele>
        <time>2017-01-24T17:11:55Z</time>
      </trkpt>
      <trkpt lat="49.45359" lon="1.1675">
        <ele>135</ele>
        <time>2017-01-24T17:12:12Z</time>
      </trkpt>
      <trkpt lat="49.45357" lon="1.16746">
        <ele>135</ele>
        <time>2017-01-24T17:12:12Z</time>
      </trkpt>
      <trkpt lat="49.45353" lon="1.16739">
        <ele>135</ele>
        <time>2017-01-24T17:12:12Z</time>
      </trkpt>
      <trkpt lat="49.45349" lon="1.16735">
        <ele>135</ele>
        <time>2017-01-24T17:12:12Z</time>
      </trkpt>
      <trkpt lat="49.45348" lon="1.16731">
        <ele>135</ele>
        <time>2017-01-24T17:12:27Z</time>
      </trkpt>
      <trkpt lat="49.45344" lon="1.16726">
        <ele>135</ele>
        <time>2017-01-24T17:12:27Z</time>
      </trkpt>
      <trkpt lat="49.4534" lon="1.16721">
        <ele>135</ele>
        <time>2017-01-24T17:12:27Z</time>
      </trkpt>
      <trkpt lat="49.45335" lon="1.16712">
        <ele>135</ele>
        <time>2017-01-24T17:12:27Z</time>
      </trkpt>
      <trkpt lat="49.45333" lon="1.16709">
        <ele>135</ele>
        <time>2017-01-24T17:12:43Z</time>
      </trkpt>
      <trkpt lat="49.45331" lon="1.16707">
        <ele>137</ele>
        <time>2017-01-24T17:12:43Z</time>
      </trkpt>
      <trkpt lat="49.45326" lon="1.16699">
        <ele>137</ele>
        <time>2017-01-24T17:12:43Z</time>
      </trkpt>
      <trkpt lat="49.45324" lon="1.16696">
        <ele>137</ele>
        <time>2017-01-24T17:12:43Z</time>
      </trkpt>
      <trkpt lat="49.4532" lon="1.16691">
        <ele>137</ele>
        <time>2017-01-24T17:12:59Z</time>
      </trkpt>
      <trkpt lat="49.45317" lon="1.16687">
        <ele>137</ele>
        <time>2017-01-24T17:12:59Z</time>
      </trkpt>
      <trkpt lat="49.45314" lon="1.16682">
        <ele>137</ele>
        <time>2017-01-24T17:12:59Z</time>
      </trkpt>
      <trkpt lat="49.45311" lon="1.16677">
        <ele>137</ele>
        <time>2017-01-24T17:12:59Z</time>
      </trkpt>
      <trkpt lat="49.45307" lon="1.16672">
        <ele>137</ele>
        <time>2017-01-24T17:13:16Z</time>
      </trkpt>
      <trkpt lat="49.45305" lon="1.16666">
        <ele>137</ele>
        <time>2017-01-24T17:13:16Z</time>
      </trkpt>
      <trkpt lat="49.45302" lon="1.16661">
        <ele>137</ele>
        <time>2017-01-24T17:13:16Z</time>
      </trkpt>
      <trkpt lat="49.45298" lon="1.16655">
        <ele>137</ele>
        <time>2017-01-24T17:13:16Z</time>
      </trkpt>
      <trkpt lat="49.4529" lon="1.16643">
        <ele>133</ele>
        <time>2017-01-24T17:13:36Z</time>
      </trkpt>
      <trkpt lat="49.45289" lon="1.16641">
        <ele>133</ele>
        <time>2017-01-24T17:13:36Z</time>
      </trkpt>
      <trkpt lat="49.45283" lon="1.16634">
        <ele>133</ele>
        <time>2017-01-24T17:13:36Z</time>
      </trkpt>
      <trkpt lat="49.4528" lon="1.16629">
        <ele>133</ele>
        <time>2017-01-24T17:13:36Z</time>
      </trkpt>
      <trkpt lat="49.45276" lon="1.16624">
        <ele>133</ele>
        <time>2017-01-24T17:13:51Z</time>
      </trkpt>
      <trkpt lat="49.45271" lon="1.16617">
        <ele>133</ele>
        <time>2017-01-24T17:13:51Z</time>
      </trkpt>
      <trkpt lat="49.45268" lon="1.16612">
        <ele>133</ele>
        <time>2017-01-24T17:13:51Z</time>
      </trkpt>
      <trkpt lat="49.45264" lon="1.16609">
        <ele>133</ele>
        <time>2017-01-24T17:13:51Z</time>
      </trkpt>
      <trkpt lat="49.45261" lon="1.16602">
        <ele>133</ele>
        <time>2017-01-24T17:14:07Z</time>
      </trkpt>
      <trkpt lat="49.4526" lon="1.166">
        <ele>133</ele>
        <time>2017-01-24T17:14:07Z</time>
      </trkpt>
      <trkpt lat="49.45256" lon="1.16593">
        <ele>133</ele>
        <time>2017-01-24T17:14:07Z</time>
      </trkpt>
      <trkpt lat="49.45253" lon="1.1659">
        <ele>133</ele>
        <time>2017-01-24T17:14:07Z</time>
      </trkpt>
      <trkpt lat="49.45249" lon="1.16582">
        <ele>133</ele>
        <time>2017-01-24T17:14:23Z</time>
      </trkpt>
      <trkpt lat="49.45247" lon="1.1658">
        <ele>133</ele>
        <time>2017-01-24T17:14:23Z</time>
      </trkpt>
      <trkpt lat="49.45243" lon="1.16575">
        <ele>133</ele>
        <time>2017-01-24T17:14:23Z</time>
      </trkpt>
      <trkpt lat="49.45237" lon="1.16569">
        <ele>133</ele>
        <time>2017-01-24T17:14:23Z</time>
      </trkpt>
      <trkpt lat="49.45237" lon="1.16565">
        <ele>133</ele>
        <time>2017-01-24T17:14:40Z</time>
      </trkpt>
      <trkpt lat="49.45235" lon="1.16561">
        <ele>133</ele>
        <time>2017-01-24T17:14:40Z</time>
      </trkpt>
      <trkpt lat="49.4523" lon="1.16555">
        <ele>133</ele>
        <time>2017-01-24T17:14:40Z</time>
      </trkpt>
      <trkpt lat="49.45227" lon="1.16549">
        <ele>133</ele>
        <time>2017-01-24T17:14:40Z</time>
      </trkpt>
      <trkpt lat="49.45224" lon="1.16546">
        <ele>133</ele>
        <time>2017-01-24T17:14:55Z</time>
      </trkpt>
      <trkpt lat="49.45221" lon="1.16541">
        <ele>128</ele>
        <time>2017-01-24T17:14:55Z</time>
      </trkpt>
      <trkpt lat="49.45218" lon="1.16536">
        <ele>128</ele>
        <time>2017-01-24T17:14:55Z</time>
      </trkpt>
      <trkpt lat="49.45215" lon="1.16531">
        <ele>128</ele>
        <time>2017-01-24T17:14:55Z</time>
      </trkpt>
      <trkpt lat="49.45214" lon="1.16527">
        <ele>128</ele>
        <time>2017-01-24T17:15:11Z</time>
      </trkpt>
      <trkpt lat="49.45207" lon="1.16519">
        <ele>128</ele>
        <time>2017-01-24T17:15:11Z</time>
      </trkpt>
      <trkpt lat="49.45202" lon="1.16512">
        <ele>128</ele>
        <time>2017-01-24T17:15:11Z</time>
      </trkpt>
      <trkpt lat="49.45199" lon="1.16506">
        <ele>128</ele>
        <time>2017-01-24T17:15:11Z</time>
      </trkpt>
      <trkpt lat="49.45198" lon="1.1648">
        <ele>128</ele>
        <time>2017-01-24T17:16:07Z</time>
      </trkpt>
      <trkpt lat="49.45198" lon="1.16479">
        <ele>128</ele>
        <time>2017-01-24T17:16:07Z</time>
      </trkpt>
      <trkpt lat="49.45195" lon="1.16475">
        <ele>128</ele>
        <time>2017-01-24T17:16:07Z</time>
      </trkpt>
      <trkpt lat="49.45193" lon="1.16469">
        <ele>128</ele>
        <time>2017-01-24T17:16:07Z</time>
      </trkpt>
      <trkpt lat="49.45189" lon="1.16465">
        <ele>128</ele>
        <time>2017-01-24T17:16:07Z</time>
      </trkpt>
      <trkpt lat="49.45188" lon="1.16458">
        <ele>120</ele>
        <time>2017-01-24T17:16:24Z</time>
      </trkpt>
      <trkpt lat="49.45187" lon="1.16454">
        <ele>120</ele>
        <time>2017-01-24T17:16:24Z</time>
      </trkpt>
      <trkpt lat="49.45185" lon="1.1645">
        <ele>120</ele>
        <time>2017-01-24T17:16:24Z</time>
      </trkpt>
      <trkpt lat="49.45182" lon="1.16446">
        <ele>120</ele>
        <time>2017-01-24T17:16:24Z</time>
      </trkpt>
      <trkpt lat="49.45181" lon="1.16444">
        <ele>120</ele>
        <time>2017-01-24T17:16:39Z</time>
      </trkpt>
      <trkpt lat="49.45178" lon="1.16438">
        <ele>120</ele>
        <time>2017-01-24T17:16:39Z</time>
      </trkpt>
      <trkpt lat="49.45177" lon="1.16436">
        <ele>120</ele>
        <time>2017-01-24T17:16:39Z</time>
      </trkpt>
      <trkpt lat="49.45175" lon="1.16432">
        <ele>120</ele>
        <time>2017-01-24T17:16:39Z</time>
      </trkpt>
      <trkpt lat="49.45173" lon="1.16429">
        <ele>120</ele>
        <time>2017-01-24T17:17:00Z</time>
      </trkpt>
      <trkpt lat="49.45172" lon="1.16427">
        <ele>120</ele>
        <time>2017-01-24T17:17:00Z</time>
      </trkpt>
      <trkpt lat="49.4517" lon="1.16423">
        <ele>120</ele>
        <time>2017-01-24T17:17:00Z</time>
      </trkpt>
      <trkpt lat="49.45167" lon="1.16421">
        <ele>120</ele>
        <time>2017-01-24T17:17:00Z</time>
      </trkpt>
      <trkpt lat="49.45165" lon="1.16419">
        <ele>120</ele>
        <time>2017-01-24T17:17:00Z</time>
      </trkpt>
      <trkpt lat="49.45162" lon="1.16408">
        <ele>120</ele>
        <time>2017-01-24T17:17:20Z</time>
      </trkpt>
      <trkpt lat="49.4516" lon="1.16406">
        <ele>120</ele>
        <time>2017-01-24T17:17:20Z</time>
      </trkpt>
      <trkpt lat="49.45158" lon="1.164">
        <ele>120</ele>
        <time>2017-01-24T17:17:20Z</time>
      </trkpt>
      <trkpt lat="49.45156" lon="1.16399">
        <ele>120</ele>
        <time>2017-01-24T17:17:20Z</time>
      </trkpt>
      <trkpt lat="49.45153" lon="1.16394">
        <ele>120</ele>
        <time>2017-01-24T17:17:20Z</time>
      </trkpt>
      <trkpt lat="49.45152" lon="1.16391">
        <ele>120</ele>
        <time>2017-01-24T17:17:35Z</time>
      </trkpt>
      <trkpt lat="49.45149" lon="1.16384">
        <ele>120</ele>
        <time>2017-01-24T17:17:37Z</time>
      </trkpt>
      <trkpt lat="49.45143" lon="1.16376">
        <ele>120</ele>
        <time>2017-01-24T17:17:37Z</time>
      </trkpt>
      <trkpt lat="49.45141" lon="1.16372">
        <ele>108</ele>
        <time>2017-01-24T17:17:37Z</time>
      </trkpt>
      <trkpt lat="49.45138" lon="1.16368">
        <ele>108</ele>
        <time>2017-01-24T17:17:55Z</time>
      </trkpt>
      <trkpt lat="49.45136" lon="1.16363">
        <ele>108</ele>
        <time>2017-01-24T17:17:55Z</time>
      </trkpt>
      <trkpt lat="49.45134" lon="1.16357">
        <ele>108</ele>
        <time>2017-01-24T17:17:55Z</time>
      </trkpt>
      <trkpt lat="49.45131" lon="1.16351">
        <ele>108</ele>
        <time>2017-01-24T17:17:57Z</time>
      </trkpt>
      <trkpt lat="49.45124" lon="1.16341">
        <ele>110</ele>
        <time>2017-01-24T17:18:15Z</time>
      </trkpt>
      <trkpt lat="49.45122" lon="1.16338">
        <ele>110</ele>
        <time>2017-01-24T17:18:15Z</time>
      </trkpt>
      <trkpt lat="49.45119" lon="1.16335">
        <ele>110</ele>
        <time>2017-01-24T17:18:15Z</time>
      </trkpt>
      <trkpt lat="49.45117" lon="1.16329">
        <ele>110</ele>
        <time>2017-01-24T17:18:15Z</time>
      </trkpt>
      <trkpt lat="49.45115" lon="1.16327">
        <ele>110</ele>
        <time>2017-01-24T17:18:31Z</time>
      </trkpt>
      <trkpt lat="49.45112" lon="1.16322">
        <ele>110</ele>
        <time>2017-01-24T17:18:31Z</time>
      </trkpt>
      <trkpt lat="49.45108" lon="1.16314">
        <ele>110</ele>
        <time>2017-01-24T17:18:31Z</time>
      </trkpt>
      <trkpt lat="49.45106" lon="1.16305">
        <ele>110</ele>
        <time>2017-01-24T17:18:31Z</time>
      </trkpt>
      <trkpt lat="49.45102" lon="1.16302">
        <ele>110</ele>
        <time>2017-01-24T17:18:48Z</time>
      </trkpt>
      <trkpt lat="49.451" lon="1.16294">
        <ele>110</ele>
        <time>2017-01-24T17:18:48Z</time>
      </trkpt>
      <trkpt lat="49.45098" lon="1.16291">
        <ele>93</ele>
        <time>2017-01-24T17:18:48Z</time>
      </trkpt>
      <trkpt lat="49.45095" lon="1.16285">
        <ele>93</ele>
        <time>2017-01-24T17:18:48Z</time>
      </trkpt>
      <trkpt lat="49.45094" lon="1.16281">
        <ele>93</ele>
        <time>2017-01-24T17:19:03Z</time>
      </trkpt>
      <trkpt lat="49.45091" lon="1.16273">
        <ele>93</ele>
        <time>2017-01-24T17:19:03Z</time>
      </trkpt>
      <trkpt lat="49.4509" lon="1.1627">
        <ele>93</ele>
        <time>2017-01-24T17:19:03Z</time>
      </trkpt>
      <trkpt lat="49.45087" lon="1.16265">
        <ele>93</ele>
        <time>2017-01-24T17:19:03Z</time>
      </trkpt>
      <trkpt lat="49.45087" lon="1.16262">
        <ele>93</ele>
        <time>2017-01-24T17:19:20Z</time>
      </trkpt>
      <trkpt lat="49.45082" lon="1.16257">
        <ele>93</ele>
        <time>2017-01-24T17:19:20Z</time>
      </trkpt>
      <trkpt lat="49.4508" lon="1.16253">
        <ele>93</ele>
        <time>2017-01-24T17:19:20Z</time>
      </trkpt>
      <trkpt lat="49.45078" lon="1.16248">
        <ele>93</ele>
        <time>2017-01-24T17:19:20Z</time>
      </trkpt>
      <trkpt lat="49.45076" lon="1.16242">
        <ele>93</ele>
        <time>2017-01-24T17:19:40Z</time>
      </trkpt>
      <trkpt lat="49.45071" lon="1.16234">
        <ele>93</ele>
        <time>2017-01-24T17:19:40Z</time>
      </trkpt>
      <trkpt lat="49.45067" lon="1.16228">
        <ele>93</ele>
        <time>2017-01-24T17:19:40Z</time>
      </trkpt>
      <trkpt lat="49.45064" lon="1.16221">
        <ele>93</ele>
        <time>2017-01-24T17:19:40Z</time>
      </trkpt>
      <trkpt lat="49.45059" lon="1.16211">
        <ele>93</ele>
        <time>2017-01-24T17:20:00Z</time>
      </trkpt>
      <trkpt lat="49.45057" lon="1.16205">
        <ele>73</ele>
        <time>2017-01-24T17:20:00Z</time>
      </trkpt>
      <trkpt lat="49.45055" lon="1.16202">
        <ele>73</ele>
        <time>2017-01-24T17:20:00Z</time>
      </trkpt>
      <trkpt lat="49.45053" lon="1.16197">
        <ele>73</ele>
        <time>2017-01-24T17:20:00Z</time>
      </trkpt>
      <trkpt lat="49.45052" lon="1.16196">
        <ele>73</ele>
        <time>2017-01-24T17:20:16Z</time>
      </trkpt>
      <trkpt lat="49.4505" lon="1.16189">
        <ele>73</ele>
        <time>2017-01-24T17:20:16Z</time>
      </trkpt>
      <trkpt lat="49.45048" lon="1.16183">
        <ele>73</ele>
        <time>2017-01-24T17:20:16Z</time>
      </trkpt>
      <trkpt lat="49.45047" lon="1.16179">
        <ele>73</ele>
        <time>2017-01-24T17:20:16Z</time>
      </trkpt>
      <trkpt lat="49.45044" lon="1.16172">
        <ele>73</ele>
        <time>2017-01-24T17:20:31Z</time>
      </trkpt>
      <trkpt lat="49.45039" lon="1.1617">
        <ele>92</ele>
        <time>2017-01-24T17:20:31Z</time>
      </trkpt>
      <trkpt lat="49.45034" lon="1.16167">
        <ele>92</ele>
        <time>2017-01-24T17:20:31Z</time>
      </trkpt>
      <trkpt lat="49.45033" lon="1.16162">
        <ele>92</ele>
        <time>2017-01-24T17:20:31Z</time>
      </trkpt>
      <trkpt lat="49.4503" lon="1.16157">
        <ele>92</ele>
        <time>2017-01-24T17:20:47Z</time>
      </trkpt>
      <trkpt lat="49.45027" lon="1.16154">
        <ele>92</ele>
        <time>2017-01-24T17:20:47Z</time>
      </trkpt>
      <trkpt lat="49.45023" lon="1.16148">
        <ele>92</ele>
        <time>2017-01-24T17:20:47Z</time>
      </trkpt>
      <trkpt lat="49.45022" lon="1.16145">
        <ele>92</ele>
        <time>2017-01-24T17:20:47Z</time>
      </trkpt>
      <trkpt lat="49.4501" lon="1.16124">
        <ele>77</ele>
        <time>2017-01-24T17:22:03Z</time>
      </trkpt>
      <trkpt lat="49.45006" lon="1.16118">
        <ele>77</ele>
        <time>2017-01-24T17:22:03Z</time>
      </trkpt>
      <trkpt lat="49.45004" lon="1.16115">
        <ele>77</ele>
        <time>2017-01-24T17:22:03Z</time>
      </trkpt>
      <trkpt lat="49.45003" lon="1.16112">
        <ele>77</ele>
        <time>2017-01-24T17:22:03Z</time>
      </trkpt>
      <trkpt lat="49.45003" lon="1.16111">
        <ele>77</ele>
        <time>2017-01-24T17:22:03Z</time>
      </trkpt>
      <trkpt lat="49.45003" lon="1.16109">
        <ele>77</ele>
        <time>2017-01-24T17:22:23Z</time>
      </trkpt>
      <trkpt lat="49.45001" lon="1.16106">
        <ele>77</ele>
        <time>2017-01-24T17:22:23Z</time>
      </trkpt>
      <trkpt lat="49.45" lon="1.16107">
        <ele>77</ele>
        <time>2017-01-24T17:22:23Z</time>
      </trkpt>
      <trkpt lat="49.44998" lon="1.16103">
        <ele>77</ele>
        <time>2017-01-24T17:22:23Z</time>
      </trkpt>
      <trkpt lat="49.44995" lon="1.16097">
        <ele>77</ele>
        <time>2017-01-24T17:22:23Z</time>
      </trkpt>
      <trkpt lat="49.44991" lon="1.1609">
        <ele>77</ele>
        <time>2017-01-24T17:22:40Z</time>
      </trkpt>
      <trkpt lat="49.44988" lon="1.16084">
        <ele>77</ele>
        <time>2017-01-24T17:22:40Z</time>
      </trkpt>
      <trkpt lat="49.44985" lon="1.16077">
        <ele>77</ele>
        <time>2017-01-24T17:22:40Z</time>
      </trkpt>
      <trkpt lat="49.44984" lon="1.16074">
        <ele>77</ele>
        <time>2017-01-24T17:22:40Z</time>
      </trkpt>
      <trkpt lat="49.44982" lon="1.16073">
        <ele>77</ele>
        <time>2017-01-24T17:22:55Z</time>
      </trkpt>
      <trkpt lat="49.44977" lon="1.16064">
        <ele>77</ele>
        <time>2017-01-24T17:22:55Z</time>
      </trkpt>
      <trkpt lat="49.44973" lon="1.16054">
        <ele>77</ele>
        <time>2017-01-24T17:22:55Z</time>
      </trkpt>
      <trkpt lat="49.44972" lon="1.16047">
        <ele>77</ele>
        <time>2017-01-24T17:22:55Z</time>
      </trkpt>
      <trkpt lat="49.4497" lon="1.16039">
        <ele>59</ele>
        <time>2017-01-24T17:23:11Z</time>
      </trkpt>
      <trkpt lat="49.44967" lon="1.1603">
        <ele>59</ele>
        <time>2017-01-24T17:23:11Z</time>
      </trkpt>
      <trkpt lat="49.44965" lon="1.16023">
        <ele>59</ele>
        <time>2017-01-24T17:23:11Z</time>
      </trkpt>
      <trkpt lat="49.44963" lon="1.16019">
        <ele>59</ele>
        <time>2017-01-24T17:23:11Z</time>
      </trkpt>
      <trkpt lat="49.44961" lon="1.16012">
        <ele>59</ele>
        <time>2017-01-24T17:23:27Z</time>
      </trkpt>
      <trkpt lat="49.4496" lon="1.16009">
        <ele>59</ele>
        <time>2017-01-24T17:23:27Z</time>
      </trkpt>
      <trkpt lat="49.44957" lon="1.16002">
        <ele>76</ele>
        <time>2017-01-24T17:23:27Z</time>
      </trkpt>
      <trkpt lat="49.44955" lon="1.15997">
        <ele>76</ele>
        <time>2017-01-24T17:23:27Z</time>
      </trkpt>
      <trkpt lat="49.44952" lon="1.15987">
        <ele>76</ele>
        <time>2017-01-24T17:23:47Z</time>
      </trkpt>
      <trkpt lat="49.44949" lon="1.15981">
        <ele>76</ele>
        <time>2017-01-24T17:23:47Z</time>
      </trkpt>
      <trkpt lat="49.44947" lon="1.15976">
        <ele>76</ele>
        <time>2017-01-24T17:23:47Z</time>
      </trkpt>
      <trkpt lat="49.44945" lon="1.15971">
        <ele>76</ele>
        <time>2017-01-24T17:23:47Z</time>
      </trkpt>
      <trkpt lat="49.44942" lon="1.1596">
        <ele>76</ele>
        <time>2017-01-24T17:24:03Z</time>
      </trkpt>
      <trkpt lat="49.4494" lon="1.15956">
        <ele>68</ele>
        <time>2017-01-24T17:24:03Z</time>
      </trkpt>
      <trkpt lat="49.44937" lon="1.15946">
        <ele>68</ele>
        <time>2017-01-24T17:24:03Z</time>
      </trkpt>
      <trkpt lat="49.44936" lon="1.15943">
        <ele>68</ele>
        <time>2017-01-24T17:24:03Z</time>
      </trkpt>
      <trkpt lat="49.44932" lon="1.15931">
        <ele>68</ele>
        <time>2017-01-24T17:24:20Z</time>
      </trkpt>
      <trkpt lat="49.4493" lon="1.15925">
        <ele>68</ele>
        <time>2017-01-24T17:24:20Z</time>
      </trkpt>
      <trkpt lat="49.44926" lon="1.15915">
        <ele>68</ele>
        <time>2017-01-24T17:24:20Z</time>
      </trkpt>
      <trkpt lat="49.44924" lon="1.15909">
        <ele>68</ele>
        <time>2017-01-24T17:24:20Z</time>
      </trkpt>
      <trkpt lat="49.44922" lon="1.15903">
        <ele>68</ele>
        <time>2017-01-24T17:24:35Z</time>
      </trkpt>
      <trkpt lat="49.44919" lon="1.15896">
        <ele>68</ele>
        <time>2017-01-24T17:24:35Z</time>
      </trkpt>
      <trkpt lat="49.44916" lon="1.15889">
        <ele>68</ele>
        <time>2017-01-24T17:24:35Z</time>
      </trkpt>
      <trkpt lat="49.44914" lon="1.15883">
        <ele>68</ele>
        <time>2017-01-24T17:24:35Z</time>
      </trkpt>
      <trkpt lat="49.44906" lon="1.15864">
        <ele>53</ele>
        <time>2017-01-24T17:25:00Z</time>
      </trkpt>
      <trkpt lat="49.44903" lon="1.15855">
        <ele>53</ele>
        <time>2017-01-24T17:25:00Z</time>
      </trkpt>
      <trkpt lat="49.449" lon="1.15846">
        <ele>53</ele>
        <time>2017-01-24T17:25:00Z</time>
      </trkpt>
      <trkpt lat="49.44898" lon="1.15839">
        <ele>53</ele>
        <time>2017-01-24T17:25:00Z</time>
      </trkpt>
      <trkpt lat="49.44896" lon="1.15834">
        <ele>53</ele>
        <time>2017-01-24T17:25:16Z</time>
      </trkpt>
      <trkpt lat="49.44893" lon="1.15829">
        <ele>53</ele>
        <time>2017-01-24T17:25:16Z</time>
      </trkpt>
      <trkpt lat="49.44891" lon="1.15818">
        <ele>53</ele>
        <time>2017-01-24T17:25:16Z</time>
      </trkpt>
      <trkpt lat="49.44889" lon="1.15812">
        <ele>53</ele>
        <time>2017-01-24T17:25:16Z</time>
      </trkpt>
      <trkpt lat="49.44886" lon="1.15807">
        <ele>53</ele>
        <time>2017-01-24T17:25:31Z</time>
      </trkpt>
      <trkpt lat="49.44882" lon="1.15796">
        <ele>53</ele>
        <time>2017-01-24T17:25:31Z</time>
      </trkpt>
      <trkpt lat="49.44879" lon="1.15791">
        <ele>43</ele>
        <time>2017-01-24T17:25:31Z</time>
      </trkpt>
      <trkpt lat="49.44877" lon="1.15786">
        <ele>43</ele>
        <time>2017-01-24T17:25:31Z</time>
      </trkpt>
      <trkpt lat="49.44875" lon="1.1578">
        <ele>60</ele>
        <time>2017-01-24T17:25:47Z</time>
      </trkpt>
      <trkpt lat="49.44873" lon="1.15772">
        <ele>60</ele>
        <time>2017-01-24T17:25:47Z</time>
      </trkpt>
      <trkpt lat="49.44872" lon="1.15766">
        <ele>60</ele>
        <time>2017-01-24T17:25:47Z</time>
      </trkpt>
      <trkpt lat="49.44871" lon="1.15763">
        <ele>60</ele>
        <time>2017-01-24T17:25:47Z</time>
      </trkpt>
      <trkpt lat="49.44867" lon="1.1575">
        <ele>60</ele>
        <time>2017-01-24T17:26:04Z</time>
      </trkpt>
      <trkpt lat="49.44865" lon="1.15745">
        <ele>60</ele>
        <time>2017-01-24T17:26:04Z</time>
      </trkpt>
      <trkpt lat="49.44863" lon="1.15737">
        <ele>60</ele>
        <time>2017-01-24T17:26:04Z</time>
      </trkpt>
      <trkpt lat="49.4486" lon="1.1573">
        <ele>60</ele>
        <time>2017-01-24T17:26:04Z</time>
      </trkpt>
      <trkpt lat="49.4486" lon="1.15725">
        <ele>60</ele>
        <time>2017-01-24T17:26:19Z</time>
      </trkpt>
      <trkpt lat="49.44858" lon="1.15719">
        <ele>60</ele>
        <time>2017-01-24T17:26:19Z</time>
      </trkpt>
      <trkpt lat="49.44856" lon="1.15712">
        <ele>60</ele>
        <time>2017-01-24T17:26:19Z</time>
      </trkpt>
      <trkpt lat="49.44854" lon="1.15704">
        <ele>50</ele>
        <time>2017-01-24T17:26:19Z</time>
      </trkpt>
      <trkpt lat="49.44852" lon="1.15696">
        <ele>50</ele>
        <time>2017-01-24T17:26:35Z</time>
      </trkpt>
      <trkpt lat="49.4485" lon="1.15688">
        <ele>50</ele>
        <time>2017-01-24T17:26:35Z</time>
      </trkpt>
      <trkpt lat="49.44847" lon="1.15681">
        <ele>50</ele>
        <time>2017-01-24T17:26:35Z</time>
      </trkpt>
      <trkpt lat="49.44845" lon="1.15674">
        <ele>50</ele>
        <time>2017-01-24T17:26:35Z</time>
      </trkpt>
      <trkpt lat="49.44841" lon="1.15667">
        <ele>50</ele>
        <time>2017-01-24T17:26:51Z</time>
      </trkpt>
      <trkpt lat="49.44837" lon="1.15659">
        <ele>50</ele>
        <time>2017-01-24T17:26:51Z</time>
      </trkpt>
      <trkpt lat="49.44834" lon="1.15657">
        <ele>50</ele>
        <time>2017-01-24T17:26:51Z</time>
      </trkpt>
      <trkpt lat="49.44832" lon="1.15651">
        <ele>50</ele>
        <time>2017-01-24T17:26:51Z</time>
      </trkpt>
      <trkpt lat="49.4483" lon="1.15646">
        <ele>50</ele>
        <time>2017-01-24T17:27:07Z</time>
      </trkpt>
      <trkpt lat="49.44827" lon="1.15641">
        <ele>50</ele>
        <time>2017-01-24T17:27:07Z</time>
      </trkpt>
      <trkpt lat="49.44824" lon="1.15635">
        <ele>50</ele>
        <time>2017-01-24T17:27:07Z</time>
      </trkpt>
      <trkpt lat="49.44822" lon="1.15632">
        <ele>50</ele>
        <time>2017-01-24T17:27:07Z</time>
      </trkpt>
      <trkpt lat="49.44821" lon="1.15629">
        <ele>50</ele>
        <time>2017-01-24T17:27:23Z</time>
      </trkpt>
      <trkpt lat="49.44816" lon="1.15621">
        <ele>42</ele>
        <time>2017-01-24T17:27:23Z</time>
      </trkpt>
      <trkpt lat="49.44813" lon="1.15615">
        <ele>42</ele>
        <time>2017-01-24T17:27:23Z</time>
      </trkpt>
      <trkpt lat="49.4481" lon="1.1561">
        <ele>42</ele>
        <time>2017-01-24T17:27:23Z</time>
      </trkpt>
      <trkpt lat="49.44806" lon="1.15601">
        <ele>42</ele>
        <time>2017-01-24T17:27:39Z</time>
      </trkpt>
      <trkpt lat="49.44803" lon="1.15594">
        <ele>42</ele>
        <time>2017-01-24T17:27:39Z</time>
      </trkpt>
      <trkpt lat="49.44799" lon="1.15586">
        <ele>42</ele>
        <time>2017-01-24T17:27:39Z</time>
      </trkpt>
      <trkpt lat="49.44797" lon="1.15582">
        <ele>42</ele>
        <time>2017-01-24T17:27:39Z</time>
      </trkpt>
      <trkpt lat="49.44795" lon="1.15576">
        <ele>42</ele>
        <time>2017-01-24T17:27:56Z</time>
      </trkpt>
      <trkpt lat="49.44792" lon="1.15569">
        <ele>42</ele>
        <time>2017-01-24T17:27:56Z</time>
      </trkpt>
      <trkpt lat="49.4479" lon="1.15562">
        <ele>49</ele>
        <time>2017-01-24T17:27:56Z</time>
      </trkpt>
      <trkpt lat="49.44788" lon="1.15554">
        <ele>49</ele>
        <time>2017-01-24T17:27:56Z</time>
      </trkpt>
      <trkpt lat="49.44787" lon="1.15548">
        <ele>49</ele>
        <time>2017-01-24T17:28:11Z</time>
      </trkpt>
      <trkpt lat="49.44784" lon="1.15541">
        <ele>40</ele>
        <time>2017-01-24T17:28:11Z</time>
      </trkpt>
      <trkpt lat="49.44782" lon="1.15534">
        <ele>40</ele>
        <time>2017-01-24T17:28:11Z</time>
      </trkpt>
      <trkpt lat="49.4478" lon="1.15525">
        <ele>40</ele>
        <time>2017-01-24T17:28:11Z</time>
      </trkpt>
      <trkpt lat="49.44778" lon="1.1552">
        <ele>40</ele>
        <time>2017-01-24T17:28:27Z</time>
      </trkpt>
      <trkpt lat="49.44776" lon="1.15512">
        <ele>40</ele>
        <time>2017-01-24T17:28:27Z</time>
      </trkpt>
      <trkpt lat="49.44774" lon="1.15508">
        <ele>40</ele>
        <time>2017-01-24T17:28:27Z</time>
      </trkpt>
      <trkpt lat="49.44772" lon="1.15501">
        <ele>40</ele>
        <time>2017-01-24T17:28:27Z</time>
      </trkpt>
      <trkpt lat="49.44771" lon="1.15494">
        <ele>40</ele>
        <time>2017-01-24T17:28:43Z</time>
      </trkpt>
      <trkpt lat="49.4477" lon="1.15488">
        <ele>40</ele>
        <time>2017-01-24T17:28:43Z</time>
      </trkpt>
      <trkpt lat="49.44767" lon="1.15478">
        <ele>40</ele>
        <time>2017-01-24T17:28:43Z</time>
      </trkpt>
      <trkpt lat="49.44764" lon="1.1547">
        <ele>40</ele>
        <time>2017-01-24T17:28:43Z</time>
      </trkpt>
      <trkpt lat="49.44763" lon="1.15464">
        <ele>40</ele>
        <time>2017-01-24T17:28:59Z</time>
      </trkpt>
      <trkpt lat="49.44762" lon="1.15456">
        <ele>36</ele>
        <time>2017-01-24T17:28:59Z</time>
      </trkpt>
      <trkpt lat="49.44761" lon="1.15449">
        <ele>36</ele>
        <time>2017-01-24T17:28:59Z</time>
      </trkpt>
      <trkpt lat="49.44759" lon="1.15442">
        <ele>36</ele>
        <time>2017-01-24T17:28:59Z</time>
      </trkpt>
      <trkpt lat="49.44758" lon="1.15436">
        <ele>36</ele>
        <time>2017-01-24T17:29:15Z</time>
      </trkpt>
      <trkpt lat="49.44757" lon="1.15431">
        <ele>36</ele>
        <time>2017-01-24T17:29:15Z</time>
      </trkpt>
      <trkpt lat="49.44756" lon="1.15426">
        <ele>36</ele>
        <time>2017-01-24T17:29:15Z</time>
      </trkpt>
      <trkpt lat="49.44756" lon="1.15422">
        <ele>36</ele>
        <time>2017-01-24T17:29:15Z</time>
      </trkpt>
      <trkpt lat="49.44755" lon="1.15419">
        <ele>36</ele>
        <time>2017-01-24T17:29:35Z</time>
      </trkpt>
      <trkpt lat="49.44754" lon="1.15417">
        <ele>36</ele>
        <time>2017-01-24T17:29:35Z</time>
      </trkpt>
      <trkpt lat="49.4475" lon="1.15418">
        <ele>36</ele>
        <time>2017-01-24T17:29:35Z</time>
      </trkpt>
      <trkpt lat="49.4475" lon="1.15419">
        <ele>36</ele>
        <time>2017-01-24T17:29:36Z</time>
      </trkpt>
      <trkpt lat="49.44743" lon="1.15429">
        <ele>36</ele>
        <time>2017-01-24T17:29:36Z</time>
      </trkpt>
      <trkpt lat="49.44741" lon="1.15432">
        <ele>36</ele>
        <time>2017-01-24T17:29:51Z</time>
      </trkpt>
      <trkpt lat="49.44737" lon="1.15439">
        <ele>36</ele>
        <time>2017-01-24T17:29:51Z</time>
      </trkpt>
      <trkpt lat="49.44734" lon="1.15444">
        <ele>36</ele>
        <time>2017-01-24T17:29:51Z</time>
      </trkpt>
      <trkpt lat="49.4473" lon="1.1545">
        <ele>36</ele>
        <time>2017-01-24T17:29:51Z</time>
      </trkpt>
      <trkpt lat="49.44727" lon="1.15453">
        <ele>36</ele>
        <time>2017-01-24T17:30:07Z</time>
      </trkpt>
      <trkpt lat="49.44724" lon="1.15459">
        <ele>40</ele>
        <time>2017-01-24T17:30:07Z</time>
      </trkpt>
      <trkpt lat="49.44721" lon="1.15464">
        <ele>40</ele>
        <time>2017-01-24T17:30:07Z</time>
      </trkpt>
      <trkpt lat="49.44718" lon="1.15467">
        <ele>40</ele>
        <time>2017-01-24T17:30:07Z</time>
      </trkpt>
      <trkpt lat="49.44714" lon="1.15472">
        <ele>40</ele>
        <time>2017-01-24T17:30:23Z</time>
      </trkpt>
      <trkpt lat="49.4471" lon="1.15477">
        <ele>40</ele>
        <time>2017-01-24T17:30:23Z</time>
      </trkpt>
      <trkpt lat="49.44707" lon="1.15483">
        <ele>38</ele>
        <time>2017-01-24T17:30:23Z</time>
      </trkpt>
      <trkpt lat="49.44704" lon="1.15486">
        <ele>38</ele>
        <time>2017-01-24T17:30:23Z</time>
      </trkpt>
      <trkpt lat="49.44702" lon="1.15492">
        <ele>38</ele>
        <time>2017-01-24T17:30:39Z</time>
      </trkpt>
      <trkpt lat="49.44698" lon="1.15498">
        <ele>38</ele>
        <time>2017-01-24T17:30:39Z</time>
      </trkpt>
      <trkpt lat="49.44694" lon="1.15502">
        <ele>38</ele>
        <time>2017-01-24T17:30:39Z</time>
      </trkpt>
      <trkpt lat="49.4469" lon="1.15507">
        <ele>38</ele>
        <time>2017-01-24T17:30:39Z</time>
      </trkpt>
      <trkpt lat="49.44685" lon="1.15513">
        <ele>38</ele>
        <time>2017-01-24T17:30:56Z</time>
      </trkpt>
      <trkpt lat="49.44682" lon="1.15517">
        <ele>38</ele>
        <time>2017-01-24T17:30:56Z</time>
      </trkpt>
      <trkpt lat="49.44678" lon="1.15523">
        <ele>38</ele>
        <time>2017-01-24T17:30:56Z</time>
      </trkpt>
      <trkpt lat="49.44674" lon="1.15528">
        <ele>38</ele>
        <time>2017-01-24T17:30:56Z</time>
      </trkpt>
      <trkpt lat="49.44672" lon="1.15531">
        <ele>38</ele>
        <time>2017-01-24T17:31:11Z</time>
      </trkpt>
      <trkpt lat="49.44667" lon="1.15536">
        <ele>38</ele>
        <time>2017-01-24T17:31:11Z</time>
      </trkpt>
      <trkpt lat="49.44662" lon="1.1554">
        <ele>38</ele>
        <time>2017-01-24T17:31:11Z</time>
      </trkpt>
      <trkpt lat="49.44659" lon="1.15546">
        <ele>42</ele>
        <time>2017-01-24T17:31:11Z</time>
      </trkpt>
      <trkpt lat="49.44658" lon="1.15551">
        <ele>42</ele>
        <time>2017-01-24T17:31:28Z</time>
      </trkpt>
      <trkpt lat="49.4466" lon="1.1556">
        <ele>42</ele>
        <time>2017-01-24T17:31:28Z</time>
      </trkpt>
      <trkpt lat="49.44663" lon="1.15565">
        <ele>42</ele>
        <time>2017-01-24T17:31:28Z</time>
      </trkpt>
      <trkpt lat="49.44666" lon="1.15573">
        <ele>42</ele>
        <time>2017-01-24T17:31:28Z</time>
      </trkpt>
      <trkpt lat="49.44664" lon="1.15586">
        <ele>42</ele>
        <time>2017-01-24T17:31:47Z</time>
      </trkpt>
      <trkpt lat="49.44658" lon="1.15595">
        <ele>42</ele>
        <time>2017-01-24T17:31:47Z</time>
      </trkpt>
      <trkpt lat="49.44658" lon="1.15597">
        <ele>42</ele>
        <time>2017-01-24T17:31:47Z</time>
      </trkpt>
      <trkpt lat="49.44654" lon="1.15606">
        <ele>42</ele>
        <time>2017-01-24T17:31:47Z</time>
      </trkpt>
      <trkpt lat="49.44651" lon="1.15611">
        <ele>42</ele>
        <time>2017-01-24T17:32:03Z</time>
      </trkpt>
      <trkpt lat="49.44648" lon="1.15619">
        <ele>42</ele>
        <time>2017-01-24T17:32:03Z</time>
      </trkpt>
      <trkpt lat="49.44644" lon="1.15625">
        <ele>54</ele>
        <time>2017-01-24T17:32:03Z</time>
      </trkpt>
      <trkpt lat="49.44642" lon="1.15631">
        <ele>54</ele>
        <time>2017-01-24T17:32:03Z</time>
      </trkpt>
      <trkpt lat="49.44639" lon="1.15636">
        <ele>54</ele>
        <time>2017-01-24T17:32:20Z</time>
      </trkpt>
      <trkpt lat="49.44635" lon="1.15643">
        <ele>54</ele>
        <time>2017-01-24T17:32:20Z</time>
      </trkpt>
      <trkpt lat="49.44632" lon="1.15651">
        <ele>54</ele>
        <time>2017-01-24T17:32:20Z</time>
      </trkpt>
      <trkpt lat="49.4463" lon="1.15657">
        <ele>54</ele>
        <time>2017-01-24T17:32:20Z</time>
      </trkpt>
      <trkpt lat="49.44628" lon="1.15662">
        <ele>54</ele>
        <time>2017-01-24T17:32:35Z</time>
      </trkpt>
      <trkpt lat="49.44624" lon="1.15669">
        <ele>41</ele>
        <time>2017-01-24T17:32:35Z</time>
      </trkpt>
      <trkpt lat="49.44621" lon="1.15678">
        <ele>41</ele>
        <time>2017-01-24T17:32:35Z</time>
      </trkpt>
      <trkpt lat="49.44619" lon="1.15683">
        <ele>41</ele>
        <time>2017-01-24T17:32:35Z</time>
      </trkpt>
      <trkpt lat="49.44613" lon="1.15699">
        <ele>41</ele>
        <time>2017-01-24T17:32:55Z</time>
      </trkpt>
      <trkpt lat="49.44611" lon="1.15706">
        <ele>41</ele>
        <time>2017-01-24T17:32:55Z</time>
      </trkpt>
      <trkpt lat="49.44607" lon="1.15711">
        <ele>47</ele>
        <time>2017-01-24T17:32:55Z</time>
      </trkpt>
      <trkpt lat="49.44605" lon="1.15718">
        <ele>47</ele>
        <time>2017-01-24T17:32:55Z</time>
      </trkpt>
      <trkpt lat="49.44603" lon="1.15721">
        <ele>47</ele>
        <time>2017-01-24T17:33:11Z</time>
      </trkpt>
      <trkpt lat="49.446" lon="1.15728">
        <ele>47</ele>
        <time>2017-01-24T17:33:11Z</time>
      </trkpt>
      <trkpt lat="49.44593" lon="1.15738">
        <ele>47</ele>
        <time>2017-01-24T17:33:11Z</time>
      </trkpt>
      <trkpt lat="49.44592" lon="1.15741">
        <ele>47</ele>
        <time>2017-01-24T17:33:11Z</time>
      </trkpt>
      <trkpt lat="49.44587" lon="1.15749">
        <ele>47</ele>
        <time>2017-01-24T17:33:27Z</time>
      </trkpt>
      <trkpt lat="49.44583" lon="1.15755">
        <ele>47</ele>
        <time>2017-01-24T17:33:27Z</time>
      </trkpt>
      <trkpt lat="49.44581" lon="1.15759">
        <ele>47</ele>
        <time>2017-01-24T17:33:27Z</time>
      </trkpt>
      <trkpt lat="49.44578" lon="1.15767">
        <ele>47</ele>
        <time>2017-01-24T17:33:27Z</time>
      </trkpt>
      <trkpt lat="49.44575" lon="1.15774">
        <ele>47</ele>
        <time>2017-01-24T17:33:43Z</time>
      </trkpt>
      <trkpt lat="49.44573" lon="1.1578">
        <ele>47</ele>
        <time>2017-01-24T17:33:43Z</time>
      </trkpt>
      <trkpt lat="49.44572" lon="1.15787">
        <ele>47</ele>
        <time>2017-01-24T17:33:43Z</time>
      </trkpt>
      <trkpt lat="49.4457" lon="1.15794">
        <ele>55</ele>
        <time>2017-01-24T17:33:43Z</time>
      </trkpt>
      <trkpt lat="49.44569" lon="1.15801">
        <ele>55</ele>
        <time>2017-01-24T17:33:59Z</time>
      </trkpt>
      <trkpt lat="49.44567" lon="1.15809">
        <ele>55</ele>
        <time>2017-01-24T17:33:59Z</time>
      </trkpt>
      <trkpt lat="49.44566" lon="1.15815">
        <ele>55</ele>
        <time>2017-01-24T17:33:59Z</time>
      </trkpt>
      <trkpt lat="49.44563" lon="1.15821">
        <ele>55</ele>
        <time>2017-01-24T17:33:59Z</time>
      </trkpt>
      <trkpt lat="49.44561" lon="1.15827">
        <ele>55</ele>
        <time>2017-01-24T17:34:15Z</time>
      </trkpt>
      <trkpt lat="49.44558" lon="1.15832">
        <ele>55</ele>
        <time>2017-01-24T17:34:15Z</time>
      </trkpt>
      <trkpt lat="49.44556" lon="1.1584">
        <ele>55</ele>
        <time>2017-01-24T17:34:15Z</time>
      </trkpt>
      <trkpt lat="49.44554" lon="1.15846">
        <ele>55</ele>
        <time>2017-01-24T17:34:15Z</time>
      </trkpt>
      <trkpt lat="49.44551" lon="1.15852">
        <ele>55</ele>
        <time>2017-01-24T17:34:31Z</time>
      </trkpt>
      <trkpt lat="49.44548" lon="1.15858">
        <ele>55</ele>
        <time>2017-01-24T17:34:31Z</time>
      </trkpt>
      <trkpt lat="49.44544" lon="1.15866">
        <ele>55</ele>
        <time>2017-01-24T17:34:31Z</time>
      </trkpt>
      <trkpt lat="49.44542" lon="1.15872">
        <ele>55</ele>
        <time>2017-01-24T17:34:31Z</time>
      </trkpt>
      <trkpt lat="49.44539" lon="1.15878">
        <ele>53</ele>
        <time>2017-01-24T17:34:48Z</time>
      </trkpt>
      <trkpt lat="49.44537" lon="1.15883">
        <ele>53</ele>
        <time>2017-01-24T17:34:48Z</time>
      </trkpt>
      <trkpt lat="49.44536" lon="1.15889">
        <ele>53</ele>
        <time>2017-01-24T17:34:48Z</time>
      </trkpt>
      <trkpt lat="49.44534" lon="1.15895">
        <ele>53</ele>
        <time>2017-01-24T17:34:48Z</time>
      </trkpt>
      <trkpt lat="49.44531" lon="1.15898">
        <ele>53</ele>
        <time>2017-01-24T17:35:04Z</time>
      </trkpt>
      <trkpt lat="49.44528" lon="1.15904">
        <ele>53</ele>
        <time>2017-01-24T17:35:04Z</time>
      </trkpt>
      <trkpt lat="49.44524" lon="1.15913">
        <ele>53</ele>
        <time>2017-01-24T17:35:04Z</time>
      </trkpt>
      <trkpt lat="49.44523" lon="1.15919">
        <ele>53</ele>
        <time>2017-01-24T17:35:04Z</time>
      </trkpt>
      <trkpt lat="49.44517" lon="1.15931">
        <ele>53</ele>
        <time>2017-01-24T17:35:23Z</time>
      </trkpt>
      <trkpt lat="49.44513" lon="1.15937">
        <ele>53</ele>
        <time>2017-01-24T17:35:23Z</time>
      </trkpt>
      <trkpt lat="49.44511" lon="1.15942">
        <ele>53</ele>
        <time>2017-01-24T17:35:23Z</time>
      </trkpt>
      <trkpt lat="49.44508" lon="1.1595">
        <ele>53</ele>
        <time>2017-01-24T17:35:23Z</time>
      </trkpt>
      <trkpt lat="49.44504" lon="1.15957">
        <ele>53</ele>
        <time>2017-01-24T17:35:43Z</time>
      </trkpt>
      <trkpt lat="49.44501" lon="1.15964">
        <ele>52</ele>
        <time>2017-01-24T17:35:43Z</time>
      </trkpt>
      <trkpt lat="49.44499" lon="1.15971">
        <ele>52</ele>
        <time>2017-01-24T17:35:44Z</time>
      </trkpt>
      <trkpt lat="49.44493" lon="1.15986">
        <ele>52</ele>
        <time>2017-01-24T17:35:44Z</time>
      </trkpt>
      <trkpt lat="49.44492" lon="1.15991">
        <ele>52</ele>
        <time>2017-01-24T17:36:00Z</time>
      </trkpt>
      <trkpt lat="49.4449" lon="1.15998">
        <ele>52</ele>
        <time>2017-01-24T17:36:00Z</time>
      </trkpt>
      <trkpt lat="49.44487" lon="1.16004">
        <ele>52</ele>
        <time>2017-01-24T17:36:00Z</time>
      </trkpt>
      <trkpt lat="49.44485" lon="1.1601">
        <ele>52</ele>
        <time>2017-01-24T17:36:00Z</time>
      </trkpt>
      <trkpt lat="49.44483" lon="1.16015">
        <ele>52</ele>
        <time>2017-01-24T17:36:15Z</time>
      </trkpt>
      <trkpt lat="49.44481" lon="1.1602">
        <ele>52</ele>
        <time>2017-01-24T17:36:15Z</time>
      </trkpt>
      <trkpt lat="49.44477" lon="1.16029">
        <ele>52</ele>
        <time>2017-01-24T17:36:15Z</time>
      </trkpt>
      <trkpt lat="49.44475" lon="1.16035">
        <ele>52</ele>
        <time>2017-01-24T17:36:15Z</time>
      </trkpt>
      <trkpt lat="49.44472" lon="1.16044">
        <ele>57</ele>
        <time>2017-01-24T17:36:32Z</time>
      </trkpt>
      <trkpt lat="49.4447" lon="1.16048">
        <ele>57</ele>
        <time>2017-01-24T17:36:32Z</time>
      </trkpt>
      <trkpt lat="49.44466" lon="1.16056">
        <ele>57</ele>
        <time>2017-01-24T17:36:32Z</time>
      </trkpt>
      <trkpt lat="49.44464" lon="1.16062">
        <ele>57</ele>
        <time>2017-01-24T17:36:32Z</time>
      </trkpt>
      <trkpt lat="49.44462" lon="1.16067">
        <ele>57</ele>
        <time>2017-01-24T17:36:47Z</time>
      </trkpt>
      <trkpt lat="49.44459" lon="1.16073">
        <ele>57</ele>
        <time>2017-01-24T17:36:47Z</time>
      </trkpt>
      <trkpt lat="49.44457" lon="1.1608">
        <ele>48</ele>
        <time>2017-01-24T17:36:47Z</time>
      </trkpt>
      <trkpt lat="49.44455" lon="1.16089">
        <ele>48</ele>
        <time>2017-01-24T17:36:47Z</time>
      </trkpt>
      <trkpt lat="49.44452" lon="1.16096">
        <ele>48</ele>
        <time>2017-01-24T17:37:15Z</time>
      </trkpt>
      <trkpt lat="49.4445" lon="1.16098">
        <ele>48</ele>
        <time>2017-01-24T17:37:15Z</time>
      </trkpt>
      <trkpt lat="49.44447" lon="1.16099">
        <ele>48</ele>
        <time>2017-01-24T17:37:15Z</time>
      </trkpt>
      <trkpt lat="49.44446" lon="1.16101">
        <ele>48</ele>
        <time>2017-01-24T17:37:15Z</time>
      </trkpt>
      <trkpt lat="49.44445" lon="1.16106">
        <ele>48</ele>
        <time>2017-01-24T17:37:15Z</time>
      </trkpt>
      <trkpt lat="49.44443" lon="1.16113">
        <ele>48</ele>
        <time>2017-01-24T17:37:31Z</time>
      </trkpt>
      <trkpt lat="49.44441" lon="1.16118">
        <ele>48</ele>
        <time>2017-01-24T17:37:31Z</time>
      </trkpt>
      <trkpt lat="49.44437" lon="1.16121">
        <ele>48</ele>
        <time>2017-01-24T17:37:31Z</time>
      </trkpt>
      <trkpt lat="49.44435" lon="1.16118">
        <ele>48</ele>
        <time>2017-01-24T17:37:31Z</time>
      </trkpt>
    </trkseg>
  </trk>
</gpx>